<?xml version="1.0" encoding="UTF-8" standalone="no" ?>
<gpx xmlns="http://www.topografix.com/GPX/1/1" xmlns:xsi="http://www.w3.org/2001/XMLSchema-instance" xsi:schemaLocation="http://www.topografix.com/GPX/1/1 http://www.topografix.com/GPX/1/1/gpx.xsd" version="1.1" creator="VisuGPX - https://www.visugpx.com">
  <metadata>
    <name>Syam,Pont de la Chaux,Chatelneuf,La Billaude.</name>
  </metadata>
  <trk>
    <name><![CDATA[Syam,Pont de la Chaux,Chatelneuf,La Billaude._1]]></name>
    <trkseg>
      <trkpt lat="46.68875" lon="5.94726">
        <ele>529.9</ele>
        <time>2019-11-13T07:23:35Z</time>
      </trkpt>
      <trkpt lat="46.68871" lon="5.94729">
        <ele>530</ele>
        <time>2019-11-13T07:23:39Z</time>
      </trkpt>
      <trkpt lat="46.68866" lon="5.94735">
        <ele>531.9</ele>
        <time>2019-11-13T07:23:48Z</time>
      </trkpt>
      <trkpt lat="46.68864" lon="5.94742">
        <ele>531</ele>
        <time>2019-11-13T07:23:53Z</time>
      </trkpt>
      <trkpt lat="46.68862" lon="5.94748">
        <ele>530.4</ele>
        <time>2019-11-13T07:23:57Z</time>
      </trkpt>
      <trkpt lat="46.6886" lon="5.94754">
        <ele>529.9</ele>
        <time>2019-11-13T07:24:01Z</time>
      </trkpt>
      <trkpt lat="46.68858" lon="5.9476">
        <ele>529.6</ele>
        <time>2019-11-13T07:24:04Z</time>
      </trkpt>
      <trkpt lat="46.68856" lon="5.94768">
        <ele>529.2</ele>
        <time>2019-11-13T07:24:09Z</time>
      </trkpt>
      <trkpt lat="46.68853" lon="5.94773">
        <ele>529</ele>
        <time>2019-11-13T07:24:12Z</time>
      </trkpt>
      <trkpt lat="46.6885" lon="5.9478">
        <ele>528.8</ele>
        <time>2019-11-13T07:24:16Z</time>
      </trkpt>
      <trkpt lat="46.68847" lon="5.94786">
        <ele>528.6</ele>
        <time>2019-11-13T07:24:20Z</time>
      </trkpt>
      <trkpt lat="46.68844" lon="5.94793">
        <ele>528.5</ele>
        <time>2019-11-13T07:24:24Z</time>
      </trkpt>
      <trkpt lat="46.68841" lon="5.94799">
        <ele>528.6</ele>
        <time>2019-11-13T07:24:28Z</time>
      </trkpt>
      <trkpt lat="46.68839" lon="5.94805">
        <ele>528.8</ele>
        <time>2019-11-13T07:24:32Z</time>
      </trkpt>
      <trkpt lat="46.68836" lon="5.94811">
        <ele>529.2</ele>
        <time>2019-11-13T07:24:36Z</time>
      </trkpt>
      <trkpt lat="46.68831" lon="5.94816">
        <ele>529.7</ele>
        <time>2019-11-13T07:24:40Z</time>
      </trkpt>
      <trkpt lat="46.68826" lon="5.94814">
        <ele>530</ele>
        <time>2019-11-13T07:24:43Z</time>
      </trkpt>
      <trkpt lat="46.68821" lon="5.94811">
        <ele>530.2</ele>
        <time>2019-11-13T07:24:46Z</time>
      </trkpt>
      <trkpt lat="46.68818" lon="5.94806">
        <ele>530.2</ele>
        <time>2019-11-13T07:24:50Z</time>
      </trkpt>
      <trkpt lat="46.68815" lon="5.94801">
        <ele>530.2</ele>
        <time>2019-11-13T07:24:54Z</time>
      </trkpt>
      <trkpt lat="46.68813" lon="5.94794">
        <ele>530.2</ele>
        <time>2019-11-13T07:24:58Z</time>
      </trkpt>
      <trkpt lat="46.68811" lon="5.94787">
        <ele>529.9</ele>
        <time>2019-11-13T07:25:03Z</time>
      </trkpt>
      <trkpt lat="46.68809" lon="5.94781">
        <ele>529.5</ele>
        <time>2019-11-13T07:25:07Z</time>
      </trkpt>
      <trkpt lat="46.68807" lon="5.94773">
        <ele>529.1</ele>
        <time>2019-11-13T07:25:11Z</time>
      </trkpt>
      <trkpt lat="46.68806" lon="5.94766">
        <ele>528.9</ele>
        <time>2019-11-13T07:25:15Z</time>
      </trkpt>
      <trkpt lat="46.68805" lon="5.94759">
        <ele>528.8</ele>
        <time>2019-11-13T07:25:19Z</time>
      </trkpt>
      <trkpt lat="46.68803" lon="5.94752">
        <ele>528.8</ele>
        <time>2019-11-13T07:25:23Z</time>
      </trkpt>
      <trkpt lat="46.68802" lon="5.94745">
        <ele>528.8</ele>
        <time>2019-11-13T07:25:27Z</time>
      </trkpt>
      <trkpt lat="46.688" lon="5.94738">
        <ele>528.9</ele>
        <time>2019-11-13T07:25:31Z</time>
      </trkpt>
      <trkpt lat="46.68799" lon="5.94731">
        <ele>528.8</ele>
        <time>2019-11-13T07:25:35Z</time>
      </trkpt>
      <trkpt lat="46.68797" lon="5.94724">
        <ele>528.8</ele>
        <time>2019-11-13T07:25:39Z</time>
      </trkpt>
      <trkpt lat="46.68797" lon="5.94717">
        <ele>528.9</ele>
        <time>2019-11-13T07:25:43Z</time>
      </trkpt>
      <trkpt lat="46.68796" lon="5.9471">
        <ele>528.9</ele>
        <time>2019-11-13T07:25:47Z</time>
      </trkpt>
      <trkpt lat="46.68794" lon="5.94704">
        <ele>528.9</ele>
        <time>2019-11-13T07:25:52Z</time>
      </trkpt>
      <trkpt lat="46.68792" lon="5.94697">
        <ele>528.8</ele>
        <time>2019-11-13T07:25:56Z</time>
      </trkpt>
      <trkpt lat="46.6879" lon="5.9469">
        <ele>528.4</ele>
        <time>2019-11-13T07:26:01Z</time>
      </trkpt>
      <trkpt lat="46.68789" lon="5.94683">
        <ele>528</ele>
        <time>2019-11-13T07:26:06Z</time>
      </trkpt>
      <trkpt lat="46.68787" lon="5.94677">
        <ele>527.7</ele>
        <time>2019-11-13T07:26:10Z</time>
      </trkpt>
      <trkpt lat="46.68786" lon="5.9467">
        <ele>527.4</ele>
        <time>2019-11-13T07:26:14Z</time>
      </trkpt>
      <trkpt lat="46.68785" lon="5.94664">
        <ele>527.2</ele>
        <time>2019-11-13T07:26:18Z</time>
      </trkpt>
      <trkpt lat="46.68783" lon="5.94657">
        <ele>527.2</ele>
        <time>2019-11-13T07:26:23Z</time>
      </trkpt>
      <trkpt lat="46.68783" lon="5.94649">
        <ele>527.1</ele>
        <time>2019-11-13T07:26:28Z</time>
      </trkpt>
      <trkpt lat="46.68782" lon="5.94642">
        <ele>527</ele>
        <time>2019-11-13T07:26:34Z</time>
      </trkpt>
      <trkpt lat="46.68781" lon="5.94635">
        <ele>527</ele>
        <time>2019-11-13T07:26:39Z</time>
      </trkpt>
      <trkpt lat="46.68779" lon="5.94626">
        <ele>526.9</ele>
        <time>2019-11-13T07:26:43Z</time>
      </trkpt>
      <trkpt lat="46.68779" lon="5.94619">
        <ele>526.7</ele>
        <time>2019-11-13T07:26:49Z</time>
      </trkpt>
      <trkpt lat="46.68778" lon="5.94613">
        <ele>526.7</ele>
        <time>2019-11-13T07:26:56Z</time>
      </trkpt>
      <trkpt lat="46.68776" lon="5.94607">
        <ele>526.7</ele>
        <time>2019-11-13T07:27:02Z</time>
      </trkpt>
      <trkpt lat="46.68775" lon="5.946">
        <ele>526.8</ele>
        <time>2019-11-13T07:27:06Z</time>
      </trkpt>
      <trkpt lat="46.68772" lon="5.94594">
        <ele>527</ele>
        <time>2019-11-13T07:27:11Z</time>
      </trkpt>
      <trkpt lat="46.68768" lon="5.94588">
        <ele>527.1</ele>
        <time>2019-11-13T07:27:16Z</time>
      </trkpt>
      <trkpt lat="46.68765" lon="5.94583">
        <ele>527</ele>
        <time>2019-11-13T07:27:21Z</time>
      </trkpt>
      <trkpt lat="46.6876" lon="5.94578">
        <ele>527.1</ele>
        <time>2019-11-13T07:27:26Z</time>
      </trkpt>
      <trkpt lat="46.68757" lon="5.94573">
        <ele>527</ele>
        <time>2019-11-13T07:27:30Z</time>
      </trkpt>
      <trkpt lat="46.68753" lon="5.94569">
        <ele>526.8</ele>
        <time>2019-11-13T07:27:35Z</time>
      </trkpt>
      <trkpt lat="46.68749" lon="5.94566">
        <ele>526.7</ele>
        <time>2019-11-13T07:27:41Z</time>
      </trkpt>
      <trkpt lat="46.68744" lon="5.94565">
        <ele>526.5</ele>
        <time>2019-11-13T07:27:46Z</time>
      </trkpt>
      <trkpt lat="46.68738" lon="5.94565">
        <ele>526</ele>
        <time>2019-11-13T07:27:51Z</time>
      </trkpt>
      <trkpt lat="46.68733" lon="5.94563">
        <ele>525.2</ele>
        <time>2019-11-13T07:27:57Z</time>
      </trkpt>
      <trkpt lat="46.6873" lon="5.94558">
        <ele>523.9</ele>
        <time>2019-11-13T07:28:05Z</time>
      </trkpt>
      <trkpt lat="46.68727" lon="5.94553">
        <ele>523.5</ele>
        <time>2019-11-13T07:28:10Z</time>
      </trkpt>
      <trkpt lat="46.68722" lon="5.94551">
        <ele>523.2</ele>
        <time>2019-11-13T07:28:15Z</time>
      </trkpt>
      <trkpt lat="46.68718" lon="5.94548">
        <ele>523.2</ele>
        <time>2019-11-13T07:28:21Z</time>
      </trkpt>
      <trkpt lat="46.68714" lon="5.94543">
        <ele>523.5</ele>
        <time>2019-11-13T07:28:27Z</time>
      </trkpt>
      <trkpt lat="46.6871" lon="5.9454">
        <ele>524</ele>
        <time>2019-11-13T07:28:33Z</time>
      </trkpt>
      <trkpt lat="46.68706" lon="5.94536">
        <ele>524.1</ele>
        <time>2019-11-13T07:28:38Z</time>
      </trkpt>
      <trkpt lat="46.68701" lon="5.94532">
        <ele>524.4</ele>
        <time>2019-11-13T07:28:45Z</time>
      </trkpt>
      <trkpt lat="46.68698" lon="5.94526">
        <ele>524.5</ele>
        <time>2019-11-13T07:28:50Z</time>
      </trkpt>
      <trkpt lat="46.68694" lon="5.94522">
        <ele>524.9</ele>
        <time>2019-11-13T07:28:57Z</time>
      </trkpt>
      <trkpt lat="46.6869" lon="5.94521">
        <ele>525.6</ele>
        <time>2019-11-13T07:29:06Z</time>
      </trkpt>
      <trkpt lat="46.68678" lon="5.94517">
        <ele>529.2</ele>
        <time>2019-11-13T07:29:26Z</time>
      </trkpt>
      <trkpt lat="46.68673" lon="5.94513">
        <ele>530.1</ele>
        <time>2019-11-13T07:29:31Z</time>
      </trkpt>
      <trkpt lat="46.68658" lon="5.94504">
        <ele>537.5</ele>
        <time>2019-11-13T07:29:52Z</time>
      </trkpt>
      <trkpt lat="46.68653" lon="5.94503">
        <ele>538.5</ele>
        <time>2019-11-13T07:29:55Z</time>
      </trkpt>
      <trkpt lat="46.68647" lon="5.94501">
        <ele>539.3</ele>
        <time>2019-11-13T07:29:58Z</time>
      </trkpt>
      <trkpt lat="46.68644" lon="5.94494">
        <ele>540.5</ele>
        <time>2019-11-13T07:30:02Z</time>
      </trkpt>
      <trkpt lat="46.6864" lon="5.9449">
        <ele>542.3</ele>
        <time>2019-11-13T07:30:08Z</time>
      </trkpt>
      <trkpt lat="46.6863" lon="5.94473">
        <ele>548.4</ele>
        <time>2019-11-13T07:30:26Z</time>
      </trkpt>
      <trkpt lat="46.68627" lon="5.94468">
        <ele>550.8</ele>
        <time>2019-11-13T07:30:33Z</time>
      </trkpt>
      <trkpt lat="46.68624" lon="5.94456">
        <ele>555.2</ele>
        <time>2019-11-13T07:30:47Z</time>
      </trkpt>
      <trkpt lat="46.68624" lon="5.94448">
        <ele>555.7</ele>
        <time>2019-11-13T07:30:52Z</time>
      </trkpt>
      <trkpt lat="46.68622" lon="5.94442">
        <ele>556.2</ele>
        <time>2019-11-13T07:30:58Z</time>
      </trkpt>
      <trkpt lat="46.68619" lon="5.94435">
        <ele>556.6</ele>
        <time>2019-11-13T07:31:03Z</time>
      </trkpt>
      <trkpt lat="46.68615" lon="5.94429">
        <ele>557.1</ele>
        <time>2019-11-13T07:31:08Z</time>
      </trkpt>
      <trkpt lat="46.68612" lon="5.94424">
        <ele>557.4</ele>
        <time>2019-11-13T07:31:11Z</time>
      </trkpt>
      <trkpt lat="46.68599" lon="5.944">
        <ele>557.9</ele>
        <time>2019-11-13T07:31:55Z</time>
      </trkpt>
      <trkpt lat="46.68595" lon="5.94395">
        <ele>557.9</ele>
        <time>2019-11-13T07:31:57Z</time>
      </trkpt>
      <trkpt lat="46.68576" lon="5.94375">
        <ele>557.5</ele>
        <time>2019-11-13T07:32:18Z</time>
      </trkpt>
      <trkpt lat="46.68564" lon="5.94359">
        <ele>557.4</ele>
        <time>2019-11-13T07:32:32Z</time>
      </trkpt>
      <trkpt lat="46.68559" lon="5.94351">
        <ele>556.8</ele>
        <time>2019-11-13T07:32:46Z</time>
      </trkpt>
      <trkpt lat="46.6855" lon="5.94338">
        <ele>558</ele>
        <time>2019-11-13T07:32:58Z</time>
      </trkpt>
      <trkpt lat="46.68547" lon="5.94333">
        <ele>558.1</ele>
        <time>2019-11-13T07:33:01Z</time>
      </trkpt>
      <trkpt lat="46.68544" lon="5.94328">
        <ele>558.3</ele>
        <time>2019-11-13T07:33:09Z</time>
      </trkpt>
      <trkpt lat="46.68539" lon="5.94326">
        <ele>558.5</ele>
        <time>2019-11-13T07:33:16Z</time>
      </trkpt>
      <trkpt lat="46.68534" lon="5.94323">
        <ele>558.7</ele>
        <time>2019-11-13T07:33:21Z</time>
      </trkpt>
      <trkpt lat="46.68529" lon="5.94321">
        <ele>558.8</ele>
        <time>2019-11-13T07:33:24Z</time>
      </trkpt>
      <trkpt lat="46.68517" lon="5.9432">
        <ele>558.8</ele>
        <time>2019-11-13T07:33:38Z</time>
      </trkpt>
      <trkpt lat="46.68509" lon="5.94325">
        <ele>558.9</ele>
        <time>2019-11-13T07:33:54Z</time>
      </trkpt>
      <trkpt lat="46.68504" lon="5.94326">
        <ele>559.7</ele>
        <time>2019-11-13T07:34:02Z</time>
      </trkpt>
      <trkpt lat="46.68489" lon="5.94333">
        <ele>563.2</ele>
        <time>2019-11-13T07:34:19Z</time>
      </trkpt>
      <trkpt lat="46.68484" lon="5.94335">
        <ele>563.7</ele>
        <time>2019-11-13T07:34:22Z</time>
      </trkpt>
      <trkpt lat="46.68479" lon="5.94337">
        <ele>564.6</ele>
        <time>2019-11-13T07:34:26Z</time>
      </trkpt>
      <trkpt lat="46.68461" lon="5.94322">
        <ele>569.5</ele>
        <time>2019-11-13T07:34:56Z</time>
      </trkpt>
      <trkpt lat="46.68451" lon="5.94316">
        <ele>571.4</ele>
        <time>2019-11-13T07:35:10Z</time>
      </trkpt>
      <trkpt lat="46.68447" lon="5.94312">
        <ele>571.5</ele>
        <time>2019-11-13T07:35:15Z</time>
      </trkpt>
      <trkpt lat="46.68442" lon="5.94309">
        <ele>571.5</ele>
        <time>2019-11-13T07:35:21Z</time>
      </trkpt>
      <trkpt lat="46.68438" lon="5.94305">
        <ele>571.4</ele>
        <time>2019-11-13T07:35:27Z</time>
      </trkpt>
      <trkpt lat="46.68434" lon="5.94302">
        <ele>571.2</ele>
        <time>2019-11-13T07:35:31Z</time>
      </trkpt>
      <trkpt lat="46.6843" lon="5.94295">
        <ele>570.8</ele>
        <time>2019-11-13T07:35:35Z</time>
      </trkpt>
      <trkpt lat="46.68421" lon="5.94273">
        <ele>568.1</ele>
        <time>2019-11-13T07:35:57Z</time>
      </trkpt>
      <trkpt lat="46.68418" lon="5.94269">
        <ele>569.2</ele>
        <time>2019-11-13T07:36:05Z</time>
      </trkpt>
      <trkpt lat="46.68415" lon="5.94262">
        <ele>569.9</ele>
        <time>2019-11-13T07:36:09Z</time>
      </trkpt>
      <trkpt lat="46.68411" lon="5.94257">
        <ele>570.4</ele>
        <time>2019-11-13T07:36:14Z</time>
      </trkpt>
      <trkpt lat="46.68409" lon="5.9425">
        <ele>570.4</ele>
        <time>2019-11-13T07:36:19Z</time>
      </trkpt>
      <trkpt lat="46.68406" lon="5.94244">
        <ele>570.4</ele>
        <time>2019-11-13T07:36:24Z</time>
      </trkpt>
      <trkpt lat="46.68403" lon="5.94237">
        <ele>570.6</ele>
        <time>2019-11-13T07:36:28Z</time>
      </trkpt>
      <trkpt lat="46.684" lon="5.94232">
        <ele>571</ele>
        <time>2019-11-13T07:36:34Z</time>
      </trkpt>
      <trkpt lat="46.68398" lon="5.94225">
        <ele>571.5</ele>
        <time>2019-11-13T07:36:38Z</time>
      </trkpt>
      <trkpt lat="46.6839" lon="5.94211">
        <ele>573</ele>
        <time>2019-11-13T07:36:51Z</time>
      </trkpt>
      <trkpt lat="46.68386" lon="5.94206">
        <ele>573.2</ele>
        <time>2019-11-13T07:36:56Z</time>
      </trkpt>
      <trkpt lat="46.68382" lon="5.94204">
        <ele>573.5</ele>
        <time>2019-11-13T07:37:03Z</time>
      </trkpt>
      <trkpt lat="46.68371" lon="5.94198">
        <ele>575.5</ele>
        <time>2019-11-13T07:37:22Z</time>
      </trkpt>
      <trkpt lat="46.68366" lon="5.94194">
        <ele>576.1</ele>
        <time>2019-11-13T07:37:28Z</time>
      </trkpt>
      <trkpt lat="46.68362" lon="5.94189">
        <ele>576.3</ele>
        <time>2019-11-13T07:37:35Z</time>
      </trkpt>
      <trkpt lat="46.68358" lon="5.94185">
        <ele>576</ele>
        <time>2019-11-13T07:37:40Z</time>
      </trkpt>
      <trkpt lat="46.68352" lon="5.94185">
        <ele>575.5</ele>
        <time>2019-11-13T07:37:48Z</time>
      </trkpt>
      <trkpt lat="46.68347" lon="5.94185">
        <ele>575.3</ele>
        <time>2019-11-13T07:37:51Z</time>
      </trkpt>
      <trkpt lat="46.68343" lon="5.94186">
        <ele>575.2</ele>
        <time>2019-11-13T07:37:54Z</time>
      </trkpt>
      <trkpt lat="46.68337" lon="5.94186">
        <ele>575.1</ele>
        <time>2019-11-13T07:38:00Z</time>
      </trkpt>
      <trkpt lat="46.68333" lon="5.94189">
        <ele>575.5</ele>
        <time>2019-11-13T07:38:06Z</time>
      </trkpt>
      <trkpt lat="46.68329" lon="5.94186">
        <ele>575.7</ele>
        <time>2019-11-13T07:38:12Z</time>
      </trkpt>
      <trkpt lat="46.68324" lon="5.94182">
        <ele>576.3</ele>
        <time>2019-11-13T07:38:21Z</time>
      </trkpt>
      <trkpt lat="46.68319" lon="5.94179">
        <ele>576.5</ele>
        <time>2019-11-13T07:38:24Z</time>
      </trkpt>
      <trkpt lat="46.68314" lon="5.94178">
        <ele>576.6</ele>
        <time>2019-11-13T07:38:27Z</time>
      </trkpt>
      <trkpt lat="46.68299" lon="5.94177">
        <ele>577.1</ele>
        <time>2019-11-13T07:38:37Z</time>
      </trkpt>
      <trkpt lat="46.68294" lon="5.94174">
        <ele>577.1</ele>
        <time>2019-11-13T07:38:43Z</time>
      </trkpt>
      <trkpt lat="46.68291" lon="5.94169">
        <ele>577.3</ele>
        <time>2019-11-13T07:38:52Z</time>
      </trkpt>
      <trkpt lat="46.68287" lon="5.94165">
        <ele>577.5</ele>
        <time>2019-11-13T07:39:00Z</time>
      </trkpt>
      <trkpt lat="46.68284" lon="5.9416">
        <ele>577.7</ele>
        <time>2019-11-13T07:39:07Z</time>
      </trkpt>
      <trkpt lat="46.68279" lon="5.94153">
        <ele>577.8</ele>
        <time>2019-11-13T07:39:13Z</time>
      </trkpt>
      <trkpt lat="46.68275" lon="5.9415">
        <ele>578</ele>
        <time>2019-11-13T07:39:16Z</time>
      </trkpt>
      <trkpt lat="46.68273" lon="5.94143">
        <ele>579.5</ele>
        <time>2019-11-13T07:39:24Z</time>
      </trkpt>
      <trkpt lat="46.68268" lon="5.94142">
        <ele>580.3</ele>
        <time>2019-11-13T07:39:29Z</time>
      </trkpt>
      <trkpt lat="46.68264" lon="5.94138">
        <ele>581.3</ele>
        <time>2019-11-13T07:39:39Z</time>
      </trkpt>
      <trkpt lat="46.6826" lon="5.94133">
        <ele>581.7</ele>
        <time>2019-11-13T07:39:45Z</time>
      </trkpt>
      <trkpt lat="46.68256" lon="5.94129">
        <ele>582.2</ele>
        <time>2019-11-13T07:39:53Z</time>
      </trkpt>
      <trkpt lat="46.68253" lon="5.94124">
        <ele>582.6</ele>
        <time>2019-11-13T07:39:59Z</time>
      </trkpt>
      <trkpt lat="46.6825" lon="5.94119">
        <ele>583.3</ele>
        <time>2019-11-13T07:40:10Z</time>
      </trkpt>
      <trkpt lat="46.68246" lon="5.94115">
        <ele>583.3</ele>
        <time>2019-11-13T07:40:18Z</time>
      </trkpt>
      <trkpt lat="46.68242" lon="5.94112">
        <ele>583.5</ele>
        <time>2019-11-13T07:40:21Z</time>
      </trkpt>
      <trkpt lat="46.68238" lon="5.94107">
        <ele>584.3</ele>
        <time>2019-11-13T07:40:28Z</time>
      </trkpt>
      <trkpt lat="46.68234" lon="5.94103">
        <ele>585.1</ele>
        <time>2019-11-13T07:40:36Z</time>
      </trkpt>
      <trkpt lat="46.68231" lon="5.94099">
        <ele>585.7</ele>
        <time>2019-11-13T07:40:42Z</time>
      </trkpt>
      <trkpt lat="46.68226" lon="5.94096">
        <ele>586.4</ele>
        <time>2019-11-13T07:40:47Z</time>
      </trkpt>
      <trkpt lat="46.68223" lon="5.9409">
        <ele>586.7</ele>
        <time>2019-11-13T07:40:50Z</time>
      </trkpt>
      <trkpt lat="46.68214" lon="5.94079">
        <ele>589.3</ele>
        <time>2019-11-13T07:41:07Z</time>
      </trkpt>
      <trkpt lat="46.68209" lon="5.94074">
        <ele>589.8</ele>
        <time>2019-11-13T07:41:12Z</time>
      </trkpt>
      <trkpt lat="46.68205" lon="5.94071">
        <ele>590.4</ele>
        <time>2019-11-13T07:41:16Z</time>
      </trkpt>
      <trkpt lat="46.68201" lon="5.94068">
        <ele>591.6</ele>
        <time>2019-11-13T07:41:24Z</time>
      </trkpt>
      <trkpt lat="46.68196" lon="5.94065">
        <ele>592.1</ele>
        <time>2019-11-13T07:41:27Z</time>
      </trkpt>
      <trkpt lat="46.68191" lon="5.94063">
        <ele>594</ele>
        <time>2019-11-13T07:41:35Z</time>
      </trkpt>
      <trkpt lat="46.68186" lon="5.94059">
        <ele>594.7</ele>
        <time>2019-11-13T07:41:38Z</time>
      </trkpt>
      <trkpt lat="46.68183" lon="5.94054">
        <ele>595.8</ele>
        <time>2019-11-13T07:41:43Z</time>
      </trkpt>
      <trkpt lat="46.68178" lon="5.94053">
        <ele>596.4</ele>
        <time>2019-11-13T07:41:49Z</time>
      </trkpt>
      <trkpt lat="46.68173" lon="5.94051">
        <ele>596.6</ele>
        <time>2019-11-13T07:41:56Z</time>
      </trkpt>
      <trkpt lat="46.68169" lon="5.94049">
        <ele>596.7</ele>
        <time>2019-11-13T07:42:02Z</time>
      </trkpt>
      <trkpt lat="46.68164" lon="5.94044">
        <ele>596.6</ele>
        <time>2019-11-13T07:42:09Z</time>
      </trkpt>
      <trkpt lat="46.6816" lon="5.9404">
        <ele>596.8</ele>
        <time>2019-11-13T07:42:15Z</time>
      </trkpt>
      <trkpt lat="46.68157" lon="5.94032">
        <ele>597</ele>
        <time>2019-11-13T07:42:18Z</time>
      </trkpt>
      <trkpt lat="46.68153" lon="5.94026">
        <ele>597.4</ele>
        <time>2019-11-13T07:42:22Z</time>
      </trkpt>
      <trkpt lat="46.68149" lon="5.94023">
        <ele>597.8</ele>
        <time>2019-11-13T07:42:28Z</time>
      </trkpt>
      <trkpt lat="46.68146" lon="5.94018">
        <ele>598.4</ele>
        <time>2019-11-13T07:42:33Z</time>
      </trkpt>
      <trkpt lat="46.68144" lon="5.94012">
        <ele>598.7</ele>
        <time>2019-11-13T07:42:38Z</time>
      </trkpt>
      <trkpt lat="46.68142" lon="5.94004">
        <ele>598.8</ele>
        <time>2019-11-13T07:42:44Z</time>
      </trkpt>
      <trkpt lat="46.68139" lon="5.93998">
        <ele>598.9</ele>
        <time>2019-11-13T07:42:52Z</time>
      </trkpt>
      <trkpt lat="46.68136" lon="5.93992">
        <ele>598.9</ele>
        <time>2019-11-13T07:42:58Z</time>
      </trkpt>
      <trkpt lat="46.68133" lon="5.93987">
        <ele>598.9</ele>
        <time>2019-11-13T07:43:05Z</time>
      </trkpt>
      <trkpt lat="46.6813" lon="5.9398">
        <ele>598.8</ele>
        <time>2019-11-13T07:43:10Z</time>
      </trkpt>
      <trkpt lat="46.68126" lon="5.93975">
        <ele>598.6</ele>
        <time>2019-11-13T07:43:15Z</time>
      </trkpt>
      <trkpt lat="46.68124" lon="5.93969">
        <ele>598.2</ele>
        <time>2019-11-13T07:43:21Z</time>
      </trkpt>
      <trkpt lat="46.68119" lon="5.93965">
        <ele>597.8</ele>
        <time>2019-11-13T07:43:26Z</time>
      </trkpt>
      <trkpt lat="46.68114" lon="5.93962">
        <ele>597.6</ele>
        <time>2019-11-13T07:43:31Z</time>
      </trkpt>
      <trkpt lat="46.68111" lon="5.93957">
        <ele>597.5</ele>
        <time>2019-11-13T07:43:36Z</time>
      </trkpt>
      <trkpt lat="46.68107" lon="5.93953">
        <ele>597.5</ele>
        <time>2019-11-13T07:43:42Z</time>
      </trkpt>
      <trkpt lat="46.68103" lon="5.93951">
        <ele>597.7</ele>
        <time>2019-11-13T07:43:47Z</time>
      </trkpt>
      <trkpt lat="46.6809" lon="5.93951">
        <ele>598.9</ele>
        <time>2019-11-13T07:44:01Z</time>
      </trkpt>
      <trkpt lat="46.68084" lon="5.93951">
        <ele>599.1</ele>
        <time>2019-11-13T07:44:04Z</time>
      </trkpt>
      <trkpt lat="46.6808" lon="5.93949">
        <ele>599.5</ele>
        <time>2019-11-13T07:44:09Z</time>
      </trkpt>
      <trkpt lat="46.68076" lon="5.93945">
        <ele>600.1</ele>
        <time>2019-11-13T07:44:13Z</time>
      </trkpt>
      <trkpt lat="46.68071" lon="5.93943">
        <ele>601.1</ele>
        <time>2019-11-13T07:44:19Z</time>
      </trkpt>
      <trkpt lat="46.68067" lon="5.93939">
        <ele>602.7</ele>
        <time>2019-11-13T07:44:28Z</time>
      </trkpt>
      <trkpt lat="46.68063" lon="5.93937">
        <ele>603.7</ele>
        <time>2019-11-13T07:44:35Z</time>
      </trkpt>
      <trkpt lat="46.68054" lon="5.93938">
        <ele>604.7</ele>
        <time>2019-11-13T07:44:51Z</time>
      </trkpt>
      <trkpt lat="46.6805" lon="5.93936">
        <ele>605.2</ele>
        <time>2019-11-13T07:44:58Z</time>
      </trkpt>
      <trkpt lat="46.68045" lon="5.93934">
        <ele>605.9</ele>
        <time>2019-11-13T07:45:05Z</time>
      </trkpt>
      <trkpt lat="46.68041" lon="5.9393">
        <ele>606.4</ele>
        <time>2019-11-13T07:45:13Z</time>
      </trkpt>
      <trkpt lat="46.6804" lon="5.93924">
        <ele>606.4</ele>
        <time>2019-11-13T07:45:17Z</time>
      </trkpt>
      <trkpt lat="46.68037" lon="5.93918">
        <ele>606.7</ele>
        <time>2019-11-13T07:45:26Z</time>
      </trkpt>
      <trkpt lat="46.68035" lon="5.93912">
        <ele>606.9</ele>
        <time>2019-11-13T07:45:31Z</time>
      </trkpt>
      <trkpt lat="46.68033" lon="5.93906">
        <ele>607.2</ele>
        <time>2019-11-13T07:45:35Z</time>
      </trkpt>
      <trkpt lat="46.68029" lon="5.93901">
        <ele>607.6</ele>
        <time>2019-11-13T07:45:40Z</time>
      </trkpt>
      <trkpt lat="46.68026" lon="5.93897">
        <ele>608</ele>
        <time>2019-11-13T07:45:45Z</time>
      </trkpt>
      <trkpt lat="46.68021" lon="5.93893">
        <ele>608.6</ele>
        <time>2019-11-13T07:45:52Z</time>
      </trkpt>
      <trkpt lat="46.68017" lon="5.9389">
        <ele>609.1</ele>
        <time>2019-11-13T07:45:58Z</time>
      </trkpt>
      <trkpt lat="46.68012" lon="5.93887">
        <ele>609.7</ele>
        <time>2019-11-13T07:46:06Z</time>
      </trkpt>
      <trkpt lat="46.68008" lon="5.93884">
        <ele>609.9</ele>
        <time>2019-11-13T07:46:12Z</time>
      </trkpt>
      <trkpt lat="46.68004" lon="5.9388">
        <ele>610.1</ele>
        <time>2019-11-13T07:46:19Z</time>
      </trkpt>
      <trkpt lat="46.68" lon="5.93876">
        <ele>610.4</ele>
        <time>2019-11-13T07:46:25Z</time>
      </trkpt>
      <trkpt lat="46.67995" lon="5.93874">
        <ele>610.5</ele>
        <time>2019-11-13T07:46:30Z</time>
      </trkpt>
      <trkpt lat="46.67991" lon="5.9387">
        <ele>610.4</ele>
        <time>2019-11-13T07:46:35Z</time>
      </trkpt>
      <trkpt lat="46.67987" lon="5.93867">
        <ele>610.4</ele>
        <time>2019-11-13T07:46:41Z</time>
      </trkpt>
      <trkpt lat="46.67984" lon="5.93873">
        <ele>610.9</ele>
        <time>2019-11-13T07:46:51Z</time>
      </trkpt>
      <trkpt lat="46.67986" lon="5.93879">
        <ele>611.9</ele>
        <time>2019-11-13T07:47:02Z</time>
      </trkpt>
      <trkpt lat="46.6799" lon="5.93884">
        <ele>612.5</ele>
        <time>2019-11-13T07:47:09Z</time>
      </trkpt>
      <trkpt lat="46.67992" lon="5.9389">
        <ele>613.4</ele>
        <time>2019-11-13T07:47:15Z</time>
      </trkpt>
      <trkpt lat="46.67994" lon="5.93897">
        <ele>614.5</ele>
        <time>2019-11-13T07:47:21Z</time>
      </trkpt>
      <trkpt lat="46.67997" lon="5.93903">
        <ele>616</ele>
        <time>2019-11-13T07:47:28Z</time>
      </trkpt>
      <trkpt lat="46.68" lon="5.93908">
        <ele>617.6</ele>
        <time>2019-11-13T07:47:35Z</time>
      </trkpt>
      <trkpt lat="46.68003" lon="5.93914">
        <ele>618.7</ele>
        <time>2019-11-13T07:47:40Z</time>
      </trkpt>
      <trkpt lat="46.68006" lon="5.9392">
        <ele>619.4</ele>
        <time>2019-11-13T07:47:44Z</time>
      </trkpt>
      <trkpt lat="46.68007" lon="5.93927">
        <ele>620.6</ele>
        <time>2019-11-13T07:47:52Z</time>
      </trkpt>
      <trkpt lat="46.68009" lon="5.93933">
        <ele>621.6</ele>
        <time>2019-11-13T07:48:00Z</time>
      </trkpt>
      <trkpt lat="46.6801" lon="5.9394">
        <ele>622.6</ele>
        <time>2019-11-13T07:48:07Z</time>
      </trkpt>
      <trkpt lat="46.68012" lon="5.93947">
        <ele>623.7</ele>
        <time>2019-11-13T07:48:14Z</time>
      </trkpt>
      <trkpt lat="46.68013" lon="5.93954">
        <ele>624.5</ele>
        <time>2019-11-13T07:48:19Z</time>
      </trkpt>
      <trkpt lat="46.68014" lon="5.93962">
        <ele>625.5</ele>
        <time>2019-11-13T07:48:24Z</time>
      </trkpt>
      <trkpt lat="46.68015" lon="5.93969">
        <ele>626.1</ele>
        <time>2019-11-13T07:48:30Z</time>
      </trkpt>
      <trkpt lat="46.68017" lon="5.93976">
        <ele>626.7</ele>
        <time>2019-11-13T07:48:36Z</time>
      </trkpt>
      <trkpt lat="46.68021" lon="5.93982">
        <ele>627.2</ele>
        <time>2019-11-13T07:48:43Z</time>
      </trkpt>
      <trkpt lat="46.68025" lon="5.93986">
        <ele>627.4</ele>
        <time>2019-11-13T07:48:49Z</time>
      </trkpt>
      <trkpt lat="46.68028" lon="5.93991">
        <ele>627.9</ele>
        <time>2019-11-13T07:48:56Z</time>
      </trkpt>
      <trkpt lat="46.68032" lon="5.93994">
        <ele>628.1</ele>
        <time>2019-11-13T07:49:01Z</time>
      </trkpt>
      <trkpt lat="46.68036" lon="5.93999">
        <ele>628.4</ele>
        <time>2019-11-13T07:49:06Z</time>
      </trkpt>
      <trkpt lat="46.68039" lon="5.94005">
        <ele>628.7</ele>
        <time>2019-11-13T07:49:12Z</time>
      </trkpt>
      <trkpt lat="46.68041" lon="5.94012">
        <ele>629.3</ele>
        <time>2019-11-13T07:49:19Z</time>
      </trkpt>
      <trkpt lat="46.68046" lon="5.94022">
        <ele>630.6</ele>
        <time>2019-11-13T07:49:32Z</time>
      </trkpt>
      <trkpt lat="46.6805" lon="5.94026">
        <ele>631.3</ele>
        <time>2019-11-13T07:49:40Z</time>
      </trkpt>
      <trkpt lat="46.68053" lon="5.94031">
        <ele>631.7</ele>
        <time>2019-11-13T07:49:47Z</time>
      </trkpt>
      <trkpt lat="46.68058" lon="5.94035">
        <ele>632.2</ele>
        <time>2019-11-13T07:49:54Z</time>
      </trkpt>
      <trkpt lat="46.68061" lon="5.9404">
        <ele>632.7</ele>
        <time>2019-11-13T07:50:00Z</time>
      </trkpt>
      <trkpt lat="46.68064" lon="5.94045">
        <ele>633.4</ele>
        <time>2019-11-13T07:50:06Z</time>
      </trkpt>
      <trkpt lat="46.68069" lon="5.94048">
        <ele>634.1</ele>
        <time>2019-11-13T07:50:12Z</time>
      </trkpt>
      <trkpt lat="46.68072" lon="5.94052">
        <ele>634.6</ele>
        <time>2019-11-13T07:50:18Z</time>
      </trkpt>
      <trkpt lat="46.68077" lon="5.94056">
        <ele>635.3</ele>
        <time>2019-11-13T07:50:25Z</time>
      </trkpt>
      <trkpt lat="46.6808" lon="5.9406">
        <ele>635.6</ele>
        <time>2019-11-13T07:50:30Z</time>
      </trkpt>
      <trkpt lat="46.68083" lon="5.94066">
        <ele>635.6</ele>
        <time>2019-11-13T07:50:35Z</time>
      </trkpt>
      <trkpt lat="46.68083" lon="5.94073">
        <ele>635.2</ele>
        <time>2019-11-13T07:50:41Z</time>
      </trkpt>
      <trkpt lat="46.68085" lon="5.9408">
        <ele>635</ele>
        <time>2019-11-13T07:50:45Z</time>
      </trkpt>
      <trkpt lat="46.68086" lon="5.94087">
        <ele>634.8</ele>
        <time>2019-11-13T07:50:52Z</time>
      </trkpt>
      <trkpt lat="46.6809" lon="5.94092">
        <ele>634.9</ele>
        <time>2019-11-13T07:51:01Z</time>
      </trkpt>
      <trkpt lat="46.68092" lon="5.94099">
        <ele>635.4</ele>
        <time>2019-11-13T07:51:09Z</time>
      </trkpt>
      <trkpt lat="46.68096" lon="5.94103">
        <ele>635.9</ele>
        <time>2019-11-13T07:51:13Z</time>
      </trkpt>
      <trkpt lat="46.68099" lon="5.9411">
        <ele>636.9</ele>
        <time>2019-11-13T07:51:20Z</time>
      </trkpt>
      <trkpt lat="46.68101" lon="5.94116">
        <ele>638.5</ele>
        <time>2019-11-13T07:51:30Z</time>
      </trkpt>
      <trkpt lat="46.68105" lon="5.9412">
        <ele>639.5</ele>
        <time>2019-11-13T07:51:38Z</time>
      </trkpt>
      <trkpt lat="46.68107" lon="5.94126">
        <ele>640.2</ele>
        <time>2019-11-13T07:51:45Z</time>
      </trkpt>
      <trkpt lat="46.68111" lon="5.9413">
        <ele>641.1</ele>
        <time>2019-11-13T07:51:54Z</time>
      </trkpt>
      <trkpt lat="46.68115" lon="5.94134">
        <ele>642.2</ele>
        <time>2019-11-13T07:52:02Z</time>
      </trkpt>
      <trkpt lat="46.68119" lon="5.94139">
        <ele>643.3</ele>
        <time>2019-11-13T07:52:09Z</time>
      </trkpt>
      <trkpt lat="46.68126" lon="5.94145">
        <ele>646.1</ele>
        <time>2019-11-13T07:52:21Z</time>
      </trkpt>
      <trkpt lat="46.6813" lon="5.94151">
        <ele>646.9</ele>
        <time>2019-11-13T07:52:25Z</time>
      </trkpt>
      <trkpt lat="46.68132" lon="5.94158">
        <ele>647.8</ele>
        <time>2019-11-13T07:52:29Z</time>
      </trkpt>
      <trkpt lat="46.68134" lon="5.94164">
        <ele>648.6</ele>
        <time>2019-11-13T07:52:34Z</time>
      </trkpt>
      <trkpt lat="46.68134" lon="5.94172">
        <ele>649</ele>
        <time>2019-11-13T07:52:38Z</time>
      </trkpt>
      <trkpt lat="46.68136" lon="5.94179">
        <ele>649.5</ele>
        <time>2019-11-13T07:52:45Z</time>
      </trkpt>
      <trkpt lat="46.68134" lon="5.94185">
        <ele>650</ele>
        <time>2019-11-13T07:52:50Z</time>
      </trkpt>
      <trkpt lat="46.6813" lon="5.94189">
        <ele>650.9</ele>
        <time>2019-11-13T07:52:58Z</time>
      </trkpt>
      <trkpt lat="46.68126" lon="5.94192">
        <ele>652.6</ele>
        <time>2019-11-13T07:53:08Z</time>
      </trkpt>
      <trkpt lat="46.68122" lon="5.94194">
        <ele>653.2</ele>
        <time>2019-11-13T07:53:17Z</time>
      </trkpt>
      <trkpt lat="46.68117" lon="5.94197">
        <ele>653.5</ele>
        <time>2019-11-13T07:53:25Z</time>
      </trkpt>
      <trkpt lat="46.68114" lon="5.94203">
        <ele>654</ele>
        <time>2019-11-13T07:53:31Z</time>
      </trkpt>
      <trkpt lat="46.68112" lon="5.94209">
        <ele>655</ele>
        <time>2019-11-13T07:53:39Z</time>
      </trkpt>
      <trkpt lat="46.68108" lon="5.94212">
        <ele>657</ele>
        <time>2019-11-13T07:53:51Z</time>
      </trkpt>
      <trkpt lat="46.68103" lon="5.94214">
        <ele>658.6</ele>
        <time>2019-11-13T07:53:59Z</time>
      </trkpt>
      <trkpt lat="46.68099" lon="5.94217">
        <ele>659.6</ele>
        <time>2019-11-13T07:54:03Z</time>
      </trkpt>
      <trkpt lat="46.68094" lon="5.9422">
        <ele>661.3</ele>
        <time>2019-11-13T07:54:10Z</time>
      </trkpt>
      <trkpt lat="46.6809" lon="5.94223">
        <ele>662.5</ele>
        <time>2019-11-13T07:54:17Z</time>
      </trkpt>
      <trkpt lat="46.68085" lon="5.94223">
        <ele>663.1</ele>
        <time>2019-11-13T07:54:22Z</time>
      </trkpt>
      <trkpt lat="46.6808" lon="5.94222">
        <ele>663.9</ele>
        <time>2019-11-13T07:54:28Z</time>
      </trkpt>
      <trkpt lat="46.68075" lon="5.94221">
        <ele>665.9</ele>
        <time>2019-11-13T07:54:36Z</time>
      </trkpt>
      <trkpt lat="46.6807" lon="5.94222">
        <ele>667.6</ele>
        <time>2019-11-13T07:54:43Z</time>
      </trkpt>
      <trkpt lat="46.68065" lon="5.94221">
        <ele>669.1</ele>
        <time>2019-11-13T07:54:51Z</time>
      </trkpt>
      <trkpt lat="46.68062" lon="5.94216">
        <ele>670.3</ele>
        <time>2019-11-13T07:55:01Z</time>
      </trkpt>
      <trkpt lat="46.68059" lon="5.94211">
        <ele>671.1</ele>
        <time>2019-11-13T07:55:09Z</time>
      </trkpt>
      <trkpt lat="46.68055" lon="5.94207">
        <ele>671.8</ele>
        <time>2019-11-13T07:55:16Z</time>
      </trkpt>
      <trkpt lat="46.6805" lon="5.94207">
        <ele>672.4</ele>
        <time>2019-11-13T07:55:27Z</time>
      </trkpt>
      <trkpt lat="46.68046" lon="5.94206">
        <ele>673</ele>
        <time>2019-11-13T07:55:35Z</time>
      </trkpt>
      <trkpt lat="46.68036" lon="5.94211">
        <ele>679.4</ele>
        <time>2019-11-13T07:56:08Z</time>
      </trkpt>
      <trkpt lat="46.68032" lon="5.94231">
        <ele>685.3</ele>
        <time>2019-11-13T07:56:53Z</time>
      </trkpt>
      <trkpt lat="46.68034" lon="5.9424">
        <ele>686.3</ele>
        <time>2019-11-13T07:56:56Z</time>
      </trkpt>
      <trkpt lat="46.68036" lon="5.94246">
        <ele>687.1</ele>
        <time>2019-11-13T07:56:58Z</time>
      </trkpt>
      <trkpt lat="46.68037" lon="5.94253">
        <ele>689.1</ele>
        <time>2019-11-13T07:57:03Z</time>
      </trkpt>
      <trkpt lat="46.68039" lon="5.94259">
        <ele>692.9</ele>
        <time>2019-11-13T07:57:15Z</time>
      </trkpt>
      <trkpt lat="46.68038" lon="5.94266">
        <ele>695.6</ele>
        <time>2019-11-13T07:57:30Z</time>
      </trkpt>
      <trkpt lat="46.68041" lon="5.94272">
        <ele>696.4</ele>
        <time>2019-11-13T07:57:35Z</time>
      </trkpt>
      <trkpt lat="46.68043" lon="5.94284">
        <ele>699.4</ele>
        <time>2019-11-13T07:57:49Z</time>
      </trkpt>
      <trkpt lat="46.68045" lon="5.9429">
        <ele>700.4</ele>
        <time>2019-11-13T07:57:55Z</time>
      </trkpt>
      <trkpt lat="46.68049" lon="5.94299">
        <ele>710.8</ele>
        <time>2019-11-13T08:02:25Z</time>
      </trkpt>
      <trkpt lat="46.68047" lon="5.94306">
        <ele>711.1</ele>
        <time>2019-11-13T08:02:28Z</time>
      </trkpt>
      <trkpt lat="46.68043" lon="5.9431">
        <ele>711.4</ele>
        <time>2019-11-13T08:02:34Z</time>
      </trkpt>
      <trkpt lat="46.68022" lon="5.94328">
        <ele>709.2</ele>
        <time>2019-11-13T08:02:58Z</time>
      </trkpt>
      <trkpt lat="46.68011" lon="5.94341">
        <ele>707.4</ele>
        <time>2019-11-13T08:03:07Z</time>
      </trkpt>
      <trkpt lat="46.68007" lon="5.94343">
        <ele>707</ele>
        <time>2019-11-13T08:03:11Z</time>
      </trkpt>
      <trkpt lat="46.68002" lon="5.94344">
        <ele>706.2</ele>
        <time>2019-11-13T08:03:17Z</time>
      </trkpt>
      <trkpt lat="46.67997" lon="5.94342">
        <ele>705.4</ele>
        <time>2019-11-13T08:03:22Z</time>
      </trkpt>
      <trkpt lat="46.67993" lon="5.94344">
        <ele>704.6</ele>
        <time>2019-11-13T08:03:28Z</time>
      </trkpt>
      <trkpt lat="46.67988" lon="5.94348">
        <ele>704.4</ele>
        <time>2019-11-13T08:03:35Z</time>
      </trkpt>
      <trkpt lat="46.67984" lon="5.94352">
        <ele>704.6</ele>
        <time>2019-11-13T08:03:44Z</time>
      </trkpt>
      <trkpt lat="46.6798" lon="5.94362">
        <ele>705</ele>
        <time>2019-11-13T08:04:00Z</time>
      </trkpt>
      <trkpt lat="46.67977" lon="5.94369">
        <ele>705.2</ele>
        <time>2019-11-13T08:04:06Z</time>
      </trkpt>
      <trkpt lat="46.67974" lon="5.94374">
        <ele>705.4</ele>
        <time>2019-11-13T08:04:13Z</time>
      </trkpt>
      <trkpt lat="46.67972" lon="5.94379">
        <ele>705.3</ele>
        <time>2019-11-13T08:04:28Z</time>
      </trkpt>
      <trkpt lat="46.6797" lon="5.94386">
        <ele>705.4</ele>
        <time>2019-11-13T08:04:30Z</time>
      </trkpt>
      <trkpt lat="46.67971" lon="5.94394">
        <ele>705.8</ele>
        <time>2019-11-13T08:04:34Z</time>
      </trkpt>
      <trkpt lat="46.67971" lon="5.94402">
        <ele>707</ele>
        <time>2019-11-13T08:04:42Z</time>
      </trkpt>
      <trkpt lat="46.67971" lon="5.94409">
        <ele>707.7</ele>
        <time>2019-11-13T08:04:46Z</time>
      </trkpt>
      <trkpt lat="46.67972" lon="5.94415">
        <ele>707.9</ele>
        <time>2019-11-13T08:04:54Z</time>
      </trkpt>
      <trkpt lat="46.67971" lon="5.94413">
        <ele>701.9</ele>
        <time>2019-11-13T08:07:34Z</time>
      </trkpt>
      <trkpt lat="46.67976" lon="5.94417">
        <ele>701.4</ele>
        <time>2019-11-13T08:07:39Z</time>
      </trkpt>
      <trkpt lat="46.67981" lon="5.9442">
        <ele>701.1</ele>
        <time>2019-11-13T08:07:44Z</time>
      </trkpt>
      <trkpt lat="46.67985" lon="5.94425">
        <ele>700.6</ele>
        <time>2019-11-13T08:07:50Z</time>
      </trkpt>
      <trkpt lat="46.67988" lon="5.94431">
        <ele>700.2</ele>
        <time>2019-11-13T08:07:55Z</time>
      </trkpt>
      <trkpt lat="46.67991" lon="5.94436">
        <ele>699.8</ele>
        <time>2019-11-13T08:07:59Z</time>
      </trkpt>
      <trkpt lat="46.67994" lon="5.94442">
        <ele>699.4</ele>
        <time>2019-11-13T08:08:03Z</time>
      </trkpt>
      <trkpt lat="46.67998" lon="5.94448">
        <ele>698.7</ele>
        <time>2019-11-13T08:08:08Z</time>
      </trkpt>
      <trkpt lat="46.68" lon="5.94454">
        <ele>698</ele>
        <time>2019-11-13T08:08:13Z</time>
      </trkpt>
      <trkpt lat="46.68004" lon="5.94459">
        <ele>697.3</ele>
        <time>2019-11-13T08:08:17Z</time>
      </trkpt>
      <trkpt lat="46.68007" lon="5.94465">
        <ele>696.4</ele>
        <time>2019-11-13T08:08:23Z</time>
      </trkpt>
      <trkpt lat="46.6801" lon="5.94471">
        <ele>695.7</ele>
        <time>2019-11-13T08:08:29Z</time>
      </trkpt>
      <trkpt lat="46.68013" lon="5.94478">
        <ele>694.9</ele>
        <time>2019-11-13T08:08:34Z</time>
      </trkpt>
      <trkpt lat="46.68017" lon="5.94482">
        <ele>694.1</ele>
        <time>2019-11-13T08:08:39Z</time>
      </trkpt>
      <trkpt lat="46.68021" lon="5.94486">
        <ele>693.8</ele>
        <time>2019-11-13T08:08:43Z</time>
      </trkpt>
      <trkpt lat="46.68024" lon="5.94491">
        <ele>693.6</ele>
        <time>2019-11-13T08:08:48Z</time>
      </trkpt>
      <trkpt lat="46.68028" lon="5.94496">
        <ele>693.4</ele>
        <time>2019-11-13T08:08:53Z</time>
      </trkpt>
      <trkpt lat="46.68032" lon="5.94501">
        <ele>692.9</ele>
        <time>2019-11-13T08:08:58Z</time>
      </trkpt>
      <trkpt lat="46.68035" lon="5.94505">
        <ele>692.6</ele>
        <time>2019-11-13T08:09:02Z</time>
      </trkpt>
      <trkpt lat="46.6804" lon="5.9451">
        <ele>692.2</ele>
        <time>2019-11-13T08:09:07Z</time>
      </trkpt>
      <trkpt lat="46.68043" lon="5.94515">
        <ele>692.2</ele>
        <time>2019-11-13T08:09:11Z</time>
      </trkpt>
      <trkpt lat="46.68046" lon="5.9452">
        <ele>692.1</ele>
        <time>2019-11-13T08:09:15Z</time>
      </trkpt>
      <trkpt lat="46.6805" lon="5.94524">
        <ele>692</ele>
        <time>2019-11-13T08:09:19Z</time>
      </trkpt>
      <trkpt lat="46.68053" lon="5.94529">
        <ele>691.9</ele>
        <time>2019-11-13T08:09:22Z</time>
      </trkpt>
      <trkpt lat="46.68057" lon="5.94534">
        <ele>691.7</ele>
        <time>2019-11-13T08:09:27Z</time>
      </trkpt>
      <trkpt lat="46.6806" lon="5.9454">
        <ele>691.3</ele>
        <time>2019-11-13T08:09:33Z</time>
      </trkpt>
      <trkpt lat="46.68064" lon="5.94544">
        <ele>691</ele>
        <time>2019-11-13T08:09:36Z</time>
      </trkpt>
      <trkpt lat="46.68067" lon="5.94549">
        <ele>690.7</ele>
        <time>2019-11-13T08:09:41Z</time>
      </trkpt>
      <trkpt lat="46.68069" lon="5.94557">
        <ele>690.7</ele>
        <time>2019-11-13T08:09:49Z</time>
      </trkpt>
      <trkpt lat="46.6807" lon="5.94563">
        <ele>690.7</ele>
        <time>2019-11-13T08:09:53Z</time>
      </trkpt>
      <trkpt lat="46.6807" lon="5.9457">
        <ele>690.9</ele>
        <time>2019-11-13T08:09:58Z</time>
      </trkpt>
      <trkpt lat="46.68068" lon="5.94576">
        <ele>690.9</ele>
        <time>2019-11-13T08:10:05Z</time>
      </trkpt>
      <trkpt lat="46.68067" lon="5.94582">
        <ele>691.1</ele>
        <time>2019-11-13T08:10:12Z</time>
      </trkpt>
      <trkpt lat="46.68064" lon="5.94589">
        <ele>691.2</ele>
        <time>2019-11-13T08:10:21Z</time>
      </trkpt>
      <trkpt lat="46.68062" lon="5.94595">
        <ele>692.2</ele>
        <time>2019-11-13T08:10:33Z</time>
      </trkpt>
      <trkpt lat="46.68055" lon="5.94601">
        <ele>695.3</ele>
        <time>2019-11-13T08:10:46Z</time>
      </trkpt>
      <trkpt lat="46.68051" lon="5.94606">
        <ele>696.5</ele>
        <time>2019-11-13T08:10:51Z</time>
      </trkpt>
      <trkpt lat="46.68048" lon="5.94611">
        <ele>699.1</ele>
        <time>2019-11-13T08:11:03Z</time>
      </trkpt>
      <trkpt lat="46.68043" lon="5.94634">
        <ele>704.3</ele>
        <time>2019-11-13T08:11:24Z</time>
      </trkpt>
      <trkpt lat="46.68041" lon="5.94641">
        <ele>704.7</ele>
        <time>2019-11-13T08:11:28Z</time>
      </trkpt>
      <trkpt lat="46.6804" lon="5.94647">
        <ele>705.6</ele>
        <time>2019-11-13T08:11:35Z</time>
      </trkpt>
      <trkpt lat="46.68038" lon="5.94654">
        <ele>706.1</ele>
        <time>2019-11-13T08:11:47Z</time>
      </trkpt>
      <trkpt lat="46.68037" lon="5.94667">
        <ele>706.5</ele>
        <time>2019-11-13T08:12:07Z</time>
      </trkpt>
      <trkpt lat="46.68039" lon="5.94673">
        <ele>706.8</ele>
        <time>2019-11-13T08:12:16Z</time>
      </trkpt>
      <trkpt lat="46.68037" lon="5.94699">
        <ele>712.4</ele>
        <time>2019-11-13T08:12:50Z</time>
      </trkpt>
      <trkpt lat="46.68038" lon="5.94707">
        <ele>714.1</ele>
        <time>2019-11-13T08:12:58Z</time>
      </trkpt>
      <trkpt lat="46.68037" lon="5.94714">
        <ele>715.9</ele>
        <time>2019-11-13T08:13:05Z</time>
      </trkpt>
      <trkpt lat="46.68035" lon="5.9472">
        <ele>717.4</ele>
        <time>2019-11-13T08:13:12Z</time>
      </trkpt>
      <trkpt lat="46.68032" lon="5.94727">
        <ele>718.6</ele>
        <time>2019-11-13T08:13:18Z</time>
      </trkpt>
      <trkpt lat="46.68029" lon="5.94733">
        <ele>719.5</ele>
        <time>2019-11-13T08:13:24Z</time>
      </trkpt>
      <trkpt lat="46.68027" lon="5.94739">
        <ele>720.2</ele>
        <time>2019-11-13T08:13:29Z</time>
      </trkpt>
      <trkpt lat="46.68024" lon="5.94745">
        <ele>721.1</ele>
        <time>2019-11-13T08:13:36Z</time>
      </trkpt>
      <trkpt lat="46.68017" lon="5.94759">
        <ele>721.4</ele>
        <time>2019-11-13T08:13:54Z</time>
      </trkpt>
      <trkpt lat="46.68018" lon="5.94767">
        <ele>721.7</ele>
        <time>2019-11-13T08:14:03Z</time>
      </trkpt>
      <trkpt lat="46.68026" lon="5.94779">
        <ele>723</ele>
        <time>2019-11-13T08:14:15Z</time>
      </trkpt>
      <trkpt lat="46.6803" lon="5.94783">
        <ele>724.1</ele>
        <time>2019-11-13T08:14:25Z</time>
      </trkpt>
      <trkpt lat="46.68035" lon="5.94785">
        <ele>725.2</ele>
        <time>2019-11-13T08:14:36Z</time>
      </trkpt>
      <trkpt lat="46.68039" lon="5.94788">
        <ele>726.2</ele>
        <time>2019-11-13T08:14:48Z</time>
      </trkpt>
      <trkpt lat="46.68042" lon="5.94793">
        <ele>726.8</ele>
        <time>2019-11-13T08:14:57Z</time>
      </trkpt>
      <trkpt lat="46.68045" lon="5.94799">
        <ele>727.2</ele>
        <time>2019-11-13T08:15:03Z</time>
      </trkpt>
      <trkpt lat="46.68048" lon="5.94804">
        <ele>728.1</ele>
        <time>2019-11-13T08:15:11Z</time>
      </trkpt>
      <trkpt lat="46.68051" lon="5.9481">
        <ele>728.7</ele>
        <time>2019-11-13T08:15:15Z</time>
      </trkpt>
      <trkpt lat="46.68053" lon="5.94816">
        <ele>729.7</ele>
        <time>2019-11-13T08:15:21Z</time>
      </trkpt>
      <trkpt lat="46.68057" lon="5.94819">
        <ele>731</ele>
        <time>2019-11-13T08:15:30Z</time>
      </trkpt>
      <trkpt lat="46.68062" lon="5.94821">
        <ele>732</ele>
        <time>2019-11-13T08:15:38Z</time>
      </trkpt>
      <trkpt lat="46.68066" lon="5.94825">
        <ele>732.8</ele>
        <time>2019-11-13T08:15:45Z</time>
      </trkpt>
      <trkpt lat="46.6807" lon="5.94829">
        <ele>733.5</ele>
        <time>2019-11-13T08:15:52Z</time>
      </trkpt>
      <trkpt lat="46.68075" lon="5.94832">
        <ele>734.1</ele>
        <time>2019-11-13T08:15:57Z</time>
      </trkpt>
      <trkpt lat="46.68081" lon="5.94834">
        <ele>734.5</ele>
        <time>2019-11-13T08:16:00Z</time>
      </trkpt>
      <trkpt lat="46.68085" lon="5.94838">
        <ele>735.2</ele>
        <time>2019-11-13T08:16:06Z</time>
      </trkpt>
      <trkpt lat="46.68089" lon="5.94841">
        <ele>736</ele>
        <time>2019-11-13T08:16:14Z</time>
      </trkpt>
      <trkpt lat="46.68093" lon="5.94846">
        <ele>736.5</ele>
        <time>2019-11-13T08:16:21Z</time>
      </trkpt>
      <trkpt lat="46.68096" lon="5.94851">
        <ele>736.9</ele>
        <time>2019-11-13T08:16:30Z</time>
      </trkpt>
      <trkpt lat="46.68102" lon="5.94857">
        <ele>737</ele>
        <time>2019-11-13T08:16:41Z</time>
      </trkpt>
      <trkpt lat="46.68106" lon="5.9486">
        <ele>737.4</ele>
        <time>2019-11-13T08:16:45Z</time>
      </trkpt>
      <trkpt lat="46.6811" lon="5.94865">
        <ele>738.7</ele>
        <time>2019-11-13T08:16:54Z</time>
      </trkpt>
      <trkpt lat="46.68113" lon="5.94871">
        <ele>740</ele>
        <time>2019-11-13T08:17:01Z</time>
      </trkpt>
      <trkpt lat="46.68117" lon="5.94873">
        <ele>740.9</ele>
        <time>2019-11-13T08:17:06Z</time>
      </trkpt>
      <trkpt lat="46.68123" lon="5.94876">
        <ele>741.8</ele>
        <time>2019-11-13T08:17:13Z</time>
      </trkpt>
      <trkpt lat="46.68127" lon="5.94878">
        <ele>742</ele>
        <time>2019-11-13T08:17:16Z</time>
      </trkpt>
      <trkpt lat="46.68132" lon="5.94882">
        <ele>742.4</ele>
        <time>2019-11-13T08:17:20Z</time>
      </trkpt>
      <trkpt lat="46.68137" lon="5.94883">
        <ele>743</ele>
        <time>2019-11-13T08:17:26Z</time>
      </trkpt>
      <trkpt lat="46.68139" lon="5.94889">
        <ele>743.3</ele>
        <time>2019-11-13T08:17:33Z</time>
      </trkpt>
      <trkpt lat="46.68143" lon="5.94895">
        <ele>743.6</ele>
        <time>2019-11-13T08:17:39Z</time>
      </trkpt>
      <trkpt lat="46.68146" lon="5.949">
        <ele>743.9</ele>
        <time>2019-11-13T08:17:46Z</time>
      </trkpt>
      <trkpt lat="46.68148" lon="5.94907">
        <ele>744.3</ele>
        <time>2019-11-13T08:17:51Z</time>
      </trkpt>
      <trkpt lat="46.6815" lon="5.94914">
        <ele>745</ele>
        <time>2019-11-13T08:17:59Z</time>
      </trkpt>
      <trkpt lat="46.6815" lon="5.9492">
        <ele>745.5</ele>
        <time>2019-11-13T08:18:05Z</time>
      </trkpt>
      <trkpt lat="46.68151" lon="5.94928">
        <ele>745.8</ele>
        <time>2019-11-13T08:18:11Z</time>
      </trkpt>
      <trkpt lat="46.68151" lon="5.94935">
        <ele>746.1</ele>
        <time>2019-11-13T08:18:18Z</time>
      </trkpt>
      <trkpt lat="46.6815" lon="5.94941">
        <ele>746.5</ele>
        <time>2019-11-13T08:18:28Z</time>
      </trkpt>
      <trkpt lat="46.68147" lon="5.94947">
        <ele>748.5</ele>
        <time>2019-11-13T08:18:41Z</time>
      </trkpt>
      <trkpt lat="46.68146" lon="5.94953">
        <ele>750.4</ele>
        <time>2019-11-13T08:18:49Z</time>
      </trkpt>
      <trkpt lat="46.68145" lon="5.94961">
        <ele>751.4</ele>
        <time>2019-11-13T08:18:53Z</time>
      </trkpt>
      <trkpt lat="46.68143" lon="5.94968">
        <ele>752.1</ele>
        <time>2019-11-13T08:18:57Z</time>
      </trkpt>
      <trkpt lat="46.6814" lon="5.94973">
        <ele>752.9</ele>
        <time>2019-11-13T08:19:03Z</time>
      </trkpt>
      <trkpt lat="46.68138" lon="5.94979">
        <ele>753.4</ele>
        <time>2019-11-13T08:19:08Z</time>
      </trkpt>
      <trkpt lat="46.68135" lon="5.94986">
        <ele>754.4</ele>
        <time>2019-11-13T08:19:16Z</time>
      </trkpt>
      <trkpt lat="46.68133" lon="5.94991">
        <ele>755.2</ele>
        <time>2019-11-13T08:19:23Z</time>
      </trkpt>
      <trkpt lat="46.68129" lon="5.94995">
        <ele>756.1</ele>
        <time>2019-11-13T08:19:29Z</time>
      </trkpt>
      <trkpt lat="46.68125" lon="5.95">
        <ele>756.8</ele>
        <time>2019-11-13T08:19:36Z</time>
      </trkpt>
      <trkpt lat="46.68122" lon="5.95006">
        <ele>757.1</ele>
        <time>2019-11-13T08:19:41Z</time>
      </trkpt>
      <trkpt lat="46.68119" lon="5.95011">
        <ele>757.3</ele>
        <time>2019-11-13T08:19:47Z</time>
      </trkpt>
      <trkpt lat="46.68114" lon="5.95013">
        <ele>757.3</ele>
        <time>2019-11-13T08:19:53Z</time>
      </trkpt>
      <trkpt lat="46.6811" lon="5.95015">
        <ele>758.9</ele>
        <time>2019-11-13T08:20:08Z</time>
      </trkpt>
      <trkpt lat="46.68105" lon="5.95018">
        <ele>762.5</ele>
        <time>2019-11-13T08:20:22Z</time>
      </trkpt>
      <trkpt lat="46.68098" lon="5.95021">
        <ele>763.4</ele>
        <time>2019-11-13T08:20:25Z</time>
      </trkpt>
      <trkpt lat="46.68094" lon="5.95024">
        <ele>764.3</ele>
        <time>2019-11-13T08:20:28Z</time>
      </trkpt>
      <trkpt lat="46.68089" lon="5.95025">
        <ele>767.1</ele>
        <time>2019-11-13T08:20:41Z</time>
      </trkpt>
      <trkpt lat="46.68083" lon="5.95027">
        <ele>768.2</ele>
        <time>2019-11-13T08:20:53Z</time>
      </trkpt>
      <trkpt lat="46.68072" lon="5.95028">
        <ele>770.3</ele>
        <time>2019-11-13T08:21:12Z</time>
      </trkpt>
      <trkpt lat="46.68066" lon="5.95025">
        <ele>776.4</ele>
        <time>2019-11-13T08:21:29Z</time>
      </trkpt>
      <trkpt lat="46.6806" lon="5.95023">
        <ele>777.3</ele>
        <time>2019-11-13T08:21:33Z</time>
      </trkpt>
      <trkpt lat="46.68056" lon="5.95026">
        <ele>777.9</ele>
        <time>2019-11-13T08:21:36Z</time>
      </trkpt>
      <trkpt lat="46.68051" lon="5.95026">
        <ele>778.4</ele>
        <time>2019-11-13T08:21:40Z</time>
      </trkpt>
      <trkpt lat="46.68046" lon="5.95023">
        <ele>778.6</ele>
        <time>2019-11-13T08:21:43Z</time>
      </trkpt>
      <trkpt lat="46.68041" lon="5.95025">
        <ele>778.8</ele>
        <time>2019-11-13T08:21:48Z</time>
      </trkpt>
      <trkpt lat="46.68036" lon="5.95024">
        <ele>779</ele>
        <time>2019-11-13T08:21:54Z</time>
      </trkpt>
      <trkpt lat="46.68033" lon="5.9502">
        <ele>778.7</ele>
        <time>2019-11-13T08:22:01Z</time>
      </trkpt>
      <trkpt lat="46.6803" lon="5.95015">
        <ele>778.1</ele>
        <time>2019-11-13T08:22:11Z</time>
      </trkpt>
      <trkpt lat="46.68025" lon="5.9501">
        <ele>778.2</ele>
        <time>2019-11-13T08:22:15Z</time>
      </trkpt>
      <trkpt lat="46.68021" lon="5.95006">
        <ele>778.2</ele>
        <time>2019-11-13T08:22:18Z</time>
      </trkpt>
      <trkpt lat="46.68016" lon="5.95004">
        <ele>778.6</ele>
        <time>2019-11-13T08:22:23Z</time>
      </trkpt>
      <trkpt lat="46.68012" lon="5.95001">
        <ele>779.5</ele>
        <time>2019-11-13T08:22:30Z</time>
      </trkpt>
      <trkpt lat="46.68007" lon="5.95001">
        <ele>780.6</ele>
        <time>2019-11-13T08:22:40Z</time>
      </trkpt>
      <trkpt lat="46.68002" lon="5.95004">
        <ele>780.9</ele>
        <time>2019-11-13T08:22:46Z</time>
      </trkpt>
      <trkpt lat="46.67996" lon="5.95016">
        <ele>781.7</ele>
        <time>2019-11-13T08:23:00Z</time>
      </trkpt>
      <trkpt lat="46.67994" lon="5.95022">
        <ele>782</ele>
        <time>2019-11-13T08:23:05Z</time>
      </trkpt>
      <trkpt lat="46.67992" lon="5.95029">
        <ele>782.5</ele>
        <time>2019-11-13T08:23:11Z</time>
      </trkpt>
      <trkpt lat="46.67988" lon="5.95033">
        <ele>783.1</ele>
        <time>2019-11-13T08:23:18Z</time>
      </trkpt>
      <trkpt lat="46.67983" lon="5.95036">
        <ele>783.5</ele>
        <time>2019-11-13T08:23:24Z</time>
      </trkpt>
      <trkpt lat="46.67979" lon="5.95039">
        <ele>783.8</ele>
        <time>2019-11-13T08:23:29Z</time>
      </trkpt>
      <trkpt lat="46.67968" lon="5.9504">
        <ele>783.9</ele>
        <time>2019-11-13T08:23:53Z</time>
      </trkpt>
      <trkpt lat="46.67958" lon="5.9505">
        <ele>785.5</ele>
        <time>2019-11-13T08:31:26Z</time>
      </trkpt>
      <trkpt lat="46.67949" lon="5.95052">
        <ele>785.9</ele>
        <time>2019-11-13T08:31:39Z</time>
      </trkpt>
      <trkpt lat="46.67944" lon="5.95053">
        <ele>785.8</ele>
        <time>2019-11-13T08:31:43Z</time>
      </trkpt>
      <trkpt lat="46.6794" lon="5.95057">
        <ele>786.1</ele>
        <time>2019-11-13T08:31:51Z</time>
      </trkpt>
      <trkpt lat="46.67926" lon="5.95065">
        <ele>786.8</ele>
        <time>2019-11-13T08:32:10Z</time>
      </trkpt>
      <trkpt lat="46.67904" lon="5.95071">
        <ele>785.8</ele>
        <time>2019-11-13T08:32:28Z</time>
      </trkpt>
      <trkpt lat="46.67894" lon="5.95078">
        <ele>782.7</ele>
        <time>2019-11-13T08:32:46Z</time>
      </trkpt>
      <trkpt lat="46.6789" lon="5.95079">
        <ele>782</ele>
        <time>2019-11-13T08:32:53Z</time>
      </trkpt>
      <trkpt lat="46.67851" lon="5.95089">
        <ele>779.2</ele>
        <time>2019-11-13T08:33:33Z</time>
      </trkpt>
      <trkpt lat="46.67847" lon="5.95089">
        <ele>778.4</ele>
        <time>2019-11-13T08:33:37Z</time>
      </trkpt>
      <trkpt lat="46.67832" lon="5.95086">
        <ele>775.8</ele>
        <time>2019-11-13T08:33:59Z</time>
      </trkpt>
      <trkpt lat="46.67819" lon="5.95087">
        <ele>776.9</ele>
        <time>2019-11-13T08:34:11Z</time>
      </trkpt>
      <trkpt lat="46.67815" lon="5.95089">
        <ele>776.9</ele>
        <time>2019-11-13T08:34:15Z</time>
      </trkpt>
      <trkpt lat="46.6781" lon="5.95091">
        <ele>776.9</ele>
        <time>2019-11-13T08:34:19Z</time>
      </trkpt>
      <trkpt lat="46.67803" lon="5.95094">
        <ele>776.6</ele>
        <time>2019-11-13T08:34:25Z</time>
      </trkpt>
      <trkpt lat="46.67798" lon="5.95094">
        <ele>776.5</ele>
        <time>2019-11-13T08:34:27Z</time>
      </trkpt>
      <trkpt lat="46.67779" lon="5.951">
        <ele>775</ele>
        <time>2019-11-13T08:34:38Z</time>
      </trkpt>
      <trkpt lat="46.67775" lon="5.95103">
        <ele>774.8</ele>
        <time>2019-11-13T08:34:42Z</time>
      </trkpt>
      <trkpt lat="46.6777" lon="5.95106">
        <ele>774.6</ele>
        <time>2019-11-13T08:34:47Z</time>
      </trkpt>
      <trkpt lat="46.67757" lon="5.95112">
        <ele>773.2</ele>
        <time>2019-11-13T08:35:01Z</time>
      </trkpt>
      <trkpt lat="46.67753" lon="5.95114">
        <ele>772.6</ele>
        <time>2019-11-13T08:35:05Z</time>
      </trkpt>
      <trkpt lat="46.67748" lon="5.95118">
        <ele>771.9</ele>
        <time>2019-11-13T08:35:10Z</time>
      </trkpt>
      <trkpt lat="46.67743" lon="5.9512">
        <ele>771.4</ele>
        <time>2019-11-13T08:35:13Z</time>
      </trkpt>
      <trkpt lat="46.67739" lon="5.95122">
        <ele>771</ele>
        <time>2019-11-13T08:35:16Z</time>
      </trkpt>
      <trkpt lat="46.67734" lon="5.95125">
        <ele>770.5</ele>
        <time>2019-11-13T08:35:20Z</time>
      </trkpt>
      <trkpt lat="46.67728" lon="5.95128">
        <ele>770.1</ele>
        <time>2019-11-13T08:35:25Z</time>
      </trkpt>
      <trkpt lat="46.67724" lon="5.95131">
        <ele>770.1</ele>
        <time>2019-11-13T08:35:28Z</time>
      </trkpt>
      <trkpt lat="46.67719" lon="5.95134">
        <ele>770.2</ele>
        <time>2019-11-13T08:35:33Z</time>
      </trkpt>
      <trkpt lat="46.67717" lon="5.95139">
        <ele>769</ele>
        <time>2019-11-13T08:35:47Z</time>
      </trkpt>
      <trkpt lat="46.6771" lon="5.95147">
        <ele>767.7</ele>
        <time>2019-11-13T08:36:12Z</time>
      </trkpt>
      <trkpt lat="46.67705" lon="5.95151">
        <ele>767.9</ele>
        <time>2019-11-13T08:36:20Z</time>
      </trkpt>
      <trkpt lat="46.67701" lon="5.95152">
        <ele>768.6</ele>
        <time>2019-11-13T08:36:26Z</time>
      </trkpt>
      <trkpt lat="46.67695" lon="5.95154">
        <ele>769.2</ele>
        <time>2019-11-13T08:36:30Z</time>
      </trkpt>
      <trkpt lat="46.6769" lon="5.95157">
        <ele>769.8</ele>
        <time>2019-11-13T08:36:34Z</time>
      </trkpt>
      <trkpt lat="46.67686" lon="5.95159">
        <ele>770.1</ele>
        <time>2019-11-13T08:36:38Z</time>
      </trkpt>
      <trkpt lat="46.67681" lon="5.95163">
        <ele>770</ele>
        <time>2019-11-13T08:36:44Z</time>
      </trkpt>
      <trkpt lat="46.67678" lon="5.95168">
        <ele>769.5</ele>
        <time>2019-11-13T08:36:55Z</time>
      </trkpt>
      <trkpt lat="46.67674" lon="5.95171">
        <ele>769.1</ele>
        <time>2019-11-13T08:36:59Z</time>
      </trkpt>
      <trkpt lat="46.67667" lon="5.95175">
        <ele>768.5</ele>
        <time>2019-11-13T08:37:25Z</time>
      </trkpt>
      <trkpt lat="46.67662" lon="5.95177">
        <ele>769</ele>
        <time>2019-11-13T08:37:30Z</time>
      </trkpt>
      <trkpt lat="46.67656" lon="5.9518">
        <ele>769.4</ele>
        <time>2019-11-13T08:37:35Z</time>
      </trkpt>
      <trkpt lat="46.67651" lon="5.95182">
        <ele>769.6</ele>
        <time>2019-11-13T08:37:37Z</time>
      </trkpt>
      <trkpt lat="46.67647" lon="5.95185">
        <ele>769.7</ele>
        <time>2019-11-13T08:37:40Z</time>
      </trkpt>
      <trkpt lat="46.67641" lon="5.95192">
        <ele>769.8</ele>
        <time>2019-11-13T08:37:42Z</time>
      </trkpt>
      <trkpt lat="46.67635" lon="5.95198">
        <ele>769.8</ele>
        <time>2019-11-13T08:37:44Z</time>
      </trkpt>
      <trkpt lat="46.6763" lon="5.95202">
        <ele>769.9</ele>
        <time>2019-11-13T08:37:46Z</time>
      </trkpt>
      <trkpt lat="46.67626" lon="5.95206">
        <ele>770</ele>
        <time>2019-11-13T08:37:48Z</time>
      </trkpt>
      <trkpt lat="46.67622" lon="5.95211">
        <ele>769.8</ele>
        <time>2019-11-13T08:37:52Z</time>
      </trkpt>
      <trkpt lat="46.6762" lon="5.95217">
        <ele>769.3</ele>
        <time>2019-11-13T08:38:00Z</time>
      </trkpt>
      <trkpt lat="46.6762" lon="5.95224">
        <ele>766.9</ele>
        <time>2019-11-13T08:38:12Z</time>
      </trkpt>
      <trkpt lat="46.67621" lon="5.95231">
        <ele>765.4</ele>
        <time>2019-11-13T08:38:18Z</time>
      </trkpt>
      <trkpt lat="46.67621" lon="5.95238">
        <ele>764.2</ele>
        <time>2019-11-13T08:38:25Z</time>
      </trkpt>
      <trkpt lat="46.67621" lon="5.95251">
        <ele>761.7</ele>
        <time>2019-11-13T08:38:43Z</time>
      </trkpt>
      <trkpt lat="46.67621" lon="5.95259">
        <ele>761.4</ele>
        <time>2019-11-13T08:38:54Z</time>
      </trkpt>
      <trkpt lat="46.67619" lon="5.95264">
        <ele>761.5</ele>
        <time>2019-11-13T08:38:56Z</time>
      </trkpt>
      <trkpt lat="46.67616" lon="5.9527">
        <ele>761.7</ele>
        <time>2019-11-13T08:38:59Z</time>
      </trkpt>
      <trkpt lat="46.67612" lon="5.95275">
        <ele>762</ele>
        <time>2019-11-13T08:39:06Z</time>
      </trkpt>
      <trkpt lat="46.67608" lon="5.95279">
        <ele>762.2</ele>
        <time>2019-11-13T08:39:10Z</time>
      </trkpt>
      <trkpt lat="46.67602" lon="5.95282">
        <ele>762.4</ele>
        <time>2019-11-13T08:39:13Z</time>
      </trkpt>
      <trkpt lat="46.67598" lon="5.95286">
        <ele>762.7</ele>
        <time>2019-11-13T08:39:17Z</time>
      </trkpt>
      <trkpt lat="46.67581" lon="5.95289">
        <ele>763.4</ele>
        <time>2019-11-13T08:39:36Z</time>
      </trkpt>
      <trkpt lat="46.6757" lon="5.95296">
        <ele>765.2</ele>
        <time>2019-11-13T08:39:52Z</time>
      </trkpt>
      <trkpt lat="46.6757" lon="5.95309">
        <ele>768.1</ele>
        <time>2019-11-13T08:40:08Z</time>
      </trkpt>
      <trkpt lat="46.67566" lon="5.95315">
        <ele>769</ele>
        <time>2019-11-13T08:40:15Z</time>
      </trkpt>
      <trkpt lat="46.67561" lon="5.95319">
        <ele>769.6</ele>
        <time>2019-11-13T08:40:20Z</time>
      </trkpt>
      <trkpt lat="46.67556" lon="5.95324">
        <ele>770.1</ele>
        <time>2019-11-13T08:40:24Z</time>
      </trkpt>
      <trkpt lat="46.67552" lon="5.95327">
        <ele>770.5</ele>
        <time>2019-11-13T08:40:28Z</time>
      </trkpt>
      <trkpt lat="46.67548" lon="5.95331">
        <ele>771.4</ele>
        <time>2019-11-13T08:40:34Z</time>
      </trkpt>
      <trkpt lat="46.67531" lon="5.95339">
        <ele>772</ele>
        <time>2019-11-13T08:40:52Z</time>
      </trkpt>
      <trkpt lat="46.67525" lon="5.95344">
        <ele>772.8</ele>
        <time>2019-11-13T08:41:00Z</time>
      </trkpt>
      <trkpt lat="46.67521" lon="5.95347">
        <ele>773.3</ele>
        <time>2019-11-13T08:41:05Z</time>
      </trkpt>
      <trkpt lat="46.67517" lon="5.95351">
        <ele>773.8</ele>
        <time>2019-11-13T08:41:11Z</time>
      </trkpt>
      <trkpt lat="46.67514" lon="5.95357">
        <ele>774.6</ele>
        <time>2019-11-13T08:41:18Z</time>
      </trkpt>
      <trkpt lat="46.67507" lon="5.95375">
        <ele>777.1</ele>
        <time>2019-11-13T08:41:37Z</time>
      </trkpt>
      <trkpt lat="46.67503" lon="5.95381">
        <ele>778.7</ele>
        <time>2019-11-13T08:41:45Z</time>
      </trkpt>
      <trkpt lat="46.67497" lon="5.95388">
        <ele>779.1</ele>
        <time>2019-11-13T08:41:48Z</time>
      </trkpt>
      <trkpt lat="46.67493" lon="5.95392">
        <ele>779.5</ele>
        <time>2019-11-13T08:41:51Z</time>
      </trkpt>
      <trkpt lat="46.67489" lon="5.95398">
        <ele>779.8</ele>
        <time>2019-11-13T08:41:56Z</time>
      </trkpt>
      <trkpt lat="46.67484" lon="5.95402">
        <ele>779.8</ele>
        <time>2019-11-13T08:41:59Z</time>
      </trkpt>
      <trkpt lat="46.6748" lon="5.95406">
        <ele>779.8</ele>
        <time>2019-11-13T08:42:03Z</time>
      </trkpt>
      <trkpt lat="46.67475" lon="5.95409">
        <ele>779.9</ele>
        <time>2019-11-13T08:42:14Z</time>
      </trkpt>
      <trkpt lat="46.67468" lon="5.95413">
        <ele>780.5</ele>
        <time>2019-11-13T08:42:30Z</time>
      </trkpt>
      <trkpt lat="46.67463" lon="5.95415">
        <ele>780.9</ele>
        <time>2019-11-13T08:42:35Z</time>
      </trkpt>
      <trkpt lat="46.67458" lon="5.9542">
        <ele>781.2</ele>
        <time>2019-11-13T08:42:38Z</time>
      </trkpt>
      <trkpt lat="46.6744" lon="5.95434">
        <ele>784.1</ele>
        <time>2019-11-13T08:42:58Z</time>
      </trkpt>
      <trkpt lat="46.67435" lon="5.95437">
        <ele>783.8</ele>
        <time>2019-11-13T08:43:03Z</time>
      </trkpt>
      <trkpt lat="46.6743" lon="5.95438">
        <ele>783.2</ele>
        <time>2019-11-13T08:43:09Z</time>
      </trkpt>
      <trkpt lat="46.67427" lon="5.95444">
        <ele>782.5</ele>
        <time>2019-11-13T08:43:14Z</time>
      </trkpt>
      <trkpt lat="46.67422" lon="5.95449">
        <ele>782</ele>
        <time>2019-11-13T08:43:17Z</time>
      </trkpt>
      <trkpt lat="46.67412" lon="5.95458">
        <ele>780.5</ele>
        <time>2019-11-13T08:43:30Z</time>
      </trkpt>
      <trkpt lat="46.67401" lon="5.95465">
        <ele>781</ele>
        <time>2019-11-13T08:43:43Z</time>
      </trkpt>
      <trkpt lat="46.67397" lon="5.95469">
        <ele>781.3</ele>
        <time>2019-11-13T08:43:47Z</time>
      </trkpt>
      <trkpt lat="46.67393" lon="5.95475">
        <ele>781.8</ele>
        <time>2019-11-13T08:43:55Z</time>
      </trkpt>
      <trkpt lat="46.67388" lon="5.95479">
        <ele>782</ele>
        <time>2019-11-13T08:44:01Z</time>
      </trkpt>
      <trkpt lat="46.67384" lon="5.95483">
        <ele>782</ele>
        <time>2019-11-13T08:44:03Z</time>
      </trkpt>
      <trkpt lat="46.6738" lon="5.95487">
        <ele>781.9</ele>
        <time>2019-11-13T08:44:06Z</time>
      </trkpt>
      <trkpt lat="46.67369" lon="5.95493">
        <ele>782.4</ele>
        <time>2019-11-13T08:44:20Z</time>
      </trkpt>
      <trkpt lat="46.67364" lon="5.95495">
        <ele>782.3</ele>
        <time>2019-11-13T08:44:27Z</time>
      </trkpt>
      <trkpt lat="46.6736" lon="5.95499">
        <ele>782</ele>
        <time>2019-11-13T08:44:33Z</time>
      </trkpt>
      <trkpt lat="46.6735" lon="5.95509">
        <ele>786.2</ele>
        <time>2019-11-13T08:45:50Z</time>
      </trkpt>
      <trkpt lat="46.67338" lon="5.95498">
        <ele>789.4</ele>
        <time>2019-11-13T08:46:11Z</time>
      </trkpt>
      <trkpt lat="46.67334" lon="5.9549">
        <ele>789.5</ele>
        <time>2019-11-13T08:46:14Z</time>
      </trkpt>
      <trkpt lat="46.67331" lon="5.95486">
        <ele>789.5</ele>
        <time>2019-11-13T08:46:19Z</time>
      </trkpt>
      <trkpt lat="46.67326" lon="5.95482">
        <ele>789.6</ele>
        <time>2019-11-13T08:46:22Z</time>
      </trkpt>
      <trkpt lat="46.67321" lon="5.95481">
        <ele>789.7</ele>
        <time>2019-11-13T08:46:27Z</time>
      </trkpt>
      <trkpt lat="46.67298" lon="5.95476">
        <ele>790.7</ele>
        <time>2019-11-13T08:47:15Z</time>
      </trkpt>
      <trkpt lat="46.67295" lon="5.95471">
        <ele>791.6</ele>
        <time>2019-11-13T08:47:23Z</time>
      </trkpt>
      <trkpt lat="46.67284" lon="5.95463">
        <ele>793.1</ele>
        <time>2019-11-13T08:47:45Z</time>
      </trkpt>
      <trkpt lat="46.67279" lon="5.95459">
        <ele>794</ele>
        <time>2019-11-13T08:47:57Z</time>
      </trkpt>
      <trkpt lat="46.67273" lon="5.95455">
        <ele>794.6</ele>
        <time>2019-11-13T08:48:04Z</time>
      </trkpt>
      <trkpt lat="46.67257" lon="5.95439">
        <ele>796.3</ele>
        <time>2019-11-13T08:48:38Z</time>
      </trkpt>
      <trkpt lat="46.67253" lon="5.95432">
        <ele>797.1</ele>
        <time>2019-11-13T08:48:45Z</time>
      </trkpt>
      <trkpt lat="46.67245" lon="5.95422">
        <ele>798.9</ele>
        <time>2019-11-13T08:48:59Z</time>
      </trkpt>
      <trkpt lat="46.67236" lon="5.95411">
        <ele>800.6</ele>
        <time>2019-11-13T08:49:20Z</time>
      </trkpt>
      <trkpt lat="46.67232" lon="5.95405">
        <ele>800.6</ele>
        <time>2019-11-13T08:49:22Z</time>
      </trkpt>
      <trkpt lat="46.67229" lon="5.95401">
        <ele>800.5</ele>
        <time>2019-11-13T08:49:25Z</time>
      </trkpt>
      <trkpt lat="46.67225" lon="5.95396">
        <ele>800.1</ele>
        <time>2019-11-13T08:49:32Z</time>
      </trkpt>
      <trkpt lat="46.67221" lon="5.9539">
        <ele>799.8</ele>
        <time>2019-11-13T08:49:40Z</time>
      </trkpt>
      <trkpt lat="46.67217" lon="5.95385">
        <ele>799.9</ele>
        <time>2019-11-13T08:49:44Z</time>
      </trkpt>
      <trkpt lat="46.67213" lon="5.95381">
        <ele>800.4</ele>
        <time>2019-11-13T08:49:51Z</time>
      </trkpt>
      <trkpt lat="46.67208" lon="5.9538">
        <ele>800.7</ele>
        <time>2019-11-13T08:49:57Z</time>
      </trkpt>
      <trkpt lat="46.67204" lon="5.95375">
        <ele>800.7</ele>
        <time>2019-11-13T08:50:01Z</time>
      </trkpt>
      <trkpt lat="46.67199" lon="5.95374">
        <ele>800.6</ele>
        <time>2019-11-13T08:50:08Z</time>
      </trkpt>
      <trkpt lat="46.67195" lon="5.95373">
        <ele>800.6</ele>
        <time>2019-11-13T08:50:14Z</time>
      </trkpt>
      <trkpt lat="46.67189" lon="5.9537">
        <ele>800.9</ele>
        <time>2019-11-13T08:50:22Z</time>
      </trkpt>
      <trkpt lat="46.67185" lon="5.95368">
        <ele>801</ele>
        <time>2019-11-13T08:50:26Z</time>
      </trkpt>
      <trkpt lat="46.67165" lon="5.9535">
        <ele>799.5</ele>
        <time>2019-11-13T08:50:49Z</time>
      </trkpt>
      <trkpt lat="46.6716" lon="5.95347">
        <ele>799.3</ele>
        <time>2019-11-13T08:50:53Z</time>
      </trkpt>
      <trkpt lat="46.67156" lon="5.95344">
        <ele>798.9</ele>
        <time>2019-11-13T08:51:00Z</time>
      </trkpt>
      <trkpt lat="46.67152" lon="5.95342">
        <ele>798.7</ele>
        <time>2019-11-13T08:51:08Z</time>
      </trkpt>
      <trkpt lat="46.67147" lon="5.95338">
        <ele>798.3</ele>
        <time>2019-11-13T08:51:14Z</time>
      </trkpt>
      <trkpt lat="46.67143" lon="5.95335">
        <ele>797.9</ele>
        <time>2019-11-13T08:51:21Z</time>
      </trkpt>
      <trkpt lat="46.6714" lon="5.9533">
        <ele>797.4</ele>
        <time>2019-11-13T08:51:26Z</time>
      </trkpt>
      <trkpt lat="46.67136" lon="5.95326">
        <ele>796.3</ele>
        <time>2019-11-13T08:51:31Z</time>
      </trkpt>
      <trkpt lat="46.67131" lon="5.95323">
        <ele>794.9</ele>
        <time>2019-11-13T08:51:38Z</time>
      </trkpt>
      <trkpt lat="46.67126" lon="5.95323">
        <ele>793.9</ele>
        <time>2019-11-13T08:51:43Z</time>
      </trkpt>
      <trkpt lat="46.67122" lon="5.95321">
        <ele>792.8</ele>
        <time>2019-11-13T08:51:49Z</time>
      </trkpt>
      <trkpt lat="46.67118" lon="5.95316">
        <ele>792.3</ele>
        <time>2019-11-13T08:51:54Z</time>
      </trkpt>
      <trkpt lat="46.67114" lon="5.95312">
        <ele>791.9</ele>
        <time>2019-11-13T08:51:58Z</time>
      </trkpt>
      <trkpt lat="46.6711" lon="5.95307">
        <ele>791.5</ele>
        <time>2019-11-13T08:52:04Z</time>
      </trkpt>
      <trkpt lat="46.67107" lon="5.95301">
        <ele>791.2</ele>
        <time>2019-11-13T08:52:10Z</time>
      </trkpt>
      <trkpt lat="46.67103" lon="5.95297">
        <ele>790.9</ele>
        <time>2019-11-13T08:52:17Z</time>
      </trkpt>
      <trkpt lat="46.67098" lon="5.95293">
        <ele>790.7</ele>
        <time>2019-11-13T08:52:22Z</time>
      </trkpt>
      <trkpt lat="46.67095" lon="5.95288">
        <ele>790.5</ele>
        <time>2019-11-13T08:52:25Z</time>
      </trkpt>
      <trkpt lat="46.67092" lon="5.95282">
        <ele>790.3</ele>
        <time>2019-11-13T08:52:29Z</time>
      </trkpt>
      <trkpt lat="46.67091" lon="5.95276">
        <ele>790.2</ele>
        <time>2019-11-13T08:52:36Z</time>
      </trkpt>
      <trkpt lat="46.6709" lon="5.95268">
        <ele>789.6</ele>
        <time>2019-11-13T08:52:43Z</time>
      </trkpt>
      <trkpt lat="46.67092" lon="5.95262">
        <ele>789.1</ele>
        <time>2019-11-13T08:52:48Z</time>
      </trkpt>
      <trkpt lat="46.67092" lon="5.95255">
        <ele>788.7</ele>
        <time>2019-11-13T08:52:52Z</time>
      </trkpt>
      <trkpt lat="46.67092" lon="5.95248">
        <ele>788.6</ele>
        <time>2019-11-13T08:52:56Z</time>
      </trkpt>
      <trkpt lat="46.67088" lon="5.95242">
        <ele>788.4</ele>
        <time>2019-11-13T08:53:11Z</time>
      </trkpt>
      <trkpt lat="46.67084" lon="5.95238">
        <ele>788.3</ele>
        <time>2019-11-13T08:53:15Z</time>
      </trkpt>
      <trkpt lat="46.67079" lon="5.95233">
        <ele>788.2</ele>
        <time>2019-11-13T08:53:18Z</time>
      </trkpt>
      <trkpt lat="46.67075" lon="5.9523">
        <ele>788.3</ele>
        <time>2019-11-13T08:53:22Z</time>
      </trkpt>
      <trkpt lat="46.67067" lon="5.95233">
        <ele>788.2</ele>
        <time>2019-11-13T08:53:52Z</time>
      </trkpt>
      <trkpt lat="46.67063" lon="5.95237">
        <ele>788.3</ele>
        <time>2019-11-13T08:53:59Z</time>
      </trkpt>
      <trkpt lat="46.67058" lon="5.95239">
        <ele>788.3</ele>
        <time>2019-11-13T08:54:04Z</time>
      </trkpt>
      <trkpt lat="46.67052" lon="5.95241">
        <ele>788.2</ele>
        <time>2019-11-13T08:54:08Z</time>
      </trkpt>
      <trkpt lat="46.67047" lon="5.95243">
        <ele>787.9</ele>
        <time>2019-11-13T08:54:15Z</time>
      </trkpt>
      <trkpt lat="46.67042" lon="5.95243">
        <ele>787.7</ele>
        <time>2019-11-13T08:54:20Z</time>
      </trkpt>
      <trkpt lat="46.67038" lon="5.95242">
        <ele>787.3</ele>
        <time>2019-11-13T08:54:25Z</time>
      </trkpt>
      <trkpt lat="46.67032" lon="5.95242">
        <ele>786.7</ele>
        <time>2019-11-13T08:54:32Z</time>
      </trkpt>
      <trkpt lat="46.67028" lon="5.95243">
        <ele>786.2</ele>
        <time>2019-11-13T08:54:37Z</time>
      </trkpt>
      <trkpt lat="46.67023" lon="5.95241">
        <ele>785.5</ele>
        <time>2019-11-13T08:54:44Z</time>
      </trkpt>
      <trkpt lat="46.67019" lon="5.9524">
        <ele>784.9</ele>
        <time>2019-11-13T08:54:49Z</time>
      </trkpt>
      <trkpt lat="46.67013" lon="5.9524">
        <ele>783.8</ele>
        <time>2019-11-13T08:54:56Z</time>
      </trkpt>
      <trkpt lat="46.67008" lon="5.9524">
        <ele>783.2</ele>
        <time>2019-11-13T08:55:00Z</time>
      </trkpt>
      <trkpt lat="46.67002" lon="5.95238">
        <ele>782.6</ele>
        <time>2019-11-13T08:55:04Z</time>
      </trkpt>
      <trkpt lat="46.66998" lon="5.95238">
        <ele>781.8</ele>
        <time>2019-11-13T08:55:10Z</time>
      </trkpt>
      <trkpt lat="46.66993" lon="5.95238">
        <ele>780.4</ele>
        <time>2019-11-13T08:55:19Z</time>
      </trkpt>
      <trkpt lat="46.6699" lon="5.95232">
        <ele>777.8</ele>
        <time>2019-11-13T08:55:35Z</time>
      </trkpt>
      <trkpt lat="46.6699" lon="5.95225">
        <ele>776.8</ele>
        <time>2019-11-13T08:55:40Z</time>
      </trkpt>
      <trkpt lat="46.66993" lon="5.95219">
        <ele>775.6</ele>
        <time>2019-11-13T08:55:45Z</time>
      </trkpt>
      <trkpt lat="46.66995" lon="5.9521">
        <ele>774.5</ele>
        <time>2019-11-13T08:55:50Z</time>
      </trkpt>
      <trkpt lat="46.66995" lon="5.95203">
        <ele>773.8</ele>
        <time>2019-11-13T08:55:53Z</time>
      </trkpt>
      <trkpt lat="46.66995" lon="5.95195">
        <ele>773.1</ele>
        <time>2019-11-13T08:55:56Z</time>
      </trkpt>
      <trkpt lat="46.66997" lon="5.95189">
        <ele>772.3</ele>
        <time>2019-11-13T08:56:00Z</time>
      </trkpt>
      <trkpt lat="46.66996" lon="5.95181">
        <ele>771.2</ele>
        <time>2019-11-13T08:56:07Z</time>
      </trkpt>
      <trkpt lat="46.66992" lon="5.95179">
        <ele>770.3</ele>
        <time>2019-11-13T08:56:13Z</time>
      </trkpt>
      <trkpt lat="46.66986" lon="5.95176">
        <ele>769.6</ele>
        <time>2019-11-13T08:56:18Z</time>
      </trkpt>
      <trkpt lat="46.66982" lon="5.95175">
        <ele>768.6</ele>
        <time>2019-11-13T08:56:25Z</time>
      </trkpt>
      <trkpt lat="46.66975" lon="5.95184">
        <ele>768.7</ele>
        <time>2019-11-13T08:57:24Z</time>
      </trkpt>
      <trkpt lat="46.6697" lon="5.95185">
        <ele>768.8</ele>
        <time>2019-11-13T08:57:30Z</time>
      </trkpt>
      <trkpt lat="46.6696" lon="5.95191">
        <ele>769.5</ele>
        <time>2019-11-13T08:57:39Z</time>
      </trkpt>
      <trkpt lat="46.66956" lon="5.95196">
        <ele>769.7</ele>
        <time>2019-11-13T08:57:44Z</time>
      </trkpt>
      <trkpt lat="46.66949" lon="5.95198">
        <ele>770.2</ele>
        <time>2019-11-13T08:57:53Z</time>
      </trkpt>
      <trkpt lat="46.66945" lon="5.95202">
        <ele>770.5</ele>
        <time>2019-11-13T08:57:56Z</time>
      </trkpt>
      <trkpt lat="46.66937" lon="5.95213">
        <ele>770.7</ele>
        <time>2019-11-13T08:58:13Z</time>
      </trkpt>
      <trkpt lat="46.66933" lon="5.95217">
        <ele>770.4</ele>
        <time>2019-11-13T08:58:20Z</time>
      </trkpt>
      <trkpt lat="46.66929" lon="5.95221">
        <ele>770.2</ele>
        <time>2019-11-13T08:58:24Z</time>
      </trkpt>
      <trkpt lat="46.66925" lon="5.95225">
        <ele>770</ele>
        <time>2019-11-13T08:58:29Z</time>
      </trkpt>
      <trkpt lat="46.66921" lon="5.95229">
        <ele>769.8</ele>
        <time>2019-11-13T08:58:31Z</time>
      </trkpt>
      <trkpt lat="46.66913" lon="5.95241">
        <ele>769</ele>
        <time>2019-11-13T08:58:41Z</time>
      </trkpt>
      <trkpt lat="46.6691" lon="5.95246">
        <ele>768.6</ele>
        <time>2019-11-13T08:58:46Z</time>
      </trkpt>
      <trkpt lat="46.66907" lon="5.95252">
        <ele>767.8</ele>
        <time>2019-11-13T08:58:52Z</time>
      </trkpt>
      <trkpt lat="46.66904" lon="5.95257">
        <ele>767.2</ele>
        <time>2019-11-13T08:58:56Z</time>
      </trkpt>
      <trkpt lat="46.669" lon="5.95261">
        <ele>766.4</ele>
        <time>2019-11-13T08:59:02Z</time>
      </trkpt>
      <trkpt lat="46.66895" lon="5.95261">
        <ele>765.6</ele>
        <time>2019-11-13T08:59:08Z</time>
      </trkpt>
      <trkpt lat="46.6689" lon="5.95264">
        <ele>765.1</ele>
        <time>2019-11-13T08:59:13Z</time>
      </trkpt>
      <trkpt lat="46.66887" lon="5.95268">
        <ele>764.7</ele>
        <time>2019-11-13T08:59:18Z</time>
      </trkpt>
      <trkpt lat="46.66883" lon="5.95272">
        <ele>764.6</ele>
        <time>2019-11-13T08:59:22Z</time>
      </trkpt>
      <trkpt lat="46.66879" lon="5.95276">
        <ele>764.4</ele>
        <time>2019-11-13T08:59:27Z</time>
      </trkpt>
      <trkpt lat="46.66874" lon="5.95277">
        <ele>764.2</ele>
        <time>2019-11-13T08:59:31Z</time>
      </trkpt>
      <trkpt lat="46.66869" lon="5.9528">
        <ele>764</ele>
        <time>2019-11-13T08:59:36Z</time>
      </trkpt>
      <trkpt lat="46.66864" lon="5.95282">
        <ele>763.9</ele>
        <time>2019-11-13T08:59:40Z</time>
      </trkpt>
      <trkpt lat="46.6686" lon="5.95286">
        <ele>763.9</ele>
        <time>2019-11-13T08:59:44Z</time>
      </trkpt>
      <trkpt lat="46.66857" lon="5.95291">
        <ele>763.8</ele>
        <time>2019-11-13T08:59:47Z</time>
      </trkpt>
      <trkpt lat="46.66853" lon="5.95296">
        <ele>763.2</ele>
        <time>2019-11-13T08:59:53Z</time>
      </trkpt>
      <trkpt lat="46.66848" lon="5.95298">
        <ele>762.7</ele>
        <time>2019-11-13T08:59:57Z</time>
      </trkpt>
      <trkpt lat="46.66843" lon="5.95301">
        <ele>762.1</ele>
        <time>2019-11-13T09:00:02Z</time>
      </trkpt>
      <trkpt lat="46.66838" lon="5.95303">
        <ele>761.9</ele>
        <time>2019-11-13T09:00:06Z</time>
      </trkpt>
      <trkpt lat="46.66834" lon="5.95306">
        <ele>761.4</ele>
        <time>2019-11-13T09:00:14Z</time>
      </trkpt>
      <trkpt lat="46.66829" lon="5.95307">
        <ele>761</ele>
        <time>2019-11-13T09:00:21Z</time>
      </trkpt>
      <trkpt lat="46.66824" lon="5.95308">
        <ele>760.9</ele>
        <time>2019-11-13T09:00:27Z</time>
      </trkpt>
      <trkpt lat="46.66819" lon="5.95309">
        <ele>760.7</ele>
        <time>2019-11-13T09:00:33Z</time>
      </trkpt>
      <trkpt lat="46.66815" lon="5.95311">
        <ele>760.4</ele>
        <time>2019-11-13T09:00:38Z</time>
      </trkpt>
      <trkpt lat="46.66811" lon="5.95315">
        <ele>760.1</ele>
        <time>2019-11-13T09:00:43Z</time>
      </trkpt>
      <trkpt lat="46.66805" lon="5.95318">
        <ele>759.4</ele>
        <time>2019-11-13T09:00:50Z</time>
      </trkpt>
      <trkpt lat="46.66801" lon="5.95324">
        <ele>759.1</ele>
        <time>2019-11-13T09:00:54Z</time>
      </trkpt>
      <trkpt lat="46.66798" lon="5.95329">
        <ele>758.9</ele>
        <time>2019-11-13T09:00:57Z</time>
      </trkpt>
      <trkpt lat="46.66793" lon="5.95333">
        <ele>758.5</ele>
        <time>2019-11-13T09:01:02Z</time>
      </trkpt>
      <trkpt lat="46.6679" lon="5.95338">
        <ele>758.3</ele>
        <time>2019-11-13T09:01:06Z</time>
      </trkpt>
      <trkpt lat="46.66785" lon="5.95342">
        <ele>758</ele>
        <time>2019-11-13T09:01:10Z</time>
      </trkpt>
      <trkpt lat="46.66782" lon="5.95346">
        <ele>757.7</ele>
        <time>2019-11-13T09:01:15Z</time>
      </trkpt>
      <trkpt lat="46.66779" lon="5.95351">
        <ele>757.5</ele>
        <time>2019-11-13T09:01:20Z</time>
      </trkpt>
      <trkpt lat="46.66774" lon="5.95355">
        <ele>757.3</ele>
        <time>2019-11-13T09:01:26Z</time>
      </trkpt>
      <trkpt lat="46.66771" lon="5.95361">
        <ele>757</ele>
        <time>2019-11-13T09:01:31Z</time>
      </trkpt>
      <trkpt lat="46.66767" lon="5.95367">
        <ele>756.8</ele>
        <time>2019-11-13T09:01:37Z</time>
      </trkpt>
      <trkpt lat="46.66763" lon="5.95372">
        <ele>756.7</ele>
        <time>2019-11-13T09:01:42Z</time>
      </trkpt>
      <trkpt lat="46.66759" lon="5.95377">
        <ele>756.7</ele>
        <time>2019-11-13T09:01:46Z</time>
      </trkpt>
      <trkpt lat="46.66755" lon="5.95383">
        <ele>756.7</ele>
        <time>2019-11-13T09:01:50Z</time>
      </trkpt>
      <trkpt lat="46.66752" lon="5.95387">
        <ele>756.6</ele>
        <time>2019-11-13T09:01:54Z</time>
      </trkpt>
      <trkpt lat="46.66748" lon="5.95392">
        <ele>756.6</ele>
        <time>2019-11-13T09:01:58Z</time>
      </trkpt>
      <trkpt lat="46.66744" lon="5.95398">
        <ele>756.6</ele>
        <time>2019-11-13T09:02:03Z</time>
      </trkpt>
      <trkpt lat="46.6674" lon="5.95403">
        <ele>756.5</ele>
        <time>2019-11-13T09:02:09Z</time>
      </trkpt>
      <trkpt lat="46.66736" lon="5.95408">
        <ele>756.4</ele>
        <time>2019-11-13T09:02:15Z</time>
      </trkpt>
      <trkpt lat="46.66732" lon="5.95411">
        <ele>756.2</ele>
        <time>2019-11-13T09:02:20Z</time>
      </trkpt>
      <trkpt lat="46.66728" lon="5.95414">
        <ele>756.1</ele>
        <time>2019-11-13T09:02:24Z</time>
      </trkpt>
      <trkpt lat="46.66723" lon="5.95415">
        <ele>756.1</ele>
        <time>2019-11-13T09:02:29Z</time>
      </trkpt>
      <trkpt lat="46.66719" lon="5.95416">
        <ele>756</ele>
        <time>2019-11-13T09:02:33Z</time>
      </trkpt>
      <trkpt lat="46.66714" lon="5.95413">
        <ele>754.5</ele>
        <time>2019-11-13T09:03:18Z</time>
      </trkpt>
      <trkpt lat="46.6671" lon="5.95411">
        <ele>754.5</ele>
        <time>2019-11-13T09:03:33Z</time>
      </trkpt>
      <trkpt lat="46.66709" lon="5.95404">
        <ele>754.8</ele>
        <time>2019-11-13T09:03:49Z</time>
      </trkpt>
      <trkpt lat="46.66705" lon="5.95398">
        <ele>754.9</ele>
        <time>2019-11-13T09:03:54Z</time>
      </trkpt>
      <trkpt lat="46.66701" lon="5.95394">
        <ele>754.9</ele>
        <time>2019-11-13T09:03:58Z</time>
      </trkpt>
      <trkpt lat="46.66699" lon="5.95387">
        <ele>754.7</ele>
        <time>2019-11-13T09:04:05Z</time>
      </trkpt>
      <trkpt lat="46.66697" lon="5.95381">
        <ele>754.4</ele>
        <time>2019-11-13T09:04:14Z</time>
      </trkpt>
      <trkpt lat="46.66694" lon="5.95375">
        <ele>754.1</ele>
        <time>2019-11-13T09:04:20Z</time>
      </trkpt>
      <trkpt lat="46.66692" lon="5.95368">
        <ele>754.1</ele>
        <time>2019-11-13T09:04:25Z</time>
      </trkpt>
      <trkpt lat="46.66691" lon="5.95362">
        <ele>754.2</ele>
        <time>2019-11-13T09:04:30Z</time>
      </trkpt>
      <trkpt lat="46.66689" lon="5.95356">
        <ele>754.3</ele>
        <time>2019-11-13T09:04:34Z</time>
      </trkpt>
      <trkpt lat="46.66686" lon="5.95349">
        <ele>754.3</ele>
        <time>2019-11-13T09:04:38Z</time>
      </trkpt>
      <trkpt lat="46.66683" lon="5.95344">
        <ele>754.1</ele>
        <time>2019-11-13T09:04:42Z</time>
      </trkpt>
      <trkpt lat="46.66681" lon="5.95339">
        <ele>753.7</ele>
        <time>2019-11-13T09:04:46Z</time>
      </trkpt>
      <trkpt lat="46.66678" lon="5.95333">
        <ele>753.3</ele>
        <time>2019-11-13T09:04:50Z</time>
      </trkpt>
      <trkpt lat="46.66675" lon="5.95328">
        <ele>752.8</ele>
        <time>2019-11-13T09:04:55Z</time>
      </trkpt>
      <trkpt lat="46.66672" lon="5.95323">
        <ele>752.6</ele>
        <time>2019-11-13T09:05:01Z</time>
      </trkpt>
      <trkpt lat="46.6667" lon="5.95316">
        <ele>752.3</ele>
        <time>2019-11-13T09:05:07Z</time>
      </trkpt>
      <trkpt lat="46.66667" lon="5.9531">
        <ele>752.1</ele>
        <time>2019-11-13T09:05:11Z</time>
      </trkpt>
      <trkpt lat="46.66664" lon="5.95304">
        <ele>751.8</ele>
        <time>2019-11-13T09:05:15Z</time>
      </trkpt>
      <trkpt lat="46.66661" lon="5.95298">
        <ele>751.4</ele>
        <time>2019-11-13T09:05:19Z</time>
      </trkpt>
      <trkpt lat="46.66658" lon="5.95293">
        <ele>750.9</ele>
        <time>2019-11-13T09:05:24Z</time>
      </trkpt>
      <trkpt lat="46.66656" lon="5.95287">
        <ele>750.7</ele>
        <time>2019-11-13T09:05:28Z</time>
      </trkpt>
      <trkpt lat="46.66654" lon="5.9528">
        <ele>750.5</ele>
        <time>2019-11-13T09:05:33Z</time>
      </trkpt>
      <trkpt lat="46.66653" lon="5.95274">
        <ele>750.5</ele>
        <time>2019-11-13T09:05:38Z</time>
      </trkpt>
      <trkpt lat="46.6665" lon="5.95268">
        <ele>750.7</ele>
        <time>2019-11-13T09:05:43Z</time>
      </trkpt>
      <trkpt lat="46.66647" lon="5.95261">
        <ele>750.8</ele>
        <time>2019-11-13T09:05:48Z</time>
      </trkpt>
      <trkpt lat="46.66644" lon="5.95255">
        <ele>750.9</ele>
        <time>2019-11-13T09:05:53Z</time>
      </trkpt>
      <trkpt lat="46.66642" lon="5.95247">
        <ele>750.9</ele>
        <time>2019-11-13T09:05:58Z</time>
      </trkpt>
      <trkpt lat="46.66639" lon="5.95241">
        <ele>750.9</ele>
        <time>2019-11-13T09:06:02Z</time>
      </trkpt>
      <trkpt lat="46.66636" lon="5.95235">
        <ele>750.8</ele>
        <time>2019-11-13T09:06:07Z</time>
      </trkpt>
      <trkpt lat="46.66632" lon="5.9523">
        <ele>750.7</ele>
        <time>2019-11-13T09:06:12Z</time>
      </trkpt>
      <trkpt lat="46.66629" lon="5.95225">
        <ele>750.5</ele>
        <time>2019-11-13T09:06:17Z</time>
      </trkpt>
      <trkpt lat="46.66625" lon="5.95221">
        <ele>750.3</ele>
        <time>2019-11-13T09:06:22Z</time>
      </trkpt>
      <trkpt lat="46.66621" lon="5.95215">
        <ele>750.1</ele>
        <time>2019-11-13T09:06:27Z</time>
      </trkpt>
      <trkpt lat="46.66617" lon="5.95209">
        <ele>749.7</ele>
        <time>2019-11-13T09:06:31Z</time>
      </trkpt>
      <trkpt lat="46.66614" lon="5.95204">
        <ele>749.4</ele>
        <time>2019-11-13T09:06:37Z</time>
      </trkpt>
      <trkpt lat="46.6661" lon="5.95199">
        <ele>749.2</ele>
        <time>2019-11-13T09:06:42Z</time>
      </trkpt>
      <trkpt lat="46.66605" lon="5.95197">
        <ele>749.2</ele>
        <time>2019-11-13T09:06:46Z</time>
      </trkpt>
      <trkpt lat="46.666" lon="5.95196">
        <ele>749.2</ele>
        <time>2019-11-13T09:06:50Z</time>
      </trkpt>
      <trkpt lat="46.66596" lon="5.95196">
        <ele>749</ele>
        <time>2019-11-13T09:06:55Z</time>
      </trkpt>
      <trkpt lat="46.66591" lon="5.95195">
        <ele>748.7</ele>
        <time>2019-11-13T09:06:59Z</time>
      </trkpt>
      <trkpt lat="46.66586" lon="5.95194">
        <ele>748.3</ele>
        <time>2019-11-13T09:07:03Z</time>
      </trkpt>
      <trkpt lat="46.6658" lon="5.95193">
        <ele>747.9</ele>
        <time>2019-11-13T09:07:07Z</time>
      </trkpt>
      <trkpt lat="46.66575" lon="5.95191">
        <ele>747.1</ele>
        <time>2019-11-13T09:07:15Z</time>
      </trkpt>
      <trkpt lat="46.6657" lon="5.9519">
        <ele>746.7</ele>
        <time>2019-11-13T09:07:21Z</time>
      </trkpt>
      <trkpt lat="46.66565" lon="5.9519">
        <ele>746.5</ele>
        <time>2019-11-13T09:07:24Z</time>
      </trkpt>
      <trkpt lat="46.6656" lon="5.95189">
        <ele>746.4</ele>
        <time>2019-11-13T09:07:29Z</time>
      </trkpt>
      <trkpt lat="46.66555" lon="5.95187">
        <ele>746.3</ele>
        <time>2019-11-13T09:07:34Z</time>
      </trkpt>
      <trkpt lat="46.66551" lon="5.95185">
        <ele>746</ele>
        <time>2019-11-13T09:07:40Z</time>
      </trkpt>
      <trkpt lat="46.66546" lon="5.95184">
        <ele>745.8</ele>
        <time>2019-11-13T09:07:45Z</time>
      </trkpt>
      <trkpt lat="46.66541" lon="5.95185">
        <ele>745.8</ele>
        <time>2019-11-13T09:07:50Z</time>
      </trkpt>
      <trkpt lat="46.66537" lon="5.95187">
        <ele>745.9</ele>
        <time>2019-11-13T09:07:54Z</time>
      </trkpt>
      <trkpt lat="46.66533" lon="5.9519">
        <ele>746.2</ele>
        <time>2019-11-13T09:07:58Z</time>
      </trkpt>
      <trkpt lat="46.66529" lon="5.95195">
        <ele>746.8</ele>
        <time>2019-11-13T09:08:03Z</time>
      </trkpt>
      <trkpt lat="46.66526" lon="5.952">
        <ele>747.4</ele>
        <time>2019-11-13T09:08:08Z</time>
      </trkpt>
      <trkpt lat="46.66523" lon="5.95205">
        <ele>747.7</ele>
        <time>2019-11-13T09:08:12Z</time>
      </trkpt>
      <trkpt lat="46.6652" lon="5.95212">
        <ele>748.1</ele>
        <time>2019-11-13T09:08:18Z</time>
      </trkpt>
      <trkpt lat="46.66516" lon="5.95218">
        <ele>748.3</ele>
        <time>2019-11-13T09:08:24Z</time>
      </trkpt>
      <trkpt lat="46.66513" lon="5.95224">
        <ele>748.4</ele>
        <time>2019-11-13T09:08:28Z</time>
      </trkpt>
      <trkpt lat="46.66509" lon="5.95228">
        <ele>748.5</ele>
        <time>2019-11-13T09:08:33Z</time>
      </trkpt>
      <trkpt lat="46.66505" lon="5.95231">
        <ele>748.7</ele>
        <time>2019-11-13T09:08:37Z</time>
      </trkpt>
      <trkpt lat="46.66501" lon="5.95235">
        <ele>749</ele>
        <time>2019-11-13T09:08:42Z</time>
      </trkpt>
      <trkpt lat="46.66497" lon="5.9524">
        <ele>749.5</ele>
        <time>2019-11-13T09:08:48Z</time>
      </trkpt>
      <trkpt lat="46.66493" lon="5.95244">
        <ele>750</ele>
        <time>2019-11-13T09:08:53Z</time>
      </trkpt>
      <trkpt lat="46.66489" lon="5.95248">
        <ele>750.4</ele>
        <time>2019-11-13T09:08:59Z</time>
      </trkpt>
      <trkpt lat="46.66484" lon="5.95251">
        <ele>750.7</ele>
        <time>2019-11-13T09:09:04Z</time>
      </trkpt>
      <trkpt lat="46.66479" lon="5.95255">
        <ele>751.1</ele>
        <time>2019-11-13T09:09:09Z</time>
      </trkpt>
      <trkpt lat="46.66475" lon="5.95259">
        <ele>751.4</ele>
        <time>2019-11-13T09:09:14Z</time>
      </trkpt>
      <trkpt lat="46.66471" lon="5.95262">
        <ele>751.8</ele>
        <time>2019-11-13T09:09:19Z</time>
      </trkpt>
      <trkpt lat="46.66466" lon="5.95267">
        <ele>752.2</ele>
        <time>2019-11-13T09:09:24Z</time>
      </trkpt>
      <trkpt lat="46.66462" lon="5.95271">
        <ele>752.7</ele>
        <time>2019-11-13T09:09:29Z</time>
      </trkpt>
      <trkpt lat="46.66458" lon="5.95274">
        <ele>753.2</ele>
        <time>2019-11-13T09:09:34Z</time>
      </trkpt>
      <trkpt lat="46.66453" lon="5.95278">
        <ele>753.7</ele>
        <time>2019-11-13T09:09:39Z</time>
      </trkpt>
      <trkpt lat="46.66449" lon="5.95282">
        <ele>754.1</ele>
        <time>2019-11-13T09:09:44Z</time>
      </trkpt>
      <trkpt lat="46.66444" lon="5.95286">
        <ele>754.4</ele>
        <time>2019-11-13T09:09:48Z</time>
      </trkpt>
      <trkpt lat="46.6644" lon="5.9529">
        <ele>754.6</ele>
        <time>2019-11-13T09:09:52Z</time>
      </trkpt>
      <trkpt lat="46.66436" lon="5.95294">
        <ele>755</ele>
        <time>2019-11-13T09:09:58Z</time>
      </trkpt>
      <trkpt lat="46.66431" lon="5.95297">
        <ele>755.3</ele>
        <time>2019-11-13T09:10:02Z</time>
      </trkpt>
      <trkpt lat="46.66428" lon="5.95302">
        <ele>755.8</ele>
        <time>2019-11-13T09:10:08Z</time>
      </trkpt>
      <trkpt lat="46.66423" lon="5.95306">
        <ele>756.3</ele>
        <time>2019-11-13T09:10:14Z</time>
      </trkpt>
      <trkpt lat="46.6642" lon="5.95311">
        <ele>756.9</ele>
        <time>2019-11-13T09:10:19Z</time>
      </trkpt>
      <trkpt lat="46.66416" lon="5.95315">
        <ele>757.4</ele>
        <time>2019-11-13T09:10:24Z</time>
      </trkpt>
      <trkpt lat="46.66412" lon="5.9532">
        <ele>758</ele>
        <time>2019-11-13T09:10:30Z</time>
      </trkpt>
      <trkpt lat="46.66407" lon="5.95323">
        <ele>758.6</ele>
        <time>2019-11-13T09:10:35Z</time>
      </trkpt>
      <trkpt lat="46.66403" lon="5.95326">
        <ele>758.9</ele>
        <time>2019-11-13T09:10:39Z</time>
      </trkpt>
      <trkpt lat="46.66399" lon="5.9533">
        <ele>759.3</ele>
        <time>2019-11-13T09:10:44Z</time>
      </trkpt>
      <trkpt lat="46.66394" lon="5.9533">
        <ele>760.2</ele>
        <time>2019-11-13T09:11:04Z</time>
      </trkpt>
      <trkpt lat="46.66389" lon="5.95328">
        <ele>760.6</ele>
        <time>2019-11-13T09:11:08Z</time>
      </trkpt>
      <trkpt lat="46.66384" lon="5.95328">
        <ele>761.2</ele>
        <time>2019-11-13T09:11:13Z</time>
      </trkpt>
      <trkpt lat="46.66379" lon="5.9533">
        <ele>761.6</ele>
        <time>2019-11-13T09:11:19Z</time>
      </trkpt>
      <trkpt lat="46.66375" lon="5.95328">
        <ele>761.8</ele>
        <time>2019-11-13T09:11:24Z</time>
      </trkpt>
      <trkpt lat="46.6637" lon="5.95327">
        <ele>762.2</ele>
        <time>2019-11-13T09:11:29Z</time>
      </trkpt>
      <trkpt lat="46.66357" lon="5.95334">
        <ele>762.9</ele>
        <time>2019-11-13T09:11:44Z</time>
      </trkpt>
      <trkpt lat="46.66352" lon="5.95333">
        <ele>763</ele>
        <time>2019-11-13T09:11:49Z</time>
      </trkpt>
      <trkpt lat="46.66347" lon="5.9533">
        <ele>763.1</ele>
        <time>2019-11-13T09:11:54Z</time>
      </trkpt>
      <trkpt lat="46.66342" lon="5.95331">
        <ele>763</ele>
        <time>2019-11-13T09:11:58Z</time>
      </trkpt>
      <trkpt lat="46.66333" lon="5.9533">
        <ele>763.3</ele>
        <time>2019-11-13T09:12:09Z</time>
      </trkpt>
      <trkpt lat="46.66329" lon="5.9533">
        <ele>763.7</ele>
        <time>2019-11-13T09:12:14Z</time>
      </trkpt>
      <trkpt lat="46.66324" lon="5.95329">
        <ele>764.7</ele>
        <time>2019-11-13T09:12:20Z</time>
      </trkpt>
      <trkpt lat="46.66319" lon="5.95328">
        <ele>765.5</ele>
        <time>2019-11-13T09:12:25Z</time>
      </trkpt>
      <trkpt lat="46.66314" lon="5.9533">
        <ele>765.9</ele>
        <time>2019-11-13T09:12:28Z</time>
      </trkpt>
      <trkpt lat="46.66309" lon="5.95334">
        <ele>766.4</ele>
        <time>2019-11-13T09:12:32Z</time>
      </trkpt>
      <trkpt lat="46.66303" lon="5.95336">
        <ele>767</ele>
        <time>2019-11-13T09:12:37Z</time>
      </trkpt>
      <trkpt lat="46.66299" lon="5.95339">
        <ele>767.6</ele>
        <time>2019-11-13T09:12:40Z</time>
      </trkpt>
      <trkpt lat="46.66294" lon="5.9534">
        <ele>768.3</ele>
        <time>2019-11-13T09:12:43Z</time>
      </trkpt>
      <trkpt lat="46.66289" lon="5.95341">
        <ele>769.5</ele>
        <time>2019-11-13T09:12:48Z</time>
      </trkpt>
      <trkpt lat="46.66283" lon="5.95343">
        <ele>770.2</ele>
        <time>2019-11-13T09:12:51Z</time>
      </trkpt>
      <trkpt lat="46.6628" lon="5.95347">
        <ele>771.2</ele>
        <time>2019-11-13T09:12:57Z</time>
      </trkpt>
      <trkpt lat="46.66276" lon="5.95352">
        <ele>771.7</ele>
        <time>2019-11-13T09:13:06Z</time>
      </trkpt>
      <trkpt lat="46.66272" lon="5.95357">
        <ele>771.4</ele>
        <time>2019-11-13T09:13:16Z</time>
      </trkpt>
      <trkpt lat="46.66267" lon="5.9536">
        <ele>771.1</ele>
        <time>2019-11-13T09:13:22Z</time>
      </trkpt>
      <trkpt lat="46.66263" lon="5.95363">
        <ele>771.1</ele>
        <time>2019-11-13T09:13:27Z</time>
      </trkpt>
      <trkpt lat="46.66258" lon="5.95365">
        <ele>771.2</ele>
        <time>2019-11-13T09:13:33Z</time>
      </trkpt>
      <trkpt lat="46.66253" lon="5.95366">
        <ele>771.3</ele>
        <time>2019-11-13T09:13:41Z</time>
      </trkpt>
      <trkpt lat="46.66248" lon="5.95363">
        <ele>771.3</ele>
        <time>2019-11-13T09:13:45Z</time>
      </trkpt>
      <trkpt lat="46.66244" lon="5.95359">
        <ele>771.8</ele>
        <time>2019-11-13T09:13:51Z</time>
      </trkpt>
      <trkpt lat="46.66234" lon="5.95351">
        <ele>772</ele>
        <time>2019-11-13T09:14:12Z</time>
      </trkpt>
      <trkpt lat="46.66229" lon="5.95351">
        <ele>771.7</ele>
        <time>2019-11-13T09:14:23Z</time>
      </trkpt>
      <trkpt lat="46.66225" lon="5.9535">
        <ele>771.3</ele>
        <time>2019-11-13T09:14:31Z</time>
      </trkpt>
      <trkpt lat="46.66222" lon="5.95344">
        <ele>770.5</ele>
        <time>2019-11-13T09:14:39Z</time>
      </trkpt>
      <trkpt lat="46.66221" lon="5.95337">
        <ele>769.3</ele>
        <time>2019-11-13T09:14:48Z</time>
      </trkpt>
      <trkpt lat="46.66222" lon="5.95331">
        <ele>768.5</ele>
        <time>2019-11-13T09:14:56Z</time>
      </trkpt>
      <trkpt lat="46.66222" lon="5.95324">
        <ele>768.1</ele>
        <time>2019-11-13T09:15:04Z</time>
      </trkpt>
      <trkpt lat="46.66222" lon="5.95316">
        <ele>767.7</ele>
        <time>2019-11-13T09:15:11Z</time>
      </trkpt>
      <trkpt lat="46.66221" lon="5.95308">
        <ele>767.8</ele>
        <time>2019-11-13T09:15:15Z</time>
      </trkpt>
      <trkpt lat="46.6622" lon="5.95301">
        <ele>767.9</ele>
        <time>2019-11-13T09:15:17Z</time>
      </trkpt>
      <trkpt lat="46.66218" lon="5.95294">
        <ele>768.1</ele>
        <time>2019-11-13T09:15:20Z</time>
      </trkpt>
      <trkpt lat="46.66214" lon="5.95288">
        <ele>768.3</ele>
        <time>2019-11-13T09:15:24Z</time>
      </trkpt>
      <trkpt lat="46.66211" lon="5.95284">
        <ele>768.7</ele>
        <time>2019-11-13T09:15:29Z</time>
      </trkpt>
      <trkpt lat="46.66207" lon="5.95279">
        <ele>769.3</ele>
        <time>2019-11-13T09:15:35Z</time>
      </trkpt>
      <trkpt lat="46.66204" lon="5.95272">
        <ele>769.7</ele>
        <time>2019-11-13T09:15:41Z</time>
      </trkpt>
      <trkpt lat="46.66201" lon="5.95265">
        <ele>769.1</ele>
        <time>2019-11-13T09:15:52Z</time>
      </trkpt>
      <trkpt lat="46.66197" lon="5.95262">
        <ele>768.2</ele>
        <time>2019-11-13T09:16:00Z</time>
      </trkpt>
      <trkpt lat="46.66196" lon="5.95253">
        <ele>763.2</ele>
        <time>2019-11-13T09:16:49Z</time>
      </trkpt>
      <trkpt lat="46.66197" lon="5.95246">
        <ele>763.1</ele>
        <time>2019-11-13T09:16:54Z</time>
      </trkpt>
      <trkpt lat="46.66199" lon="5.95238">
        <ele>763.3</ele>
        <time>2019-11-13T09:16:59Z</time>
      </trkpt>
      <trkpt lat="46.66202" lon="5.9523">
        <ele>763.5</ele>
        <time>2019-11-13T09:17:02Z</time>
      </trkpt>
      <trkpt lat="46.66203" lon="5.95223">
        <ele>763.9</ele>
        <time>2019-11-13T09:17:06Z</time>
      </trkpt>
      <trkpt lat="46.66203" lon="5.95215">
        <ele>764.3</ele>
        <time>2019-11-13T09:17:09Z</time>
      </trkpt>
      <trkpt lat="46.66202" lon="5.95207">
        <ele>764.6</ele>
        <time>2019-11-13T09:17:11Z</time>
      </trkpt>
      <trkpt lat="46.662" lon="5.95199">
        <ele>765.1</ele>
        <time>2019-11-13T09:17:14Z</time>
      </trkpt>
      <trkpt lat="46.66197" lon="5.95193">
        <ele>765.9</ele>
        <time>2019-11-13T09:17:19Z</time>
      </trkpt>
      <trkpt lat="46.66194" lon="5.95188">
        <ele>766.4</ele>
        <time>2019-11-13T09:17:25Z</time>
      </trkpt>
      <trkpt lat="46.66192" lon="5.95182">
        <ele>766.1</ele>
        <time>2019-11-13T09:17:33Z</time>
      </trkpt>
      <trkpt lat="46.66189" lon="5.95176">
        <ele>764.5</ele>
        <time>2019-11-13T09:17:40Z</time>
      </trkpt>
      <trkpt lat="46.66192" lon="5.95171">
        <ele>763.3</ele>
        <time>2019-11-13T09:17:45Z</time>
      </trkpt>
      <trkpt lat="46.66196" lon="5.95166">
        <ele>762.5</ele>
        <time>2019-11-13T09:17:50Z</time>
      </trkpt>
      <trkpt lat="46.66197" lon="5.95159">
        <ele>762</ele>
        <time>2019-11-13T09:17:53Z</time>
      </trkpt>
      <trkpt lat="46.66197" lon="5.95151">
        <ele>761.4</ele>
        <time>2019-11-13T09:17:57Z</time>
      </trkpt>
      <trkpt lat="46.66197" lon="5.95144">
        <ele>760.6</ele>
        <time>2019-11-13T09:18:02Z</time>
      </trkpt>
      <trkpt lat="46.66196" lon="5.95136">
        <ele>760.1</ele>
        <time>2019-11-13T09:18:06Z</time>
      </trkpt>
      <trkpt lat="46.66195" lon="5.95129">
        <ele>759.7</ele>
        <time>2019-11-13T09:18:09Z</time>
      </trkpt>
      <trkpt lat="46.66192" lon="5.95124">
        <ele>758.9</ele>
        <time>2019-11-13T09:18:16Z</time>
      </trkpt>
      <trkpt lat="46.66189" lon="5.95119">
        <ele>758.3</ele>
        <time>2019-11-13T09:18:23Z</time>
      </trkpt>
      <trkpt lat="46.66186" lon="5.95112">
        <ele>758</ele>
        <time>2019-11-13T09:18:33Z</time>
      </trkpt>
      <trkpt lat="46.66182" lon="5.95107">
        <ele>757.6</ele>
        <time>2019-11-13T09:18:37Z</time>
      </trkpt>
      <trkpt lat="46.66178" lon="5.95098">
        <ele>757.3</ele>
        <time>2019-11-13T09:18:40Z</time>
      </trkpt>
      <trkpt lat="46.66175" lon="5.95092">
        <ele>757.1</ele>
        <time>2019-11-13T09:18:42Z</time>
      </trkpt>
      <trkpt lat="46.66173" lon="5.95086">
        <ele>756.9</ele>
        <time>2019-11-13T09:18:45Z</time>
      </trkpt>
      <trkpt lat="46.66169" lon="5.95081">
        <ele>756.5</ele>
        <time>2019-11-13T09:18:50Z</time>
      </trkpt>
      <trkpt lat="46.66167" lon="5.95075">
        <ele>756.1</ele>
        <time>2019-11-13T09:18:57Z</time>
      </trkpt>
      <trkpt lat="46.66164" lon="5.95068">
        <ele>755.8</ele>
        <time>2019-11-13T09:19:00Z</time>
      </trkpt>
      <trkpt lat="46.66162" lon="5.95062">
        <ele>755.3</ele>
        <time>2019-11-13T09:19:06Z</time>
      </trkpt>
      <trkpt lat="46.66159" lon="5.95055">
        <ele>754.5</ele>
        <time>2019-11-13T09:19:11Z</time>
      </trkpt>
      <trkpt lat="46.66155" lon="5.95049">
        <ele>753.8</ele>
        <time>2019-11-13T09:19:16Z</time>
      </trkpt>
      <trkpt lat="46.66152" lon="5.95045">
        <ele>752.1</ele>
        <time>2019-11-13T09:19:25Z</time>
      </trkpt>
      <trkpt lat="46.66146" lon="5.95044">
        <ele>750.5</ele>
        <time>2019-11-13T09:19:33Z</time>
      </trkpt>
      <trkpt lat="46.66141" lon="5.95044">
        <ele>749.6</ele>
        <time>2019-11-13T09:19:38Z</time>
      </trkpt>
      <trkpt lat="46.66136" lon="5.95043">
        <ele>748.9</ele>
        <time>2019-11-13T09:19:42Z</time>
      </trkpt>
      <trkpt lat="46.66131" lon="5.95041">
        <ele>748.3</ele>
        <time>2019-11-13T09:19:46Z</time>
      </trkpt>
      <trkpt lat="46.66127" lon="5.95039">
        <ele>747.5</ele>
        <time>2019-11-13T09:19:51Z</time>
      </trkpt>
      <trkpt lat="46.66122" lon="5.95037">
        <ele>746.6</ele>
        <time>2019-11-13T09:19:56Z</time>
      </trkpt>
      <trkpt lat="46.66114" lon="5.95033">
        <ele>744.8</ele>
        <time>2019-11-13T09:20:08Z</time>
      </trkpt>
      <trkpt lat="46.6611" lon="5.95029">
        <ele>745</ele>
        <time>2019-11-13T09:20:16Z</time>
      </trkpt>
      <trkpt lat="46.66107" lon="5.95023">
        <ele>745.2</ele>
        <time>2019-11-13T09:20:22Z</time>
      </trkpt>
      <trkpt lat="46.66103" lon="5.95019">
        <ele>745.4</ele>
        <time>2019-11-13T09:20:27Z</time>
      </trkpt>
      <trkpt lat="46.66098" lon="5.95016">
        <ele>745.8</ele>
        <time>2019-11-13T09:20:31Z</time>
      </trkpt>
      <trkpt lat="46.66094" lon="5.95012">
        <ele>746.1</ele>
        <time>2019-11-13T09:20:34Z</time>
      </trkpt>
      <trkpt lat="46.66089" lon="5.95007">
        <ele>746.4</ele>
        <time>2019-11-13T09:20:37Z</time>
      </trkpt>
      <trkpt lat="46.66085" lon="5.95005">
        <ele>746.7</ele>
        <time>2019-11-13T09:20:41Z</time>
      </trkpt>
      <trkpt lat="46.6608" lon="5.95001">
        <ele>747.2</ele>
        <time>2019-11-13T09:20:49Z</time>
      </trkpt>
      <trkpt lat="46.66076" lon="5.94998">
        <ele>747.1</ele>
        <time>2019-11-13T09:21:03Z</time>
      </trkpt>
      <trkpt lat="46.66073" lon="5.94992">
        <ele>746.4</ele>
        <time>2019-11-13T09:21:10Z</time>
      </trkpt>
      <trkpt lat="46.6607" lon="5.94986">
        <ele>745.8</ele>
        <time>2019-11-13T09:21:16Z</time>
      </trkpt>
      <trkpt lat="46.66067" lon="5.94982">
        <ele>742.3</ele>
        <time>2019-11-13T09:21:40Z</time>
      </trkpt>
      <trkpt lat="46.66064" lon="5.94976">
        <ele>741.8</ele>
        <time>2019-11-13T09:21:43Z</time>
      </trkpt>
      <trkpt lat="46.66062" lon="5.94971">
        <ele>740.7</ele>
        <time>2019-11-13T09:21:50Z</time>
      </trkpt>
      <trkpt lat="46.66064" lon="5.94963">
        <ele>739.3</ele>
        <time>2019-11-13T09:21:58Z</time>
      </trkpt>
      <trkpt lat="46.66068" lon="5.94956">
        <ele>738.4</ele>
        <time>2019-11-13T09:22:02Z</time>
      </trkpt>
      <trkpt lat="46.6607" lon="5.94947">
        <ele>737.8</ele>
        <time>2019-11-13T09:22:05Z</time>
      </trkpt>
      <trkpt lat="46.6607" lon="5.94939">
        <ele>737.1</ele>
        <time>2019-11-13T09:22:11Z</time>
      </trkpt>
      <trkpt lat="46.66072" lon="5.94933">
        <ele>737.3</ele>
        <time>2019-11-13T09:22:18Z</time>
      </trkpt>
      <trkpt lat="46.66085" lon="5.94922">
        <ele>738.7</ele>
        <time>2019-11-13T09:22:39Z</time>
      </trkpt>
      <trkpt lat="46.66087" lon="5.94915">
        <ele>739</ele>
        <time>2019-11-13T09:22:43Z</time>
      </trkpt>
      <trkpt lat="46.66091" lon="5.94911">
        <ele>739.2</ele>
        <time>2019-11-13T09:22:50Z</time>
      </trkpt>
      <trkpt lat="46.66094" lon="5.94905">
        <ele>737.9</ele>
        <time>2019-11-13T09:23:04Z</time>
      </trkpt>
      <trkpt lat="46.66096" lon="5.94899">
        <ele>737.1</ele>
        <time>2019-11-13T09:23:08Z</time>
      </trkpt>
      <trkpt lat="46.66095" lon="5.94892">
        <ele>736.8</ele>
        <time>2019-11-13T09:23:10Z</time>
      </trkpt>
      <trkpt lat="46.66103" lon="5.94878">
        <ele>737.5</ele>
        <time>2019-11-13T09:26:36Z</time>
      </trkpt>
      <trkpt lat="46.66106" lon="5.94874">
        <ele>739.3</ele>
        <time>2019-11-13T09:26:45Z</time>
      </trkpt>
      <trkpt lat="46.66112" lon="5.94875">
        <ele>740.3</ele>
        <time>2019-11-13T09:26:54Z</time>
      </trkpt>
      <trkpt lat="46.66116" lon="5.94876">
        <ele>740.6</ele>
        <time>2019-11-13T09:27:02Z</time>
      </trkpt>
      <trkpt lat="46.66122" lon="5.94877">
        <ele>740.7</ele>
        <time>2019-11-13T09:27:08Z</time>
      </trkpt>
      <trkpt lat="46.66128" lon="5.94875">
        <ele>740.3</ele>
        <time>2019-11-13T09:27:12Z</time>
      </trkpt>
      <trkpt lat="46.66133" lon="5.94874">
        <ele>739.9</ele>
        <time>2019-11-13T09:27:16Z</time>
      </trkpt>
      <trkpt lat="46.66138" lon="5.94871">
        <ele>739.3</ele>
        <time>2019-11-13T09:27:21Z</time>
      </trkpt>
      <trkpt lat="46.66144" lon="5.94871">
        <ele>738.6</ele>
        <time>2019-11-13T09:27:25Z</time>
      </trkpt>
      <trkpt lat="46.66149" lon="5.94872">
        <ele>737.7</ele>
        <time>2019-11-13T09:27:29Z</time>
      </trkpt>
      <trkpt lat="46.66154" lon="5.94875">
        <ele>736.2</ele>
        <time>2019-11-13T09:27:34Z</time>
      </trkpt>
      <trkpt lat="46.66159" lon="5.94875">
        <ele>734.4</ele>
        <time>2019-11-13T09:27:41Z</time>
      </trkpt>
      <trkpt lat="46.66163" lon="5.94874">
        <ele>733.2</ele>
        <time>2019-11-13T09:27:47Z</time>
      </trkpt>
      <trkpt lat="46.66168" lon="5.94874">
        <ele>731.8</ele>
        <time>2019-11-13T09:27:53Z</time>
      </trkpt>
      <trkpt lat="46.66173" lon="5.94871">
        <ele>730.4</ele>
        <time>2019-11-13T09:27:58Z</time>
      </trkpt>
      <trkpt lat="46.66177" lon="5.94868">
        <ele>728.3</ele>
        <time>2019-11-13T09:28:05Z</time>
      </trkpt>
      <trkpt lat="46.66182" lon="5.94865">
        <ele>726.7</ele>
        <time>2019-11-13T09:28:10Z</time>
      </trkpt>
      <trkpt lat="46.66186" lon="5.94861">
        <ele>725.3</ele>
        <time>2019-11-13T09:28:15Z</time>
      </trkpt>
      <trkpt lat="46.6619" lon="5.94857">
        <ele>723.7</ele>
        <time>2019-11-13T09:28:21Z</time>
      </trkpt>
      <trkpt lat="46.66194" lon="5.94853">
        <ele>722.8</ele>
        <time>2019-11-13T09:28:26Z</time>
      </trkpt>
      <trkpt lat="46.66198" lon="5.94847">
        <ele>721.9</ele>
        <time>2019-11-13T09:28:31Z</time>
      </trkpt>
      <trkpt lat="46.66201" lon="5.94842">
        <ele>721.5</ele>
        <time>2019-11-13T09:28:34Z</time>
      </trkpt>
      <trkpt lat="46.66205" lon="5.94838">
        <ele>720.9</ele>
        <time>2019-11-13T09:28:38Z</time>
      </trkpt>
      <trkpt lat="46.66209" lon="5.94835">
        <ele>720.1</ele>
        <time>2019-11-13T09:28:44Z</time>
      </trkpt>
      <trkpt lat="46.66213" lon="5.94832">
        <ele>719.3</ele>
        <time>2019-11-13T09:28:51Z</time>
      </trkpt>
      <trkpt lat="46.66217" lon="5.94829">
        <ele>719</ele>
        <time>2019-11-13T09:28:58Z</time>
      </trkpt>
      <trkpt lat="46.66215" lon="5.94822">
        <ele>718.8</ele>
        <time>2019-11-13T09:29:04Z</time>
      </trkpt>
      <trkpt lat="46.66212" lon="5.94817">
        <ele>718.5</ele>
        <time>2019-11-13T09:29:09Z</time>
      </trkpt>
      <trkpt lat="46.66209" lon="5.94813">
        <ele>718.1</ele>
        <time>2019-11-13T09:29:14Z</time>
      </trkpt>
      <trkpt lat="46.66205" lon="5.94806">
        <ele>717.8</ele>
        <time>2019-11-13T09:29:19Z</time>
      </trkpt>
      <trkpt lat="46.66202" lon="5.948">
        <ele>717.5</ele>
        <time>2019-11-13T09:29:25Z</time>
      </trkpt>
      <trkpt lat="46.66198" lon="5.94794">
        <ele>717.2</ele>
        <time>2019-11-13T09:29:30Z</time>
      </trkpt>
      <trkpt lat="46.66194" lon="5.94789">
        <ele>717</ele>
        <time>2019-11-13T09:29:34Z</time>
      </trkpt>
      <trkpt lat="46.66191" lon="5.94784">
        <ele>716.9</ele>
        <time>2019-11-13T09:29:39Z</time>
      </trkpt>
      <trkpt lat="46.66187" lon="5.94779">
        <ele>716.8</ele>
        <time>2019-11-13T09:29:44Z</time>
      </trkpt>
      <trkpt lat="46.66183" lon="5.94774">
        <ele>716.9</ele>
        <time>2019-11-13T09:29:49Z</time>
      </trkpt>
      <trkpt lat="46.6618" lon="5.94769">
        <ele>716.8</ele>
        <time>2019-11-13T09:29:54Z</time>
      </trkpt>
      <trkpt lat="46.66177" lon="5.94764">
        <ele>716.8</ele>
        <time>2019-11-13T09:29:58Z</time>
      </trkpt>
      <trkpt lat="46.66172" lon="5.94761">
        <ele>716.8</ele>
        <time>2019-11-13T09:30:02Z</time>
      </trkpt>
      <trkpt lat="46.66169" lon="5.94755">
        <ele>716.9</ele>
        <time>2019-11-13T09:30:06Z</time>
      </trkpt>
      <trkpt lat="46.66165" lon="5.9475">
        <ele>717</ele>
        <time>2019-11-13T09:30:10Z</time>
      </trkpt>
      <trkpt lat="46.66162" lon="5.94746">
        <ele>716.9</ele>
        <time>2019-11-13T09:30:16Z</time>
      </trkpt>
      <trkpt lat="46.66157" lon="5.94745">
        <ele>716.8</ele>
        <time>2019-11-13T09:30:20Z</time>
      </trkpt>
      <trkpt lat="46.66152" lon="5.94742">
        <ele>716.5</ele>
        <time>2019-11-13T09:30:24Z</time>
      </trkpt>
      <trkpt lat="46.66147" lon="5.9474">
        <ele>716.2</ele>
        <time>2019-11-13T09:30:29Z</time>
      </trkpt>
      <trkpt lat="46.66143" lon="5.94739">
        <ele>715.9</ele>
        <time>2019-11-13T09:30:33Z</time>
      </trkpt>
      <trkpt lat="46.66137" lon="5.94736">
        <ele>715.7</ele>
        <time>2019-11-13T09:30:38Z</time>
      </trkpt>
      <trkpt lat="46.66132" lon="5.94734">
        <ele>715.6</ele>
        <time>2019-11-13T09:30:42Z</time>
      </trkpt>
      <trkpt lat="46.66127" lon="5.94733">
        <ele>715.6</ele>
        <time>2019-11-13T09:30:46Z</time>
      </trkpt>
      <trkpt lat="46.66123" lon="5.94732">
        <ele>715.7</ele>
        <time>2019-11-13T09:30:50Z</time>
      </trkpt>
      <trkpt lat="46.66117" lon="5.94731">
        <ele>715.9</ele>
        <time>2019-11-13T09:30:55Z</time>
      </trkpt>
      <trkpt lat="46.66113" lon="5.9473">
        <ele>716.2</ele>
        <time>2019-11-13T09:31:00Z</time>
      </trkpt>
      <trkpt lat="46.66107" lon="5.94729">
        <ele>716.6</ele>
        <time>2019-11-13T09:31:06Z</time>
      </trkpt>
      <trkpt lat="46.66102" lon="5.94727">
        <ele>717</ele>
        <time>2019-11-13T09:31:12Z</time>
      </trkpt>
      <trkpt lat="46.66097" lon="5.94726">
        <ele>717</ele>
        <time>2019-11-13T09:31:17Z</time>
      </trkpt>
      <trkpt lat="46.66092" lon="5.94727">
        <ele>716.7</ele>
        <time>2019-11-13T09:31:22Z</time>
      </trkpt>
      <trkpt lat="46.66087" lon="5.94726">
        <ele>716.3</ele>
        <time>2019-11-13T09:31:27Z</time>
      </trkpt>
      <trkpt lat="46.66082" lon="5.94726">
        <ele>716.1</ele>
        <time>2019-11-13T09:31:31Z</time>
      </trkpt>
      <trkpt lat="46.66076" lon="5.94728">
        <ele>716</ele>
        <time>2019-11-13T09:31:35Z</time>
      </trkpt>
      <trkpt lat="46.66072" lon="5.9473">
        <ele>715.9</ele>
        <time>2019-11-13T09:31:39Z</time>
      </trkpt>
      <trkpt lat="46.66066" lon="5.9473">
        <ele>716</ele>
        <time>2019-11-13T09:31:43Z</time>
      </trkpt>
      <trkpt lat="46.66061" lon="5.94728">
        <ele>715.9</ele>
        <time>2019-11-13T09:31:48Z</time>
      </trkpt>
      <trkpt lat="46.66057" lon="5.94726">
        <ele>715.9</ele>
        <time>2019-11-13T09:31:54Z</time>
      </trkpt>
      <trkpt lat="46.66051" lon="5.94725">
        <ele>715.7</ele>
        <time>2019-11-13T09:31:59Z</time>
      </trkpt>
      <trkpt lat="46.66045" lon="5.94725">
        <ele>715.3</ele>
        <time>2019-11-13T09:32:03Z</time>
      </trkpt>
      <trkpt lat="46.66041" lon="5.94727">
        <ele>715</ele>
        <time>2019-11-13T09:32:06Z</time>
      </trkpt>
      <trkpt lat="46.66037" lon="5.94729">
        <ele>714.5</ele>
        <time>2019-11-13T09:32:10Z</time>
      </trkpt>
      <trkpt lat="46.66032" lon="5.9473">
        <ele>714.1</ele>
        <time>2019-11-13T09:32:14Z</time>
      </trkpt>
      <trkpt lat="46.66027" lon="5.94731">
        <ele>713.9</ele>
        <time>2019-11-13T09:32:18Z</time>
      </trkpt>
      <trkpt lat="46.66022" lon="5.94731">
        <ele>713.8</ele>
        <time>2019-11-13T09:32:22Z</time>
      </trkpt>
      <trkpt lat="46.66016" lon="5.94731">
        <ele>713.8</ele>
        <time>2019-11-13T09:32:26Z</time>
      </trkpt>
      <trkpt lat="46.66011" lon="5.9473">
        <ele>713.8</ele>
        <time>2019-11-13T09:32:31Z</time>
      </trkpt>
      <trkpt lat="46.66007" lon="5.9473">
        <ele>713.7</ele>
        <time>2019-11-13T09:32:35Z</time>
      </trkpt>
      <trkpt lat="46.66001" lon="5.94731">
        <ele>713.7</ele>
        <time>2019-11-13T09:32:40Z</time>
      </trkpt>
      <trkpt lat="46.65996" lon="5.94734">
        <ele>713.6</ele>
        <time>2019-11-13T09:32:44Z</time>
      </trkpt>
      <trkpt lat="46.65992" lon="5.94737">
        <ele>713.4</ele>
        <time>2019-11-13T09:32:49Z</time>
      </trkpt>
      <trkpt lat="46.65986" lon="5.94738">
        <ele>713</ele>
        <time>2019-11-13T09:32:55Z</time>
      </trkpt>
      <trkpt lat="46.65981" lon="5.94739">
        <ele>712.5</ele>
        <time>2019-11-13T09:33:00Z</time>
      </trkpt>
      <trkpt lat="46.65975" lon="5.9474">
        <ele>712.1</ele>
        <time>2019-11-13T09:33:04Z</time>
      </trkpt>
      <trkpt lat="46.65971" lon="5.94739">
        <ele>711.9</ele>
        <time>2019-11-13T09:33:08Z</time>
      </trkpt>
      <trkpt lat="46.65966" lon="5.94737">
        <ele>711.7</ele>
        <time>2019-11-13T09:33:14Z</time>
      </trkpt>
      <trkpt lat="46.65962" lon="5.94736">
        <ele>711.6</ele>
        <time>2019-11-13T09:33:18Z</time>
      </trkpt>
      <trkpt lat="46.65957" lon="5.94735">
        <ele>711.5</ele>
        <time>2019-11-13T09:33:22Z</time>
      </trkpt>
      <trkpt lat="46.65952" lon="5.94735">
        <ele>711.5</ele>
        <time>2019-11-13T09:33:25Z</time>
      </trkpt>
      <trkpt lat="46.65948" lon="5.94735">
        <ele>711.5</ele>
        <time>2019-11-13T09:33:29Z</time>
      </trkpt>
      <trkpt lat="46.65943" lon="5.94735">
        <ele>711.5</ele>
        <time>2019-11-13T09:33:33Z</time>
      </trkpt>
      <trkpt lat="46.65937" lon="5.94734">
        <ele>711.5</ele>
        <time>2019-11-13T09:33:37Z</time>
      </trkpt>
      <trkpt lat="46.65933" lon="5.94733">
        <ele>711.7</ele>
        <time>2019-11-13T09:33:41Z</time>
      </trkpt>
      <trkpt lat="46.65928" lon="5.94732">
        <ele>711.8</ele>
        <time>2019-11-13T09:33:46Z</time>
      </trkpt>
      <trkpt lat="46.65923" lon="5.94731">
        <ele>711.9</ele>
        <time>2019-11-13T09:33:51Z</time>
      </trkpt>
      <trkpt lat="46.65917" lon="5.94731">
        <ele>712</ele>
        <time>2019-11-13T09:33:55Z</time>
      </trkpt>
      <trkpt lat="46.65912" lon="5.94731">
        <ele>712.2</ele>
        <time>2019-11-13T09:33:59Z</time>
      </trkpt>
      <trkpt lat="46.65907" lon="5.9473">
        <ele>712.3</ele>
        <time>2019-11-13T09:34:04Z</time>
      </trkpt>
      <trkpt lat="46.65902" lon="5.9473">
        <ele>712.2</ele>
        <time>2019-11-13T09:34:08Z</time>
      </trkpt>
      <trkpt lat="46.65897" lon="5.9473">
        <ele>712.1</ele>
        <time>2019-11-13T09:34:13Z</time>
      </trkpt>
      <trkpt lat="46.65891" lon="5.94729">
        <ele>712.1</ele>
        <time>2019-11-13T09:34:17Z</time>
      </trkpt>
      <trkpt lat="46.65886" lon="5.94727">
        <ele>712</ele>
        <time>2019-11-13T09:34:21Z</time>
      </trkpt>
      <trkpt lat="46.65881" lon="5.94725">
        <ele>711.7</ele>
        <time>2019-11-13T09:34:26Z</time>
      </trkpt>
      <trkpt lat="46.65876" lon="5.94724">
        <ele>711.6</ele>
        <time>2019-11-13T09:34:31Z</time>
      </trkpt>
      <trkpt lat="46.65872" lon="5.94722">
        <ele>711.3</ele>
        <time>2019-11-13T09:34:36Z</time>
      </trkpt>
      <trkpt lat="46.65866" lon="5.94721">
        <ele>711.1</ele>
        <time>2019-11-13T09:34:40Z</time>
      </trkpt>
      <trkpt lat="46.65862" lon="5.94721">
        <ele>710.9</ele>
        <time>2019-11-13T09:34:44Z</time>
      </trkpt>
      <trkpt lat="46.65857" lon="5.9472">
        <ele>710.8</ele>
        <time>2019-11-13T09:34:48Z</time>
      </trkpt>
      <trkpt lat="46.65852" lon="5.94718">
        <ele>710.7</ele>
        <time>2019-11-13T09:34:53Z</time>
      </trkpt>
      <trkpt lat="46.65846" lon="5.94717">
        <ele>710.8</ele>
        <time>2019-11-13T09:34:58Z</time>
      </trkpt>
      <trkpt lat="46.65841" lon="5.94716">
        <ele>710.8</ele>
        <time>2019-11-13T09:35:02Z</time>
      </trkpt>
      <trkpt lat="46.65836" lon="5.94715">
        <ele>710.9</ele>
        <time>2019-11-13T09:35:07Z</time>
      </trkpt>
      <trkpt lat="46.65831" lon="5.94715">
        <ele>710.8</ele>
        <time>2019-11-13T09:35:12Z</time>
      </trkpt>
      <trkpt lat="46.65827" lon="5.94714">
        <ele>710.7</ele>
        <time>2019-11-13T09:35:16Z</time>
      </trkpt>
      <trkpt lat="46.65822" lon="5.94713">
        <ele>710.6</ele>
        <time>2019-11-13T09:35:20Z</time>
      </trkpt>
      <trkpt lat="46.65816" lon="5.94714">
        <ele>710.5</ele>
        <time>2019-11-13T09:35:25Z</time>
      </trkpt>
      <trkpt lat="46.65811" lon="5.94714">
        <ele>710.4</ele>
        <time>2019-11-13T09:35:29Z</time>
      </trkpt>
      <trkpt lat="46.65806" lon="5.94714">
        <ele>710.2</ele>
        <time>2019-11-13T09:35:33Z</time>
      </trkpt>
      <trkpt lat="46.65801" lon="5.94714">
        <ele>709.9</ele>
        <time>2019-11-13T09:35:37Z</time>
      </trkpt>
      <trkpt lat="46.65796" lon="5.94712">
        <ele>709.7</ele>
        <time>2019-11-13T09:35:41Z</time>
      </trkpt>
      <trkpt lat="46.65791" lon="5.94711">
        <ele>709.6</ele>
        <time>2019-11-13T09:35:45Z</time>
      </trkpt>
      <trkpt lat="46.65786" lon="5.94708">
        <ele>709.6</ele>
        <time>2019-11-13T09:35:49Z</time>
      </trkpt>
      <trkpt lat="46.65782" lon="5.94705">
        <ele>710</ele>
        <time>2019-11-13T09:35:55Z</time>
      </trkpt>
      <trkpt lat="46.65777" lon="5.94703">
        <ele>710.1</ele>
        <time>2019-11-13T09:35:59Z</time>
      </trkpt>
      <trkpt lat="46.65772" lon="5.94702">
        <ele>710.2</ele>
        <time>2019-11-13T09:36:03Z</time>
      </trkpt>
      <trkpt lat="46.65768" lon="5.94702">
        <ele>710.3</ele>
        <time>2019-11-13T09:36:07Z</time>
      </trkpt>
      <trkpt lat="46.65762" lon="5.94701">
        <ele>710.5</ele>
        <time>2019-11-13T09:36:11Z</time>
      </trkpt>
      <trkpt lat="46.65756" lon="5.94699">
        <ele>710.8</ele>
        <time>2019-11-13T09:36:14Z</time>
      </trkpt>
      <trkpt lat="46.65751" lon="5.94697">
        <ele>711.2</ele>
        <time>2019-11-13T09:36:17Z</time>
      </trkpt>
      <trkpt lat="46.65746" lon="5.94697">
        <ele>711.8</ele>
        <time>2019-11-13T09:36:21Z</time>
      </trkpt>
      <trkpt lat="46.65742" lon="5.94698">
        <ele>712.3</ele>
        <time>2019-11-13T09:36:26Z</time>
      </trkpt>
      <trkpt lat="46.65737" lon="5.94697">
        <ele>712.6</ele>
        <time>2019-11-13T09:36:30Z</time>
      </trkpt>
      <trkpt lat="46.65732" lon="5.94695">
        <ele>712.8</ele>
        <time>2019-11-13T09:36:34Z</time>
      </trkpt>
      <trkpt lat="46.65727" lon="5.94693">
        <ele>713.2</ele>
        <time>2019-11-13T09:36:39Z</time>
      </trkpt>
      <trkpt lat="46.65722" lon="5.94692">
        <ele>713.5</ele>
        <time>2019-11-13T09:36:43Z</time>
      </trkpt>
      <trkpt lat="46.65717" lon="5.9469">
        <ele>713.7</ele>
        <time>2019-11-13T09:36:47Z</time>
      </trkpt>
      <trkpt lat="46.65712" lon="5.94687">
        <ele>713.8</ele>
        <time>2019-11-13T09:36:53Z</time>
      </trkpt>
      <trkpt lat="46.65708" lon="5.94683">
        <ele>713.9</ele>
        <time>2019-11-13T09:36:58Z</time>
      </trkpt>
      <trkpt lat="46.65704" lon="5.94679">
        <ele>714.2</ele>
        <time>2019-11-13T09:37:02Z</time>
      </trkpt>
      <trkpt lat="46.65699" lon="5.94676">
        <ele>714.3</ele>
        <time>2019-11-13T09:37:07Z</time>
      </trkpt>
      <trkpt lat="46.65694" lon="5.94671">
        <ele>714.4</ele>
        <time>2019-11-13T09:37:11Z</time>
      </trkpt>
      <trkpt lat="46.65692" lon="5.94665">
        <ele>714.5</ele>
        <time>2019-11-13T09:37:15Z</time>
      </trkpt>
      <trkpt lat="46.65689" lon="5.9466">
        <ele>714.8</ele>
        <time>2019-11-13T09:37:20Z</time>
      </trkpt>
      <trkpt lat="46.65684" lon="5.94655">
        <ele>715</ele>
        <time>2019-11-13T09:37:25Z</time>
      </trkpt>
      <trkpt lat="46.65679" lon="5.9465">
        <ele>715.1</ele>
        <time>2019-11-13T09:37:29Z</time>
      </trkpt>
      <trkpt lat="46.65676" lon="5.94646">
        <ele>715.3</ele>
        <time>2019-11-13T09:37:33Z</time>
      </trkpt>
      <trkpt lat="46.65672" lon="5.94642">
        <ele>715.5</ele>
        <time>2019-11-13T09:37:38Z</time>
      </trkpt>
      <trkpt lat="46.65667" lon="5.9464">
        <ele>715.6</ele>
        <time>2019-11-13T09:37:43Z</time>
      </trkpt>
      <trkpt lat="46.65663" lon="5.94636">
        <ele>715.7</ele>
        <time>2019-11-13T09:37:47Z</time>
      </trkpt>
      <trkpt lat="46.6566" lon="5.9463">
        <ele>715.7</ele>
        <time>2019-11-13T09:37:51Z</time>
      </trkpt>
      <trkpt lat="46.65656" lon="5.94626">
        <ele>715.9</ele>
        <time>2019-11-13T09:37:56Z</time>
      </trkpt>
      <trkpt lat="46.65652" lon="5.94621">
        <ele>716</ele>
        <time>2019-11-13T09:38:00Z</time>
      </trkpt>
      <trkpt lat="46.65648" lon="5.94617">
        <ele>716.2</ele>
        <time>2019-11-13T09:38:04Z</time>
      </trkpt>
      <trkpt lat="46.65645" lon="5.94611">
        <ele>716.3</ele>
        <time>2019-11-13T09:38:09Z</time>
      </trkpt>
      <trkpt lat="46.65641" lon="5.94606">
        <ele>716.4</ele>
        <time>2019-11-13T09:38:13Z</time>
      </trkpt>
      <trkpt lat="46.65637" lon="5.94602">
        <ele>716.6</ele>
        <time>2019-11-13T09:38:17Z</time>
      </trkpt>
      <trkpt lat="46.65633" lon="5.94598">
        <ele>716.7</ele>
        <time>2019-11-13T09:38:21Z</time>
      </trkpt>
      <trkpt lat="46.65629" lon="5.94594">
        <ele>717</ele>
        <time>2019-11-13T09:38:25Z</time>
      </trkpt>
      <trkpt lat="46.65625" lon="5.9459">
        <ele>717.2</ele>
        <time>2019-11-13T09:38:29Z</time>
      </trkpt>
      <trkpt lat="46.65621" lon="5.94586">
        <ele>717.3</ele>
        <time>2019-11-13T09:38:32Z</time>
      </trkpt>
      <trkpt lat="46.65618" lon="5.94582">
        <ele>717.4</ele>
        <time>2019-11-13T09:38:35Z</time>
      </trkpt>
      <trkpt lat="46.65614" lon="5.94576">
        <ele>717.5</ele>
        <time>2019-11-13T09:38:41Z</time>
      </trkpt>
      <trkpt lat="46.65611" lon="5.94572">
        <ele>717.4</ele>
        <time>2019-11-13T09:38:46Z</time>
      </trkpt>
      <trkpt lat="46.65607" lon="5.94568">
        <ele>717.3</ele>
        <time>2019-11-13T09:38:50Z</time>
      </trkpt>
      <trkpt lat="46.65603" lon="5.94563">
        <ele>717.3</ele>
        <time>2019-11-13T09:38:54Z</time>
      </trkpt>
      <trkpt lat="46.65599" lon="5.94559">
        <ele>717.2</ele>
        <time>2019-11-13T09:38:57Z</time>
      </trkpt>
      <trkpt lat="46.65595" lon="5.94553">
        <ele>716.9</ele>
        <time>2019-11-13T09:39:01Z</time>
      </trkpt>
      <trkpt lat="46.65592" lon="5.94547">
        <ele>716.5</ele>
        <time>2019-11-13T09:39:06Z</time>
      </trkpt>
      <trkpt lat="46.65588" lon="5.94543">
        <ele>716.4</ele>
        <time>2019-11-13T09:39:11Z</time>
      </trkpt>
      <trkpt lat="46.65584" lon="5.94539">
        <ele>716.4</ele>
        <time>2019-11-13T09:39:15Z</time>
      </trkpt>
      <trkpt lat="46.6558" lon="5.94534">
        <ele>716.3</ele>
        <time>2019-11-13T09:39:21Z</time>
      </trkpt>
      <trkpt lat="46.65576" lon="5.94528">
        <ele>716.5</ele>
        <time>2019-11-13T09:39:27Z</time>
      </trkpt>
      <trkpt lat="46.65572" lon="5.94523">
        <ele>716.5</ele>
        <time>2019-11-13T09:39:30Z</time>
      </trkpt>
      <trkpt lat="46.65568" lon="5.94519">
        <ele>716.5</ele>
        <time>2019-11-13T09:39:33Z</time>
      </trkpt>
      <trkpt lat="46.65566" lon="5.94512">
        <ele>716.6</ele>
        <time>2019-11-13T09:39:38Z</time>
      </trkpt>
      <trkpt lat="46.65566" lon="5.94504">
        <ele>716.6</ele>
        <time>2019-11-13T09:39:42Z</time>
      </trkpt>
      <trkpt lat="46.65567" lon="5.94496">
        <ele>716.6</ele>
        <time>2019-11-13T09:39:46Z</time>
      </trkpt>
      <trkpt lat="46.65568" lon="5.94489">
        <ele>716.4</ele>
        <time>2019-11-13T09:39:52Z</time>
      </trkpt>
      <trkpt lat="46.6557" lon="5.94481">
        <ele>715.8</ele>
        <time>2019-11-13T09:39:59Z</time>
      </trkpt>
      <trkpt lat="46.65572" lon="5.94474">
        <ele>715.5</ele>
        <time>2019-11-13T09:40:03Z</time>
      </trkpt>
      <trkpt lat="46.65573" lon="5.94466">
        <ele>715</ele>
        <time>2019-11-13T09:40:09Z</time>
      </trkpt>
      <trkpt lat="46.65574" lon="5.94459">
        <ele>714.7</ele>
        <time>2019-11-13T09:40:13Z</time>
      </trkpt>
      <trkpt lat="46.65576" lon="5.94451">
        <ele>714.4</ele>
        <time>2019-11-13T09:40:18Z</time>
      </trkpt>
      <trkpt lat="46.65577" lon="5.94445">
        <ele>714.4</ele>
        <time>2019-11-13T09:40:22Z</time>
      </trkpt>
      <trkpt lat="46.65578" lon="5.94436">
        <ele>714.6</ele>
        <time>2019-11-13T09:40:26Z</time>
      </trkpt>
      <trkpt lat="46.6558" lon="5.9443">
        <ele>714.7</ele>
        <time>2019-11-13T09:40:30Z</time>
      </trkpt>
      <trkpt lat="46.65581" lon="5.94424">
        <ele>714.9</ele>
        <time>2019-11-13T09:40:35Z</time>
      </trkpt>
      <trkpt lat="46.65582" lon="5.94416">
        <ele>715</ele>
        <time>2019-11-13T09:40:39Z</time>
      </trkpt>
      <trkpt lat="46.65584" lon="5.94409">
        <ele>715.1</ele>
        <time>2019-11-13T09:40:44Z</time>
      </trkpt>
      <trkpt lat="46.65585" lon="5.94402">
        <ele>715</ele>
        <time>2019-11-13T09:40:49Z</time>
      </trkpt>
      <trkpt lat="46.65587" lon="5.94396">
        <ele>714.5</ele>
        <time>2019-11-13T09:40:55Z</time>
      </trkpt>
      <trkpt lat="46.6559" lon="5.94391">
        <ele>714.2</ele>
        <time>2019-11-13T09:41:00Z</time>
      </trkpt>
      <trkpt lat="46.6559" lon="5.94384">
        <ele>713.9</ele>
        <time>2019-11-13T09:41:10Z</time>
      </trkpt>
      <trkpt lat="46.6559" lon="5.94378">
        <ele>713.6</ele>
        <time>2019-11-13T09:41:14Z</time>
      </trkpt>
      <trkpt lat="46.6559" lon="5.9437">
        <ele>713.1</ele>
        <time>2019-11-13T09:41:21Z</time>
      </trkpt>
      <trkpt lat="46.65591" lon="5.94362">
        <ele>712.7</ele>
        <time>2019-11-13T09:41:27Z</time>
      </trkpt>
      <trkpt lat="46.65593" lon="5.94356">
        <ele>712.5</ele>
        <time>2019-11-13T09:41:32Z</time>
      </trkpt>
      <trkpt lat="46.65595" lon="5.94349">
        <ele>712.1</ele>
        <time>2019-11-13T09:41:39Z</time>
      </trkpt>
      <trkpt lat="46.65597" lon="5.94343">
        <ele>711.7</ele>
        <time>2019-11-13T09:41:45Z</time>
      </trkpt>
      <trkpt lat="46.65599" lon="5.94337">
        <ele>711</ele>
        <time>2019-11-13T09:41:50Z</time>
      </trkpt>
      <trkpt lat="46.656" lon="5.94331">
        <ele>710.3</ele>
        <time>2019-11-13T09:41:55Z</time>
      </trkpt>
      <trkpt lat="46.65598" lon="5.94324">
        <ele>710.1</ele>
        <time>2019-11-13T09:41:58Z</time>
      </trkpt>
      <trkpt lat="46.65597" lon="5.94318">
        <ele>710</ele>
        <time>2019-11-13T09:42:01Z</time>
      </trkpt>
      <trkpt lat="46.65596" lon="5.94311">
        <ele>709.7</ele>
        <time>2019-11-13T09:42:06Z</time>
      </trkpt>
      <trkpt lat="46.65593" lon="5.94303">
        <ele>709.8</ele>
        <time>2019-11-13T09:42:12Z</time>
      </trkpt>
      <trkpt lat="46.6559" lon="5.94298">
        <ele>710.1</ele>
        <time>2019-11-13T09:42:15Z</time>
      </trkpt>
      <trkpt lat="46.65586" lon="5.94293">
        <ele>710.4</ele>
        <time>2019-11-13T09:42:18Z</time>
      </trkpt>
      <trkpt lat="46.65582" lon="5.94289">
        <ele>710.8</ele>
        <time>2019-11-13T09:42:21Z</time>
      </trkpt>
      <trkpt lat="46.65579" lon="5.94284">
        <ele>711.2</ele>
        <time>2019-11-13T09:42:24Z</time>
      </trkpt>
      <trkpt lat="46.65576" lon="5.94278">
        <ele>711.7</ele>
        <time>2019-11-13T09:42:29Z</time>
      </trkpt>
      <trkpt lat="46.65574" lon="5.94271">
        <ele>712.1</ele>
        <time>2019-11-13T09:42:35Z</time>
      </trkpt>
      <trkpt lat="46.65572" lon="5.94264">
        <ele>712.5</ele>
        <time>2019-11-13T09:42:42Z</time>
      </trkpt>
      <trkpt lat="46.65568" lon="5.9426">
        <ele>712.5</ele>
        <time>2019-11-13T09:42:47Z</time>
      </trkpt>
      <trkpt lat="46.65563" lon="5.94255">
        <ele>712.2</ele>
        <time>2019-11-13T09:42:51Z</time>
      </trkpt>
      <trkpt lat="46.65559" lon="5.94248">
        <ele>711.7</ele>
        <time>2019-11-13T09:42:55Z</time>
      </trkpt>
      <trkpt lat="46.65557" lon="5.94243">
        <ele>710.9</ele>
        <time>2019-11-13T09:42:59Z</time>
      </trkpt>
      <trkpt lat="46.65555" lon="5.94235">
        <ele>710.2</ele>
        <time>2019-11-13T09:43:03Z</time>
      </trkpt>
      <trkpt lat="46.65553" lon="5.94229">
        <ele>709.7</ele>
        <time>2019-11-13T09:43:06Z</time>
      </trkpt>
      <trkpt lat="46.65551" lon="5.94222">
        <ele>709.5</ele>
        <time>2019-11-13T09:43:10Z</time>
      </trkpt>
      <trkpt lat="46.6555" lon="5.94216">
        <ele>709.5</ele>
        <time>2019-11-13T09:43:16Z</time>
      </trkpt>
      <trkpt lat="46.65552" lon="5.9421">
        <ele>709.1</ele>
        <time>2019-11-13T09:43:28Z</time>
      </trkpt>
      <trkpt lat="46.65555" lon="5.94204">
        <ele>709.4</ele>
        <time>2019-11-13T09:43:34Z</time>
      </trkpt>
      <trkpt lat="46.65557" lon="5.94199">
        <ele>710.2</ele>
        <time>2019-11-13T09:43:41Z</time>
      </trkpt>
      <trkpt lat="46.65562" lon="5.94198">
        <ele>710.8</ele>
        <time>2019-11-13T09:43:45Z</time>
      </trkpt>
      <trkpt lat="46.65567" lon="5.942">
        <ele>711.8</ele>
        <time>2019-11-13T09:43:51Z</time>
      </trkpt>
      <trkpt lat="46.6557" lon="5.94205">
        <ele>712.4</ele>
        <time>2019-11-13T09:43:56Z</time>
      </trkpt>
      <trkpt lat="46.65574" lon="5.94209">
        <ele>713</ele>
        <time>2019-11-13T09:44:01Z</time>
      </trkpt>
      <trkpt lat="46.65577" lon="5.94214">
        <ele>713.4</ele>
        <time>2019-11-13T09:44:05Z</time>
      </trkpt>
      <trkpt lat="46.6558" lon="5.94219">
        <ele>713.9</ele>
        <time>2019-11-13T09:44:10Z</time>
      </trkpt>
      <trkpt lat="46.65583" lon="5.94226">
        <ele>714.3</ele>
        <time>2019-11-13T09:44:15Z</time>
      </trkpt>
      <trkpt lat="46.65587" lon="5.94231">
        <ele>714.8</ele>
        <time>2019-11-13T09:44:20Z</time>
      </trkpt>
      <trkpt lat="46.65591" lon="5.94236">
        <ele>715.6</ele>
        <time>2019-11-13T09:44:26Z</time>
      </trkpt>
      <trkpt lat="46.65592" lon="5.94243">
        <ele>716.5</ele>
        <time>2019-11-13T09:44:34Z</time>
      </trkpt>
      <trkpt lat="46.65596" lon="5.94246">
        <ele>717.1</ele>
        <time>2019-11-13T09:44:40Z</time>
      </trkpt>
      <trkpt lat="46.656" lon="5.94251">
        <ele>717.5</ele>
        <time>2019-11-13T09:44:44Z</time>
      </trkpt>
      <trkpt lat="46.65603" lon="5.94257">
        <ele>718</ele>
        <time>2019-11-13T09:44:48Z</time>
      </trkpt>
      <trkpt lat="46.65606" lon="5.94262">
        <ele>718.6</ele>
        <time>2019-11-13T09:44:52Z</time>
      </trkpt>
      <trkpt lat="46.65609" lon="5.94268">
        <ele>719.4</ele>
        <time>2019-11-13T09:44:57Z</time>
      </trkpt>
      <trkpt lat="46.65613" lon="5.94272">
        <ele>720.5</ele>
        <time>2019-11-13T09:45:03Z</time>
      </trkpt>
      <trkpt lat="46.65617" lon="5.94277">
        <ele>721.4</ele>
        <time>2019-11-13T09:45:09Z</time>
      </trkpt>
      <trkpt lat="46.65622" lon="5.94278">
        <ele>721.9</ele>
        <time>2019-11-13T09:45:14Z</time>
      </trkpt>
      <trkpt lat="46.65627" lon="5.9428">
        <ele>722.3</ele>
        <time>2019-11-13T09:45:19Z</time>
      </trkpt>
      <trkpt lat="46.65632" lon="5.94279">
        <ele>722.4</ele>
        <time>2019-11-13T09:45:24Z</time>
      </trkpt>
      <trkpt lat="46.65637" lon="5.94279">
        <ele>722.4</ele>
        <time>2019-11-13T09:45:29Z</time>
      </trkpt>
      <trkpt lat="46.65642" lon="5.94276">
        <ele>722.6</ele>
        <time>2019-11-13T09:45:33Z</time>
      </trkpt>
      <trkpt lat="46.65646" lon="5.94273">
        <ele>722.9</ele>
        <time>2019-11-13T09:45:38Z</time>
      </trkpt>
      <trkpt lat="46.65651" lon="5.94271">
        <ele>723.4</ele>
        <time>2019-11-13T09:45:44Z</time>
      </trkpt>
      <trkpt lat="46.65656" lon="5.94272">
        <ele>723.7</ele>
        <time>2019-11-13T09:45:49Z</time>
      </trkpt>
      <trkpt lat="46.65661" lon="5.94273">
        <ele>724.3</ele>
        <time>2019-11-13T09:45:56Z</time>
      </trkpt>
      <trkpt lat="46.65666" lon="5.94272">
        <ele>724.9</ele>
        <time>2019-11-13T09:46:02Z</time>
      </trkpt>
      <trkpt lat="46.65669" lon="5.94267">
        <ele>725.9</ele>
        <time>2019-11-13T09:46:09Z</time>
      </trkpt>
      <trkpt lat="46.65671" lon="5.9426">
        <ele>726.5</ele>
        <time>2019-11-13T09:46:16Z</time>
      </trkpt>
      <trkpt lat="46.65672" lon="5.94254">
        <ele>727.1</ele>
        <time>2019-11-13T09:46:22Z</time>
      </trkpt>
      <trkpt lat="46.65673" lon="5.94247">
        <ele>727.5</ele>
        <time>2019-11-13T09:46:27Z</time>
      </trkpt>
      <trkpt lat="46.65673" lon="5.9424">
        <ele>727.8</ele>
        <time>2019-11-13T09:46:32Z</time>
      </trkpt>
      <trkpt lat="46.65675" lon="5.94233">
        <ele>727.7</ele>
        <time>2019-11-13T09:46:38Z</time>
      </trkpt>
      <trkpt lat="46.65677" lon="5.94227">
        <ele>727.8</ele>
        <time>2019-11-13T09:46:42Z</time>
      </trkpt>
      <trkpt lat="46.6568" lon="5.94221">
        <ele>728</ele>
        <time>2019-11-13T09:46:47Z</time>
      </trkpt>
      <trkpt lat="46.65683" lon="5.94214">
        <ele>728.4</ele>
        <time>2019-11-13T09:46:54Z</time>
      </trkpt>
      <trkpt lat="46.65687" lon="5.94209">
        <ele>728.7</ele>
        <time>2019-11-13T09:46:58Z</time>
      </trkpt>
      <trkpt lat="46.6569" lon="5.94203">
        <ele>729.7</ele>
        <time>2019-11-13T09:47:05Z</time>
      </trkpt>
      <trkpt lat="46.65692" lon="5.94196">
        <ele>730.3</ele>
        <time>2019-11-13T09:47:10Z</time>
      </trkpt>
      <trkpt lat="46.65694" lon="5.9419">
        <ele>730.9</ele>
        <time>2019-11-13T09:47:15Z</time>
      </trkpt>
      <trkpt lat="46.65697" lon="5.94185">
        <ele>731.6</ele>
        <time>2019-11-13T09:47:20Z</time>
      </trkpt>
      <trkpt lat="46.657" lon="5.94179">
        <ele>732</ele>
        <time>2019-11-13T09:47:26Z</time>
      </trkpt>
      <trkpt lat="46.65703" lon="5.94173">
        <ele>732.1</ele>
        <time>2019-11-13T09:47:31Z</time>
      </trkpt>
      <trkpt lat="46.65704" lon="5.94166">
        <ele>731.5</ele>
        <time>2019-11-13T09:47:38Z</time>
      </trkpt>
      <trkpt lat="46.65705" lon="5.94159">
        <ele>731</ele>
        <time>2019-11-13T09:47:44Z</time>
      </trkpt>
      <trkpt lat="46.65706" lon="5.94153">
        <ele>730.6</ele>
        <time>2019-11-13T09:47:48Z</time>
      </trkpt>
      <trkpt lat="46.65706" lon="5.94145">
        <ele>730.4</ele>
        <time>2019-11-13T09:47:53Z</time>
      </trkpt>
      <trkpt lat="46.65706" lon="5.94138">
        <ele>730.3</ele>
        <time>2019-11-13T09:47:58Z</time>
      </trkpt>
      <trkpt lat="46.65706" lon="5.94131">
        <ele>730.3</ele>
        <time>2019-11-13T09:48:04Z</time>
      </trkpt>
      <trkpt lat="46.65706" lon="5.94123">
        <ele>730.3</ele>
        <time>2019-11-13T09:48:10Z</time>
      </trkpt>
      <trkpt lat="46.65705" lon="5.94117">
        <ele>730.5</ele>
        <time>2019-11-13T09:48:15Z</time>
      </trkpt>
      <trkpt lat="46.65705" lon="5.94109">
        <ele>730.4</ele>
        <time>2019-11-13T09:48:20Z</time>
      </trkpt>
      <trkpt lat="46.65704" lon="5.94101">
        <ele>730.2</ele>
        <time>2019-11-13T09:48:26Z</time>
      </trkpt>
      <trkpt lat="46.65702" lon="5.94094">
        <ele>730.1</ele>
        <time>2019-11-13T09:48:30Z</time>
      </trkpt>
      <trkpt lat="46.657" lon="5.94087">
        <ele>730.1</ele>
        <time>2019-11-13T09:48:34Z</time>
      </trkpt>
      <trkpt lat="46.65698" lon="5.94079">
        <ele>730.2</ele>
        <time>2019-11-13T09:48:38Z</time>
      </trkpt>
      <trkpt lat="46.65696" lon="5.94073">
        <ele>730.7</ele>
        <time>2019-11-13T09:48:42Z</time>
      </trkpt>
      <trkpt lat="46.65692" lon="5.94067">
        <ele>731.2</ele>
        <time>2019-11-13T09:48:46Z</time>
      </trkpt>
      <trkpt lat="46.65689" lon="5.94062">
        <ele>731.8</ele>
        <time>2019-11-13T09:48:50Z</time>
      </trkpt>
      <trkpt lat="46.65685" lon="5.94056">
        <ele>732.6</ele>
        <time>2019-11-13T09:48:54Z</time>
      </trkpt>
      <trkpt lat="46.65683" lon="5.94049">
        <ele>733.5</ele>
        <time>2019-11-13T09:48:59Z</time>
      </trkpt>
      <trkpt lat="46.6568" lon="5.94043">
        <ele>734.4</ele>
        <time>2019-11-13T09:49:04Z</time>
      </trkpt>
      <trkpt lat="46.65677" lon="5.94038">
        <ele>735.1</ele>
        <time>2019-11-13T09:49:08Z</time>
      </trkpt>
      <trkpt lat="46.65673" lon="5.94032">
        <ele>735.7</ele>
        <time>2019-11-13T09:49:12Z</time>
      </trkpt>
      <trkpt lat="46.6567" lon="5.94026">
        <ele>736.6</ele>
        <time>2019-11-13T09:49:17Z</time>
      </trkpt>
      <trkpt lat="46.65667" lon="5.9402">
        <ele>737.7</ele>
        <time>2019-11-13T09:49:24Z</time>
      </trkpt>
      <trkpt lat="46.65663" lon="5.94014">
        <ele>738.2</ele>
        <time>2019-11-13T09:49:27Z</time>
      </trkpt>
      <trkpt lat="46.6566" lon="5.94009">
        <ele>738.7</ele>
        <time>2019-11-13T09:49:31Z</time>
      </trkpt>
      <trkpt lat="46.65657" lon="5.94004">
        <ele>739.2</ele>
        <time>2019-11-13T09:49:36Z</time>
      </trkpt>
      <trkpt lat="46.65653" lon="5.93998">
        <ele>740.1</ele>
        <time>2019-11-13T09:49:42Z</time>
      </trkpt>
      <trkpt lat="46.65651" lon="5.9399">
        <ele>741.1</ele>
        <time>2019-11-13T09:49:47Z</time>
      </trkpt>
      <trkpt lat="46.65649" lon="5.93983">
        <ele>741.9</ele>
        <time>2019-11-13T09:49:51Z</time>
      </trkpt>
      <trkpt lat="46.65646" lon="5.93977">
        <ele>742.7</ele>
        <time>2019-11-13T09:49:55Z</time>
      </trkpt>
      <trkpt lat="46.65644" lon="5.93971">
        <ele>743.4</ele>
        <time>2019-11-13T09:50:00Z</time>
      </trkpt>
      <trkpt lat="46.65641" lon="5.93963">
        <ele>744.4</ele>
        <time>2019-11-13T09:50:06Z</time>
      </trkpt>
      <trkpt lat="46.65639" lon="5.93956">
        <ele>744.9</ele>
        <time>2019-11-13T09:50:10Z</time>
      </trkpt>
      <trkpt lat="46.65637" lon="5.9395">
        <ele>745.4</ele>
        <time>2019-11-13T09:50:14Z</time>
      </trkpt>
      <trkpt lat="46.65634" lon="5.93944">
        <ele>745.7</ele>
        <time>2019-11-13T09:50:19Z</time>
      </trkpt>
      <trkpt lat="46.65633" lon="5.93938">
        <ele>746</ele>
        <time>2019-11-13T09:50:23Z</time>
      </trkpt>
      <trkpt lat="46.65633" lon="5.9393">
        <ele>746.2</ele>
        <time>2019-11-13T09:50:28Z</time>
      </trkpt>
      <trkpt lat="46.65634" lon="5.93923">
        <ele>746.4</ele>
        <time>2019-11-13T09:50:33Z</time>
      </trkpt>
      <trkpt lat="46.65635" lon="5.93916">
        <ele>746.2</ele>
        <time>2019-11-13T09:50:38Z</time>
      </trkpt>
      <trkpt lat="46.65635" lon="5.93909">
        <ele>745.9</ele>
        <time>2019-11-13T09:50:42Z</time>
      </trkpt>
      <trkpt lat="46.65634" lon="5.93902">
        <ele>745.6</ele>
        <time>2019-11-13T09:50:48Z</time>
      </trkpt>
      <trkpt lat="46.65635" lon="5.93895">
        <ele>745.6</ele>
        <time>2019-11-13T09:50:52Z</time>
      </trkpt>
      <trkpt lat="46.65637" lon="5.93884">
        <ele>748.2</ele>
        <time>2019-11-13T09:51:54Z</time>
      </trkpt>
      <trkpt lat="46.65641" lon="5.93878">
        <ele>747.7</ele>
        <time>2019-11-13T09:51:58Z</time>
      </trkpt>
      <trkpt lat="46.65643" lon="5.93871">
        <ele>746.8</ele>
        <time>2019-11-13T09:52:03Z</time>
      </trkpt>
      <trkpt lat="46.65646" lon="5.93865">
        <ele>746</ele>
        <time>2019-11-13T09:52:08Z</time>
      </trkpt>
      <trkpt lat="46.6565" lon="5.93859">
        <ele>745.5</ele>
        <time>2019-11-13T09:52:12Z</time>
      </trkpt>
      <trkpt lat="46.65653" lon="5.93854">
        <ele>745.1</ele>
        <time>2019-11-13T09:52:16Z</time>
      </trkpt>
      <trkpt lat="46.65654" lon="5.93846">
        <ele>744.3</ele>
        <time>2019-11-13T09:52:21Z</time>
      </trkpt>
      <trkpt lat="46.65656" lon="5.9384">
        <ele>743.6</ele>
        <time>2019-11-13T09:52:25Z</time>
      </trkpt>
      <trkpt lat="46.65658" lon="5.93834">
        <ele>743.6</ele>
        <time>2019-11-13T09:52:29Z</time>
      </trkpt>
      <trkpt lat="46.65659" lon="5.93827">
        <ele>743.7</ele>
        <time>2019-11-13T09:52:33Z</time>
      </trkpt>
      <trkpt lat="46.6566" lon="5.9382">
        <ele>743.8</ele>
        <time>2019-11-13T09:52:37Z</time>
      </trkpt>
      <trkpt lat="46.65661" lon="5.93813">
        <ele>743.8</ele>
        <time>2019-11-13T09:52:41Z</time>
      </trkpt>
      <trkpt lat="46.65662" lon="5.93806">
        <ele>744.1</ele>
        <time>2019-11-13T09:52:45Z</time>
      </trkpt>
      <trkpt lat="46.65665" lon="5.938">
        <ele>744.4</ele>
        <time>2019-11-13T09:52:50Z</time>
      </trkpt>
      <trkpt lat="46.65669" lon="5.93795">
        <ele>745.7</ele>
        <time>2019-11-13T09:52:58Z</time>
      </trkpt>
      <trkpt lat="46.65671" lon="5.93802">
        <ele>747.1</ele>
        <time>2019-11-13T09:53:06Z</time>
      </trkpt>
      <trkpt lat="46.65675" lon="5.93805">
        <ele>747.6</ele>
        <time>2019-11-13T09:53:17Z</time>
      </trkpt>
      <trkpt lat="46.6568" lon="5.93804">
        <ele>748</ele>
        <time>2019-11-13T09:53:23Z</time>
      </trkpt>
      <trkpt lat="46.65685" lon="5.93805">
        <ele>748.1</ele>
        <time>2019-11-13T09:53:27Z</time>
      </trkpt>
      <trkpt lat="46.6569" lon="5.93805">
        <ele>748.4</ele>
        <time>2019-11-13T09:53:32Z</time>
      </trkpt>
      <trkpt lat="46.65695" lon="5.93804">
        <ele>748.8</ele>
        <time>2019-11-13T09:53:37Z</time>
      </trkpt>
      <trkpt lat="46.657" lon="5.93804">
        <ele>749.7</ele>
        <time>2019-11-13T09:53:44Z</time>
      </trkpt>
      <trkpt lat="46.65706" lon="5.93803">
        <ele>750.7</ele>
        <time>2019-11-13T09:53:51Z</time>
      </trkpt>
      <trkpt lat="46.6571" lon="5.93801">
        <ele>752</ele>
        <time>2019-11-13T09:53:57Z</time>
      </trkpt>
      <trkpt lat="46.65715" lon="5.93801">
        <ele>753.4</ele>
        <time>2019-11-13T09:54:03Z</time>
      </trkpt>
      <trkpt lat="46.6572" lon="5.938">
        <ele>755.5</ele>
        <time>2019-11-13T09:54:11Z</time>
      </trkpt>
      <trkpt lat="46.65724" lon="5.93797">
        <ele>756.8</ele>
        <time>2019-11-13T09:54:15Z</time>
      </trkpt>
      <trkpt lat="46.65729" lon="5.93794">
        <ele>758.3</ele>
        <time>2019-11-13T09:54:21Z</time>
      </trkpt>
      <trkpt lat="46.65734" lon="5.93792">
        <ele>759.4</ele>
        <time>2019-11-13T09:54:27Z</time>
      </trkpt>
      <trkpt lat="46.65738" lon="5.9379">
        <ele>760.5</ele>
        <time>2019-11-13T09:54:34Z</time>
      </trkpt>
      <trkpt lat="46.65742" lon="5.93787">
        <ele>761.1</ele>
        <time>2019-11-13T09:54:39Z</time>
      </trkpt>
      <trkpt lat="46.65747" lon="5.93783">
        <ele>762.3</ele>
        <time>2019-11-13T09:54:46Z</time>
      </trkpt>
      <trkpt lat="46.65751" lon="5.93778">
        <ele>763.7</ele>
        <time>2019-11-13T09:54:52Z</time>
      </trkpt>
      <trkpt lat="46.65754" lon="5.93774">
        <ele>764.9</ele>
        <time>2019-11-13T09:54:57Z</time>
      </trkpt>
      <trkpt lat="46.65759" lon="5.93772">
        <ele>765.9</ele>
        <time>2019-11-13T09:55:03Z</time>
      </trkpt>
      <trkpt lat="46.65765" lon="5.9377">
        <ele>766.2</ele>
        <time>2019-11-13T09:55:06Z</time>
      </trkpt>
      <trkpt lat="46.6577" lon="5.93769">
        <ele>766.4</ele>
        <time>2019-11-13T09:55:10Z</time>
      </trkpt>
      <trkpt lat="46.65774" lon="5.93769">
        <ele>766.3</ele>
        <time>2019-11-13T09:55:20Z</time>
      </trkpt>
      <trkpt lat="46.6578" lon="5.93768">
        <ele>766.3</ele>
        <time>2019-11-13T09:55:26Z</time>
      </trkpt>
      <trkpt lat="46.65786" lon="5.9377">
        <ele>766.1</ele>
        <time>2019-11-13T09:55:29Z</time>
      </trkpt>
      <trkpt lat="46.65792" lon="5.93769">
        <ele>765.8</ele>
        <time>2019-11-13T09:55:32Z</time>
      </trkpt>
      <trkpt lat="46.65797" lon="5.93768">
        <ele>765.4</ele>
        <time>2019-11-13T09:55:36Z</time>
      </trkpt>
      <trkpt lat="46.65802" lon="5.93769">
        <ele>764.8</ele>
        <time>2019-11-13T09:55:41Z</time>
      </trkpt>
      <trkpt lat="46.65807" lon="5.9377">
        <ele>764.2</ele>
        <time>2019-11-13T09:55:46Z</time>
      </trkpt>
      <trkpt lat="46.65812" lon="5.9377">
        <ele>763.6</ele>
        <time>2019-11-13T09:55:52Z</time>
      </trkpt>
      <trkpt lat="46.65816" lon="5.93768">
        <ele>763.2</ele>
        <time>2019-11-13T09:55:58Z</time>
      </trkpt>
      <trkpt lat="46.6582" lon="5.93766">
        <ele>762.8</ele>
        <time>2019-11-13T09:56:04Z</time>
      </trkpt>
      <trkpt lat="46.65825" lon="5.93764">
        <ele>762.5</ele>
        <time>2019-11-13T09:56:09Z</time>
      </trkpt>
      <trkpt lat="46.65829" lon="5.93762">
        <ele>761.7</ele>
        <time>2019-11-13T09:56:16Z</time>
      </trkpt>
      <trkpt lat="46.65834" lon="5.93759">
        <ele>761.2</ele>
        <time>2019-11-13T09:56:23Z</time>
      </trkpt>
      <trkpt lat="46.65839" lon="5.93758">
        <ele>760.9</ele>
        <time>2019-11-13T09:56:28Z</time>
      </trkpt>
      <trkpt lat="46.65843" lon="5.93756">
        <ele>760.8</ele>
        <time>2019-11-13T09:56:32Z</time>
      </trkpt>
      <trkpt lat="46.65847" lon="5.93752">
        <ele>760.6</ele>
        <time>2019-11-13T09:56:36Z</time>
      </trkpt>
      <trkpt lat="46.65852" lon="5.93749">
        <ele>760.4</ele>
        <time>2019-11-13T09:56:40Z</time>
      </trkpt>
      <trkpt lat="46.65858" lon="5.93748">
        <ele>760.2</ele>
        <time>2019-11-13T09:56:44Z</time>
      </trkpt>
      <trkpt lat="46.65863" lon="5.93747">
        <ele>760.1</ele>
        <time>2019-11-13T09:56:47Z</time>
      </trkpt>
      <trkpt lat="46.65868" lon="5.93746">
        <ele>760</ele>
        <time>2019-11-13T09:56:51Z</time>
      </trkpt>
      <trkpt lat="46.65873" lon="5.93746">
        <ele>759.9</ele>
        <time>2019-11-13T09:56:56Z</time>
      </trkpt>
      <trkpt lat="46.65878" lon="5.93748">
        <ele>759.9</ele>
        <time>2019-11-13T09:57:00Z</time>
      </trkpt>
      <trkpt lat="46.65883" lon="5.93749">
        <ele>759.9</ele>
        <time>2019-11-13T09:57:04Z</time>
      </trkpt>
      <trkpt lat="46.65887" lon="5.9375">
        <ele>759.8</ele>
        <time>2019-11-13T09:57:09Z</time>
      </trkpt>
      <trkpt lat="46.65892" lon="5.93751">
        <ele>759.8</ele>
        <time>2019-11-13T09:57:13Z</time>
      </trkpt>
      <trkpt lat="46.65897" lon="5.9375">
        <ele>760</ele>
        <time>2019-11-13T09:57:18Z</time>
      </trkpt>
      <trkpt lat="46.65902" lon="5.93748">
        <ele>760.2</ele>
        <time>2019-11-13T09:57:23Z</time>
      </trkpt>
      <trkpt lat="46.65907" lon="5.93746">
        <ele>760.7</ele>
        <time>2019-11-13T09:57:29Z</time>
      </trkpt>
      <trkpt lat="46.65912" lon="5.93745">
        <ele>760.7</ele>
        <time>2019-11-13T09:57:35Z</time>
      </trkpt>
      <trkpt lat="46.65917" lon="5.93742">
        <ele>760.5</ele>
        <time>2019-11-13T09:57:42Z</time>
      </trkpt>
      <trkpt lat="46.65921" lon="5.93739">
        <ele>760.5</ele>
        <time>2019-11-13T09:57:46Z</time>
      </trkpt>
      <trkpt lat="46.65926" lon="5.93737">
        <ele>760.4</ele>
        <time>2019-11-13T09:57:52Z</time>
      </trkpt>
      <trkpt lat="46.65931" lon="5.93735">
        <ele>759.5</ele>
        <time>2019-11-13T09:57:59Z</time>
      </trkpt>
      <trkpt lat="46.65935" lon="5.93733">
        <ele>758.7</ele>
        <time>2019-11-13T09:58:05Z</time>
      </trkpt>
      <trkpt lat="46.65941" lon="5.93731">
        <ele>757.9</ele>
        <time>2019-11-13T09:58:12Z</time>
      </trkpt>
      <trkpt lat="46.65946" lon="5.93729">
        <ele>757.3</ele>
        <time>2019-11-13T09:58:17Z</time>
      </trkpt>
      <trkpt lat="46.65951" lon="5.93728">
        <ele>756.8</ele>
        <time>2019-11-13T09:58:21Z</time>
      </trkpt>
      <trkpt lat="46.65956" lon="5.93727">
        <ele>756.1</ele>
        <time>2019-11-13T09:58:26Z</time>
      </trkpt>
      <trkpt lat="46.65961" lon="5.93727">
        <ele>755.6</ele>
        <time>2019-11-13T09:58:30Z</time>
      </trkpt>
      <trkpt lat="46.65966" lon="5.93727">
        <ele>754.7</ele>
        <time>2019-11-13T09:58:37Z</time>
      </trkpt>
      <trkpt lat="46.65971" lon="5.93726">
        <ele>754.7</ele>
        <time>2019-11-13T09:58:41Z</time>
      </trkpt>
      <trkpt lat="46.65977" lon="5.93726">
        <ele>755</ele>
        <time>2019-11-13T09:58:45Z</time>
      </trkpt>
      <trkpt lat="46.65981" lon="5.93728">
        <ele>755.2</ele>
        <time>2019-11-13T09:58:49Z</time>
      </trkpt>
      <trkpt lat="46.65987" lon="5.93729">
        <ele>755.8</ele>
        <time>2019-11-13T09:58:54Z</time>
      </trkpt>
      <trkpt lat="46.65992" lon="5.93729">
        <ele>757</ele>
        <time>2019-11-13T09:59:00Z</time>
      </trkpt>
      <trkpt lat="46.65998" lon="5.93731">
        <ele>758.1</ele>
        <time>2019-11-13T09:59:06Z</time>
      </trkpt>
      <trkpt lat="46.66003" lon="5.93732">
        <ele>758.6</ele>
        <time>2019-11-13T09:59:09Z</time>
      </trkpt>
      <trkpt lat="46.66007" lon="5.93732">
        <ele>759.1</ele>
        <time>2019-11-13T09:59:12Z</time>
      </trkpt>
      <trkpt lat="46.66012" lon="5.93731">
        <ele>759.7</ele>
        <time>2019-11-13T09:59:16Z</time>
      </trkpt>
      <trkpt lat="46.66018" lon="5.93732">
        <ele>760.6</ele>
        <time>2019-11-13T09:59:22Z</time>
      </trkpt>
      <trkpt lat="46.66023" lon="5.93735">
        <ele>761.1</ele>
        <time>2019-11-13T09:59:26Z</time>
      </trkpt>
      <trkpt lat="46.66028" lon="5.93736">
        <ele>761.6</ele>
        <time>2019-11-13T09:59:30Z</time>
      </trkpt>
      <trkpt lat="46.66032" lon="5.93737">
        <ele>762.2</ele>
        <time>2019-11-13T09:59:36Z</time>
      </trkpt>
      <trkpt lat="46.66037" lon="5.93738">
        <ele>762.8</ele>
        <time>2019-11-13T09:59:41Z</time>
      </trkpt>
      <trkpt lat="46.66041" lon="5.93741">
        <ele>763</ele>
        <time>2019-11-13T09:59:45Z</time>
      </trkpt>
      <trkpt lat="46.66046" lon="5.93744">
        <ele>763.2</ele>
        <time>2019-11-13T09:59:50Z</time>
      </trkpt>
      <trkpt lat="46.66051" lon="5.93746">
        <ele>763.6</ele>
        <time>2019-11-13T09:59:56Z</time>
      </trkpt>
      <trkpt lat="46.66056" lon="5.93748">
        <ele>763.8</ele>
        <time>2019-11-13T10:00:01Z</time>
      </trkpt>
      <trkpt lat="46.66061" lon="5.93751">
        <ele>764</ele>
        <time>2019-11-13T10:00:06Z</time>
      </trkpt>
      <trkpt lat="46.66066" lon="5.93753">
        <ele>764.2</ele>
        <time>2019-11-13T10:00:11Z</time>
      </trkpt>
      <trkpt lat="46.6607" lon="5.93756">
        <ele>764.5</ele>
        <time>2019-11-13T10:00:16Z</time>
      </trkpt>
      <trkpt lat="46.66074" lon="5.93761">
        <ele>764.8</ele>
        <time>2019-11-13T10:00:21Z</time>
      </trkpt>
      <trkpt lat="46.66078" lon="5.93766">
        <ele>765.6</ele>
        <time>2019-11-13T10:00:27Z</time>
      </trkpt>
      <trkpt lat="46.66083" lon="5.9377">
        <ele>766</ele>
        <time>2019-11-13T10:00:31Z</time>
      </trkpt>
      <trkpt lat="46.66087" lon="5.93773">
        <ele>766.3</ele>
        <time>2019-11-13T10:00:35Z</time>
      </trkpt>
      <trkpt lat="46.66092" lon="5.93776">
        <ele>766.4</ele>
        <time>2019-11-13T10:00:39Z</time>
      </trkpt>
      <trkpt lat="46.66096" lon="5.9378">
        <ele>766.5</ele>
        <time>2019-11-13T10:00:42Z</time>
      </trkpt>
      <trkpt lat="46.661" lon="5.93784">
        <ele>766.5</ele>
        <time>2019-11-13T10:00:46Z</time>
      </trkpt>
      <trkpt lat="46.66103" lon="5.9379">
        <ele>766.4</ele>
        <time>2019-11-13T10:00:50Z</time>
      </trkpt>
      <trkpt lat="46.66107" lon="5.93795">
        <ele>766.2</ele>
        <time>2019-11-13T10:00:55Z</time>
      </trkpt>
      <trkpt lat="46.66111" lon="5.93798">
        <ele>766.3</ele>
        <time>2019-11-13T10:00:59Z</time>
      </trkpt>
      <trkpt lat="46.66115" lon="5.93802">
        <ele>766.5</ele>
        <time>2019-11-13T10:01:04Z</time>
      </trkpt>
      <trkpt lat="46.6612" lon="5.93806">
        <ele>766.6</ele>
        <time>2019-11-13T10:01:09Z</time>
      </trkpt>
      <trkpt lat="46.66124" lon="5.93809">
        <ele>766.6</ele>
        <time>2019-11-13T10:01:13Z</time>
      </trkpt>
      <trkpt lat="46.6613" lon="5.93812">
        <ele>766.5</ele>
        <time>2019-11-13T10:01:18Z</time>
      </trkpt>
      <trkpt lat="46.66133" lon="5.93816">
        <ele>766.3</ele>
        <time>2019-11-13T10:01:23Z</time>
      </trkpt>
      <trkpt lat="46.66137" lon="5.93822">
        <ele>766.2</ele>
        <time>2019-11-13T10:01:28Z</time>
      </trkpt>
      <trkpt lat="46.66141" lon="5.93827">
        <ele>766.1</ele>
        <time>2019-11-13T10:01:32Z</time>
      </trkpt>
      <trkpt lat="46.66144" lon="5.93831">
        <ele>765.9</ele>
        <time>2019-11-13T10:01:38Z</time>
      </trkpt>
      <trkpt lat="46.66149" lon="5.93835">
        <ele>765.9</ele>
        <time>2019-11-13T10:01:46Z</time>
      </trkpt>
      <trkpt lat="46.66153" lon="5.93838">
        <ele>765.9</ele>
        <time>2019-11-13T10:01:51Z</time>
      </trkpt>
      <trkpt lat="46.66156" lon="5.93844">
        <ele>766</ele>
        <time>2019-11-13T10:01:57Z</time>
      </trkpt>
      <trkpt lat="46.66159" lon="5.93849">
        <ele>766</ele>
        <time>2019-11-13T10:02:02Z</time>
      </trkpt>
      <trkpt lat="46.6616" lon="5.93857">
        <ele>766</ele>
        <time>2019-11-13T10:02:07Z</time>
      </trkpt>
      <trkpt lat="46.66161" lon="5.93864">
        <ele>765.7</ele>
        <time>2019-11-13T10:02:14Z</time>
      </trkpt>
      <trkpt lat="46.66163" lon="5.93872">
        <ele>765.7</ele>
        <time>2019-11-13T10:02:20Z</time>
      </trkpt>
      <trkpt lat="46.66165" lon="5.93879">
        <ele>765.7</ele>
        <time>2019-11-13T10:02:25Z</time>
      </trkpt>
      <trkpt lat="46.66168" lon="5.93883">
        <ele>765.8</ele>
        <time>2019-11-13T10:02:30Z</time>
      </trkpt>
      <trkpt lat="46.66172" lon="5.93886">
        <ele>765.8</ele>
        <time>2019-11-13T10:02:33Z</time>
      </trkpt>
      <trkpt lat="46.66177" lon="5.93888">
        <ele>765.7</ele>
        <time>2019-11-13T10:02:37Z</time>
      </trkpt>
      <trkpt lat="46.66182" lon="5.9389">
        <ele>765.3</ele>
        <time>2019-11-13T10:02:42Z</time>
      </trkpt>
      <trkpt lat="46.66186" lon="5.93893">
        <ele>765.1</ele>
        <time>2019-11-13T10:02:48Z</time>
      </trkpt>
      <trkpt lat="46.66191" lon="5.93894">
        <ele>764.8</ele>
        <time>2019-11-13T10:02:53Z</time>
      </trkpt>
      <trkpt lat="46.66195" lon="5.9389">
        <ele>764.6</ele>
        <time>2019-11-13T10:03:01Z</time>
      </trkpt>
      <trkpt lat="46.66196" lon="5.93882">
        <ele>764.7</ele>
        <time>2019-11-13T10:03:07Z</time>
      </trkpt>
      <trkpt lat="46.66197" lon="5.93876">
        <ele>765</ele>
        <time>2019-11-13T10:03:12Z</time>
      </trkpt>
      <trkpt lat="46.66195" lon="5.9387">
        <ele>765.1</ele>
        <time>2019-11-13T10:03:19Z</time>
      </trkpt>
      <trkpt lat="46.66193" lon="5.93864">
        <ele>764.9</ele>
        <time>2019-11-13T10:03:23Z</time>
      </trkpt>
      <trkpt lat="46.66192" lon="5.93856">
        <ele>764.5</ele>
        <time>2019-11-13T10:03:27Z</time>
      </trkpt>
      <trkpt lat="46.66192" lon="5.93849">
        <ele>764</ele>
        <time>2019-11-13T10:03:31Z</time>
      </trkpt>
      <trkpt lat="46.66193" lon="5.93841">
        <ele>763.2</ele>
        <time>2019-11-13T10:03:36Z</time>
      </trkpt>
      <trkpt lat="46.66194" lon="5.93834">
        <ele>762.6</ele>
        <time>2019-11-13T10:03:40Z</time>
      </trkpt>
      <trkpt lat="46.66196" lon="5.93828">
        <ele>761.8</ele>
        <time>2019-11-13T10:03:46Z</time>
      </trkpt>
      <trkpt lat="46.66199" lon="5.93822">
        <ele>761</ele>
        <time>2019-11-13T10:03:52Z</time>
      </trkpt>
      <trkpt lat="46.66203" lon="5.93817">
        <ele>760.6</ele>
        <time>2019-11-13T10:03:58Z</time>
      </trkpt>
      <trkpt lat="46.66207" lon="5.93812">
        <ele>760.3</ele>
        <time>2019-11-13T10:04:03Z</time>
      </trkpt>
      <trkpt lat="46.6621" lon="5.93807">
        <ele>760.1</ele>
        <time>2019-11-13T10:04:09Z</time>
      </trkpt>
      <trkpt lat="46.66214" lon="5.93804">
        <ele>760</ele>
        <time>2019-11-13T10:04:14Z</time>
      </trkpt>
      <trkpt lat="46.66219" lon="5.938">
        <ele>760</ele>
        <time>2019-11-13T10:04:18Z</time>
      </trkpt>
      <trkpt lat="46.66223" lon="5.93797">
        <ele>760.1</ele>
        <time>2019-11-13T10:04:22Z</time>
      </trkpt>
      <trkpt lat="46.66227" lon="5.93794">
        <ele>760.7</ele>
        <time>2019-11-13T10:04:27Z</time>
      </trkpt>
      <trkpt lat="46.66232" lon="5.93791">
        <ele>761.5</ele>
        <time>2019-11-13T10:04:32Z</time>
      </trkpt>
      <trkpt lat="46.66237" lon="5.93788">
        <ele>762.2</ele>
        <time>2019-11-13T10:04:37Z</time>
      </trkpt>
      <trkpt lat="46.66242" lon="5.93785">
        <ele>762.9</ele>
        <time>2019-11-13T10:04:43Z</time>
      </trkpt>
      <trkpt lat="46.66246" lon="5.93781">
        <ele>763.3</ele>
        <time>2019-11-13T10:04:49Z</time>
      </trkpt>
      <trkpt lat="46.6625" lon="5.93777">
        <ele>763</ele>
        <time>2019-11-13T10:04:54Z</time>
      </trkpt>
      <trkpt lat="46.66254" lon="5.93771">
        <ele>762.5</ele>
        <time>2019-11-13T10:04:59Z</time>
      </trkpt>
      <trkpt lat="46.66253" lon="5.93764">
        <ele>761.8</ele>
        <time>2019-11-13T10:05:03Z</time>
      </trkpt>
      <trkpt lat="46.66253" lon="5.93757">
        <ele>760.4</ele>
        <time>2019-11-13T10:05:11Z</time>
      </trkpt>
      <trkpt lat="46.66255" lon="5.9375">
        <ele>759.7</ele>
        <time>2019-11-13T10:05:17Z</time>
      </trkpt>
      <trkpt lat="46.66257" lon="5.93743">
        <ele>759.6</ele>
        <time>2019-11-13T10:05:23Z</time>
      </trkpt>
      <trkpt lat="46.6626" lon="5.93738">
        <ele>759.4</ele>
        <time>2019-11-13T10:05:29Z</time>
      </trkpt>
      <trkpt lat="46.66262" lon="5.93732">
        <ele>759.4</ele>
        <time>2019-11-13T10:05:35Z</time>
      </trkpt>
      <trkpt lat="46.66264" lon="5.93725">
        <ele>759.5</ele>
        <time>2019-11-13T10:05:40Z</time>
      </trkpt>
      <trkpt lat="46.66266" lon="5.93719">
        <ele>759.5</ele>
        <time>2019-11-13T10:05:44Z</time>
      </trkpt>
      <trkpt lat="46.66267" lon="5.93711">
        <ele>759.7</ele>
        <time>2019-11-13T10:05:49Z</time>
      </trkpt>
      <trkpt lat="46.6627" lon="5.93704">
        <ele>759.8</ele>
        <time>2019-11-13T10:05:55Z</time>
      </trkpt>
      <trkpt lat="46.66272" lon="5.93698">
        <ele>759.5</ele>
        <time>2019-11-13T10:06:01Z</time>
      </trkpt>
      <trkpt lat="46.66276" lon="5.93693">
        <ele>758.9</ele>
        <time>2019-11-13T10:06:07Z</time>
      </trkpt>
      <trkpt lat="46.66282" lon="5.9369">
        <ele>758.3</ele>
        <time>2019-11-13T10:06:12Z</time>
      </trkpt>
      <trkpt lat="46.66286" lon="5.93687">
        <ele>757.9</ele>
        <time>2019-11-13T10:06:15Z</time>
      </trkpt>
      <trkpt lat="46.66291" lon="5.93683">
        <ele>757.4</ele>
        <time>2019-11-13T10:06:19Z</time>
      </trkpt>
      <trkpt lat="46.66299" lon="5.93678">
        <ele>756.3</ele>
        <time>2019-11-13T10:06:27Z</time>
      </trkpt>
      <trkpt lat="46.66304" lon="5.93675">
        <ele>756.2</ele>
        <time>2019-11-13T10:06:30Z</time>
      </trkpt>
      <trkpt lat="46.66309" lon="5.93673">
        <ele>755.9</ele>
        <time>2019-11-13T10:06:35Z</time>
      </trkpt>
      <trkpt lat="46.66314" lon="5.93673">
        <ele>755.4</ele>
        <time>2019-11-13T10:06:43Z</time>
      </trkpt>
      <trkpt lat="46.66319" lon="5.93673">
        <ele>755.1</ele>
        <time>2019-11-13T10:06:47Z</time>
      </trkpt>
      <trkpt lat="46.66324" lon="5.93671">
        <ele>754.4</ele>
        <time>2019-11-13T10:06:54Z</time>
      </trkpt>
      <trkpt lat="46.6633" lon="5.9367">
        <ele>753.8</ele>
        <time>2019-11-13T10:06:58Z</time>
      </trkpt>
      <trkpt lat="46.66335" lon="5.93667">
        <ele>752.9</ele>
        <time>2019-11-13T10:07:04Z</time>
      </trkpt>
      <trkpt lat="46.6634" lon="5.93665">
        <ele>752.7</ele>
        <time>2019-11-13T10:07:08Z</time>
      </trkpt>
      <trkpt lat="46.66344" lon="5.93663">
        <ele>752.8</ele>
        <time>2019-11-13T10:07:13Z</time>
      </trkpt>
      <trkpt lat="46.66349" lon="5.93663">
        <ele>753.1</ele>
        <time>2019-11-13T10:07:18Z</time>
      </trkpt>
      <trkpt lat="46.66354" lon="5.93661">
        <ele>753.8</ele>
        <time>2019-11-13T10:07:23Z</time>
      </trkpt>
      <trkpt lat="46.66359" lon="5.93659">
        <ele>754.3</ele>
        <time>2019-11-13T10:07:26Z</time>
      </trkpt>
      <trkpt lat="46.66364" lon="5.93658">
        <ele>755</ele>
        <time>2019-11-13T10:07:30Z</time>
      </trkpt>
      <trkpt lat="46.66369" lon="5.93659">
        <ele>755.7</ele>
        <time>2019-11-13T10:07:34Z</time>
      </trkpt>
      <trkpt lat="46.66375" lon="5.93658">
        <ele>756.3</ele>
        <time>2019-11-13T10:07:38Z</time>
      </trkpt>
      <trkpt lat="46.6638" lon="5.93656">
        <ele>756.7</ele>
        <time>2019-11-13T10:07:42Z</time>
      </trkpt>
      <trkpt lat="46.66385" lon="5.93655">
        <ele>757.2</ele>
        <time>2019-11-13T10:07:47Z</time>
      </trkpt>
      <trkpt lat="46.66391" lon="5.93656">
        <ele>757.8</ele>
        <time>2019-11-13T10:07:53Z</time>
      </trkpt>
      <trkpt lat="46.66396" lon="5.93657">
        <ele>758.3</ele>
        <time>2019-11-13T10:07:58Z</time>
      </trkpt>
      <trkpt lat="46.66401" lon="5.93657">
        <ele>758.8</ele>
        <time>2019-11-13T10:08:04Z</time>
      </trkpt>
      <trkpt lat="46.66405" lon="5.93657">
        <ele>759</ele>
        <time>2019-11-13T10:08:08Z</time>
      </trkpt>
      <trkpt lat="46.6641" lon="5.93657">
        <ele>759.2</ele>
        <time>2019-11-13T10:08:12Z</time>
      </trkpt>
      <trkpt lat="46.66416" lon="5.93656">
        <ele>759.3</ele>
        <time>2019-11-13T10:08:17Z</time>
      </trkpt>
      <trkpt lat="46.6642" lon="5.93654">
        <ele>759.5</ele>
        <time>2019-11-13T10:08:21Z</time>
      </trkpt>
      <trkpt lat="46.66424" lon="5.93653">
        <ele>759.6</ele>
        <time>2019-11-13T10:08:27Z</time>
      </trkpt>
      <trkpt lat="46.66438" lon="5.93654">
        <ele>758.8</ele>
        <time>2019-11-13T10:08:42Z</time>
      </trkpt>
      <trkpt lat="46.66443" lon="5.93654">
        <ele>758.7</ele>
        <time>2019-11-13T10:08:46Z</time>
      </trkpt>
      <trkpt lat="46.66447" lon="5.93653">
        <ele>758.9</ele>
        <time>2019-11-13T10:08:51Z</time>
      </trkpt>
      <trkpt lat="46.66452" lon="5.93653">
        <ele>759.2</ele>
        <time>2019-11-13T10:08:58Z</time>
      </trkpt>
      <trkpt lat="46.66458" lon="5.93654">
        <ele>759.2</ele>
        <time>2019-11-13T10:09:02Z</time>
      </trkpt>
      <trkpt lat="46.66462" lon="5.93653">
        <ele>759</ele>
        <time>2019-11-13T10:09:06Z</time>
      </trkpt>
      <trkpt lat="46.66467" lon="5.93651">
        <ele>758.8</ele>
        <time>2019-11-13T10:09:10Z</time>
      </trkpt>
      <trkpt lat="46.66472" lon="5.93649">
        <ele>758.6</ele>
        <time>2019-11-13T10:09:15Z</time>
      </trkpt>
      <trkpt lat="46.66476" lon="5.93645">
        <ele>758.5</ele>
        <time>2019-11-13T10:09:22Z</time>
      </trkpt>
      <trkpt lat="46.66481" lon="5.93644">
        <ele>758.3</ele>
        <time>2019-11-13T10:09:28Z</time>
      </trkpt>
      <trkpt lat="46.66486" lon="5.93643">
        <ele>758.2</ele>
        <time>2019-11-13T10:09:36Z</time>
      </trkpt>
      <trkpt lat="46.66492" lon="5.93636">
        <ele>766.2</ele>
        <time>2019-11-13T10:10:45Z</time>
      </trkpt>
      <trkpt lat="46.66496" lon="5.93632">
        <ele>765.6</ele>
        <time>2019-11-13T10:10:56Z</time>
      </trkpt>
      <trkpt lat="46.665" lon="5.93628">
        <ele>764.8</ele>
        <time>2019-11-13T10:11:02Z</time>
      </trkpt>
      <trkpt lat="46.66504" lon="5.93622">
        <ele>763.5</ele>
        <time>2019-11-13T10:11:10Z</time>
      </trkpt>
      <trkpt lat="46.66506" lon="5.93615">
        <ele>762.3</ele>
        <time>2019-11-13T10:11:16Z</time>
      </trkpt>
      <trkpt lat="46.66507" lon="5.93609">
        <ele>760.9</ele>
        <time>2019-11-13T10:11:23Z</time>
      </trkpt>
      <trkpt lat="46.66509" lon="5.93602">
        <ele>759</ele>
        <time>2019-11-13T10:11:32Z</time>
      </trkpt>
      <trkpt lat="46.66509" lon="5.93594">
        <ele>757.9</ele>
        <time>2019-11-13T10:11:37Z</time>
      </trkpt>
      <trkpt lat="46.66509" lon="5.93587">
        <ele>756.3</ele>
        <time>2019-11-13T10:11:44Z</time>
      </trkpt>
      <trkpt lat="46.66509" lon="5.93581">
        <ele>755.1</ele>
        <time>2019-11-13T10:11:58Z</time>
      </trkpt>
      <trkpt lat="46.6651" lon="5.93574">
        <ele>754.9</ele>
        <time>2019-11-13T10:12:10Z</time>
      </trkpt>
      <trkpt lat="46.66513" lon="5.93568">
        <ele>754.6</ele>
        <time>2019-11-13T10:12:17Z</time>
      </trkpt>
      <trkpt lat="46.66514" lon="5.93562">
        <ele>754.3</ele>
        <time>2019-11-13T10:12:23Z</time>
      </trkpt>
      <trkpt lat="46.66514" lon="5.93555">
        <ele>754.4</ele>
        <time>2019-11-13T10:12:29Z</time>
      </trkpt>
      <trkpt lat="46.66514" lon="5.93547">
        <ele>754.4</ele>
        <time>2019-11-13T10:12:34Z</time>
      </trkpt>
      <trkpt lat="46.66515" lon="5.93541">
        <ele>754.3</ele>
        <time>2019-11-13T10:12:37Z</time>
      </trkpt>
      <trkpt lat="46.66516" lon="5.93534">
        <ele>754.4</ele>
        <time>2019-11-13T10:12:42Z</time>
      </trkpt>
      <trkpt lat="46.66513" lon="5.93527">
        <ele>754.6</ele>
        <time>2019-11-13T10:12:48Z</time>
      </trkpt>
      <trkpt lat="46.6651" lon="5.93521">
        <ele>754.8</ele>
        <time>2019-11-13T10:12:53Z</time>
      </trkpt>
      <trkpt lat="46.66507" lon="5.93516">
        <ele>754.8</ele>
        <time>2019-11-13T10:12:56Z</time>
      </trkpt>
      <trkpt lat="46.66504" lon="5.93509">
        <ele>754.8</ele>
        <time>2019-11-13T10:13:00Z</time>
      </trkpt>
      <trkpt lat="46.66502" lon="5.93503">
        <ele>755.1</ele>
        <time>2019-11-13T10:13:05Z</time>
      </trkpt>
      <trkpt lat="46.66501" lon="5.93496">
        <ele>755.4</ele>
        <time>2019-11-13T10:13:11Z</time>
      </trkpt>
      <trkpt lat="46.66501" lon="5.93488">
        <ele>755.6</ele>
        <time>2019-11-13T10:13:16Z</time>
      </trkpt>
      <trkpt lat="46.665" lon="5.9348">
        <ele>755.6</ele>
        <time>2019-11-13T10:13:21Z</time>
      </trkpt>
      <trkpt lat="46.66498" lon="5.93473">
        <ele>755.5</ele>
        <time>2019-11-13T10:13:26Z</time>
      </trkpt>
      <trkpt lat="46.66496" lon="5.93467">
        <ele>755.6</ele>
        <time>2019-11-13T10:13:35Z</time>
      </trkpt>
      <trkpt lat="46.66498" lon="5.9346">
        <ele>756.2</ele>
        <time>2019-11-13T10:13:46Z</time>
      </trkpt>
      <trkpt lat="46.665" lon="5.93454">
        <ele>756.5</ele>
        <time>2019-11-13T10:13:50Z</time>
      </trkpt>
      <trkpt lat="46.66502" lon="5.93448">
        <ele>756.7</ele>
        <time>2019-11-13T10:13:53Z</time>
      </trkpt>
      <trkpt lat="46.66503" lon="5.93441">
        <ele>757</ele>
        <time>2019-11-13T10:13:57Z</time>
      </trkpt>
      <trkpt lat="46.66502" lon="5.93434">
        <ele>757.4</ele>
        <time>2019-11-13T10:14:02Z</time>
      </trkpt>
      <trkpt lat="46.66503" lon="5.93427">
        <ele>757.7</ele>
        <time>2019-11-13T10:14:09Z</time>
      </trkpt>
      <trkpt lat="46.66504" lon="5.93421">
        <ele>757.9</ele>
        <time>2019-11-13T10:14:16Z</time>
      </trkpt>
      <trkpt lat="46.66508" lon="5.93416">
        <ele>757.8</ele>
        <time>2019-11-13T10:14:26Z</time>
      </trkpt>
      <trkpt lat="46.66512" lon="5.93413">
        <ele>758.6</ele>
        <time>2019-11-13T10:14:38Z</time>
      </trkpt>
      <trkpt lat="46.66517" lon="5.9341">
        <ele>758.9</ele>
        <time>2019-11-13T10:14:41Z</time>
      </trkpt>
      <trkpt lat="46.6652" lon="5.93406">
        <ele>759.6</ele>
        <time>2019-11-13T10:14:48Z</time>
      </trkpt>
      <trkpt lat="46.66525" lon="5.93401">
        <ele>760.2</ele>
        <time>2019-11-13T10:14:55Z</time>
      </trkpt>
      <trkpt lat="46.6653" lon="5.934">
        <ele>760.4</ele>
        <time>2019-11-13T10:14:59Z</time>
      </trkpt>
      <trkpt lat="46.66534" lon="5.93399">
        <ele>760.5</ele>
        <time>2019-11-13T10:15:06Z</time>
      </trkpt>
      <trkpt lat="46.66538" lon="5.93395">
        <ele>761.1</ele>
        <time>2019-11-13T10:15:15Z</time>
      </trkpt>
      <trkpt lat="46.66543" lon="5.93391">
        <ele>761.9</ele>
        <time>2019-11-13T10:15:19Z</time>
      </trkpt>
      <trkpt lat="46.66548" lon="5.93389">
        <ele>763.2</ele>
        <time>2019-11-13T10:15:24Z</time>
      </trkpt>
      <trkpt lat="46.66553" lon="5.93386">
        <ele>764.1</ele>
        <time>2019-11-13T10:15:28Z</time>
      </trkpt>
      <trkpt lat="46.66559" lon="5.93384">
        <ele>765.6</ele>
        <time>2019-11-13T10:15:35Z</time>
      </trkpt>
      <trkpt lat="46.66562" lon="5.9338">
        <ele>766.8</ele>
        <time>2019-11-13T10:15:42Z</time>
      </trkpt>
      <trkpt lat="46.66564" lon="5.93373">
        <ele>768.8</ele>
        <time>2019-11-13T10:15:54Z</time>
      </trkpt>
      <trkpt lat="46.66567" lon="5.93369">
        <ele>769.1</ele>
        <time>2019-11-13T10:16:01Z</time>
      </trkpt>
      <trkpt lat="46.66571" lon="5.93363">
        <ele>769.1</ele>
        <time>2019-11-13T10:16:06Z</time>
      </trkpt>
      <trkpt lat="46.66574" lon="5.93359">
        <ele>769.5</ele>
        <time>2019-11-13T10:16:14Z</time>
      </trkpt>
      <trkpt lat="46.66576" lon="5.93352">
        <ele>770.1</ele>
        <time>2019-11-13T10:16:20Z</time>
      </trkpt>
      <trkpt lat="46.66579" lon="5.93345">
        <ele>770.7</ele>
        <time>2019-11-13T10:16:25Z</time>
      </trkpt>
      <trkpt lat="46.66583" lon="5.93344">
        <ele>772.6</ele>
        <time>2019-11-13T10:16:41Z</time>
      </trkpt>
      <trkpt lat="46.66579" lon="5.93344">
        <ele>772.2</ele>
        <time>2019-11-13T10:16:53Z</time>
      </trkpt>
      <trkpt lat="46.6657" lon="5.93333">
        <ele>774.4</ele>
        <time>2019-11-13T10:19:06Z</time>
      </trkpt>
      <trkpt lat="46.66565" lon="5.93328">
        <ele>775.2</ele>
        <time>2019-11-13T10:19:13Z</time>
      </trkpt>
      <trkpt lat="46.66561" lon="5.93324">
        <ele>775.7</ele>
        <time>2019-11-13T10:19:16Z</time>
      </trkpt>
      <trkpt lat="46.66557" lon="5.93321">
        <ele>776.9</ele>
        <time>2019-11-13T10:19:21Z</time>
      </trkpt>
      <trkpt lat="46.66553" lon="5.93316">
        <ele>778</ele>
        <time>2019-11-13T10:19:26Z</time>
      </trkpt>
      <trkpt lat="46.6655" lon="5.93312">
        <ele>778.6</ele>
        <time>2019-11-13T10:19:30Z</time>
      </trkpt>
      <trkpt lat="46.66546" lon="5.93307">
        <ele>779.1</ele>
        <time>2019-11-13T10:19:34Z</time>
      </trkpt>
      <trkpt lat="46.66542" lon="5.93303">
        <ele>779.4</ele>
        <time>2019-11-13T10:19:37Z</time>
      </trkpt>
      <trkpt lat="46.66532" lon="5.93296">
        <ele>781.1</ele>
        <time>2019-11-13T10:19:52Z</time>
      </trkpt>
      <trkpt lat="46.66528" lon="5.93292">
        <ele>781.6</ele>
        <time>2019-11-13T10:19:56Z</time>
      </trkpt>
      <trkpt lat="46.66524" lon="5.93287">
        <ele>782.1</ele>
        <time>2019-11-13T10:19:59Z</time>
      </trkpt>
      <trkpt lat="46.6652" lon="5.93284">
        <ele>783.1</ele>
        <time>2019-11-13T10:20:05Z</time>
      </trkpt>
      <trkpt lat="46.66515" lon="5.93281">
        <ele>784.6</ele>
        <time>2019-11-13T10:20:11Z</time>
      </trkpt>
      <trkpt lat="46.66511" lon="5.93276">
        <ele>786.2</ele>
        <time>2019-11-13T10:20:18Z</time>
      </trkpt>
      <trkpt lat="46.66505" lon="5.93273">
        <ele>787.1</ele>
        <time>2019-11-13T10:20:25Z</time>
      </trkpt>
      <trkpt lat="46.66501" lon="5.93271">
        <ele>787.2</ele>
        <time>2019-11-13T10:20:30Z</time>
      </trkpt>
      <trkpt lat="46.66496" lon="5.9327">
        <ele>787.3</ele>
        <time>2019-11-13T10:20:39Z</time>
      </trkpt>
      <trkpt lat="46.66492" lon="5.93268">
        <ele>787.8</ele>
        <time>2019-11-13T10:20:46Z</time>
      </trkpt>
      <trkpt lat="46.66486" lon="5.93266">
        <ele>788.8</ele>
        <time>2019-11-13T10:20:54Z</time>
      </trkpt>
      <trkpt lat="46.66481" lon="5.93263">
        <ele>789.4</ele>
        <time>2019-11-13T10:20:59Z</time>
      </trkpt>
      <trkpt lat="46.66477" lon="5.9326">
        <ele>789.7</ele>
        <time>2019-11-13T10:21:03Z</time>
      </trkpt>
      <trkpt lat="46.66472" lon="5.93257">
        <ele>790.2</ele>
        <time>2019-11-13T10:21:08Z</time>
      </trkpt>
      <trkpt lat="46.66466" lon="5.93255">
        <ele>790.4</ele>
        <time>2019-11-13T10:21:13Z</time>
      </trkpt>
      <trkpt lat="46.66461" lon="5.93253">
        <ele>790.4</ele>
        <time>2019-11-13T10:21:16Z</time>
      </trkpt>
      <trkpt lat="46.66457" lon="5.93251">
        <ele>790.4</ele>
        <time>2019-11-13T10:21:22Z</time>
      </trkpt>
      <trkpt lat="46.66451" lon="5.9325">
        <ele>790.6</ele>
        <time>2019-11-13T10:21:27Z</time>
      </trkpt>
      <trkpt lat="46.66447" lon="5.93248">
        <ele>790.8</ele>
        <time>2019-11-13T10:21:32Z</time>
      </trkpt>
      <trkpt lat="46.66435" lon="5.93241">
        <ele>791.7</ele>
        <time>2019-11-13T10:21:44Z</time>
      </trkpt>
      <trkpt lat="46.66431" lon="5.93236">
        <ele>791.5</ele>
        <time>2019-11-13T10:21:50Z</time>
      </trkpt>
      <trkpt lat="46.66428" lon="5.9323">
        <ele>790.9</ele>
        <time>2019-11-13T10:21:57Z</time>
      </trkpt>
      <trkpt lat="46.66424" lon="5.93227">
        <ele>790.4</ele>
        <time>2019-11-13T10:22:02Z</time>
      </trkpt>
      <trkpt lat="46.6642" lon="5.93223">
        <ele>790.2</ele>
        <time>2019-11-13T10:22:06Z</time>
      </trkpt>
      <trkpt lat="46.66409" lon="5.93211">
        <ele>790.3</ele>
        <time>2019-11-13T10:22:17Z</time>
      </trkpt>
      <trkpt lat="46.66404" lon="5.93208">
        <ele>790.2</ele>
        <time>2019-11-13T10:22:21Z</time>
      </trkpt>
      <trkpt lat="46.66398" lon="5.93205">
        <ele>790</ele>
        <time>2019-11-13T10:22:25Z</time>
      </trkpt>
      <trkpt lat="46.66389" lon="5.93196">
        <ele>789.1</ele>
        <time>2019-11-13T10:22:37Z</time>
      </trkpt>
      <trkpt lat="46.66387" lon="5.93191">
        <ele>789.1</ele>
        <time>2019-11-13T10:22:41Z</time>
      </trkpt>
      <trkpt lat="46.66384" lon="5.93184">
        <ele>789.1</ele>
        <time>2019-11-13T10:22:46Z</time>
      </trkpt>
      <trkpt lat="46.66381" lon="5.93179">
        <ele>789.2</ele>
        <time>2019-11-13T10:22:54Z</time>
      </trkpt>
      <trkpt lat="46.66384" lon="5.93174">
        <ele>789.3</ele>
        <time>2019-11-13T10:23:02Z</time>
      </trkpt>
      <trkpt lat="46.66389" lon="5.93171">
        <ele>789.4</ele>
        <time>2019-11-13T10:23:13Z</time>
      </trkpt>
      <trkpt lat="46.66394" lon="5.93168">
        <ele>789.6</ele>
        <time>2019-11-13T10:23:17Z</time>
      </trkpt>
      <trkpt lat="46.66399" lon="5.93167">
        <ele>789.8</ele>
        <time>2019-11-13T10:23:24Z</time>
      </trkpt>
      <trkpt lat="46.66403" lon="5.93169">
        <ele>790.2</ele>
        <time>2019-11-13T10:23:32Z</time>
      </trkpt>
      <trkpt lat="46.66409" lon="5.93169">
        <ele>790.7</ele>
        <time>2019-11-13T10:23:40Z</time>
      </trkpt>
      <trkpt lat="46.66416" lon="5.93167">
        <ele>787.9</ele>
        <time>2019-11-13T10:24:18Z</time>
      </trkpt>
      <trkpt lat="46.66419" lon="5.93163">
        <ele>787.4</ele>
        <time>2019-11-13T10:24:23Z</time>
      </trkpt>
      <trkpt lat="46.66424" lon="5.93159">
        <ele>787.2</ele>
        <time>2019-11-13T10:24:27Z</time>
      </trkpt>
      <trkpt lat="46.66429" lon="5.93158">
        <ele>787.5</ele>
        <time>2019-11-13T10:24:32Z</time>
      </trkpt>
      <trkpt lat="46.66435" lon="5.93154">
        <ele>788.6</ele>
        <time>2019-11-13T10:24:38Z</time>
      </trkpt>
      <trkpt lat="46.66441" lon="5.93151">
        <ele>790</ele>
        <time>2019-11-13T10:24:43Z</time>
      </trkpt>
      <trkpt lat="46.66445" lon="5.9315">
        <ele>792</ele>
        <time>2019-11-13T10:24:49Z</time>
      </trkpt>
      <trkpt lat="46.6645" lon="5.93149">
        <ele>794</ele>
        <time>2019-11-13T10:24:55Z</time>
      </trkpt>
      <trkpt lat="46.66455" lon="5.93149">
        <ele>795.9</ele>
        <time>2019-11-13T10:25:01Z</time>
      </trkpt>
      <trkpt lat="46.66461" lon="5.93149">
        <ele>797.5</ele>
        <time>2019-11-13T10:25:06Z</time>
      </trkpt>
      <trkpt lat="46.66466" lon="5.93148">
        <ele>799.2</ele>
        <time>2019-11-13T10:25:12Z</time>
      </trkpt>
      <trkpt lat="46.66471" lon="5.93147">
        <ele>800.5</ele>
        <time>2019-11-13T10:25:18Z</time>
      </trkpt>
      <trkpt lat="46.66476" lon="5.93144">
        <ele>801.5</ele>
        <time>2019-11-13T10:25:23Z</time>
      </trkpt>
      <trkpt lat="46.6648" lon="5.93141">
        <ele>802.3</ele>
        <time>2019-11-13T10:25:29Z</time>
      </trkpt>
      <trkpt lat="46.66486" lon="5.9314">
        <ele>803.2</ele>
        <time>2019-11-13T10:25:37Z</time>
      </trkpt>
      <trkpt lat="46.66491" lon="5.93139">
        <ele>803.5</ele>
        <time>2019-11-13T10:25:42Z</time>
      </trkpt>
      <trkpt lat="46.66496" lon="5.93139">
        <ele>804</ele>
        <time>2019-11-13T10:25:47Z</time>
      </trkpt>
      <trkpt lat="46.66501" lon="5.93137">
        <ele>804.5</ele>
        <time>2019-11-13T10:25:52Z</time>
      </trkpt>
      <trkpt lat="46.66505" lon="5.93135">
        <ele>805.1</ele>
        <time>2019-11-13T10:25:58Z</time>
      </trkpt>
      <trkpt lat="46.66507" lon="5.93128">
        <ele>805.4</ele>
        <time>2019-11-13T10:26:05Z</time>
      </trkpt>
      <trkpt lat="46.66508" lon="5.93121">
        <ele>805.2</ele>
        <time>2019-11-13T10:26:12Z</time>
      </trkpt>
      <trkpt lat="46.66509" lon="5.93114">
        <ele>804.6</ele>
        <time>2019-11-13T10:26:20Z</time>
      </trkpt>
      <trkpt lat="46.66512" lon="5.9311">
        <ele>803.9</ele>
        <time>2019-11-13T10:26:29Z</time>
      </trkpt>
      <trkpt lat="46.66516" lon="5.93107">
        <ele>803.7</ele>
        <time>2019-11-13T10:26:38Z</time>
      </trkpt>
      <trkpt lat="46.6652" lon="5.93103">
        <ele>803.5</ele>
        <time>2019-11-13T10:26:45Z</time>
      </trkpt>
      <trkpt lat="46.66523" lon="5.93097">
        <ele>802.8</ele>
        <time>2019-11-13T10:26:53Z</time>
      </trkpt>
      <trkpt lat="46.66526" lon="5.93092">
        <ele>802.3</ele>
        <time>2019-11-13T10:27:02Z</time>
      </trkpt>
      <trkpt lat="46.6653" lon="5.93088">
        <ele>802</ele>
        <time>2019-11-13T10:27:07Z</time>
      </trkpt>
      <trkpt lat="46.66532" lon="5.93082">
        <ele>801.8</ele>
        <time>2019-11-13T10:27:11Z</time>
      </trkpt>
      <trkpt lat="46.66534" lon="5.93076">
        <ele>802.2</ele>
        <time>2019-11-13T10:27:19Z</time>
      </trkpt>
      <trkpt lat="46.66539" lon="5.93074">
        <ele>804.5</ele>
        <time>2019-11-13T10:27:33Z</time>
      </trkpt>
      <trkpt lat="46.66543" lon="5.93072">
        <ele>805.3</ele>
        <time>2019-11-13T10:27:37Z</time>
      </trkpt>
      <trkpt lat="46.66548" lon="5.9307">
        <ele>806.1</ele>
        <time>2019-11-13T10:27:41Z</time>
      </trkpt>
      <trkpt lat="46.66553" lon="5.93068">
        <ele>806.9</ele>
        <time>2019-11-13T10:27:45Z</time>
      </trkpt>
      <trkpt lat="46.66558" lon="5.93067">
        <ele>807.6</ele>
        <time>2019-11-13T10:27:50Z</time>
      </trkpt>
      <trkpt lat="46.66563" lon="5.93066">
        <ele>808.1</ele>
        <time>2019-11-13T10:27:54Z</time>
      </trkpt>
      <trkpt lat="46.66567" lon="5.93064">
        <ele>808.6</ele>
        <time>2019-11-13T10:27:58Z</time>
      </trkpt>
      <trkpt lat="46.66573" lon="5.93062">
        <ele>809.2</ele>
        <time>2019-11-13T10:28:03Z</time>
      </trkpt>
      <trkpt lat="46.66577" lon="5.93058">
        <ele>809.9</ele>
        <time>2019-11-13T10:28:09Z</time>
      </trkpt>
      <trkpt lat="46.66582" lon="5.93056">
        <ele>810.6</ele>
        <time>2019-11-13T10:28:16Z</time>
      </trkpt>
      <trkpt lat="46.66587" lon="5.93055">
        <ele>811.6</ele>
        <time>2019-11-13T10:28:25Z</time>
      </trkpt>
      <trkpt lat="46.66592" lon="5.93057">
        <ele>812.1</ele>
        <time>2019-11-13T10:28:30Z</time>
      </trkpt>
      <trkpt lat="46.66597" lon="5.93057">
        <ele>812.7</ele>
        <time>2019-11-13T10:28:34Z</time>
      </trkpt>
      <trkpt lat="46.66602" lon="5.93057">
        <ele>813.8</ele>
        <time>2019-11-13T10:28:40Z</time>
      </trkpt>
      <trkpt lat="46.66607" lon="5.93055">
        <ele>815.1</ele>
        <time>2019-11-13T10:28:47Z</time>
      </trkpt>
      <trkpt lat="46.66609" lon="5.9305">
        <ele>815.6</ele>
        <time>2019-11-13T10:28:51Z</time>
      </trkpt>
      <trkpt lat="46.66613" lon="5.93045">
        <ele>815.8</ele>
        <time>2019-11-13T10:28:58Z</time>
      </trkpt>
      <trkpt lat="46.66617" lon="5.9304">
        <ele>815.6</ele>
        <time>2019-11-13T10:29:03Z</time>
      </trkpt>
      <trkpt lat="46.6662" lon="5.93035">
        <ele>815.6</ele>
        <time>2019-11-13T10:29:10Z</time>
      </trkpt>
      <trkpt lat="46.66622" lon="5.9303">
        <ele>816</ele>
        <time>2019-11-13T10:29:17Z</time>
      </trkpt>
      <trkpt lat="46.66626" lon="5.93024">
        <ele>816.7</ele>
        <time>2019-11-13T10:29:23Z</time>
      </trkpt>
      <trkpt lat="46.6663" lon="5.9302">
        <ele>817.2</ele>
        <time>2019-11-13T10:29:27Z</time>
      </trkpt>
      <trkpt lat="46.66634" lon="5.93016">
        <ele>817.9</ele>
        <time>2019-11-13T10:29:34Z</time>
      </trkpt>
      <trkpt lat="46.66638" lon="5.93013">
        <ele>818.3</ele>
        <time>2019-11-13T10:29:43Z</time>
      </trkpt>
      <trkpt lat="46.66643" lon="5.93011">
        <ele>818.5</ele>
        <time>2019-11-13T10:29:48Z</time>
      </trkpt>
      <trkpt lat="46.66647" lon="5.93008">
        <ele>818.7</ele>
        <time>2019-11-13T10:29:53Z</time>
      </trkpt>
      <trkpt lat="46.66651" lon="5.93003">
        <ele>819</ele>
        <time>2019-11-13T10:29:59Z</time>
      </trkpt>
      <trkpt lat="46.66654" lon="5.92998">
        <ele>819.2</ele>
        <time>2019-11-13T10:30:03Z</time>
      </trkpt>
      <trkpt lat="46.66656" lon="5.92992">
        <ele>819.2</ele>
        <time>2019-11-13T10:30:08Z</time>
      </trkpt>
      <trkpt lat="46.6666" lon="5.92985">
        <ele>819.2</ele>
        <time>2019-11-13T10:30:13Z</time>
      </trkpt>
      <trkpt lat="46.66663" lon="5.92981">
        <ele>819.1</ele>
        <time>2019-11-13T10:30:19Z</time>
      </trkpt>
      <trkpt lat="46.66667" lon="5.92977">
        <ele>818.9</ele>
        <time>2019-11-13T10:30:24Z</time>
      </trkpt>
      <trkpt lat="46.66672" lon="5.92974">
        <ele>819.1</ele>
        <time>2019-11-13T10:30:31Z</time>
      </trkpt>
      <trkpt lat="46.66676" lon="5.92973">
        <ele>819.3</ele>
        <time>2019-11-13T10:30:36Z</time>
      </trkpt>
      <trkpt lat="46.66682" lon="5.92972">
        <ele>820</ele>
        <time>2019-11-13T10:30:42Z</time>
      </trkpt>
      <trkpt lat="46.66687" lon="5.92969">
        <ele>820.6</ele>
        <time>2019-11-13T10:30:46Z</time>
      </trkpt>
      <trkpt lat="46.66692" lon="5.92966">
        <ele>821.2</ele>
        <time>2019-11-13T10:30:50Z</time>
      </trkpt>
      <trkpt lat="46.66695" lon="5.92962">
        <ele>821.7</ele>
        <time>2019-11-13T10:30:56Z</time>
      </trkpt>
      <trkpt lat="46.66699" lon="5.92959">
        <ele>822</ele>
        <time>2019-11-13T10:31:03Z</time>
      </trkpt>
      <trkpt lat="46.66704" lon="5.92959">
        <ele>822.5</ele>
        <time>2019-11-13T10:31:11Z</time>
      </trkpt>
      <trkpt lat="46.66709" lon="5.92957">
        <ele>822.5</ele>
        <time>2019-11-13T10:31:16Z</time>
      </trkpt>
      <trkpt lat="46.66713" lon="5.92954">
        <ele>822.4</ele>
        <time>2019-11-13T10:31:21Z</time>
      </trkpt>
      <trkpt lat="46.66717" lon="5.92949">
        <ele>822.4</ele>
        <time>2019-11-13T10:31:26Z</time>
      </trkpt>
      <trkpt lat="46.66721" lon="5.92946">
        <ele>822.5</ele>
        <time>2019-11-13T10:31:31Z</time>
      </trkpt>
      <trkpt lat="46.66727" lon="5.92942">
        <ele>822.6</ele>
        <time>2019-11-13T10:31:35Z</time>
      </trkpt>
      <trkpt lat="46.66731" lon="5.92939">
        <ele>822.8</ele>
        <time>2019-11-13T10:31:39Z</time>
      </trkpt>
      <trkpt lat="46.66736" lon="5.92937">
        <ele>822.9</ele>
        <time>2019-11-13T10:31:44Z</time>
      </trkpt>
      <trkpt lat="46.6674" lon="5.92934">
        <ele>823.3</ele>
        <time>2019-11-13T10:31:51Z</time>
      </trkpt>
      <trkpt lat="46.66745" lon="5.92933">
        <ele>823.4</ele>
        <time>2019-11-13T10:31:56Z</time>
      </trkpt>
      <trkpt lat="46.66749" lon="5.92929">
        <ele>823</ele>
        <time>2019-11-13T10:32:02Z</time>
      </trkpt>
      <trkpt lat="46.66751" lon="5.92922">
        <ele>822.2</ele>
        <time>2019-11-13T10:32:08Z</time>
      </trkpt>
      <trkpt lat="46.66751" lon="5.92915">
        <ele>820.8</ele>
        <time>2019-11-13T10:32:15Z</time>
      </trkpt>
      <trkpt lat="46.66755" lon="5.9291">
        <ele>819.3</ele>
        <time>2019-11-13T10:32:22Z</time>
      </trkpt>
      <trkpt lat="46.66759" lon="5.92904">
        <ele>818.4</ele>
        <time>2019-11-13T10:32:26Z</time>
      </trkpt>
      <trkpt lat="46.66759" lon="5.92897">
        <ele>817.3</ele>
        <time>2019-11-13T10:32:32Z</time>
      </trkpt>
      <trkpt lat="46.66757" lon="5.92891">
        <ele>816.3</ele>
        <time>2019-11-13T10:32:38Z</time>
      </trkpt>
      <trkpt lat="46.66754" lon="5.92885">
        <ele>815.1</ele>
        <time>2019-11-13T10:32:45Z</time>
      </trkpt>
      <trkpt lat="46.66751" lon="5.92879">
        <ele>814.1</ele>
        <time>2019-11-13T10:32:52Z</time>
      </trkpt>
      <trkpt lat="46.66751" lon="5.92872">
        <ele>813.4</ele>
        <time>2019-11-13T10:32:58Z</time>
      </trkpt>
      <trkpt lat="46.66755" lon="5.92868">
        <ele>812.8</ele>
        <time>2019-11-13T10:33:03Z</time>
      </trkpt>
      <trkpt lat="46.66759" lon="5.92866">
        <ele>812.3</ele>
        <time>2019-11-13T10:33:09Z</time>
      </trkpt>
      <trkpt lat="46.66764" lon="5.92867">
        <ele>812.3</ele>
        <time>2019-11-13T10:33:17Z</time>
      </trkpt>
      <trkpt lat="46.66769" lon="5.92866">
        <ele>812.2</ele>
        <time>2019-11-13T10:33:25Z</time>
      </trkpt>
      <trkpt lat="46.66774" lon="5.92866">
        <ele>811.6</ele>
        <time>2019-11-13T10:33:33Z</time>
      </trkpt>
      <trkpt lat="46.66779" lon="5.92868">
        <ele>811.2</ele>
        <time>2019-11-13T10:33:39Z</time>
      </trkpt>
      <trkpt lat="46.66783" lon="5.92871">
        <ele>810.6</ele>
        <time>2019-11-13T10:33:44Z</time>
      </trkpt>
      <trkpt lat="46.66788" lon="5.9287">
        <ele>810.1</ele>
        <time>2019-11-13T10:33:54Z</time>
      </trkpt>
      <trkpt lat="46.66792" lon="5.92871">
        <ele>811.2</ele>
        <time>2019-11-13T10:34:09Z</time>
      </trkpt>
      <trkpt lat="46.66797" lon="5.92872">
        <ele>812.3</ele>
        <time>2019-11-13T10:34:14Z</time>
      </trkpt>
      <trkpt lat="46.66803" lon="5.92873">
        <ele>813.2</ele>
        <time>2019-11-13T10:34:19Z</time>
      </trkpt>
      <trkpt lat="46.66807" lon="5.92874">
        <ele>813.6</ele>
        <time>2019-11-13T10:34:22Z</time>
      </trkpt>
      <trkpt lat="46.66812" lon="5.92875">
        <ele>814</ele>
        <time>2019-11-13T10:34:27Z</time>
      </trkpt>
      <trkpt lat="46.66817" lon="5.92875">
        <ele>814.1</ele>
        <time>2019-11-13T10:34:31Z</time>
      </trkpt>
      <trkpt lat="46.66822" lon="5.92877">
        <ele>813.9</ele>
        <time>2019-11-13T10:34:36Z</time>
      </trkpt>
      <trkpt lat="46.66827" lon="5.92878">
        <ele>813.6</ele>
        <time>2019-11-13T10:34:41Z</time>
      </trkpt>
      <trkpt lat="46.6683" lon="5.92883">
        <ele>813</ele>
        <time>2019-11-13T10:34:50Z</time>
      </trkpt>
      <trkpt lat="46.66833" lon="5.92888">
        <ele>812.3</ele>
        <time>2019-11-13T10:34:58Z</time>
      </trkpt>
      <trkpt lat="46.66838" lon="5.92893">
        <ele>812.2</ele>
        <time>2019-11-13T10:35:01Z</time>
      </trkpt>
      <trkpt lat="46.66842" lon="5.92895">
        <ele>811.9</ele>
        <time>2019-11-13T10:35:04Z</time>
      </trkpt>
      <trkpt lat="46.66847" lon="5.92898">
        <ele>811.4</ele>
        <time>2019-11-13T10:35:09Z</time>
      </trkpt>
      <trkpt lat="46.66852" lon="5.929">
        <ele>810.9</ele>
        <time>2019-11-13T10:35:14Z</time>
      </trkpt>
      <trkpt lat="46.66857" lon="5.92902">
        <ele>810.8</ele>
        <time>2019-11-13T10:35:18Z</time>
      </trkpt>
      <trkpt lat="46.66861" lon="5.92905">
        <ele>810.9</ele>
        <time>2019-11-13T10:35:22Z</time>
      </trkpt>
      <trkpt lat="46.66867" lon="5.92907">
        <ele>811.2</ele>
        <time>2019-11-13T10:35:28Z</time>
      </trkpt>
      <trkpt lat="46.66872" lon="5.92909">
        <ele>811.8</ele>
        <time>2019-11-13T10:35:33Z</time>
      </trkpt>
      <trkpt lat="46.66876" lon="5.92912">
        <ele>812.5</ele>
        <time>2019-11-13T10:35:38Z</time>
      </trkpt>
      <trkpt lat="46.6688" lon="5.92916">
        <ele>813.3</ele>
        <time>2019-11-13T10:35:45Z</time>
      </trkpt>
      <trkpt lat="46.66881" lon="5.92923">
        <ele>812.4</ele>
        <time>2019-11-13T10:36:03Z</time>
      </trkpt>
      <trkpt lat="46.66883" lon="5.92929">
        <ele>811.2</ele>
        <time>2019-11-13T10:36:08Z</time>
      </trkpt>
      <trkpt lat="46.66887" lon="5.92931">
        <ele>809.5</ele>
        <time>2019-11-13T10:36:15Z</time>
      </trkpt>
      <trkpt lat="46.66892" lon="5.92934">
        <ele>808.3</ele>
        <time>2019-11-13T10:36:22Z</time>
      </trkpt>
      <trkpt lat="46.66896" lon="5.92936">
        <ele>807.4</ele>
        <time>2019-11-13T10:36:34Z</time>
      </trkpt>
      <trkpt lat="46.66901" lon="5.92936">
        <ele>808.1</ele>
        <time>2019-11-13T10:36:45Z</time>
      </trkpt>
      <trkpt lat="46.66906" lon="5.92936">
        <ele>808.7</ele>
        <time>2019-11-13T10:36:50Z</time>
      </trkpt>
      <trkpt lat="46.66913" lon="5.92935">
        <ele>809.3</ele>
        <time>2019-11-13T10:36:53Z</time>
      </trkpt>
      <trkpt lat="46.66918" lon="5.92936">
        <ele>809.9</ele>
        <time>2019-11-13T10:36:56Z</time>
      </trkpt>
      <trkpt lat="46.66923" lon="5.92936">
        <ele>811.2</ele>
        <time>2019-11-13T10:37:02Z</time>
      </trkpt>
      <trkpt lat="46.66928" lon="5.92937">
        <ele>812.9</ele>
        <time>2019-11-13T10:37:09Z</time>
      </trkpt>
      <trkpt lat="46.66932" lon="5.92936">
        <ele>814.3</ele>
        <time>2019-11-13T10:37:18Z</time>
      </trkpt>
      <trkpt lat="46.66938" lon="5.92935">
        <ele>814.8</ele>
        <time>2019-11-13T10:37:23Z</time>
      </trkpt>
      <trkpt lat="46.66942" lon="5.92932">
        <ele>815.4</ele>
        <time>2019-11-13T10:37:32Z</time>
      </trkpt>
      <trkpt lat="46.66947" lon="5.9293">
        <ele>815.8</ele>
        <time>2019-11-13T10:37:41Z</time>
      </trkpt>
      <trkpt lat="46.66951" lon="5.92927">
        <ele>816.3</ele>
        <time>2019-11-13T10:37:53Z</time>
      </trkpt>
      <trkpt lat="46.66956" lon="5.92927">
        <ele>816.5</ele>
        <time>2019-11-13T10:37:58Z</time>
      </trkpt>
      <trkpt lat="46.66961" lon="5.92927">
        <ele>816.9</ele>
        <time>2019-11-13T10:38:03Z</time>
      </trkpt>
      <trkpt lat="46.66965" lon="5.92923">
        <ele>817.5</ele>
        <time>2019-11-13T10:38:10Z</time>
      </trkpt>
      <trkpt lat="46.66968" lon="5.92919">
        <ele>817.9</ele>
        <time>2019-11-13T10:38:15Z</time>
      </trkpt>
      <trkpt lat="46.66971" lon="5.92914">
        <ele>818.8</ele>
        <time>2019-11-13T10:38:23Z</time>
      </trkpt>
      <trkpt lat="46.66976" lon="5.92913">
        <ele>819.9</ele>
        <time>2019-11-13T10:38:34Z</time>
      </trkpt>
      <trkpt lat="46.6698" lon="5.92917">
        <ele>820.6</ele>
        <time>2019-11-13T10:38:39Z</time>
      </trkpt>
      <trkpt lat="46.66984" lon="5.92922">
        <ele>821.1</ele>
        <time>2019-11-13T10:38:47Z</time>
      </trkpt>
      <trkpt lat="46.6699" lon="5.92925">
        <ele>821.3</ele>
        <time>2019-11-13T10:38:52Z</time>
      </trkpt>
      <trkpt lat="46.66994" lon="5.92928">
        <ele>821.4</ele>
        <time>2019-11-13T10:38:57Z</time>
      </trkpt>
      <trkpt lat="46.66998" lon="5.92931">
        <ele>821.8</ele>
        <time>2019-11-13T10:39:08Z</time>
      </trkpt>
      <trkpt lat="46.67003" lon="5.92934">
        <ele>822</ele>
        <time>2019-11-13T10:39:13Z</time>
      </trkpt>
      <trkpt lat="46.67008" lon="5.92934">
        <ele>822.4</ele>
        <time>2019-11-13T10:39:17Z</time>
      </trkpt>
      <trkpt lat="46.67013" lon="5.9293">
        <ele>823.3</ele>
        <time>2019-11-13T10:39:24Z</time>
      </trkpt>
      <trkpt lat="46.67017" lon="5.92926">
        <ele>824.2</ele>
        <time>2019-11-13T10:39:30Z</time>
      </trkpt>
      <trkpt lat="46.67022" lon="5.92924">
        <ele>824.9</ele>
        <time>2019-11-13T10:39:36Z</time>
      </trkpt>
      <trkpt lat="46.67026" lon="5.92924">
        <ele>825.6</ele>
        <time>2019-11-13T10:39:43Z</time>
      </trkpt>
      <trkpt lat="46.67031" lon="5.92922">
        <ele>826.3</ele>
        <time>2019-11-13T10:39:52Z</time>
      </trkpt>
      <trkpt lat="46.67036" lon="5.92918">
        <ele>826.5</ele>
        <time>2019-11-13T10:39:57Z</time>
      </trkpt>
      <trkpt lat="46.6704" lon="5.92915">
        <ele>826.7</ele>
        <time>2019-11-13T10:40:00Z</time>
      </trkpt>
      <trkpt lat="46.67045" lon="5.9291">
        <ele>826.8</ele>
        <time>2019-11-13T10:40:04Z</time>
      </trkpt>
      <trkpt lat="46.67048" lon="5.92904">
        <ele>826.7</ele>
        <time>2019-11-13T10:40:10Z</time>
      </trkpt>
      <trkpt lat="46.67051" lon="5.92898">
        <ele>826.5</ele>
        <time>2019-11-13T10:40:15Z</time>
      </trkpt>
      <trkpt lat="46.67051" lon="5.9289">
        <ele>826.3</ele>
        <time>2019-11-13T10:40:22Z</time>
      </trkpt>
      <trkpt lat="46.67053" lon="5.92884">
        <ele>826.6</ele>
        <time>2019-11-13T10:40:27Z</time>
      </trkpt>
      <trkpt lat="46.67054" lon="5.92877">
        <ele>826.6</ele>
        <time>2019-11-13T10:40:32Z</time>
      </trkpt>
      <trkpt lat="46.67055" lon="5.9287">
        <ele>826.5</ele>
        <time>2019-11-13T10:40:37Z</time>
      </trkpt>
      <trkpt lat="46.67057" lon="5.92864">
        <ele>826.2</ele>
        <time>2019-11-13T10:40:41Z</time>
      </trkpt>
      <trkpt lat="46.67057" lon="5.92857">
        <ele>825.8</ele>
        <time>2019-11-13T10:40:47Z</time>
      </trkpt>
      <trkpt lat="46.67057" lon="5.9285">
        <ele>825.4</ele>
        <time>2019-11-13T10:40:54Z</time>
      </trkpt>
      <trkpt lat="46.67059" lon="5.92844">
        <ele>826</ele>
        <time>2019-11-13T10:41:06Z</time>
      </trkpt>
      <trkpt lat="46.67062" lon="5.9284">
        <ele>826</ele>
        <time>2019-11-13T10:41:14Z</time>
      </trkpt>
      <trkpt lat="46.67066" lon="5.92835">
        <ele>826.2</ele>
        <time>2019-11-13T10:41:23Z</time>
      </trkpt>
      <trkpt lat="46.67071" lon="5.92837">
        <ele>825.8</ele>
        <time>2019-11-13T10:41:33Z</time>
      </trkpt>
      <trkpt lat="46.67073" lon="5.92832">
        <ele>824.3</ele>
        <time>2019-11-13T10:41:46Z</time>
      </trkpt>
      <trkpt lat="46.67077" lon="5.92827">
        <ele>822.4</ele>
        <time>2019-11-13T10:41:57Z</time>
      </trkpt>
      <trkpt lat="46.67081" lon="5.92826">
        <ele>821.5</ele>
        <time>2019-11-13T10:42:05Z</time>
      </trkpt>
      <trkpt lat="46.67086" lon="5.92827">
        <ele>821.2</ele>
        <time>2019-11-13T10:42:13Z</time>
      </trkpt>
      <trkpt lat="46.67092" lon="5.92824">
        <ele>820.4</ele>
        <time>2019-11-13T10:42:19Z</time>
      </trkpt>
      <trkpt lat="46.67096" lon="5.92821">
        <ele>819.6</ele>
        <time>2019-11-13T10:42:25Z</time>
      </trkpt>
      <trkpt lat="46.67101" lon="5.92818">
        <ele>818.9</ele>
        <time>2019-11-13T10:42:31Z</time>
      </trkpt>
      <trkpt lat="46.67105" lon="5.92815">
        <ele>818.8</ele>
        <time>2019-11-13T10:42:36Z</time>
      </trkpt>
      <trkpt lat="46.67109" lon="5.92811">
        <ele>819.2</ele>
        <time>2019-11-13T10:42:45Z</time>
      </trkpt>
      <trkpt lat="46.67114" lon="5.92809">
        <ele>819.7</ele>
        <time>2019-11-13T10:42:51Z</time>
      </trkpt>
      <trkpt lat="46.67119" lon="5.9281">
        <ele>820.2</ele>
        <time>2019-11-13T10:42:57Z</time>
      </trkpt>
      <trkpt lat="46.67121" lon="5.92816">
        <ele>824.5</ele>
        <time>2019-11-13T10:43:23Z</time>
      </trkpt>
      <trkpt lat="46.67123" lon="5.92822">
        <ele>825</ele>
        <time>2019-11-13T10:43:31Z</time>
      </trkpt>
      <trkpt lat="46.67128" lon="5.92824">
        <ele>825</ele>
        <time>2019-11-13T10:43:39Z</time>
      </trkpt>
      <trkpt lat="46.67133" lon="5.92824">
        <ele>824.6</ele>
        <time>2019-11-13T10:43:45Z</time>
      </trkpt>
      <trkpt lat="46.67138" lon="5.92825">
        <ele>823.9</ele>
        <time>2019-11-13T10:43:54Z</time>
      </trkpt>
      <trkpt lat="46.67143" lon="5.92825">
        <ele>823.9</ele>
        <time>2019-11-13T10:44:02Z</time>
      </trkpt>
      <trkpt lat="46.67148" lon="5.92825">
        <ele>824.1</ele>
        <time>2019-11-13T10:44:08Z</time>
      </trkpt>
      <trkpt lat="46.67154" lon="5.92824">
        <ele>824.3</ele>
        <time>2019-11-13T10:44:13Z</time>
      </trkpt>
      <trkpt lat="46.67158" lon="5.92824">
        <ele>824.9</ele>
        <time>2019-11-13T10:44:19Z</time>
      </trkpt>
      <trkpt lat="46.67163" lon="5.92825">
        <ele>825.5</ele>
        <time>2019-11-13T10:44:24Z</time>
      </trkpt>
      <trkpt lat="46.67168" lon="5.92824">
        <ele>826.2</ele>
        <time>2019-11-13T10:44:30Z</time>
      </trkpt>
      <trkpt lat="46.67173" lon="5.92827">
        <ele>827</ele>
        <time>2019-11-13T10:44:35Z</time>
      </trkpt>
      <trkpt lat="46.67177" lon="5.92832">
        <ele>827.7</ele>
        <time>2019-11-13T10:44:39Z</time>
      </trkpt>
      <trkpt lat="46.6718" lon="5.92837">
        <ele>828.4</ele>
        <time>2019-11-13T10:44:44Z</time>
      </trkpt>
      <trkpt lat="46.67185" lon="5.92838">
        <ele>828.7</ele>
        <time>2019-11-13T10:44:50Z</time>
      </trkpt>
      <trkpt lat="46.6719" lon="5.9284">
        <ele>828.6</ele>
        <time>2019-11-13T10:44:56Z</time>
      </trkpt>
      <trkpt lat="46.67195" lon="5.9284">
        <ele>828.6</ele>
        <time>2019-11-13T10:44:59Z</time>
      </trkpt>
      <trkpt lat="46.67199" lon="5.92842">
        <ele>828.8</ele>
        <time>2019-11-13T10:45:06Z</time>
      </trkpt>
      <trkpt lat="46.67203" lon="5.92847">
        <ele>830.1</ele>
        <time>2019-11-13T10:45:15Z</time>
      </trkpt>
      <trkpt lat="46.67207" lon="5.9285">
        <ele>830.8</ele>
        <time>2019-11-13T10:45:21Z</time>
      </trkpt>
      <trkpt lat="46.67211" lon="5.92854">
        <ele>831.2</ele>
        <time>2019-11-13T10:45:26Z</time>
      </trkpt>
      <trkpt lat="46.67214" lon="5.92859">
        <ele>831.8</ele>
        <time>2019-11-13T10:45:31Z</time>
      </trkpt>
      <trkpt lat="46.67211" lon="5.92864">
        <ele>833.8</ele>
        <time>2019-11-13T10:45:58Z</time>
      </trkpt>
      <trkpt lat="46.67206" lon="5.92865">
        <ele>834.9</ele>
        <time>2019-11-13T10:46:07Z</time>
      </trkpt>
      <trkpt lat="46.67205" lon="5.92873">
        <ele>836</ele>
        <time>2019-11-13T10:46:19Z</time>
      </trkpt>
      <trkpt lat="46.67206" lon="5.9288">
        <ele>836.6</ele>
        <time>2019-11-13T10:46:27Z</time>
      </trkpt>
      <trkpt lat="46.67206" lon="5.92873">
        <ele>837.6</ele>
        <time>2019-11-13T10:46:54Z</time>
      </trkpt>
      <trkpt lat="46.67208" lon="5.92867">
        <ele>837.6</ele>
        <time>2019-11-13T10:47:24Z</time>
      </trkpt>
      <trkpt lat="46.67212" lon="5.92864">
        <ele>837.8</ele>
        <time>2019-11-13T10:47:35Z</time>
      </trkpt>
      <trkpt lat="46.67216" lon="5.9286">
        <ele>836.8</ele>
        <time>2019-11-13T10:47:54Z</time>
      </trkpt>
      <trkpt lat="46.67213" lon="5.92864">
        <ele>835.3</ele>
        <time>2019-11-13T10:48:08Z</time>
      </trkpt>
      <trkpt lat="46.67211" lon="5.9287">
        <ele>835</ele>
        <time>2019-11-13T10:48:21Z</time>
      </trkpt>
      <trkpt lat="46.67212" lon="5.92863">
        <ele>832.6</ele>
        <time>2019-11-13T10:48:55Z</time>
      </trkpt>
      <trkpt lat="46.67213" lon="5.92856">
        <ele>833.3</ele>
        <time>2019-11-13T10:50:09Z</time>
      </trkpt>
      <trkpt lat="46.67216" lon="5.92862">
        <ele>832.5</ele>
        <time>2019-11-13T10:50:33Z</time>
      </trkpt>
      <trkpt lat="46.67219" lon="5.92867">
        <ele>837.2</ele>
        <time>2019-11-13T10:54:27Z</time>
      </trkpt>
      <trkpt lat="46.67215" lon="5.92863">
        <ele>840.4</ele>
        <time>2019-11-13T10:56:51Z</time>
      </trkpt>
      <trkpt lat="46.67219" lon="5.92866">
        <ele>840.7</ele>
        <time>2019-11-13T10:57:41Z</time>
      </trkpt>
      <trkpt lat="46.67223" lon="5.92869">
        <ele>841</ele>
        <time>2019-11-13T10:57:55Z</time>
      </trkpt>
      <trkpt lat="46.6722" lon="5.92864">
        <ele>846.4</ele>
        <time>2019-11-13T11:03:37Z</time>
      </trkpt>
      <trkpt lat="46.67216" lon="5.92864">
        <ele>847.3</ele>
        <time>2019-11-13T11:07:06Z</time>
      </trkpt>
      <trkpt lat="46.6722" lon="5.92866">
        <ele>844.9</ele>
        <time>2019-11-13T11:09:50Z</time>
      </trkpt>
      <trkpt lat="46.67225" lon="5.92868">
        <ele>845.1</ele>
        <time>2019-11-13T11:11:05Z</time>
      </trkpt>
      <trkpt lat="46.67222" lon="5.92863">
        <ele>849</ele>
        <time>2019-11-13T11:16:10Z</time>
      </trkpt>
      <trkpt lat="46.67227" lon="5.92863">
        <ele>850.2</ele>
        <time>2019-11-13T11:17:02Z</time>
      </trkpt>
      <trkpt lat="46.67223" lon="5.92859">
        <ele>850.8</ele>
        <time>2019-11-13T11:17:24Z</time>
      </trkpt>
      <trkpt lat="46.67219" lon="5.92863">
        <ele>850.9</ele>
        <time>2019-11-13T11:17:43Z</time>
      </trkpt>
      <trkpt lat="46.67223" lon="5.92867">
        <ele>849.1</ele>
        <time>2019-11-13T11:19:33Z</time>
      </trkpt>
      <trkpt lat="46.67219" lon="5.92863">
        <ele>850.4</ele>
        <time>2019-11-13T11:20:54Z</time>
      </trkpt>
      <trkpt lat="46.67222" lon="5.92859">
        <ele>849.7</ele>
        <time>2019-11-13T11:21:19Z</time>
      </trkpt>
      <trkpt lat="46.67219" lon="5.92854">
        <ele>849.4</ele>
        <time>2019-11-13T11:21:28Z</time>
      </trkpt>
      <trkpt lat="46.67223" lon="5.92854">
        <ele>848.2</ele>
        <time>2019-11-13T11:21:56Z</time>
      </trkpt>
      <trkpt lat="46.6722" lon="5.92859">
        <ele>845.7</ele>
        <time>2019-11-13T11:22:22Z</time>
      </trkpt>
      <trkpt lat="46.67218" lon="5.92865">
        <ele>843</ele>
        <time>2019-11-13T11:23:08Z</time>
      </trkpt>
      <trkpt lat="46.67213" lon="5.92868">
        <ele>842.4</ele>
        <time>2019-11-13T11:23:30Z</time>
      </trkpt>
      <trkpt lat="46.67209" lon="5.92871">
        <ele>842.7</ele>
        <time>2019-11-13T11:23:37Z</time>
      </trkpt>
      <trkpt lat="46.67211" lon="5.92865">
        <ele>843.1</ele>
        <time>2019-11-13T11:23:58Z</time>
      </trkpt>
      <trkpt lat="46.67214" lon="5.9286">
        <ele>843.1</ele>
        <time>2019-11-13T11:24:10Z</time>
      </trkpt>
      <trkpt lat="46.67217" lon="5.92864">
        <ele>843.3</ele>
        <time>2019-11-13T11:24:24Z</time>
      </trkpt>
      <trkpt lat="46.67213" lon="5.92863">
        <ele>843</ele>
        <time>2019-11-13T11:26:05Z</time>
      </trkpt>
      <trkpt lat="46.67208" lon="5.9286">
        <ele>842.3</ele>
        <time>2019-11-13T11:26:26Z</time>
      </trkpt>
      <trkpt lat="46.67204" lon="5.92857">
        <ele>841.8</ele>
        <time>2019-11-13T11:26:35Z</time>
      </trkpt>
      <trkpt lat="46.67201" lon="5.92852">
        <ele>841.2</ele>
        <time>2019-11-13T11:26:44Z</time>
      </trkpt>
      <trkpt lat="46.67198" lon="5.92846">
        <ele>840.7</ele>
        <time>2019-11-13T11:26:53Z</time>
      </trkpt>
      <trkpt lat="46.67196" lon="5.9284">
        <ele>839.9</ele>
        <time>2019-11-13T11:27:00Z</time>
      </trkpt>
      <trkpt lat="46.67192" lon="5.92836">
        <ele>838.9</ele>
        <time>2019-11-13T11:27:11Z</time>
      </trkpt>
      <trkpt lat="46.67187" lon="5.92838">
        <ele>838</ele>
        <time>2019-11-13T11:27:22Z</time>
      </trkpt>
      <trkpt lat="46.67183" lon="5.92835">
        <ele>837.5</ele>
        <time>2019-11-13T11:27:27Z</time>
      </trkpt>
      <trkpt lat="46.67178" lon="5.92832">
        <ele>837</ele>
        <time>2019-11-13T11:27:32Z</time>
      </trkpt>
      <trkpt lat="46.67164" lon="5.92828">
        <ele>834.1</ele>
        <time>2019-11-13T11:27:56Z</time>
      </trkpt>
      <trkpt lat="46.67159" lon="5.92825">
        <ele>833</ele>
        <time>2019-11-13T11:28:03Z</time>
      </trkpt>
      <trkpt lat="46.67155" lon="5.92822">
        <ele>831.4</ele>
        <time>2019-11-13T11:28:13Z</time>
      </trkpt>
      <trkpt lat="46.67151" lon="5.92817">
        <ele>830.3</ele>
        <time>2019-11-13T11:28:21Z</time>
      </trkpt>
      <trkpt lat="46.67147" lon="5.92817">
        <ele>829.5</ele>
        <time>2019-11-13T11:28:28Z</time>
      </trkpt>
      <trkpt lat="46.67143" lon="5.92813">
        <ele>829.3</ele>
        <time>2019-11-13T11:28:37Z</time>
      </trkpt>
      <trkpt lat="46.67144" lon="5.92807">
        <ele>824.6</ele>
        <time>2019-11-13T11:29:20Z</time>
      </trkpt>
      <trkpt lat="46.67148" lon="5.92804">
        <ele>824.6</ele>
        <time>2019-11-13T11:29:32Z</time>
      </trkpt>
      <trkpt lat="46.67153" lon="5.92802">
        <ele>824.7</ele>
        <time>2019-11-13T11:29:37Z</time>
      </trkpt>
      <trkpt lat="46.67157" lon="5.92799">
        <ele>824.9</ele>
        <time>2019-11-13T11:29:40Z</time>
      </trkpt>
      <trkpt lat="46.67162" lon="5.92797">
        <ele>825.3</ele>
        <time>2019-11-13T11:29:46Z</time>
      </trkpt>
      <trkpt lat="46.67167" lon="5.92799">
        <ele>826</ele>
        <time>2019-11-13T11:29:55Z</time>
      </trkpt>
      <trkpt lat="46.67172" lon="5.928">
        <ele>826.5</ele>
        <time>2019-11-13T11:30:01Z</time>
      </trkpt>
      <trkpt lat="46.67177" lon="5.92802">
        <ele>826.9</ele>
        <time>2019-11-13T11:30:06Z</time>
      </trkpt>
      <trkpt lat="46.67182" lon="5.928">
        <ele>827</ele>
        <time>2019-11-13T11:30:11Z</time>
      </trkpt>
      <trkpt lat="46.67186" lon="5.92799">
        <ele>827.6</ele>
        <time>2019-11-13T11:30:21Z</time>
      </trkpt>
      <trkpt lat="46.67192" lon="5.92799">
        <ele>828</ele>
        <time>2019-11-13T11:30:27Z</time>
      </trkpt>
      <trkpt lat="46.67197" lon="5.92798">
        <ele>828.1</ele>
        <time>2019-11-13T11:30:32Z</time>
      </trkpt>
      <trkpt lat="46.67201" lon="5.92796">
        <ele>828.1</ele>
        <time>2019-11-13T11:30:38Z</time>
      </trkpt>
      <trkpt lat="46.67208" lon="5.92788">
        <ele>827.6</ele>
        <time>2019-11-13T11:30:51Z</time>
      </trkpt>
      <trkpt lat="46.67212" lon="5.92784">
        <ele>827.4</ele>
        <time>2019-11-13T11:30:54Z</time>
      </trkpt>
      <trkpt lat="46.67216" lon="5.92779">
        <ele>827.1</ele>
        <time>2019-11-13T11:30:58Z</time>
      </trkpt>
      <trkpt lat="46.67219" lon="5.92775">
        <ele>826.6</ele>
        <time>2019-11-13T11:31:03Z</time>
      </trkpt>
      <trkpt lat="46.67219" lon="5.92782">
        <ele>823.9</ele>
        <time>2019-11-13T11:32:31Z</time>
      </trkpt>
      <trkpt lat="46.67223" lon="5.92781">
        <ele>823.1</ele>
        <time>2019-11-13T11:32:37Z</time>
      </trkpt>
      <trkpt lat="46.67228" lon="5.9278">
        <ele>822.8</ele>
        <time>2019-11-13T11:32:40Z</time>
      </trkpt>
      <trkpt lat="46.67234" lon="5.92778">
        <ele>822.4</ele>
        <time>2019-11-13T11:32:43Z</time>
      </trkpt>
      <trkpt lat="46.67238" lon="5.92777">
        <ele>822</ele>
        <time>2019-11-13T11:32:47Z</time>
      </trkpt>
      <trkpt lat="46.67244" lon="5.92777">
        <ele>821.5</ele>
        <time>2019-11-13T11:32:52Z</time>
      </trkpt>
      <trkpt lat="46.67248" lon="5.92776">
        <ele>821.1</ele>
        <time>2019-11-13T11:32:58Z</time>
      </trkpt>
      <trkpt lat="46.67253" lon="5.92773">
        <ele>820.8</ele>
        <time>2019-11-13T11:33:02Z</time>
      </trkpt>
      <trkpt lat="46.67257" lon="5.9277">
        <ele>820.2</ele>
        <time>2019-11-13T11:33:07Z</time>
      </trkpt>
      <trkpt lat="46.67259" lon="5.92764">
        <ele>819.6</ele>
        <time>2019-11-13T11:33:16Z</time>
      </trkpt>
      <trkpt lat="46.67264" lon="5.92762">
        <ele>819.5</ele>
        <time>2019-11-13T11:33:24Z</time>
      </trkpt>
      <trkpt lat="46.67268" lon="5.92759">
        <ele>819.3</ele>
        <time>2019-11-13T11:33:29Z</time>
      </trkpt>
      <trkpt lat="46.67271" lon="5.92754">
        <ele>819.5</ele>
        <time>2019-11-13T11:33:34Z</time>
      </trkpt>
      <trkpt lat="46.67274" lon="5.92749">
        <ele>819.7</ele>
        <time>2019-11-13T11:33:40Z</time>
      </trkpt>
      <trkpt lat="46.67277" lon="5.92743">
        <ele>819.3</ele>
        <time>2019-11-13T11:33:49Z</time>
      </trkpt>
      <trkpt lat="46.67281" lon="5.92738">
        <ele>818.9</ele>
        <time>2019-11-13T11:33:54Z</time>
      </trkpt>
      <trkpt lat="46.67283" lon="5.92732">
        <ele>818.1</ele>
        <time>2019-11-13T11:34:02Z</time>
      </trkpt>
      <trkpt lat="46.67287" lon="5.92727">
        <ele>817.7</ele>
        <time>2019-11-13T11:34:06Z</time>
      </trkpt>
      <trkpt lat="46.67291" lon="5.92723">
        <ele>817.1</ele>
        <time>2019-11-13T11:34:12Z</time>
      </trkpt>
      <trkpt lat="46.67293" lon="5.92716">
        <ele>816.6</ele>
        <time>2019-11-13T11:34:19Z</time>
      </trkpt>
      <trkpt lat="46.67291" lon="5.92709">
        <ele>816</ele>
        <time>2019-11-13T11:34:27Z</time>
      </trkpt>
      <trkpt lat="46.67287" lon="5.92705">
        <ele>815.5</ele>
        <time>2019-11-13T11:34:33Z</time>
      </trkpt>
      <trkpt lat="46.67283" lon="5.92702">
        <ele>814.6</ele>
        <time>2019-11-13T11:34:41Z</time>
      </trkpt>
      <trkpt lat="46.67278" lon="5.92701">
        <ele>813</ele>
        <time>2019-11-13T11:34:50Z</time>
      </trkpt>
      <trkpt lat="46.67274" lon="5.92702">
        <ele>811.7</ele>
        <time>2019-11-13T11:34:58Z</time>
      </trkpt>
      <trkpt lat="46.67269" lon="5.92701">
        <ele>809.8</ele>
        <time>2019-11-13T11:35:09Z</time>
      </trkpt>
      <trkpt lat="46.67265" lon="5.92703">
        <ele>808.5</ele>
        <time>2019-11-13T11:35:20Z</time>
      </trkpt>
      <trkpt lat="46.6726" lon="5.92705">
        <ele>808</ele>
        <time>2019-11-13T11:35:26Z</time>
      </trkpt>
      <trkpt lat="46.67255" lon="5.92707">
        <ele>807.5</ele>
        <time>2019-11-13T11:35:31Z</time>
      </trkpt>
      <trkpt lat="46.67251" lon="5.92705">
        <ele>806.4</ele>
        <time>2019-11-13T11:35:37Z</time>
      </trkpt>
      <trkpt lat="46.67246" lon="5.92706">
        <ele>804.4</ele>
        <time>2019-11-13T11:35:46Z</time>
      </trkpt>
      <trkpt lat="46.67235" lon="5.92705">
        <ele>800.2</ele>
        <time>2019-11-13T11:36:00Z</time>
      </trkpt>
      <trkpt lat="46.6723" lon="5.92703">
        <ele>799.6</ele>
        <time>2019-11-13T11:36:04Z</time>
      </trkpt>
      <trkpt lat="46.67224" lon="5.92701">
        <ele>799.1</ele>
        <time>2019-11-13T11:36:07Z</time>
      </trkpt>
      <trkpt lat="46.6722" lon="5.92699">
        <ele>798.5</ele>
        <time>2019-11-13T11:36:12Z</time>
      </trkpt>
      <trkpt lat="46.67215" lon="5.92698">
        <ele>798.1</ele>
        <time>2019-11-13T11:36:19Z</time>
      </trkpt>
      <trkpt lat="46.67208" lon="5.92692">
        <ele>797.7</ele>
        <time>2019-11-13T11:36:25Z</time>
      </trkpt>
      <trkpt lat="46.67203" lon="5.92689">
        <ele>797.7</ele>
        <time>2019-11-13T11:36:27Z</time>
      </trkpt>
      <trkpt lat="46.67198" lon="5.92687">
        <ele>797.7</ele>
        <time>2019-11-13T11:36:31Z</time>
      </trkpt>
      <trkpt lat="46.67193" lon="5.92688">
        <ele>797.9</ele>
        <time>2019-11-13T11:36:36Z</time>
      </trkpt>
      <trkpt lat="46.67188" lon="5.92689">
        <ele>798.3</ele>
        <time>2019-11-13T11:36:42Z</time>
      </trkpt>
      <trkpt lat="46.67184" lon="5.92689">
        <ele>798.6</ele>
        <time>2019-11-13T11:36:47Z</time>
      </trkpt>
      <trkpt lat="46.6718" lon="5.92685">
        <ele>798.6</ele>
        <time>2019-11-13T11:36:51Z</time>
      </trkpt>
      <trkpt lat="46.67175" lon="5.92683">
        <ele>798.4</ele>
        <time>2019-11-13T11:36:54Z</time>
      </trkpt>
      <trkpt lat="46.67171" lon="5.92679">
        <ele>798.1</ele>
        <time>2019-11-13T11:36:58Z</time>
      </trkpt>
      <trkpt lat="46.67167" lon="5.92676">
        <ele>797.8</ele>
        <time>2019-11-13T11:37:02Z</time>
      </trkpt>
      <trkpt lat="46.67162" lon="5.92673">
        <ele>797</ele>
        <time>2019-11-13T11:37:09Z</time>
      </trkpt>
      <trkpt lat="46.67158" lon="5.92669">
        <ele>796.2</ele>
        <time>2019-11-13T11:37:14Z</time>
      </trkpt>
      <trkpt lat="46.67154" lon="5.92666">
        <ele>795.4</ele>
        <time>2019-11-13T11:37:20Z</time>
      </trkpt>
      <trkpt lat="46.67142" lon="5.92655">
        <ele>794.7</ele>
        <time>2019-11-13T11:37:32Z</time>
      </trkpt>
      <trkpt lat="46.67138" lon="5.92651">
        <ele>794.6</ele>
        <time>2019-11-13T11:37:35Z</time>
      </trkpt>
      <trkpt lat="46.67135" lon="5.92645">
        <ele>794.8</ele>
        <time>2019-11-13T11:37:39Z</time>
      </trkpt>
      <trkpt lat="46.67132" lon="5.92638">
        <ele>795.1</ele>
        <time>2019-11-13T11:37:44Z</time>
      </trkpt>
      <trkpt lat="46.6713" lon="5.92632">
        <ele>795.3</ele>
        <time>2019-11-13T11:37:50Z</time>
      </trkpt>
      <trkpt lat="46.67127" lon="5.92626">
        <ele>795.4</ele>
        <time>2019-11-13T11:37:55Z</time>
      </trkpt>
      <trkpt lat="46.67124" lon="5.92621">
        <ele>795.2</ele>
        <time>2019-11-13T11:38:00Z</time>
      </trkpt>
      <trkpt lat="46.67121" lon="5.92615">
        <ele>795.2</ele>
        <time>2019-11-13T11:38:04Z</time>
      </trkpt>
      <trkpt lat="46.6712" lon="5.92609">
        <ele>795.5</ele>
        <time>2019-11-13T11:38:09Z</time>
      </trkpt>
      <trkpt lat="46.67117" lon="5.92604">
        <ele>796.2</ele>
        <time>2019-11-13T11:38:17Z</time>
      </trkpt>
      <trkpt lat="46.67116" lon="5.92597">
        <ele>796.4</ele>
        <time>2019-11-13T11:38:22Z</time>
      </trkpt>
      <trkpt lat="46.67116" lon="5.92589">
        <ele>796.6</ele>
        <time>2019-11-13T11:38:27Z</time>
      </trkpt>
      <trkpt lat="46.67115" lon="5.92582">
        <ele>796.6</ele>
        <time>2019-11-13T11:38:31Z</time>
      </trkpt>
      <trkpt lat="46.67113" lon="5.92576">
        <ele>796.6</ele>
        <time>2019-11-13T11:38:34Z</time>
      </trkpt>
      <trkpt lat="46.67111" lon="5.92569">
        <ele>796.6</ele>
        <time>2019-11-13T11:38:39Z</time>
      </trkpt>
      <trkpt lat="46.67109" lon="5.92563">
        <ele>796.5</ele>
        <time>2019-11-13T11:38:45Z</time>
      </trkpt>
      <trkpt lat="46.67107" lon="5.92557">
        <ele>796.5</ele>
        <time>2019-11-13T11:38:50Z</time>
      </trkpt>
      <trkpt lat="46.67103" lon="5.92552">
        <ele>796.3</ele>
        <time>2019-11-13T11:38:54Z</time>
      </trkpt>
      <trkpt lat="46.671" lon="5.92547">
        <ele>796</ele>
        <time>2019-11-13T11:38:58Z</time>
      </trkpt>
      <trkpt lat="46.671" lon="5.9254">
        <ele>795.7</ele>
        <time>2019-11-13T11:39:05Z</time>
      </trkpt>
      <trkpt lat="46.67102" lon="5.92531">
        <ele>795.9</ele>
        <time>2019-11-13T11:39:13Z</time>
      </trkpt>
      <trkpt lat="46.67102" lon="5.92523">
        <ele>796</ele>
        <time>2019-11-13T11:39:16Z</time>
      </trkpt>
      <trkpt lat="46.67102" lon="5.92517">
        <ele>796.1</ele>
        <time>2019-11-13T11:39:20Z</time>
      </trkpt>
      <trkpt lat="46.67103" lon="5.92509">
        <ele>796</ele>
        <time>2019-11-13T11:39:26Z</time>
      </trkpt>
      <trkpt lat="46.67103" lon="5.925">
        <ele>796</ele>
        <time>2019-11-13T11:39:31Z</time>
      </trkpt>
      <trkpt lat="46.67105" lon="5.92494">
        <ele>796.2</ele>
        <time>2019-11-13T11:39:34Z</time>
      </trkpt>
      <trkpt lat="46.67106" lon="5.92487">
        <ele>796.2</ele>
        <time>2019-11-13T11:39:39Z</time>
      </trkpt>
      <trkpt lat="46.6711" lon="5.92481">
        <ele>795.9</ele>
        <time>2019-11-13T11:39:43Z</time>
      </trkpt>
      <trkpt lat="46.67113" lon="5.92476">
        <ele>795.7</ele>
        <time>2019-11-13T11:39:50Z</time>
      </trkpt>
      <trkpt lat="46.67117" lon="5.92473">
        <ele>795.8</ele>
        <time>2019-11-13T11:39:53Z</time>
      </trkpt>
      <trkpt lat="46.67121" lon="5.92468">
        <ele>796</ele>
        <time>2019-11-13T11:39:57Z</time>
      </trkpt>
      <trkpt lat="46.67125" lon="5.92463">
        <ele>796.4</ele>
        <time>2019-11-13T11:40:01Z</time>
      </trkpt>
      <trkpt lat="46.67126" lon="5.92456">
        <ele>797.3</ele>
        <time>2019-11-13T11:40:09Z</time>
      </trkpt>
      <trkpt lat="46.67127" lon="5.92448">
        <ele>798.2</ele>
        <time>2019-11-13T11:40:16Z</time>
      </trkpt>
      <trkpt lat="46.67129" lon="5.92439">
        <ele>798.8</ele>
        <time>2019-11-13T11:40:20Z</time>
      </trkpt>
      <trkpt lat="46.67129" lon="5.92433">
        <ele>799.5</ele>
        <time>2019-11-13T11:40:24Z</time>
      </trkpt>
      <trkpt lat="46.67129" lon="5.92426">
        <ele>800.2</ele>
        <time>2019-11-13T11:40:29Z</time>
      </trkpt>
      <trkpt lat="46.6713" lon="5.92419">
        <ele>800.9</ele>
        <time>2019-11-13T11:40:35Z</time>
      </trkpt>
      <trkpt lat="46.6713" lon="5.92412">
        <ele>801.3</ele>
        <time>2019-11-13T11:40:43Z</time>
      </trkpt>
      <trkpt lat="46.67129" lon="5.92405">
        <ele>801</ele>
        <time>2019-11-13T11:40:52Z</time>
      </trkpt>
      <trkpt lat="46.67127" lon="5.92399">
        <ele>800.7</ele>
        <time>2019-11-13T11:40:58Z</time>
      </trkpt>
      <trkpt lat="46.67123" lon="5.92394">
        <ele>800.1</ele>
        <time>2019-11-13T11:41:03Z</time>
      </trkpt>
      <trkpt lat="46.6712" lon="5.92388">
        <ele>799.4</ele>
        <time>2019-11-13T11:41:08Z</time>
      </trkpt>
      <trkpt lat="46.67116" lon="5.92383">
        <ele>798.6</ele>
        <time>2019-11-13T11:41:14Z</time>
      </trkpt>
      <trkpt lat="46.67114" lon="5.92377">
        <ele>797.8</ele>
        <time>2019-11-13T11:41:20Z</time>
      </trkpt>
      <trkpt lat="46.67115" lon="5.92369">
        <ele>797.1</ele>
        <time>2019-11-13T11:41:25Z</time>
      </trkpt>
      <trkpt lat="46.67114" lon="5.92362">
        <ele>796.3</ele>
        <time>2019-11-13T11:41:29Z</time>
      </trkpt>
      <trkpt lat="46.67111" lon="5.92356">
        <ele>795.6</ele>
        <time>2019-11-13T11:41:33Z</time>
      </trkpt>
      <trkpt lat="46.67108" lon="5.9235">
        <ele>794.9</ele>
        <time>2019-11-13T11:41:38Z</time>
      </trkpt>
      <trkpt lat="46.67105" lon="5.92345">
        <ele>794.4</ele>
        <time>2019-11-13T11:41:43Z</time>
      </trkpt>
      <trkpt lat="46.67102" lon="5.92339">
        <ele>794.1</ele>
        <time>2019-11-13T11:41:48Z</time>
      </trkpt>
      <trkpt lat="46.67098" lon="5.92335">
        <ele>793.8</ele>
        <time>2019-11-13T11:41:54Z</time>
      </trkpt>
      <trkpt lat="46.67096" lon="5.92328">
        <ele>793.7</ele>
        <time>2019-11-13T11:42:01Z</time>
      </trkpt>
      <trkpt lat="46.67094" lon="5.92321">
        <ele>793.8</ele>
        <time>2019-11-13T11:42:07Z</time>
      </trkpt>
      <trkpt lat="46.67094" lon="5.92313">
        <ele>794</ele>
        <time>2019-11-13T11:42:12Z</time>
      </trkpt>
      <trkpt lat="46.67092" lon="5.92306">
        <ele>794.2</ele>
        <time>2019-11-13T11:42:16Z</time>
      </trkpt>
      <trkpt lat="46.6709" lon="5.92299">
        <ele>794.8</ele>
        <time>2019-11-13T11:42:22Z</time>
      </trkpt>
      <trkpt lat="46.67087" lon="5.92294">
        <ele>795</ele>
        <time>2019-11-13T11:42:27Z</time>
      </trkpt>
      <trkpt lat="46.67085" lon="5.92288">
        <ele>795.1</ele>
        <time>2019-11-13T11:42:32Z</time>
      </trkpt>
      <trkpt lat="46.67082" lon="5.92282">
        <ele>795.1</ele>
        <time>2019-11-13T11:42:37Z</time>
      </trkpt>
      <trkpt lat="46.67078" lon="5.92279">
        <ele>795.2</ele>
        <time>2019-11-13T11:42:43Z</time>
      </trkpt>
      <trkpt lat="46.67074" lon="5.92274">
        <ele>795.4</ele>
        <time>2019-11-13T11:42:48Z</time>
      </trkpt>
      <trkpt lat="46.67071" lon="5.92269">
        <ele>795.5</ele>
        <time>2019-11-13T11:42:53Z</time>
      </trkpt>
      <trkpt lat="46.67067" lon="5.92265">
        <ele>795.5</ele>
        <time>2019-11-13T11:42:59Z</time>
      </trkpt>
      <trkpt lat="46.67063" lon="5.92262">
        <ele>795.1</ele>
        <time>2019-11-13T11:43:08Z</time>
      </trkpt>
      <trkpt lat="46.67058" lon="5.9226">
        <ele>794.5</ele>
        <time>2019-11-13T11:43:13Z</time>
      </trkpt>
      <trkpt lat="46.67055" lon="5.92255">
        <ele>794</ele>
        <time>2019-11-13T11:43:18Z</time>
      </trkpt>
      <trkpt lat="46.67052" lon="5.9225">
        <ele>793.9</ele>
        <time>2019-11-13T11:43:24Z</time>
      </trkpt>
      <trkpt lat="46.67053" lon="5.92243">
        <ele>794.7</ele>
        <time>2019-11-13T11:43:32Z</time>
      </trkpt>
      <trkpt lat="46.67049" lon="5.92237">
        <ele>795.3</ele>
        <time>2019-11-13T11:43:41Z</time>
      </trkpt>
      <trkpt lat="46.67044" lon="5.92233">
        <ele>795.6</ele>
        <time>2019-11-13T11:43:46Z</time>
      </trkpt>
      <trkpt lat="46.6704" lon="5.92231">
        <ele>796</ele>
        <time>2019-11-13T11:43:52Z</time>
      </trkpt>
      <trkpt lat="46.67035" lon="5.92226">
        <ele>796.6</ele>
        <time>2019-11-13T11:43:59Z</time>
      </trkpt>
      <trkpt lat="46.67029" lon="5.92223">
        <ele>796.9</ele>
        <time>2019-11-13T11:44:01Z</time>
      </trkpt>
      <trkpt lat="46.67025" lon="5.92218">
        <ele>796.7</ele>
        <time>2019-11-13T11:44:06Z</time>
      </trkpt>
      <trkpt lat="46.67023" lon="5.92212">
        <ele>795.8</ele>
        <time>2019-11-13T11:44:10Z</time>
      </trkpt>
      <trkpt lat="46.67021" lon="5.92206">
        <ele>793.9</ele>
        <time>2019-11-13T11:44:15Z</time>
      </trkpt>
      <trkpt lat="46.67021" lon="5.922">
        <ele>790.8</ele>
        <time>2019-11-13T11:44:22Z</time>
      </trkpt>
      <trkpt lat="46.67018" lon="5.92193">
        <ele>787.9</ele>
        <time>2019-11-13T11:44:30Z</time>
      </trkpt>
      <trkpt lat="46.67015" lon="5.92188">
        <ele>786.5</ele>
        <time>2019-11-13T11:44:34Z</time>
      </trkpt>
      <trkpt lat="46.67012" lon="5.92183">
        <ele>785.3</ele>
        <time>2019-11-13T11:44:40Z</time>
      </trkpt>
      <trkpt lat="46.67009" lon="5.92178">
        <ele>784.3</ele>
        <time>2019-11-13T11:44:47Z</time>
      </trkpt>
      <trkpt lat="46.67005" lon="5.92172">
        <ele>784.1</ele>
        <time>2019-11-13T11:44:52Z</time>
      </trkpt>
      <trkpt lat="46.67" lon="5.92158">
        <ele>783.7</ele>
        <time>2019-11-13T11:45:03Z</time>
      </trkpt>
      <trkpt lat="46.66998" lon="5.92147">
        <ele>784.5</ele>
        <time>2019-11-13T11:45:12Z</time>
      </trkpt>
      <trkpt lat="46.66997" lon="5.9214">
        <ele>785.2</ele>
        <time>2019-11-13T11:45:17Z</time>
      </trkpt>
      <trkpt lat="46.66995" lon="5.92132">
        <ele>786.1</ele>
        <time>2019-11-13T11:45:22Z</time>
      </trkpt>
      <trkpt lat="46.66994" lon="5.92124">
        <ele>786.7</ele>
        <time>2019-11-13T11:45:28Z</time>
      </trkpt>
      <trkpt lat="46.66991" lon="5.92119">
        <ele>787.4</ele>
        <time>2019-11-13T11:45:36Z</time>
      </trkpt>
      <trkpt lat="46.66992" lon="5.92112">
        <ele>787.8</ele>
        <time>2019-11-13T11:45:42Z</time>
      </trkpt>
      <trkpt lat="46.66994" lon="5.92106">
        <ele>787.9</ele>
        <time>2019-11-13T11:45:53Z</time>
      </trkpt>
      <trkpt lat="46.66999" lon="5.92104">
        <ele>787.9</ele>
        <time>2019-11-13T11:45:59Z</time>
      </trkpt>
      <trkpt lat="46.67003" lon="5.921">
        <ele>788.3</ele>
        <time>2019-11-13T11:46:02Z</time>
      </trkpt>
      <trkpt lat="46.67008" lon="5.92096">
        <ele>789.1</ele>
        <time>2019-11-13T11:46:06Z</time>
      </trkpt>
      <trkpt lat="46.67012" lon="5.92095">
        <ele>790.4</ele>
        <time>2019-11-13T11:46:12Z</time>
      </trkpt>
      <trkpt lat="46.67017" lon="5.92094">
        <ele>791</ele>
        <time>2019-11-13T11:46:20Z</time>
      </trkpt>
      <trkpt lat="46.67022" lon="5.92096">
        <ele>790.9</ele>
        <time>2019-11-13T11:46:29Z</time>
      </trkpt>
      <trkpt lat="46.67026" lon="5.92099">
        <ele>790.8</ele>
        <time>2019-11-13T11:46:31Z</time>
      </trkpt>
      <trkpt lat="46.6703" lon="5.92102">
        <ele>790.5</ele>
        <time>2019-11-13T11:46:37Z</time>
      </trkpt>
      <trkpt lat="46.67033" lon="5.92108">
        <ele>790</ele>
        <time>2019-11-13T11:46:42Z</time>
      </trkpt>
      <trkpt lat="46.67036" lon="5.92114">
        <ele>789.8</ele>
        <time>2019-11-13T11:46:47Z</time>
      </trkpt>
      <trkpt lat="46.6704" lon="5.92118">
        <ele>789.5</ele>
        <time>2019-11-13T11:46:52Z</time>
      </trkpt>
      <trkpt lat="46.67044" lon="5.92119">
        <ele>789.4</ele>
        <time>2019-11-13T11:46:57Z</time>
      </trkpt>
      <trkpt lat="46.67049" lon="5.92118">
        <ele>789.5</ele>
        <time>2019-11-13T11:47:02Z</time>
      </trkpt>
      <trkpt lat="46.67054" lon="5.92118">
        <ele>789.7</ele>
        <time>2019-11-13T11:47:05Z</time>
      </trkpt>
      <trkpt lat="46.67059" lon="5.92117">
        <ele>789.8</ele>
        <time>2019-11-13T11:47:08Z</time>
      </trkpt>
      <trkpt lat="46.67064" lon="5.92115">
        <ele>790.1</ele>
        <time>2019-11-13T11:47:12Z</time>
      </trkpt>
      <trkpt lat="46.67068" lon="5.92112">
        <ele>790.2</ele>
        <time>2019-11-13T11:47:16Z</time>
      </trkpt>
      <trkpt lat="46.67073" lon="5.9211">
        <ele>790.1</ele>
        <time>2019-11-13T11:47:23Z</time>
      </trkpt>
      <trkpt lat="46.67077" lon="5.92106">
        <ele>790.2</ele>
        <time>2019-11-13T11:47:28Z</time>
      </trkpt>
      <trkpt lat="46.67081" lon="5.92103">
        <ele>790</ele>
        <time>2019-11-13T11:47:37Z</time>
      </trkpt>
      <trkpt lat="46.67084" lon="5.92098">
        <ele>789.9</ele>
        <time>2019-11-13T11:47:42Z</time>
      </trkpt>
      <trkpt lat="46.67088" lon="5.92094">
        <ele>789.8</ele>
        <time>2019-11-13T11:47:48Z</time>
      </trkpt>
      <trkpt lat="46.67093" lon="5.92089">
        <ele>789.6</ele>
        <time>2019-11-13T11:47:53Z</time>
      </trkpt>
      <trkpt lat="46.67096" lon="5.92083">
        <ele>789.4</ele>
        <time>2019-11-13T11:48:00Z</time>
      </trkpt>
      <trkpt lat="46.67102" lon="5.92078">
        <ele>789.3</ele>
        <time>2019-11-13T11:48:03Z</time>
      </trkpt>
      <trkpt lat="46.67106" lon="5.92074">
        <ele>789.4</ele>
        <time>2019-11-13T11:48:07Z</time>
      </trkpt>
      <trkpt lat="46.67111" lon="5.92072">
        <ele>789.4</ele>
        <time>2019-11-13T11:48:11Z</time>
      </trkpt>
      <trkpt lat="46.67115" lon="5.92069">
        <ele>789</ele>
        <time>2019-11-13T11:48:17Z</time>
      </trkpt>
      <trkpt lat="46.6712" lon="5.92068">
        <ele>788.6</ele>
        <time>2019-11-13T11:48:22Z</time>
      </trkpt>
      <trkpt lat="46.67125" lon="5.92067">
        <ele>788.4</ele>
        <time>2019-11-13T11:48:28Z</time>
      </trkpt>
      <trkpt lat="46.67129" lon="5.92065">
        <ele>788.3</ele>
        <time>2019-11-13T11:48:34Z</time>
      </trkpt>
      <trkpt lat="46.67135" lon="5.92065">
        <ele>788.3</ele>
        <time>2019-11-13T11:48:37Z</time>
      </trkpt>
      <trkpt lat="46.6714" lon="5.92065">
        <ele>788.4</ele>
        <time>2019-11-13T11:48:41Z</time>
      </trkpt>
      <trkpt lat="46.67145" lon="5.92061">
        <ele>788.6</ele>
        <time>2019-11-13T11:48:44Z</time>
      </trkpt>
      <trkpt lat="46.67149" lon="5.92061">
        <ele>789</ele>
        <time>2019-11-13T11:48:49Z</time>
      </trkpt>
      <trkpt lat="46.67154" lon="5.92058">
        <ele>789.3</ele>
        <time>2019-11-13T11:48:55Z</time>
      </trkpt>
      <trkpt lat="46.6716" lon="5.92054">
        <ele>789.4</ele>
        <time>2019-11-13T11:49:01Z</time>
      </trkpt>
      <trkpt lat="46.67165" lon="5.92048">
        <ele>789.6</ele>
        <time>2019-11-13T11:49:04Z</time>
      </trkpt>
      <trkpt lat="46.67169" lon="5.92043">
        <ele>789.8</ele>
        <time>2019-11-13T11:49:10Z</time>
      </trkpt>
      <trkpt lat="46.67171" lon="5.92037">
        <ele>789.3</ele>
        <time>2019-11-13T11:49:21Z</time>
      </trkpt>
      <trkpt lat="46.67175" lon="5.92034">
        <ele>788.3</ele>
        <time>2019-11-13T11:49:31Z</time>
      </trkpt>
      <trkpt lat="46.67179" lon="5.92029">
        <ele>787.5</ele>
        <time>2019-11-13T11:49:38Z</time>
      </trkpt>
      <trkpt lat="46.67183" lon="5.92023">
        <ele>786.7</ele>
        <time>2019-11-13T11:49:44Z</time>
      </trkpt>
      <trkpt lat="46.67187" lon="5.92019">
        <ele>786.1</ele>
        <time>2019-11-13T11:49:49Z</time>
      </trkpt>
      <trkpt lat="46.67191" lon="5.92014">
        <ele>785.9</ele>
        <time>2019-11-13T11:49:54Z</time>
      </trkpt>
      <trkpt lat="46.67196" lon="5.9201">
        <ele>785.8</ele>
        <time>2019-11-13T11:49:57Z</time>
      </trkpt>
      <trkpt lat="46.67201" lon="5.92006">
        <ele>785.7</ele>
        <time>2019-11-13T11:50:00Z</time>
      </trkpt>
      <trkpt lat="46.67205" lon="5.92003">
        <ele>785.4</ele>
        <time>2019-11-13T11:50:05Z</time>
      </trkpt>
      <trkpt lat="46.67215" lon="5.91995">
        <ele>783.4</ele>
        <time>2019-11-13T11:50:19Z</time>
      </trkpt>
      <trkpt lat="46.6722" lon="5.91991">
        <ele>783.3</ele>
        <time>2019-11-13T11:50:25Z</time>
      </trkpt>
      <trkpt lat="46.67225" lon="5.91988">
        <ele>783.1</ele>
        <time>2019-11-13T11:50:29Z</time>
      </trkpt>
      <trkpt lat="46.6723" lon="5.91982">
        <ele>783</ele>
        <time>2019-11-13T11:50:32Z</time>
      </trkpt>
      <trkpt lat="46.67234" lon="5.9198">
        <ele>782.5</ele>
        <time>2019-11-13T11:50:37Z</time>
      </trkpt>
      <trkpt lat="46.67239" lon="5.91977">
        <ele>780.7</ele>
        <time>2019-11-13T11:50:47Z</time>
      </trkpt>
      <trkpt lat="46.67243" lon="5.91976">
        <ele>779.2</ele>
        <time>2019-11-13T11:50:55Z</time>
      </trkpt>
      <trkpt lat="46.67248" lon="5.91974">
        <ele>778.5</ele>
        <time>2019-11-13T11:50:59Z</time>
      </trkpt>
      <trkpt lat="46.67253" lon="5.9197">
        <ele>777.4</ele>
        <time>2019-11-13T11:51:06Z</time>
      </trkpt>
      <trkpt lat="46.67257" lon="5.91966">
        <ele>776.8</ele>
        <time>2019-11-13T11:51:10Z</time>
      </trkpt>
      <trkpt lat="46.67262" lon="5.91962">
        <ele>776.3</ele>
        <time>2019-11-13T11:51:13Z</time>
      </trkpt>
      <trkpt lat="46.67266" lon="5.91959">
        <ele>775.7</ele>
        <time>2019-11-13T11:51:16Z</time>
      </trkpt>
      <trkpt lat="46.6727" lon="5.91956">
        <ele>774.9</ele>
        <time>2019-11-13T11:51:21Z</time>
      </trkpt>
      <trkpt lat="46.67275" lon="5.91954">
        <ele>774</ele>
        <time>2019-11-13T11:51:27Z</time>
      </trkpt>
      <trkpt lat="46.67279" lon="5.91951">
        <ele>773.1</ele>
        <time>2019-11-13T11:51:37Z</time>
      </trkpt>
      <trkpt lat="46.67286" lon="5.91949">
        <ele>772.7</ele>
        <time>2019-11-13T11:51:42Z</time>
      </trkpt>
      <trkpt lat="46.67292" lon="5.91949">
        <ele>772.2</ele>
        <time>2019-11-13T11:51:46Z</time>
      </trkpt>
      <trkpt lat="46.67297" lon="5.91947">
        <ele>771.8</ele>
        <time>2019-11-13T11:51:50Z</time>
      </trkpt>
      <trkpt lat="46.67301" lon="5.91944">
        <ele>771.5</ele>
        <time>2019-11-13T11:51:53Z</time>
      </trkpt>
      <trkpt lat="46.67306" lon="5.91942">
        <ele>771.2</ele>
        <time>2019-11-13T11:51:57Z</time>
      </trkpt>
      <trkpt lat="46.6731" lon="5.91939">
        <ele>770.8</ele>
        <time>2019-11-13T11:52:03Z</time>
      </trkpt>
      <trkpt lat="46.67315" lon="5.91936">
        <ele>770</ele>
        <time>2019-11-13T11:52:11Z</time>
      </trkpt>
      <trkpt lat="46.6732" lon="5.91933">
        <ele>769.5</ele>
        <time>2019-11-13T11:52:16Z</time>
      </trkpt>
      <trkpt lat="46.67325" lon="5.9193">
        <ele>769</ele>
        <time>2019-11-13T11:52:20Z</time>
      </trkpt>
      <trkpt lat="46.67335" lon="5.91922">
        <ele>767.3</ele>
        <time>2019-11-13T11:52:32Z</time>
      </trkpt>
      <trkpt lat="46.6734" lon="5.9192">
        <ele>766.9</ele>
        <time>2019-11-13T11:52:36Z</time>
      </trkpt>
      <trkpt lat="46.67347" lon="5.91913">
        <ele>765.8</ele>
        <time>2019-11-13T11:52:48Z</time>
      </trkpt>
      <trkpt lat="46.67353" lon="5.91911">
        <ele>765.4</ele>
        <time>2019-11-13T11:52:53Z</time>
      </trkpt>
      <trkpt lat="46.67358" lon="5.91909">
        <ele>765.2</ele>
        <time>2019-11-13T11:52:58Z</time>
      </trkpt>
      <trkpt lat="46.67367" lon="5.91903">
        <ele>764.4</ele>
        <time>2019-11-13T11:53:08Z</time>
      </trkpt>
      <trkpt lat="46.67385" lon="5.91898">
        <ele>764.2</ele>
        <time>2019-11-13T11:53:23Z</time>
      </trkpt>
      <trkpt lat="46.67408" lon="5.91897">
        <ele>764.6</ele>
        <time>2019-11-13T11:53:51Z</time>
      </trkpt>
      <trkpt lat="46.67413" lon="5.91897">
        <ele>764.8</ele>
        <time>2019-11-13T11:53:55Z</time>
      </trkpt>
      <trkpt lat="46.67418" lon="5.91895">
        <ele>764.9</ele>
        <time>2019-11-13T11:53:59Z</time>
      </trkpt>
      <trkpt lat="46.67432" lon="5.9189">
        <ele>766.2</ele>
        <time>2019-11-13T11:54:12Z</time>
      </trkpt>
      <trkpt lat="46.67438" lon="5.91889">
        <ele>766.6</ele>
        <time>2019-11-13T11:54:17Z</time>
      </trkpt>
      <trkpt lat="46.67451" lon="5.91882">
        <ele>767.4</ele>
        <time>2019-11-13T11:54:25Z</time>
      </trkpt>
      <trkpt lat="46.67456" lon="5.91878">
        <ele>767.7</ele>
        <time>2019-11-13T11:54:29Z</time>
      </trkpt>
      <trkpt lat="46.67461" lon="5.91877">
        <ele>768.1</ele>
        <time>2019-11-13T11:54:35Z</time>
      </trkpt>
      <trkpt lat="46.67467" lon="5.91875">
        <ele>768.4</ele>
        <time>2019-11-13T11:54:39Z</time>
      </trkpt>
      <trkpt lat="46.67472" lon="5.91873">
        <ele>768.5</ele>
        <time>2019-11-13T11:54:43Z</time>
      </trkpt>
      <trkpt lat="46.67478" lon="5.91871">
        <ele>768.6</ele>
        <time>2019-11-13T11:54:53Z</time>
      </trkpt>
      <trkpt lat="46.67482" lon="5.91869">
        <ele>768.7</ele>
        <time>2019-11-13T11:54:56Z</time>
      </trkpt>
      <trkpt lat="46.67488" lon="5.91868">
        <ele>768.9</ele>
        <time>2019-11-13T11:55:03Z</time>
      </trkpt>
      <trkpt lat="46.67492" lon="5.91865">
        <ele>769</ele>
        <time>2019-11-13T11:55:06Z</time>
      </trkpt>
      <trkpt lat="46.67496" lon="5.91862">
        <ele>769.3</ele>
        <time>2019-11-13T11:55:12Z</time>
      </trkpt>
      <trkpt lat="46.67501" lon="5.91856">
        <ele>770.6</ele>
        <time>2019-11-13T11:55:18Z</time>
      </trkpt>
      <trkpt lat="46.67506" lon="5.91852">
        <ele>771.3</ele>
        <time>2019-11-13T11:55:20Z</time>
      </trkpt>
      <trkpt lat="46.67511" lon="5.91846">
        <ele>772</ele>
        <time>2019-11-13T11:55:22Z</time>
      </trkpt>
      <trkpt lat="46.67517" lon="5.91842">
        <ele>773</ele>
        <time>2019-11-13T11:55:25Z</time>
      </trkpt>
      <trkpt lat="46.67522" lon="5.91839">
        <ele>774.4</ele>
        <time>2019-11-13T11:55:29Z</time>
      </trkpt>
      <trkpt lat="46.67528" lon="5.9184">
        <ele>775.7</ele>
        <time>2019-11-13T11:55:34Z</time>
      </trkpt>
      <trkpt lat="46.67532" lon="5.91842">
        <ele>776.6</ele>
        <time>2019-11-13T11:55:40Z</time>
      </trkpt>
      <trkpt lat="46.67536" lon="5.91848">
        <ele>777.3</ele>
        <time>2019-11-13T11:55:52Z</time>
      </trkpt>
      <trkpt lat="46.67541" lon="5.91852">
        <ele>777.2</ele>
        <time>2019-11-13T11:55:57Z</time>
      </trkpt>
      <trkpt lat="46.67546" lon="5.91855">
        <ele>776.6</ele>
        <time>2019-11-13T11:56:05Z</time>
      </trkpt>
      <trkpt lat="46.6755" lon="5.91857">
        <ele>775.9</ele>
        <time>2019-11-13T11:56:12Z</time>
      </trkpt>
      <trkpt lat="46.67556" lon="5.91859">
        <ele>775.3</ele>
        <time>2019-11-13T11:56:18Z</time>
      </trkpt>
      <trkpt lat="46.67561" lon="5.91859">
        <ele>774.7</ele>
        <time>2019-11-13T11:56:23Z</time>
      </trkpt>
      <trkpt lat="46.67562" lon="5.91866">
        <ele>774</ele>
        <time>2019-11-13T11:56:29Z</time>
      </trkpt>
      <trkpt lat="46.67565" lon="5.91872">
        <ele>773.1</ele>
        <time>2019-11-13T11:56:36Z</time>
      </trkpt>
      <trkpt lat="46.67569" lon="5.91877">
        <ele>772.7</ele>
        <time>2019-11-13T11:56:43Z</time>
      </trkpt>
      <trkpt lat="46.67576" lon="5.91892">
        <ele>772.9</ele>
        <time>2019-11-13T11:56:52Z</time>
      </trkpt>
      <trkpt lat="46.67578" lon="5.919">
        <ele>773.2</ele>
        <time>2019-11-13T11:56:57Z</time>
      </trkpt>
      <trkpt lat="46.67581" lon="5.91906">
        <ele>773.5</ele>
        <time>2019-11-13T11:57:02Z</time>
      </trkpt>
      <trkpt lat="46.67584" lon="5.91912">
        <ele>773.5</ele>
        <time>2019-11-13T11:57:07Z</time>
      </trkpt>
      <trkpt lat="46.67586" lon="5.91918">
        <ele>773.1</ele>
        <time>2019-11-13T11:57:15Z</time>
      </trkpt>
      <trkpt lat="46.67576" lon="5.91914">
        <ele>770.6</ele>
        <time>2019-11-13T11:57:37Z</time>
      </trkpt>
      <trkpt lat="46.67579" lon="5.91926">
        <ele>768.5</ele>
        <time>2019-11-13T11:58:23Z</time>
      </trkpt>
      <trkpt lat="46.67635" lon="5.91941">
        <ele>770.8</ele>
        <time>2019-11-13T12:00:48Z</time>
      </trkpt>
      <trkpt lat="46.6763" lon="5.91944">
        <ele>770.6</ele>
        <time>2019-11-13T12:00:55Z</time>
      </trkpt>
      <trkpt lat="46.67624" lon="5.91948">
        <ele>770.7</ele>
        <time>2019-11-13T12:00:58Z</time>
      </trkpt>
      <trkpt lat="46.67619" lon="5.91951">
        <ele>770.8</ele>
        <time>2019-11-13T12:01:00Z</time>
      </trkpt>
      <trkpt lat="46.67615" lon="5.91954">
        <ele>771</ele>
        <time>2019-11-13T12:01:03Z</time>
      </trkpt>
      <trkpt lat="46.67611" lon="5.91957">
        <ele>771.1</ele>
        <time>2019-11-13T12:01:05Z</time>
      </trkpt>
      <trkpt lat="46.67605" lon="5.91962">
        <ele>771.4</ele>
        <time>2019-11-13T12:01:08Z</time>
      </trkpt>
      <trkpt lat="46.67601" lon="5.91966">
        <ele>771.5</ele>
        <time>2019-11-13T12:01:11Z</time>
      </trkpt>
      <trkpt lat="46.67598" lon="5.91972">
        <ele>771.6</ele>
        <time>2019-11-13T12:01:14Z</time>
      </trkpt>
      <trkpt lat="46.67594" lon="5.91977">
        <ele>771.6</ele>
        <time>2019-11-13T12:01:17Z</time>
      </trkpt>
      <trkpt lat="46.67591" lon="5.91984">
        <ele>771.6</ele>
        <time>2019-11-13T12:01:21Z</time>
      </trkpt>
      <trkpt lat="46.67588" lon="5.91992">
        <ele>771.9</ele>
        <time>2019-11-13T12:01:25Z</time>
      </trkpt>
      <trkpt lat="46.67584" lon="5.91997">
        <ele>772.1</ele>
        <time>2019-11-13T12:01:28Z</time>
      </trkpt>
      <trkpt lat="46.67581" lon="5.92002">
        <ele>772.2</ele>
        <time>2019-11-13T12:01:31Z</time>
      </trkpt>
      <trkpt lat="46.67578" lon="5.92009">
        <ele>772.1</ele>
        <time>2019-11-13T12:01:35Z</time>
      </trkpt>
      <trkpt lat="46.67574" lon="5.92014">
        <ele>771.9</ele>
        <time>2019-11-13T12:01:38Z</time>
      </trkpt>
      <trkpt lat="46.67571" lon="5.92019">
        <ele>771.5</ele>
        <time>2019-11-13T12:01:42Z</time>
      </trkpt>
      <trkpt lat="46.67567" lon="5.92023">
        <ele>771</ele>
        <time>2019-11-13T12:01:45Z</time>
      </trkpt>
      <trkpt lat="46.67563" lon="5.92028">
        <ele>770.4</ele>
        <time>2019-11-13T12:01:49Z</time>
      </trkpt>
      <trkpt lat="46.6756" lon="5.92034">
        <ele>769.7</ele>
        <time>2019-11-13T12:01:54Z</time>
      </trkpt>
      <trkpt lat="46.67557" lon="5.92041">
        <ele>769.3</ele>
        <time>2019-11-13T12:01:59Z</time>
      </trkpt>
      <trkpt lat="46.67555" lon="5.92047">
        <ele>768.9</ele>
        <time>2019-11-13T12:02:04Z</time>
      </trkpt>
      <trkpt lat="46.67554" lon="5.92054">
        <ele>768.5</ele>
        <time>2019-11-13T12:02:09Z</time>
      </trkpt>
      <trkpt lat="46.67552" lon="5.9206">
        <ele>768.1</ele>
        <time>2019-11-13T12:02:13Z</time>
      </trkpt>
      <trkpt lat="46.6755" lon="5.92068">
        <ele>767.3</ele>
        <time>2019-11-13T12:02:19Z</time>
      </trkpt>
      <trkpt lat="46.67548" lon="5.92074">
        <ele>766.8</ele>
        <time>2019-11-13T12:02:23Z</time>
      </trkpt>
      <trkpt lat="46.67546" lon="5.92081">
        <ele>766.1</ele>
        <time>2019-11-13T12:02:27Z</time>
      </trkpt>
      <trkpt lat="46.67544" lon="5.92088">
        <ele>765.1</ele>
        <time>2019-11-13T12:02:32Z</time>
      </trkpt>
      <trkpt lat="46.67541" lon="5.92095">
        <ele>764</ele>
        <time>2019-11-13T12:02:38Z</time>
      </trkpt>
      <trkpt lat="46.67538" lon="5.92101">
        <ele>763.2</ele>
        <time>2019-11-13T12:02:44Z</time>
      </trkpt>
      <trkpt lat="46.67536" lon="5.92109">
        <ele>762.5</ele>
        <time>2019-11-13T12:02:49Z</time>
      </trkpt>
      <trkpt lat="46.67533" lon="5.92116">
        <ele>761.9</ele>
        <time>2019-11-13T12:02:53Z</time>
      </trkpt>
      <trkpt lat="46.6753" lon="5.92121">
        <ele>761.5</ele>
        <time>2019-11-13T12:02:57Z</time>
      </trkpt>
      <trkpt lat="46.67528" lon="5.92127">
        <ele>761.3</ele>
        <time>2019-11-13T12:03:02Z</time>
      </trkpt>
      <trkpt lat="46.67526" lon="5.92134">
        <ele>760.9</ele>
        <time>2019-11-13T12:03:07Z</time>
      </trkpt>
      <trkpt lat="46.67523" lon="5.9214">
        <ele>760.7</ele>
        <time>2019-11-13T12:03:12Z</time>
      </trkpt>
      <trkpt lat="46.67523" lon="5.92148">
        <ele>760.6</ele>
        <time>2019-11-13T12:03:19Z</time>
      </trkpt>
      <trkpt lat="46.67524" lon="5.92156">
        <ele>760.5</ele>
        <time>2019-11-13T12:03:24Z</time>
      </trkpt>
      <trkpt lat="46.67525" lon="5.92164">
        <ele>760.3</ele>
        <time>2019-11-13T12:03:29Z</time>
      </trkpt>
      <trkpt lat="46.67526" lon="5.9217">
        <ele>759.9</ele>
        <time>2019-11-13T12:03:33Z</time>
      </trkpt>
      <trkpt lat="46.67525" lon="5.92177">
        <ele>759.3</ele>
        <time>2019-11-13T12:03:39Z</time>
      </trkpt>
      <trkpt lat="46.67527" lon="5.92184">
        <ele>758.6</ele>
        <time>2019-11-13T12:03:44Z</time>
      </trkpt>
      <trkpt lat="46.6753" lon="5.9219">
        <ele>758</ele>
        <time>2019-11-13T12:03:49Z</time>
      </trkpt>
      <trkpt lat="46.67533" lon="5.92196">
        <ele>757.4</ele>
        <time>2019-11-13T12:03:57Z</time>
      </trkpt>
      <trkpt lat="46.67537" lon="5.92198">
        <ele>756.5</ele>
        <time>2019-11-13T12:04:05Z</time>
      </trkpt>
      <trkpt lat="46.67542" lon="5.92197">
        <ele>755.6</ele>
        <time>2019-11-13T12:04:10Z</time>
      </trkpt>
      <trkpt lat="46.67547" lon="5.92196">
        <ele>754.7</ele>
        <time>2019-11-13T12:04:15Z</time>
      </trkpt>
      <trkpt lat="46.67552" lon="5.92194">
        <ele>754</ele>
        <time>2019-11-13T12:04:20Z</time>
      </trkpt>
      <trkpt lat="46.67556" lon="5.92191">
        <ele>753.4</ele>
        <time>2019-11-13T12:04:26Z</time>
      </trkpt>
      <trkpt lat="46.67561" lon="5.9219">
        <ele>752.8</ele>
        <time>2019-11-13T12:04:30Z</time>
      </trkpt>
      <trkpt lat="46.67566" lon="5.92188">
        <ele>752.1</ele>
        <time>2019-11-13T12:04:34Z</time>
      </trkpt>
      <trkpt lat="46.6757" lon="5.92184">
        <ele>751.4</ele>
        <time>2019-11-13T12:04:38Z</time>
      </trkpt>
      <trkpt lat="46.67573" lon="5.92178">
        <ele>750.5</ele>
        <time>2019-11-13T12:04:44Z</time>
      </trkpt>
      <trkpt lat="46.67578" lon="5.92173">
        <ele>749.9</ele>
        <time>2019-11-13T12:04:48Z</time>
      </trkpt>
      <trkpt lat="46.67582" lon="5.92171">
        <ele>749.3</ele>
        <time>2019-11-13T12:04:52Z</time>
      </trkpt>
      <trkpt lat="46.67587" lon="5.92167">
        <ele>748.6</ele>
        <time>2019-11-13T12:04:57Z</time>
      </trkpt>
      <trkpt lat="46.6759" lon="5.92162">
        <ele>748.1</ele>
        <time>2019-11-13T12:05:01Z</time>
      </trkpt>
      <trkpt lat="46.67594" lon="5.92156">
        <ele>747.6</ele>
        <time>2019-11-13T12:05:05Z</time>
      </trkpt>
      <trkpt lat="46.67597" lon="5.92151">
        <ele>747.2</ele>
        <time>2019-11-13T12:05:09Z</time>
      </trkpt>
      <trkpt lat="46.67601" lon="5.92145">
        <ele>746.7</ele>
        <time>2019-11-13T12:05:15Z</time>
      </trkpt>
      <trkpt lat="46.67605" lon="5.9214">
        <ele>746.3</ele>
        <time>2019-11-13T12:05:20Z</time>
      </trkpt>
      <trkpt lat="46.67609" lon="5.92136">
        <ele>746</ele>
        <time>2019-11-13T12:05:26Z</time>
      </trkpt>
      <trkpt lat="46.67612" lon="5.9213">
        <ele>745.8</ele>
        <time>2019-11-13T12:05:31Z</time>
      </trkpt>
      <trkpt lat="46.67616" lon="5.92125">
        <ele>745.5</ele>
        <time>2019-11-13T12:05:35Z</time>
      </trkpt>
      <trkpt lat="46.6762" lon="5.9212">
        <ele>745.1</ele>
        <time>2019-11-13T12:05:39Z</time>
      </trkpt>
      <trkpt lat="46.67624" lon="5.92116">
        <ele>744.9</ele>
        <time>2019-11-13T12:05:44Z</time>
      </trkpt>
      <trkpt lat="46.67627" lon="5.9211">
        <ele>744.8</ele>
        <time>2019-11-13T12:05:48Z</time>
      </trkpt>
      <trkpt lat="46.67629" lon="5.92104">
        <ele>744.7</ele>
        <time>2019-11-13T12:05:52Z</time>
      </trkpt>
      <trkpt lat="46.67631" lon="5.92098">
        <ele>744.8</ele>
        <time>2019-11-13T12:05:56Z</time>
      </trkpt>
      <trkpt lat="46.67634" lon="5.92093">
        <ele>744.7</ele>
        <time>2019-11-13T12:05:59Z</time>
      </trkpt>
      <trkpt lat="46.67637" lon="5.92087">
        <ele>744.6</ele>
        <time>2019-11-13T12:06:03Z</time>
      </trkpt>
      <trkpt lat="46.67638" lon="5.9208">
        <ele>744.4</ele>
        <time>2019-11-13T12:06:07Z</time>
      </trkpt>
      <trkpt lat="46.67641" lon="5.92073">
        <ele>744.2</ele>
        <time>2019-11-13T12:06:11Z</time>
      </trkpt>
      <trkpt lat="46.67653" lon="5.92064">
        <ele>743.3</ele>
        <time>2019-11-13T12:06:22Z</time>
      </trkpt>
      <trkpt lat="46.67658" lon="5.92064">
        <ele>743.2</ele>
        <time>2019-11-13T12:06:26Z</time>
      </trkpt>
      <trkpt lat="46.67662" lon="5.92065">
        <ele>743.1</ele>
        <time>2019-11-13T12:06:29Z</time>
      </trkpt>
      <trkpt lat="46.67666" lon="5.92069">
        <ele>743.1</ele>
        <time>2019-11-13T12:06:32Z</time>
      </trkpt>
      <trkpt lat="46.6767" lon="5.92075">
        <ele>743</ele>
        <time>2019-11-13T12:06:36Z</time>
      </trkpt>
      <trkpt lat="46.67673" lon="5.92081">
        <ele>742.8</ele>
        <time>2019-11-13T12:06:40Z</time>
      </trkpt>
      <trkpt lat="46.67677" lon="5.92086">
        <ele>742.8</ele>
        <time>2019-11-13T12:06:46Z</time>
      </trkpt>
      <trkpt lat="46.67682" lon="5.9209">
        <ele>743.2</ele>
        <time>2019-11-13T12:06:51Z</time>
      </trkpt>
      <trkpt lat="46.67686" lon="5.92094">
        <ele>743.7</ele>
        <time>2019-11-13T12:06:56Z</time>
      </trkpt>
      <trkpt lat="46.6769" lon="5.92098">
        <ele>744.2</ele>
        <time>2019-11-13T12:07:01Z</time>
      </trkpt>
      <trkpt lat="46.67694" lon="5.92103">
        <ele>744.5</ele>
        <time>2019-11-13T12:07:09Z</time>
      </trkpt>
      <trkpt lat="46.67698" lon="5.92106">
        <ele>744.6</ele>
        <time>2019-11-13T12:07:12Z</time>
      </trkpt>
      <trkpt lat="46.67702" lon="5.92109">
        <ele>744.6</ele>
        <time>2019-11-13T12:07:15Z</time>
      </trkpt>
      <trkpt lat="46.67706" lon="5.92114">
        <ele>744.7</ele>
        <time>2019-11-13T12:07:19Z</time>
      </trkpt>
      <trkpt lat="46.6771" lon="5.92117">
        <ele>744.8</ele>
        <time>2019-11-13T12:07:22Z</time>
      </trkpt>
      <trkpt lat="46.67714" lon="5.92121">
        <ele>745</ele>
        <time>2019-11-13T12:07:26Z</time>
      </trkpt>
      <trkpt lat="46.67719" lon="5.92126">
        <ele>745.3</ele>
        <time>2019-11-13T12:07:31Z</time>
      </trkpt>
      <trkpt lat="46.67722" lon="5.9213">
        <ele>745.5</ele>
        <time>2019-11-13T12:07:36Z</time>
      </trkpt>
      <trkpt lat="46.67725" lon="5.92136">
        <ele>745.7</ele>
        <time>2019-11-13T12:07:40Z</time>
      </trkpt>
      <trkpt lat="46.67728" lon="5.92142">
        <ele>746.2</ele>
        <time>2019-11-13T12:07:45Z</time>
      </trkpt>
      <trkpt lat="46.67731" lon="5.92148">
        <ele>746.6</ele>
        <time>2019-11-13T12:07:50Z</time>
      </trkpt>
      <trkpt lat="46.67734" lon="5.92154">
        <ele>747.1</ele>
        <time>2019-11-13T12:07:55Z</time>
      </trkpt>
      <trkpt lat="46.67737" lon="5.92159">
        <ele>747.5</ele>
        <time>2019-11-13T12:07:59Z</time>
      </trkpt>
      <trkpt lat="46.6774" lon="5.92165">
        <ele>747.8</ele>
        <time>2019-11-13T12:08:03Z</time>
      </trkpt>
      <trkpt lat="46.67744" lon="5.9217">
        <ele>748</ele>
        <time>2019-11-13T12:08:08Z</time>
      </trkpt>
      <trkpt lat="46.67747" lon="5.92176">
        <ele>748.3</ele>
        <time>2019-11-13T12:08:14Z</time>
      </trkpt>
      <trkpt lat="46.67751" lon="5.92181">
        <ele>748.6</ele>
        <time>2019-11-13T12:08:19Z</time>
      </trkpt>
      <trkpt lat="46.67755" lon="5.92187">
        <ele>748.8</ele>
        <time>2019-11-13T12:08:24Z</time>
      </trkpt>
      <trkpt lat="46.67759" lon="5.92192">
        <ele>749.2</ele>
        <time>2019-11-13T12:08:29Z</time>
      </trkpt>
      <trkpt lat="46.67763" lon="5.92195">
        <ele>749.5</ele>
        <time>2019-11-13T12:08:33Z</time>
      </trkpt>
      <trkpt lat="46.67767" lon="5.92199">
        <ele>749.9</ele>
        <time>2019-11-13T12:08:37Z</time>
      </trkpt>
      <trkpt lat="46.6777" lon="5.92205">
        <ele>750.7</ele>
        <time>2019-11-13T12:08:43Z</time>
      </trkpt>
      <trkpt lat="46.67774" lon="5.92212">
        <ele>751.4</ele>
        <time>2019-11-13T12:08:48Z</time>
      </trkpt>
      <trkpt lat="46.67778" lon="5.92217">
        <ele>751.9</ele>
        <time>2019-11-13T12:08:52Z</time>
      </trkpt>
      <trkpt lat="46.67782" lon="5.92221">
        <ele>752.4</ele>
        <time>2019-11-13T12:08:57Z</time>
      </trkpt>
      <trkpt lat="46.67786" lon="5.92225">
        <ele>752.8</ele>
        <time>2019-11-13T12:09:03Z</time>
      </trkpt>
      <trkpt lat="46.6779" lon="5.9223">
        <ele>752.9</ele>
        <time>2019-11-13T12:09:08Z</time>
      </trkpt>
      <trkpt lat="46.67793" lon="5.92235">
        <ele>753</ele>
        <time>2019-11-13T12:09:11Z</time>
      </trkpt>
      <trkpt lat="46.67795" lon="5.9224">
        <ele>753</ele>
        <time>2019-11-13T12:09:15Z</time>
      </trkpt>
      <trkpt lat="46.67798" lon="5.92246">
        <ele>753.1</ele>
        <time>2019-11-13T12:09:20Z</time>
      </trkpt>
      <trkpt lat="46.67802" lon="5.9225">
        <ele>753.3</ele>
        <time>2019-11-13T12:09:25Z</time>
      </trkpt>
      <trkpt lat="46.67807" lon="5.92254">
        <ele>753.5</ele>
        <time>2019-11-13T12:09:31Z</time>
      </trkpt>
      <trkpt lat="46.6781" lon="5.92261">
        <ele>753.7</ele>
        <time>2019-11-13T12:09:36Z</time>
      </trkpt>
      <trkpt lat="46.67813" lon="5.92267">
        <ele>753.8</ele>
        <time>2019-11-13T12:09:40Z</time>
      </trkpt>
      <trkpt lat="46.67816" lon="5.92271">
        <ele>753.8</ele>
        <time>2019-11-13T12:09:45Z</time>
      </trkpt>
      <trkpt lat="46.6782" lon="5.92276">
        <ele>753.9</ele>
        <time>2019-11-13T12:09:50Z</time>
      </trkpt>
      <trkpt lat="46.67824" lon="5.92281">
        <ele>754.1</ele>
        <time>2019-11-13T12:09:55Z</time>
      </trkpt>
      <trkpt lat="46.67826" lon="5.92287">
        <ele>754.3</ele>
        <time>2019-11-13T12:10:00Z</time>
      </trkpt>
      <trkpt lat="46.67829" lon="5.92293">
        <ele>754.7</ele>
        <time>2019-11-13T12:10:06Z</time>
      </trkpt>
      <trkpt lat="46.67833" lon="5.92297">
        <ele>755.3</ele>
        <time>2019-11-13T12:10:14Z</time>
      </trkpt>
      <trkpt lat="46.67836" lon="5.92301">
        <ele>755.6</ele>
        <time>2019-11-13T12:10:25Z</time>
      </trkpt>
      <trkpt lat="46.6784" lon="5.92304">
        <ele>755.9</ele>
        <time>2019-11-13T12:10:37Z</time>
      </trkpt>
      <trkpt lat="46.67848" lon="5.92298">
        <ele>752.1</ele>
        <time>2019-11-13T12:10:59Z</time>
      </trkpt>
      <trkpt lat="46.67876" lon="5.92299">
        <ele>751.2</ele>
        <time>2019-11-13T12:12:02Z</time>
      </trkpt>
      <trkpt lat="46.67912" lon="5.92298">
        <ele>756.1</ele>
        <time>2019-11-13T12:12:28Z</time>
      </trkpt>
      <trkpt lat="46.67916" lon="5.92298">
        <ele>756.6</ele>
        <time>2019-11-13T12:12:34Z</time>
      </trkpt>
      <trkpt lat="46.67927" lon="5.92297">
        <ele>757.3</ele>
        <time>2019-11-13T12:12:47Z</time>
      </trkpt>
      <trkpt lat="46.67937" lon="5.92299">
        <ele>757.4</ele>
        <time>2019-11-13T12:12:58Z</time>
      </trkpt>
      <trkpt lat="46.67965" lon="5.92303">
        <ele>757.3</ele>
        <time>2019-11-13T12:13:25Z</time>
      </trkpt>
      <trkpt lat="46.6797" lon="5.92303">
        <ele>757.1</ele>
        <time>2019-11-13T12:13:27Z</time>
      </trkpt>
      <trkpt lat="46.67975" lon="5.92303">
        <ele>756.5</ele>
        <time>2019-11-13T12:13:31Z</time>
      </trkpt>
      <trkpt lat="46.67985" lon="5.92311">
        <ele>745</ele>
        <time>2019-11-13T12:14:16Z</time>
      </trkpt>
      <trkpt lat="46.67989" lon="5.92314">
        <ele>743</ele>
        <time>2019-11-13T12:14:23Z</time>
      </trkpt>
      <trkpt lat="46.68003" lon="5.92327">
        <ele>726.2</ele>
        <time>2019-11-13T12:15:20Z</time>
      </trkpt>
      <trkpt lat="46.68003" lon="5.92334">
        <ele>724.9</ele>
        <time>2019-11-13T12:15:24Z</time>
      </trkpt>
      <trkpt lat="46.68003" lon="5.92341">
        <ele>724.5</ele>
        <time>2019-11-13T12:15:26Z</time>
      </trkpt>
      <trkpt lat="46.68002" lon="5.92349">
        <ele>724.1</ele>
        <time>2019-11-13T12:15:30Z</time>
      </trkpt>
      <trkpt lat="46.68005" lon="5.92357">
        <ele>726.5</ele>
        <time>2019-11-13T12:15:55Z</time>
      </trkpt>
      <trkpt lat="46.68009" lon="5.92359">
        <ele>727.8</ele>
        <time>2019-11-13T12:15:59Z</time>
      </trkpt>
      <trkpt lat="46.68014" lon="5.92358">
        <ele>729.6</ele>
        <time>2019-11-13T12:16:10Z</time>
      </trkpt>
      <trkpt lat="46.68018" lon="5.92357">
        <ele>730</ele>
        <time>2019-11-13T12:16:16Z</time>
      </trkpt>
      <trkpt lat="46.68027" lon="5.92354">
        <ele>730.8</ele>
        <time>2019-11-13T12:16:26Z</time>
      </trkpt>
      <trkpt lat="46.68032" lon="5.92355">
        <ele>731.5</ele>
        <time>2019-11-13T12:16:36Z</time>
      </trkpt>
      <trkpt lat="46.68037" lon="5.92358">
        <ele>731.7</ele>
        <time>2019-11-13T12:16:41Z</time>
      </trkpt>
      <trkpt lat="46.68041" lon="5.92358">
        <ele>731.8</ele>
        <time>2019-11-13T12:16:47Z</time>
      </trkpt>
      <trkpt lat="46.68046" lon="5.92358">
        <ele>731.2</ele>
        <time>2019-11-13T12:16:56Z</time>
      </trkpt>
      <trkpt lat="46.68051" lon="5.92359">
        <ele>730.6</ele>
        <time>2019-11-13T12:17:06Z</time>
      </trkpt>
      <trkpt lat="46.68056" lon="5.92361">
        <ele>730.2</ele>
        <time>2019-11-13T12:17:09Z</time>
      </trkpt>
      <trkpt lat="46.68061" lon="5.92363">
        <ele>729.6</ele>
        <time>2019-11-13T12:17:15Z</time>
      </trkpt>
      <trkpt lat="46.68066" lon="5.92364">
        <ele>728.5</ele>
        <time>2019-11-13T12:17:24Z</time>
      </trkpt>
      <trkpt lat="46.68071" lon="5.92366">
        <ele>728</ele>
        <time>2019-11-13T12:17:28Z</time>
      </trkpt>
      <trkpt lat="46.68082" lon="5.92368">
        <ele>727.1</ele>
        <time>2019-11-13T12:17:40Z</time>
      </trkpt>
      <trkpt lat="46.68087" lon="5.92366">
        <ele>727.1</ele>
        <time>2019-11-13T12:17:50Z</time>
      </trkpt>
      <trkpt lat="46.68092" lon="5.92366">
        <ele>726.9</ele>
        <time>2019-11-13T12:17:53Z</time>
      </trkpt>
      <trkpt lat="46.68097" lon="5.92365">
        <ele>726.5</ele>
        <time>2019-11-13T12:17:56Z</time>
      </trkpt>
      <trkpt lat="46.68102" lon="5.92362">
        <ele>726.1</ele>
        <time>2019-11-13T12:17:59Z</time>
      </trkpt>
      <trkpt lat="46.68106" lon="5.92359">
        <ele>725.7</ele>
        <time>2019-11-13T12:18:02Z</time>
      </trkpt>
      <trkpt lat="46.68111" lon="5.92356">
        <ele>724.5</ele>
        <time>2019-11-13T12:18:07Z</time>
      </trkpt>
      <trkpt lat="46.68115" lon="5.92353">
        <ele>723.2</ele>
        <time>2019-11-13T12:18:12Z</time>
      </trkpt>
      <trkpt lat="46.68117" lon="5.92347">
        <ele>721.7</ele>
        <time>2019-11-13T12:18:18Z</time>
      </trkpt>
      <trkpt lat="46.68122" lon="5.92346">
        <ele>718.9</ele>
        <time>2019-11-13T12:18:29Z</time>
      </trkpt>
      <trkpt lat="46.68127" lon="5.92346">
        <ele>717.1</ele>
        <time>2019-11-13T12:18:35Z</time>
      </trkpt>
      <trkpt lat="46.68132" lon="5.92352">
        <ele>716.1</ele>
        <time>2019-11-13T12:18:38Z</time>
      </trkpt>
      <trkpt lat="46.68135" lon="5.92358">
        <ele>714.2</ele>
        <time>2019-11-13T12:18:43Z</time>
      </trkpt>
      <trkpt lat="46.68136" lon="5.92365">
        <ele>712</ele>
        <time>2019-11-13T12:18:49Z</time>
      </trkpt>
      <trkpt lat="46.68149" lon="5.92371">
        <ele>706.8</ele>
        <time>2019-11-13T12:19:24Z</time>
      </trkpt>
      <trkpt lat="46.68154" lon="5.92371">
        <ele>708</ele>
        <time>2019-11-13T12:19:33Z</time>
      </trkpt>
      <trkpt lat="46.68159" lon="5.92366">
        <ele>708.3</ele>
        <time>2019-11-13T12:19:35Z</time>
      </trkpt>
      <trkpt lat="46.68163" lon="5.92362">
        <ele>708.5</ele>
        <time>2019-11-13T12:19:37Z</time>
      </trkpt>
      <trkpt lat="46.68167" lon="5.9236">
        <ele>708.7</ele>
        <time>2019-11-13T12:19:39Z</time>
      </trkpt>
      <trkpt lat="46.68173" lon="5.92359">
        <ele>708.6</ele>
        <time>2019-11-13T12:19:43Z</time>
      </trkpt>
      <trkpt lat="46.68177" lon="5.9236">
        <ele>707.6</ele>
        <time>2019-11-13T12:19:50Z</time>
      </trkpt>
      <trkpt lat="46.6818" lon="5.92354">
        <ele>703.1</ele>
        <time>2019-11-13T12:20:04Z</time>
      </trkpt>
      <trkpt lat="46.68184" lon="5.92352">
        <ele>700.4</ele>
        <time>2019-11-13T12:20:13Z</time>
      </trkpt>
      <trkpt lat="46.68189" lon="5.92349">
        <ele>700.2</ele>
        <time>2019-11-13T12:20:20Z</time>
      </trkpt>
      <trkpt lat="46.68194" lon="5.92348">
        <ele>701</ele>
        <time>2019-11-13T12:20:32Z</time>
      </trkpt>
      <trkpt lat="46.68199" lon="5.92347">
        <ele>701.2</ele>
        <time>2019-11-13T12:20:39Z</time>
      </trkpt>
      <trkpt lat="46.68205" lon="5.92345">
        <ele>701.3</ele>
        <time>2019-11-13T12:20:46Z</time>
      </trkpt>
      <trkpt lat="46.6821" lon="5.92345">
        <ele>701.3</ele>
        <time>2019-11-13T12:20:50Z</time>
      </trkpt>
      <trkpt lat="46.68215" lon="5.92347">
        <ele>702</ele>
        <time>2019-11-13T12:20:58Z</time>
      </trkpt>
      <trkpt lat="46.6822" lon="5.92349">
        <ele>702.4</ele>
        <time>2019-11-13T12:21:02Z</time>
      </trkpt>
      <trkpt lat="46.68224" lon="5.92351">
        <ele>702.9</ele>
        <time>2019-11-13T12:21:09Z</time>
      </trkpt>
      <trkpt lat="46.68229" lon="5.92356">
        <ele>703.2</ele>
        <time>2019-11-13T12:21:21Z</time>
      </trkpt>
      <trkpt lat="46.68233" lon="5.92361">
        <ele>703.3</ele>
        <time>2019-11-13T12:21:24Z</time>
      </trkpt>
      <trkpt lat="46.68235" lon="5.92367">
        <ele>703</ele>
        <time>2019-11-13T12:21:34Z</time>
      </trkpt>
      <trkpt lat="46.68238" lon="5.92373">
        <ele>702.3</ele>
        <time>2019-11-13T12:21:41Z</time>
      </trkpt>
      <trkpt lat="46.68241" lon="5.92379">
        <ele>701.9</ele>
        <time>2019-11-13T12:21:44Z</time>
      </trkpt>
      <trkpt lat="46.68243" lon="5.92386">
        <ele>701.5</ele>
        <time>2019-11-13T12:21:47Z</time>
      </trkpt>
      <trkpt lat="46.68246" lon="5.92394">
        <ele>700.7</ele>
        <time>2019-11-13T12:21:51Z</time>
      </trkpt>
      <trkpt lat="46.68246" lon="5.92402">
        <ele>699.5</ele>
        <time>2019-11-13T12:21:55Z</time>
      </trkpt>
      <trkpt lat="46.68249" lon="5.92408">
        <ele>697.7</ele>
        <time>2019-11-13T12:22:00Z</time>
      </trkpt>
      <trkpt lat="46.68254" lon="5.92409">
        <ele>691.9</ele>
        <time>2019-11-13T12:22:17Z</time>
      </trkpt>
      <trkpt lat="46.68259" lon="5.92409">
        <ele>688.2</ele>
        <time>2019-11-13T12:22:28Z</time>
      </trkpt>
      <trkpt lat="46.68265" lon="5.92411">
        <ele>687</ele>
        <time>2019-11-13T12:22:32Z</time>
      </trkpt>
      <trkpt lat="46.6827" lon="5.92414">
        <ele>685.2</ele>
        <time>2019-11-13T12:22:38Z</time>
      </trkpt>
      <trkpt lat="46.68275" lon="5.92413">
        <ele>683.8</ele>
        <time>2019-11-13T12:22:43Z</time>
      </trkpt>
      <trkpt lat="46.68279" lon="5.92416">
        <ele>682.6</ele>
        <time>2019-11-13T12:22:47Z</time>
      </trkpt>
      <trkpt lat="46.68283" lon="5.92419">
        <ele>681.3</ele>
        <time>2019-11-13T12:22:51Z</time>
      </trkpt>
      <trkpt lat="46.68287" lon="5.92423">
        <ele>680.1</ele>
        <time>2019-11-13T12:22:55Z</time>
      </trkpt>
      <trkpt lat="46.6829" lon="5.92427">
        <ele>679.3</ele>
        <time>2019-11-13T12:22:59Z</time>
      </trkpt>
      <trkpt lat="46.68296" lon="5.9243">
        <ele>678.5</ele>
        <time>2019-11-13T12:23:03Z</time>
      </trkpt>
      <trkpt lat="46.683" lon="5.92433">
        <ele>678</ele>
        <time>2019-11-13T12:23:07Z</time>
      </trkpt>
      <trkpt lat="46.68305" lon="5.92433">
        <ele>677.5</ele>
        <time>2019-11-13T12:23:13Z</time>
      </trkpt>
      <trkpt lat="46.6831" lon="5.92432">
        <ele>676.7</ele>
        <time>2019-11-13T12:23:19Z</time>
      </trkpt>
      <trkpt lat="46.68314" lon="5.92431">
        <ele>675.5</ele>
        <time>2019-11-13T12:23:26Z</time>
      </trkpt>
      <trkpt lat="46.68319" lon="5.92427">
        <ele>674.7</ele>
        <time>2019-11-13T12:23:31Z</time>
      </trkpt>
      <trkpt lat="46.68323" lon="5.92423">
        <ele>674</ele>
        <time>2019-11-13T12:23:36Z</time>
      </trkpt>
      <trkpt lat="46.68328" lon="5.92421">
        <ele>673.5</ele>
        <time>2019-11-13T12:23:40Z</time>
      </trkpt>
      <trkpt lat="46.68332" lon="5.92418">
        <ele>673</ele>
        <time>2019-11-13T12:23:44Z</time>
      </trkpt>
      <trkpt lat="46.68336" lon="5.92413">
        <ele>672.3</ele>
        <time>2019-11-13T12:23:50Z</time>
      </trkpt>
      <trkpt lat="46.6834" lon="5.92408">
        <ele>671.6</ele>
        <time>2019-11-13T12:23:54Z</time>
      </trkpt>
      <trkpt lat="46.68344" lon="5.92404">
        <ele>670.5</ele>
        <time>2019-11-13T12:24:00Z</time>
      </trkpt>
      <trkpt lat="46.68347" lon="5.924">
        <ele>669.4</ele>
        <time>2019-11-13T12:24:06Z</time>
      </trkpt>
      <trkpt lat="46.68351" lon="5.92396">
        <ele>667.8</ele>
        <time>2019-11-13T12:24:12Z</time>
      </trkpt>
      <trkpt lat="46.68355" lon="5.92391">
        <ele>665.4</ele>
        <time>2019-11-13T12:24:20Z</time>
      </trkpt>
      <trkpt lat="46.6836" lon="5.92388">
        <ele>663.9</ele>
        <time>2019-11-13T12:24:25Z</time>
      </trkpt>
      <trkpt lat="46.68364" lon="5.92384">
        <ele>662.6</ele>
        <time>2019-11-13T12:24:29Z</time>
      </trkpt>
      <trkpt lat="46.68368" lon="5.9238">
        <ele>661.1</ele>
        <time>2019-11-13T12:24:33Z</time>
      </trkpt>
      <trkpt lat="46.68373" lon="5.92376">
        <ele>659</ele>
        <time>2019-11-13T12:24:38Z</time>
      </trkpt>
      <trkpt lat="46.68377" lon="5.92373">
        <ele>657</ele>
        <time>2019-11-13T12:24:43Z</time>
      </trkpt>
      <trkpt lat="46.68382" lon="5.92371">
        <ele>655.3</ele>
        <time>2019-11-13T12:24:48Z</time>
      </trkpt>
      <trkpt lat="46.68386" lon="5.92367">
        <ele>653.8</ele>
        <time>2019-11-13T12:24:53Z</time>
      </trkpt>
      <trkpt lat="46.68391" lon="5.92364">
        <ele>652.9</ele>
        <time>2019-11-13T12:24:58Z</time>
      </trkpt>
      <trkpt lat="46.68396" lon="5.92361">
        <ele>652.9</ele>
        <time>2019-11-13T12:25:00Z</time>
      </trkpt>
      <trkpt lat="46.68402" lon="5.92356">
        <ele>653</ele>
        <time>2019-11-13T12:25:02Z</time>
      </trkpt>
      <trkpt lat="46.68408" lon="5.92352">
        <ele>653.3</ele>
        <time>2019-11-13T12:25:04Z</time>
      </trkpt>
      <trkpt lat="46.68412" lon="5.92349">
        <ele>653.8</ele>
        <time>2019-11-13T12:25:07Z</time>
      </trkpt>
      <trkpt lat="46.68418" lon="5.92344">
        <ele>654.3</ele>
        <time>2019-11-13T12:25:10Z</time>
      </trkpt>
      <trkpt lat="46.68424" lon="5.9234">
        <ele>654.9</ele>
        <time>2019-11-13T12:25:13Z</time>
      </trkpt>
      <trkpt lat="46.68428" lon="5.92337">
        <ele>655.9</ele>
        <time>2019-11-13T12:25:17Z</time>
      </trkpt>
      <trkpt lat="46.68432" lon="5.92334">
        <ele>656.8</ele>
        <time>2019-11-13T12:25:21Z</time>
      </trkpt>
      <trkpt lat="46.68437" lon="5.9233">
        <ele>658</ele>
        <time>2019-11-13T12:25:25Z</time>
      </trkpt>
      <trkpt lat="46.68441" lon="5.92325">
        <ele>659.3</ele>
        <time>2019-11-13T12:25:29Z</time>
      </trkpt>
      <trkpt lat="46.68443" lon="5.92318">
        <ele>660.6</ele>
        <time>2019-11-13T12:25:34Z</time>
      </trkpt>
      <trkpt lat="46.68445" lon="5.92312">
        <ele>661.7</ele>
        <time>2019-11-13T12:25:42Z</time>
      </trkpt>
      <trkpt lat="46.68444" lon="5.92305">
        <ele>662.1</ele>
        <time>2019-11-13T12:25:48Z</time>
      </trkpt>
      <trkpt lat="46.68442" lon="5.92297">
        <ele>661.8</ele>
        <time>2019-11-13T12:25:52Z</time>
      </trkpt>
      <trkpt lat="46.68438" lon="5.92292">
        <ele>661.1</ele>
        <time>2019-11-13T12:25:58Z</time>
      </trkpt>
      <trkpt lat="46.68434" lon="5.92289">
        <ele>659.8</ele>
        <time>2019-11-13T12:26:04Z</time>
      </trkpt>
      <trkpt lat="46.6843" lon="5.92285">
        <ele>658.4</ele>
        <time>2019-11-13T12:26:09Z</time>
      </trkpt>
      <trkpt lat="46.68425" lon="5.92283">
        <ele>656.4</ele>
        <time>2019-11-13T12:26:15Z</time>
      </trkpt>
      <trkpt lat="46.68422" lon="5.92278">
        <ele>654.8</ele>
        <time>2019-11-13T12:26:22Z</time>
      </trkpt>
      <trkpt lat="46.6842" lon="5.92272">
        <ele>654.4</ele>
        <time>2019-11-13T12:26:28Z</time>
      </trkpt>
      <trkpt lat="46.68417" lon="5.92266">
        <ele>654.6</ele>
        <time>2019-11-13T12:26:33Z</time>
      </trkpt>
      <trkpt lat="46.68403" lon="5.92237">
        <ele>656.8</ele>
        <time>2019-11-13T12:26:56Z</time>
      </trkpt>
      <trkpt lat="46.68402" lon="5.92231">
        <ele>658</ele>
        <time>2019-11-13T12:27:01Z</time>
      </trkpt>
      <trkpt lat="46.68407" lon="5.92222">
        <ele>661.9</ele>
        <time>2019-11-13T12:27:13Z</time>
      </trkpt>
      <trkpt lat="46.68413" lon="5.9222">
        <ele>662.1</ele>
        <time>2019-11-13T12:27:16Z</time>
      </trkpt>
      <trkpt lat="46.68418" lon="5.92218">
        <ele>662.1</ele>
        <time>2019-11-13T12:27:20Z</time>
      </trkpt>
      <trkpt lat="46.68423" lon="5.92218">
        <ele>662</ele>
        <time>2019-11-13T12:27:23Z</time>
      </trkpt>
      <trkpt lat="46.68427" lon="5.92218">
        <ele>661.9</ele>
        <time>2019-11-13T12:27:26Z</time>
      </trkpt>
      <trkpt lat="46.68433" lon="5.92218">
        <ele>661.9</ele>
        <time>2019-11-13T12:27:30Z</time>
      </trkpt>
      <trkpt lat="46.68437" lon="5.92217">
        <ele>662</ele>
        <time>2019-11-13T12:27:34Z</time>
      </trkpt>
      <trkpt lat="46.68442" lon="5.92216">
        <ele>662.2</ele>
        <time>2019-11-13T12:27:38Z</time>
      </trkpt>
      <trkpt lat="46.68447" lon="5.92216">
        <ele>662.7</ele>
        <time>2019-11-13T12:27:43Z</time>
      </trkpt>
      <trkpt lat="46.68452" lon="5.92216">
        <ele>663</ele>
        <time>2019-11-13T12:27:47Z</time>
      </trkpt>
      <trkpt lat="46.68457" lon="5.92218">
        <ele>663.2</ele>
        <time>2019-11-13T12:27:51Z</time>
      </trkpt>
      <trkpt lat="46.68462" lon="5.92219">
        <ele>663.5</ele>
        <time>2019-11-13T12:27:57Z</time>
      </trkpt>
      <trkpt lat="46.68467" lon="5.92222">
        <ele>663.6</ele>
        <time>2019-11-13T12:28:01Z</time>
      </trkpt>
      <trkpt lat="46.68472" lon="5.92225">
        <ele>663.5</ele>
        <time>2019-11-13T12:28:06Z</time>
      </trkpt>
      <trkpt lat="46.68476" lon="5.92229">
        <ele>663.2</ele>
        <time>2019-11-13T12:28:12Z</time>
      </trkpt>
      <trkpt lat="46.6848" lon="5.92233">
        <ele>662.6</ele>
        <time>2019-11-13T12:28:18Z</time>
      </trkpt>
      <trkpt lat="46.68483" lon="5.92238">
        <ele>661.9</ele>
        <time>2019-11-13T12:28:25Z</time>
      </trkpt>
      <trkpt lat="46.68486" lon="5.92243">
        <ele>661.3</ele>
        <time>2019-11-13T12:28:29Z</time>
      </trkpt>
      <trkpt lat="46.6849" lon="5.92248">
        <ele>660.4</ele>
        <time>2019-11-13T12:28:34Z</time>
      </trkpt>
      <trkpt lat="46.68493" lon="5.92254">
        <ele>659.7</ele>
        <time>2019-11-13T12:28:38Z</time>
      </trkpt>
      <trkpt lat="46.68498" lon="5.92257">
        <ele>658.9</ele>
        <time>2019-11-13T12:28:43Z</time>
      </trkpt>
      <trkpt lat="46.68503" lon="5.92259">
        <ele>658.4</ele>
        <time>2019-11-13T12:28:47Z</time>
      </trkpt>
      <trkpt lat="46.68508" lon="5.9226">
        <ele>658.3</ele>
        <time>2019-11-13T12:28:50Z</time>
      </trkpt>
      <trkpt lat="46.68514" lon="5.92262">
        <ele>658.3</ele>
        <time>2019-11-13T12:28:53Z</time>
      </trkpt>
      <trkpt lat="46.68518" lon="5.92262">
        <ele>658.1</ele>
        <time>2019-11-13T12:28:57Z</time>
      </trkpt>
      <trkpt lat="46.68524" lon="5.92259">
        <ele>657.9</ele>
        <time>2019-11-13T12:29:02Z</time>
      </trkpt>
      <trkpt lat="46.68528" lon="5.92256">
        <ele>658</ele>
        <time>2019-11-13T12:29:06Z</time>
      </trkpt>
      <trkpt lat="46.68532" lon="5.92251">
        <ele>658.4</ele>
        <time>2019-11-13T12:29:11Z</time>
      </trkpt>
      <trkpt lat="46.68536" lon="5.92247">
        <ele>658.9</ele>
        <time>2019-11-13T12:29:16Z</time>
      </trkpt>
      <trkpt lat="46.68537" lon="5.92241">
        <ele>659.5</ele>
        <time>2019-11-13T12:29:21Z</time>
      </trkpt>
      <trkpt lat="46.6854" lon="5.92235">
        <ele>660.3</ele>
        <time>2019-11-13T12:29:27Z</time>
      </trkpt>
      <trkpt lat="46.68543" lon="5.9223">
        <ele>661.1</ele>
        <time>2019-11-13T12:29:31Z</time>
      </trkpt>
      <trkpt lat="46.68546" lon="5.92225">
        <ele>662</ele>
        <time>2019-11-13T12:29:36Z</time>
      </trkpt>
      <trkpt lat="46.68548" lon="5.92219">
        <ele>662.6</ele>
        <time>2019-11-13T12:29:41Z</time>
      </trkpt>
      <trkpt lat="46.68551" lon="5.92213">
        <ele>662.7</ele>
        <time>2019-11-13T12:29:47Z</time>
      </trkpt>
      <trkpt lat="46.68554" lon="5.92208">
        <ele>661.9</ele>
        <time>2019-11-13T12:29:54Z</time>
      </trkpt>
      <trkpt lat="46.68558" lon="5.92203">
        <ele>660.5</ele>
        <time>2019-11-13T12:30:00Z</time>
      </trkpt>
      <trkpt lat="46.68562" lon="5.92198">
        <ele>659</ele>
        <time>2019-11-13T12:30:05Z</time>
      </trkpt>
      <trkpt lat="46.68565" lon="5.92192">
        <ele>657</ele>
        <time>2019-11-13T12:30:11Z</time>
      </trkpt>
      <trkpt lat="46.68568" lon="5.92187">
        <ele>655.4</ele>
        <time>2019-11-13T12:30:16Z</time>
      </trkpt>
      <trkpt lat="46.68572" lon="5.92181">
        <ele>654.2</ele>
        <time>2019-11-13T12:30:20Z</time>
      </trkpt>
      <trkpt lat="46.68576" lon="5.92177">
        <ele>653</ele>
        <time>2019-11-13T12:30:24Z</time>
      </trkpt>
      <trkpt lat="46.68579" lon="5.92172">
        <ele>651.8</ele>
        <time>2019-11-13T12:30:28Z</time>
      </trkpt>
      <trkpt lat="46.68582" lon="5.92166">
        <ele>650.8</ele>
        <time>2019-11-13T12:30:32Z</time>
      </trkpt>
      <trkpt lat="46.68585" lon="5.9216">
        <ele>650.3</ele>
        <time>2019-11-13T12:30:35Z</time>
      </trkpt>
      <trkpt lat="46.68589" lon="5.92155">
        <ele>649.9</ele>
        <time>2019-11-13T12:30:39Z</time>
      </trkpt>
      <trkpt lat="46.68593" lon="5.92151">
        <ele>649.6</ele>
        <time>2019-11-13T12:30:42Z</time>
      </trkpt>
      <trkpt lat="46.68597" lon="5.92146">
        <ele>649.4</ele>
        <time>2019-11-13T12:30:46Z</time>
      </trkpt>
      <trkpt lat="46.68601" lon="5.92141">
        <ele>649.3</ele>
        <time>2019-11-13T12:30:50Z</time>
      </trkpt>
      <trkpt lat="46.68604" lon="5.92134">
        <ele>649.4</ele>
        <time>2019-11-13T12:30:54Z</time>
      </trkpt>
      <trkpt lat="46.68608" lon="5.92128">
        <ele>649.5</ele>
        <time>2019-11-13T12:30:58Z</time>
      </trkpt>
      <trkpt lat="46.68612" lon="5.92123">
        <ele>649.6</ele>
        <time>2019-11-13T12:31:02Z</time>
      </trkpt>
      <trkpt lat="46.68615" lon="5.92119">
        <ele>649.7</ele>
        <time>2019-11-13T12:31:06Z</time>
      </trkpt>
      <trkpt lat="46.68618" lon="5.92112">
        <ele>649.8</ele>
        <time>2019-11-13T12:31:10Z</time>
      </trkpt>
      <trkpt lat="46.68622" lon="5.92106">
        <ele>650.1</ele>
        <time>2019-11-13T12:31:15Z</time>
      </trkpt>
      <trkpt lat="46.68626" lon="5.92102">
        <ele>650.6</ele>
        <time>2019-11-13T12:31:20Z</time>
      </trkpt>
      <trkpt lat="46.68631" lon="5.92101">
        <ele>651</ele>
        <time>2019-11-13T12:31:24Z</time>
      </trkpt>
      <trkpt lat="46.68637" lon="5.92102">
        <ele>651.3</ele>
        <time>2019-11-13T12:31:28Z</time>
      </trkpt>
      <trkpt lat="46.68642" lon="5.92104">
        <ele>651.5</ele>
        <time>2019-11-13T12:31:32Z</time>
      </trkpt>
      <trkpt lat="46.68646" lon="5.92108">
        <ele>651.6</ele>
        <time>2019-11-13T12:31:36Z</time>
      </trkpt>
      <trkpt lat="46.6865" lon="5.9211">
        <ele>651.6</ele>
        <time>2019-11-13T12:31:40Z</time>
      </trkpt>
      <trkpt lat="46.68655" lon="5.92113">
        <ele>651.7</ele>
        <time>2019-11-13T12:31:45Z</time>
      </trkpt>
      <trkpt lat="46.68661" lon="5.92116">
        <ele>651.8</ele>
        <time>2019-11-13T12:31:49Z</time>
      </trkpt>
      <trkpt lat="46.68665" lon="5.9212">
        <ele>652</ele>
        <time>2019-11-13T12:31:53Z</time>
      </trkpt>
      <trkpt lat="46.6867" lon="5.92124">
        <ele>652.2</ele>
        <time>2019-11-13T12:31:57Z</time>
      </trkpt>
      <trkpt lat="46.68674" lon="5.92127">
        <ele>652.5</ele>
        <time>2019-11-13T12:32:01Z</time>
      </trkpt>
      <trkpt lat="46.68679" lon="5.92131">
        <ele>652.8</ele>
        <time>2019-11-13T12:32:05Z</time>
      </trkpt>
      <trkpt lat="46.68683" lon="5.92134">
        <ele>653.1</ele>
        <time>2019-11-13T12:32:09Z</time>
      </trkpt>
      <trkpt lat="46.68687" lon="5.92138">
        <ele>653.5</ele>
        <time>2019-11-13T12:32:13Z</time>
      </trkpt>
      <trkpt lat="46.68691" lon="5.92142">
        <ele>653.9</ele>
        <time>2019-11-13T12:32:17Z</time>
      </trkpt>
      <trkpt lat="46.68695" lon="5.92146">
        <ele>654.5</ele>
        <time>2019-11-13T12:32:22Z</time>
      </trkpt>
      <trkpt lat="46.68699" lon="5.92149">
        <ele>654.8</ele>
        <time>2019-11-13T12:32:26Z</time>
      </trkpt>
      <trkpt lat="46.68704" lon="5.92152">
        <ele>655</ele>
        <time>2019-11-13T12:32:30Z</time>
      </trkpt>
      <trkpt lat="46.68708" lon="5.92155">
        <ele>655.1</ele>
        <time>2019-11-13T12:32:33Z</time>
      </trkpt>
      <trkpt lat="46.68712" lon="5.9216">
        <ele>655.2</ele>
        <time>2019-11-13T12:32:37Z</time>
      </trkpt>
      <trkpt lat="46.68716" lon="5.92164">
        <ele>655.3</ele>
        <time>2019-11-13T12:32:42Z</time>
      </trkpt>
      <trkpt lat="46.6872" lon="5.92168">
        <ele>655.3</ele>
        <time>2019-11-13T12:32:46Z</time>
      </trkpt>
      <trkpt lat="46.68724" lon="5.92172">
        <ele>655.3</ele>
        <time>2019-11-13T12:32:49Z</time>
      </trkpt>
      <trkpt lat="46.68728" lon="5.92175">
        <ele>655.4</ele>
        <time>2019-11-13T12:32:53Z</time>
      </trkpt>
      <trkpt lat="46.68732" lon="5.92178">
        <ele>655.5</ele>
        <time>2019-11-13T12:32:57Z</time>
      </trkpt>
      <trkpt lat="46.68737" lon="5.92181">
        <ele>655.6</ele>
        <time>2019-11-13T12:33:00Z</time>
      </trkpt>
      <trkpt lat="46.68741" lon="5.92185">
        <ele>655.7</ele>
        <time>2019-11-13T12:33:04Z</time>
      </trkpt>
      <trkpt lat="46.68746" lon="5.92188">
        <ele>656</ele>
        <time>2019-11-13T12:33:08Z</time>
      </trkpt>
      <trkpt lat="46.6875" lon="5.92192">
        <ele>656.5</ele>
        <time>2019-11-13T12:33:12Z</time>
      </trkpt>
      <trkpt lat="46.68754" lon="5.92196">
        <ele>657.2</ele>
        <time>2019-11-13T12:33:18Z</time>
      </trkpt>
      <trkpt lat="46.68758" lon="5.922">
        <ele>657.7</ele>
        <time>2019-11-13T12:33:24Z</time>
      </trkpt>
      <trkpt lat="46.68762" lon="5.92203">
        <ele>657.9</ele>
        <time>2019-11-13T12:33:30Z</time>
      </trkpt>
      <trkpt lat="46.68767" lon="5.92206">
        <ele>657.9</ele>
        <time>2019-11-13T12:33:33Z</time>
      </trkpt>
      <trkpt lat="46.68772" lon="5.9221">
        <ele>657.9</ele>
        <time>2019-11-13T12:33:37Z</time>
      </trkpt>
      <trkpt lat="46.68776" lon="5.92213">
        <ele>658</ele>
        <time>2019-11-13T12:33:41Z</time>
      </trkpt>
      <trkpt lat="46.68781" lon="5.92216">
        <ele>658.2</ele>
        <time>2019-11-13T12:33:45Z</time>
      </trkpt>
      <trkpt lat="46.68785" lon="5.9222">
        <ele>658.2</ele>
        <time>2019-11-13T12:33:50Z</time>
      </trkpt>
      <trkpt lat="46.68789" lon="5.92224">
        <ele>658.3</ele>
        <time>2019-11-13T12:33:54Z</time>
      </trkpt>
      <trkpt lat="46.68794" lon="5.92228">
        <ele>658.5</ele>
        <time>2019-11-13T12:33:59Z</time>
      </trkpt>
      <trkpt lat="46.68798" lon="5.92233">
        <ele>658.8</ele>
        <time>2019-11-13T12:34:04Z</time>
      </trkpt>
      <trkpt lat="46.68803" lon="5.92236">
        <ele>658.8</ele>
        <time>2019-11-13T12:34:08Z</time>
      </trkpt>
      <trkpt lat="46.68808" lon="5.9224">
        <ele>658.7</ele>
        <time>2019-11-13T12:34:12Z</time>
      </trkpt>
      <trkpt lat="46.68812" lon="5.92244">
        <ele>658.5</ele>
        <time>2019-11-13T12:34:16Z</time>
      </trkpt>
      <trkpt lat="46.68816" lon="5.92248">
        <ele>658.4</ele>
        <time>2019-11-13T12:34:20Z</time>
      </trkpt>
      <trkpt lat="46.6882" lon="5.92253">
        <ele>658.1</ele>
        <time>2019-11-13T12:34:25Z</time>
      </trkpt>
      <trkpt lat="46.68824" lon="5.92256">
        <ele>658</ele>
        <time>2019-11-13T12:34:28Z</time>
      </trkpt>
      <trkpt lat="46.68829" lon="5.92259">
        <ele>657.9</ele>
        <time>2019-11-13T12:34:32Z</time>
      </trkpt>
      <trkpt lat="46.68834" lon="5.92262">
        <ele>658</ele>
        <time>2019-11-13T12:34:37Z</time>
      </trkpt>
      <trkpt lat="46.68839" lon="5.92265">
        <ele>658.4</ele>
        <time>2019-11-13T12:34:42Z</time>
      </trkpt>
      <trkpt lat="46.68844" lon="5.92267">
        <ele>658.7</ele>
        <time>2019-11-13T12:34:46Z</time>
      </trkpt>
      <trkpt lat="46.68849" lon="5.92269">
        <ele>658.9</ele>
        <time>2019-11-13T12:34:50Z</time>
      </trkpt>
      <trkpt lat="46.68853" lon="5.9227">
        <ele>659.1</ele>
        <time>2019-11-13T12:34:54Z</time>
      </trkpt>
      <trkpt lat="46.68858" lon="5.92272">
        <ele>659.2</ele>
        <time>2019-11-13T12:34:58Z</time>
      </trkpt>
      <trkpt lat="46.68863" lon="5.92273">
        <ele>659.2</ele>
        <time>2019-11-13T12:35:02Z</time>
      </trkpt>
      <trkpt lat="46.68868" lon="5.92272">
        <ele>658.9</ele>
        <time>2019-11-13T12:35:06Z</time>
      </trkpt>
      <trkpt lat="46.68873" lon="5.92272">
        <ele>658.4</ele>
        <time>2019-11-13T12:35:10Z</time>
      </trkpt>
      <trkpt lat="46.68877" lon="5.92271">
        <ele>657.5</ele>
        <time>2019-11-13T12:35:15Z</time>
      </trkpt>
      <trkpt lat="46.68883" lon="5.9227">
        <ele>656.4</ele>
        <time>2019-11-13T12:35:20Z</time>
      </trkpt>
      <trkpt lat="46.68888" lon="5.92269">
        <ele>655</ele>
        <time>2019-11-13T12:35:25Z</time>
      </trkpt>
      <trkpt lat="46.68893" lon="5.92268">
        <ele>653.6</ele>
        <time>2019-11-13T12:35:30Z</time>
      </trkpt>
      <trkpt lat="46.68899" lon="5.92268">
        <ele>652.5</ele>
        <time>2019-11-13T12:35:35Z</time>
      </trkpt>
      <trkpt lat="46.68903" lon="5.9227">
        <ele>651.5</ele>
        <time>2019-11-13T12:35:40Z</time>
      </trkpt>
      <trkpt lat="46.68909" lon="5.92272">
        <ele>650.7</ele>
        <time>2019-11-13T12:35:45Z</time>
      </trkpt>
      <trkpt lat="46.68913" lon="5.92273">
        <ele>650.1</ele>
        <time>2019-11-13T12:35:49Z</time>
      </trkpt>
      <trkpt lat="46.68918" lon="5.92275">
        <ele>649.5</ele>
        <time>2019-11-13T12:35:54Z</time>
      </trkpt>
      <trkpt lat="46.68923" lon="5.92278">
        <ele>648.8</ele>
        <time>2019-11-13T12:35:59Z</time>
      </trkpt>
      <trkpt lat="46.68927" lon="5.92282">
        <ele>648.3</ele>
        <time>2019-11-13T12:36:03Z</time>
      </trkpt>
      <trkpt lat="46.68932" lon="5.92287">
        <ele>647.9</ele>
        <time>2019-11-13T12:36:07Z</time>
      </trkpt>
      <trkpt lat="46.68936" lon="5.92292">
        <ele>647.7</ele>
        <time>2019-11-13T12:36:12Z</time>
      </trkpt>
      <trkpt lat="46.6894" lon="5.92297">
        <ele>647.6</ele>
        <time>2019-11-13T12:36:16Z</time>
      </trkpt>
      <trkpt lat="46.68943" lon="5.92301">
        <ele>647.9</ele>
        <time>2019-11-13T12:36:21Z</time>
      </trkpt>
      <trkpt lat="46.68947" lon="5.92307">
        <ele>648.4</ele>
        <time>2019-11-13T12:36:26Z</time>
      </trkpt>
      <trkpt lat="46.68951" lon="5.92313">
        <ele>648.9</ele>
        <time>2019-11-13T12:36:30Z</time>
      </trkpt>
      <trkpt lat="46.68954" lon="5.92318">
        <ele>649.5</ele>
        <time>2019-11-13T12:36:34Z</time>
      </trkpt>
      <trkpt lat="46.68958" lon="5.92325">
        <ele>650.2</ele>
        <time>2019-11-13T12:36:38Z</time>
      </trkpt>
      <trkpt lat="46.68962" lon="5.92329">
        <ele>650.7</ele>
        <time>2019-11-13T12:36:41Z</time>
      </trkpt>
      <trkpt lat="46.68965" lon="5.92333">
        <ele>651.4</ele>
        <time>2019-11-13T12:36:44Z</time>
      </trkpt>
      <trkpt lat="46.68969" lon="5.92337">
        <ele>652.2</ele>
        <time>2019-11-13T12:36:48Z</time>
      </trkpt>
      <trkpt lat="46.68973" lon="5.92342">
        <ele>653.3</ele>
        <time>2019-11-13T12:36:53Z</time>
      </trkpt>
      <trkpt lat="46.68976" lon="5.92347">
        <ele>654.6</ele>
        <time>2019-11-13T12:36:59Z</time>
      </trkpt>
      <trkpt lat="46.68979" lon="5.92353">
        <ele>655.8</ele>
        <time>2019-11-13T12:37:04Z</time>
      </trkpt>
      <trkpt lat="46.68983" lon="5.92358">
        <ele>656.9</ele>
        <time>2019-11-13T12:37:10Z</time>
      </trkpt>
      <trkpt lat="46.68987" lon="5.92362">
        <ele>657.7</ele>
        <time>2019-11-13T12:37:15Z</time>
      </trkpt>
      <trkpt lat="46.6899" lon="5.92366">
        <ele>658.3</ele>
        <time>2019-11-13T12:37:19Z</time>
      </trkpt>
      <trkpt lat="46.68994" lon="5.92371">
        <ele>659</ele>
        <time>2019-11-13T12:37:25Z</time>
      </trkpt>
      <trkpt lat="46.68998" lon="5.92374">
        <ele>659.2</ele>
        <time>2019-11-13T12:37:29Z</time>
      </trkpt>
      <trkpt lat="46.69002" lon="5.92378">
        <ele>659.4</ele>
        <time>2019-11-13T12:37:35Z</time>
      </trkpt>
      <trkpt lat="46.69006" lon="5.92382">
        <ele>659.6</ele>
        <time>2019-11-13T12:37:41Z</time>
      </trkpt>
      <trkpt lat="46.69011" lon="5.92387">
        <ele>659.6</ele>
        <time>2019-11-13T12:37:47Z</time>
      </trkpt>
      <trkpt lat="46.69015" lon="5.9239">
        <ele>659.5</ele>
        <time>2019-11-13T12:37:51Z</time>
      </trkpt>
      <trkpt lat="46.69019" lon="5.92394">
        <ele>659.2</ele>
        <time>2019-11-13T12:37:56Z</time>
      </trkpt>
      <trkpt lat="46.69023" lon="5.92399">
        <ele>658.8</ele>
        <time>2019-11-13T12:38:01Z</time>
      </trkpt>
      <trkpt lat="46.69028" lon="5.92403">
        <ele>658.3</ele>
        <time>2019-11-13T12:38:06Z</time>
      </trkpt>
      <trkpt lat="46.69032" lon="5.92406">
        <ele>657.9</ele>
        <time>2019-11-13T12:38:11Z</time>
      </trkpt>
      <trkpt lat="46.69036" lon="5.92409">
        <ele>657.6</ele>
        <time>2019-11-13T12:38:16Z</time>
      </trkpt>
      <trkpt lat="46.69041" lon="5.92413">
        <ele>657.3</ele>
        <time>2019-11-13T12:38:22Z</time>
      </trkpt>
      <trkpt lat="46.69043" lon="5.92419">
        <ele>657.2</ele>
        <time>2019-11-13T12:38:27Z</time>
      </trkpt>
      <trkpt lat="46.69048" lon="5.92424">
        <ele>657.2</ele>
        <time>2019-11-13T12:38:31Z</time>
      </trkpt>
      <trkpt lat="46.69052" lon="5.92428">
        <ele>657</ele>
        <time>2019-11-13T12:38:34Z</time>
      </trkpt>
      <trkpt lat="46.69056" lon="5.92432">
        <ele>656.8</ele>
        <time>2019-11-13T12:38:38Z</time>
      </trkpt>
      <trkpt lat="46.6906" lon="5.92435">
        <ele>656.6</ele>
        <time>2019-11-13T12:38:42Z</time>
      </trkpt>
      <trkpt lat="46.69065" lon="5.92439">
        <ele>656.8</ele>
        <time>2019-11-13T12:38:47Z</time>
      </trkpt>
      <trkpt lat="46.69068" lon="5.92444">
        <ele>657.1</ele>
        <time>2019-11-13T12:38:51Z</time>
      </trkpt>
      <trkpt lat="46.69071" lon="5.9245">
        <ele>657.2</ele>
        <time>2019-11-13T12:38:56Z</time>
      </trkpt>
      <trkpt lat="46.69074" lon="5.92455">
        <ele>657</ele>
        <time>2019-11-13T12:39:01Z</time>
      </trkpt>
      <trkpt lat="46.69077" lon="5.92461">
        <ele>656.9</ele>
        <time>2019-11-13T12:39:06Z</time>
      </trkpt>
      <trkpt lat="46.69081" lon="5.92466">
        <ele>656.7</ele>
        <time>2019-11-13T12:39:10Z</time>
      </trkpt>
      <trkpt lat="46.69085" lon="5.92471">
        <ele>656.6</ele>
        <time>2019-11-13T12:39:15Z</time>
      </trkpt>
      <trkpt lat="46.69089" lon="5.92477">
        <ele>656.6</ele>
        <time>2019-11-13T12:39:20Z</time>
      </trkpt>
      <trkpt lat="46.69093" lon="5.92482">
        <ele>656.5</ele>
        <time>2019-11-13T12:39:25Z</time>
      </trkpt>
      <trkpt lat="46.69097" lon="5.92485">
        <ele>656.2</ele>
        <time>2019-11-13T12:39:29Z</time>
      </trkpt>
      <trkpt lat="46.69102" lon="5.92487">
        <ele>655.6</ele>
        <time>2019-11-13T12:39:34Z</time>
      </trkpt>
      <trkpt lat="46.69107" lon="5.92486">
        <ele>654.8</ele>
        <time>2019-11-13T12:39:39Z</time>
      </trkpt>
      <trkpt lat="46.69111" lon="5.92484">
        <ele>653.5</ele>
        <time>2019-11-13T12:39:44Z</time>
      </trkpt>
      <trkpt lat="46.69116" lon="5.92482">
        <ele>651.8</ele>
        <time>2019-11-13T12:39:49Z</time>
      </trkpt>
      <trkpt lat="46.69121" lon="5.9248">
        <ele>650.1</ele>
        <time>2019-11-13T12:39:54Z</time>
      </trkpt>
      <trkpt lat="46.69126" lon="5.92478">
        <ele>649</ele>
        <time>2019-11-13T12:39:58Z</time>
      </trkpt>
      <trkpt lat="46.69131" lon="5.92475">
        <ele>648.2</ele>
        <time>2019-11-13T12:40:02Z</time>
      </trkpt>
      <trkpt lat="46.69136" lon="5.92473">
        <ele>647.6</ele>
        <time>2019-11-13T12:40:06Z</time>
      </trkpt>
      <trkpt lat="46.69141" lon="5.92472">
        <ele>647.2</ele>
        <time>2019-11-13T12:40:10Z</time>
      </trkpt>
      <trkpt lat="46.69146" lon="5.92468">
        <ele>646.8</ele>
        <time>2019-11-13T12:40:14Z</time>
      </trkpt>
      <trkpt lat="46.69158" lon="5.92457">
        <ele>647.2</ele>
        <time>2019-11-13T12:40:26Z</time>
      </trkpt>
      <trkpt lat="46.69162" lon="5.92453">
        <ele>647.4</ele>
        <time>2019-11-13T12:40:32Z</time>
      </trkpt>
      <trkpt lat="46.69167" lon="5.92453">
        <ele>647.4</ele>
        <time>2019-11-13T12:40:37Z</time>
      </trkpt>
      <trkpt lat="46.69173" lon="5.92455">
        <ele>647.5</ele>
        <time>2019-11-13T12:40:41Z</time>
      </trkpt>
      <trkpt lat="46.69179" lon="5.92455">
        <ele>647.8</ele>
        <time>2019-11-13T12:40:44Z</time>
      </trkpt>
      <trkpt lat="46.69184" lon="5.92456">
        <ele>648.3</ele>
        <time>2019-11-13T12:40:47Z</time>
      </trkpt>
      <trkpt lat="46.69189" lon="5.92457">
        <ele>649</ele>
        <time>2019-11-13T12:40:50Z</time>
      </trkpt>
      <trkpt lat="46.69194" lon="5.92458">
        <ele>650</ele>
        <time>2019-11-13T12:40:53Z</time>
      </trkpt>
      <trkpt lat="46.69199" lon="5.92458">
        <ele>651.8</ele>
        <time>2019-11-13T12:40:58Z</time>
      </trkpt>
      <trkpt lat="46.69204" lon="5.92461">
        <ele>654.1</ele>
        <time>2019-11-13T12:41:05Z</time>
      </trkpt>
      <trkpt lat="46.69208" lon="5.92464">
        <ele>655.5</ele>
        <time>2019-11-13T12:41:10Z</time>
      </trkpt>
      <trkpt lat="46.69213" lon="5.92465">
        <ele>656.9</ele>
        <time>2019-11-13T12:41:15Z</time>
      </trkpt>
      <trkpt lat="46.69217" lon="5.92468">
        <ele>658.2</ele>
        <time>2019-11-13T12:41:20Z</time>
      </trkpt>
      <trkpt lat="46.69221" lon="5.92472">
        <ele>659.1</ele>
        <time>2019-11-13T12:41:25Z</time>
      </trkpt>
      <trkpt lat="46.69224" lon="5.92479">
        <ele>659.5</ele>
        <time>2019-11-13T12:41:30Z</time>
      </trkpt>
      <trkpt lat="46.69226" lon="5.92486">
        <ele>659.4</ele>
        <time>2019-11-13T12:41:34Z</time>
      </trkpt>
      <trkpt lat="46.69227" lon="5.92493">
        <ele>659.2</ele>
        <time>2019-11-13T12:41:39Z</time>
      </trkpt>
      <trkpt lat="46.69229" lon="5.92501">
        <ele>658.6</ele>
        <time>2019-11-13T12:41:44Z</time>
      </trkpt>
      <trkpt lat="46.6923" lon="5.92508">
        <ele>658.2</ele>
        <time>2019-11-13T12:41:48Z</time>
      </trkpt>
      <trkpt lat="46.69233" lon="5.92514">
        <ele>657.7</ele>
        <time>2019-11-13T12:41:52Z</time>
      </trkpt>
      <trkpt lat="46.69236" lon="5.9252">
        <ele>657.2</ele>
        <time>2019-11-13T12:41:57Z</time>
      </trkpt>
      <trkpt lat="46.69239" lon="5.92525">
        <ele>656.4</ele>
        <time>2019-11-13T12:42:02Z</time>
      </trkpt>
      <trkpt lat="46.69244" lon="5.92528">
        <ele>655</ele>
        <time>2019-11-13T12:42:09Z</time>
      </trkpt>
      <trkpt lat="46.69249" lon="5.9253">
        <ele>653.5</ele>
        <time>2019-11-13T12:42:14Z</time>
      </trkpt>
      <trkpt lat="46.69254" lon="5.9253">
        <ele>652.2</ele>
        <time>2019-11-13T12:42:18Z</time>
      </trkpt>
      <trkpt lat="46.6926" lon="5.92531">
        <ele>651</ele>
        <time>2019-11-13T12:42:22Z</time>
      </trkpt>
      <trkpt lat="46.69264" lon="5.92533">
        <ele>650</ele>
        <time>2019-11-13T12:42:27Z</time>
      </trkpt>
      <trkpt lat="46.69269" lon="5.92535">
        <ele>649.3</ele>
        <time>2019-11-13T12:42:31Z</time>
      </trkpt>
      <trkpt lat="46.69274" lon="5.92538">
        <ele>648.6</ele>
        <time>2019-11-13T12:42:36Z</time>
      </trkpt>
      <trkpt lat="46.69276" lon="5.92545">
        <ele>648.1</ele>
        <time>2019-11-13T12:42:40Z</time>
      </trkpt>
      <trkpt lat="46.69277" lon="5.92552">
        <ele>647.7</ele>
        <time>2019-11-13T12:42:44Z</time>
      </trkpt>
      <trkpt lat="46.69277" lon="5.92559">
        <ele>647.6</ele>
        <time>2019-11-13T12:42:47Z</time>
      </trkpt>
      <trkpt lat="46.69277" lon="5.92565">
        <ele>647.5</ele>
        <time>2019-11-13T12:42:51Z</time>
      </trkpt>
      <trkpt lat="46.69276" lon="5.92572">
        <ele>647.6</ele>
        <time>2019-11-13T12:42:57Z</time>
      </trkpt>
      <trkpt lat="46.69272" lon="5.92578">
        <ele>647.8</ele>
        <time>2019-11-13T12:43:03Z</time>
      </trkpt>
      <trkpt lat="46.69269" lon="5.92584">
        <ele>648</ele>
        <time>2019-11-13T12:43:07Z</time>
      </trkpt>
      <trkpt lat="46.69268" lon="5.9259">
        <ele>648.2</ele>
        <time>2019-11-13T12:43:11Z</time>
      </trkpt>
      <trkpt lat="46.69266" lon="5.92597">
        <ele>648.3</ele>
        <time>2019-11-13T12:43:16Z</time>
      </trkpt>
      <trkpt lat="46.69266" lon="5.92604">
        <ele>648.5</ele>
        <time>2019-11-13T12:43:22Z</time>
      </trkpt>
      <trkpt lat="46.69264" lon="5.92611">
        <ele>648.8</ele>
        <time>2019-11-13T12:43:27Z</time>
      </trkpt>
      <trkpt lat="46.69264" lon="5.92619">
        <ele>649.6</ele>
        <time>2019-11-13T12:43:33Z</time>
      </trkpt>
      <trkpt lat="46.69265" lon="5.92626">
        <ele>650.2</ele>
        <time>2019-11-13T12:43:37Z</time>
      </trkpt>
      <trkpt lat="46.69264" lon="5.92634">
        <ele>650.7</ele>
        <time>2019-11-13T12:43:41Z</time>
      </trkpt>
      <trkpt lat="46.69262" lon="5.9264">
        <ele>650.9</ele>
        <time>2019-11-13T12:43:45Z</time>
      </trkpt>
      <trkpt lat="46.6926" lon="5.92646">
        <ele>651.2</ele>
        <time>2019-11-13T12:43:50Z</time>
      </trkpt>
      <trkpt lat="46.69258" lon="5.92654">
        <ele>651.4</ele>
        <time>2019-11-13T12:43:54Z</time>
      </trkpt>
      <trkpt lat="46.69256" lon="5.92661">
        <ele>651.7</ele>
        <time>2019-11-13T12:43:58Z</time>
      </trkpt>
      <trkpt lat="46.69255" lon="5.92668">
        <ele>652.1</ele>
        <time>2019-11-13T12:44:02Z</time>
      </trkpt>
      <trkpt lat="46.69253" lon="5.92675">
        <ele>652.8</ele>
        <time>2019-11-13T12:44:07Z</time>
      </trkpt>
      <trkpt lat="46.69252" lon="5.92682">
        <ele>653.4</ele>
        <time>2019-11-13T12:44:11Z</time>
      </trkpt>
      <trkpt lat="46.6925" lon="5.92689">
        <ele>654</ele>
        <time>2019-11-13T12:44:16Z</time>
      </trkpt>
      <trkpt lat="46.69249" lon="5.92696">
        <ele>654.5</ele>
        <time>2019-11-13T12:44:21Z</time>
      </trkpt>
      <trkpt lat="46.69248" lon="5.92704">
        <ele>654.6</ele>
        <time>2019-11-13T12:44:27Z</time>
      </trkpt>
      <trkpt lat="46.69248" lon="5.92711">
        <ele>654.6</ele>
        <time>2019-11-13T12:44:31Z</time>
      </trkpt>
      <trkpt lat="46.69249" lon="5.92718">
        <ele>654.4</ele>
        <time>2019-11-13T12:44:35Z</time>
      </trkpt>
      <trkpt lat="46.6925" lon="5.92725">
        <ele>654.3</ele>
        <time>2019-11-13T12:44:39Z</time>
      </trkpt>
      <trkpt lat="46.69251" lon="5.92732">
        <ele>654.2</ele>
        <time>2019-11-13T12:44:43Z</time>
      </trkpt>
      <trkpt lat="46.69252" lon="5.92739">
        <ele>654.1</ele>
        <time>2019-11-13T12:44:47Z</time>
      </trkpt>
      <trkpt lat="46.69253" lon="5.92746">
        <ele>654.1</ele>
        <time>2019-11-13T12:44:51Z</time>
      </trkpt>
      <trkpt lat="46.69254" lon="5.92753">
        <ele>654.1</ele>
        <time>2019-11-13T12:44:55Z</time>
      </trkpt>
      <trkpt lat="46.69254" lon="5.92759">
        <ele>654.3</ele>
        <time>2019-11-13T12:44:59Z</time>
      </trkpt>
      <trkpt lat="46.69254" lon="5.92766">
        <ele>654.5</ele>
        <time>2019-11-13T12:45:04Z</time>
      </trkpt>
      <trkpt lat="46.69255" lon="5.92773">
        <ele>654.5</ele>
        <time>2019-11-13T12:45:10Z</time>
      </trkpt>
      <trkpt lat="46.69257" lon="5.9278">
        <ele>654.3</ele>
        <time>2019-11-13T12:45:15Z</time>
      </trkpt>
      <trkpt lat="46.69258" lon="5.92786">
        <ele>654</ele>
        <time>2019-11-13T12:45:19Z</time>
      </trkpt>
      <trkpt lat="46.69259" lon="5.92794">
        <ele>653.7</ele>
        <time>2019-11-13T12:45:24Z</time>
      </trkpt>
      <trkpt lat="46.6926" lon="5.92801">
        <ele>653</ele>
        <time>2019-11-13T12:45:29Z</time>
      </trkpt>
      <trkpt lat="46.69261" lon="5.92807">
        <ele>652.4</ele>
        <time>2019-11-13T12:45:33Z</time>
      </trkpt>
      <trkpt lat="46.69263" lon="5.92814">
        <ele>652</ele>
        <time>2019-11-13T12:45:37Z</time>
      </trkpt>
      <trkpt lat="46.69265" lon="5.9282">
        <ele>651.7</ele>
        <time>2019-11-13T12:45:41Z</time>
      </trkpt>
      <trkpt lat="46.69267" lon="5.92828">
        <ele>651.5</ele>
        <time>2019-11-13T12:45:45Z</time>
      </trkpt>
      <trkpt lat="46.69269" lon="5.92835">
        <ele>651.3</ele>
        <time>2019-11-13T12:45:49Z</time>
      </trkpt>
      <trkpt lat="46.69271" lon="5.92842">
        <ele>651.1</ele>
        <time>2019-11-13T12:45:53Z</time>
      </trkpt>
      <trkpt lat="46.69273" lon="5.92849">
        <ele>651</ele>
        <time>2019-11-13T12:45:57Z</time>
      </trkpt>
      <trkpt lat="46.69275" lon="5.92855">
        <ele>650.8</ele>
        <time>2019-11-13T12:46:02Z</time>
      </trkpt>
      <trkpt lat="46.69277" lon="5.92862">
        <ele>650.7</ele>
        <time>2019-11-13T12:46:06Z</time>
      </trkpt>
      <trkpt lat="46.69279" lon="5.92869">
        <ele>650.6</ele>
        <time>2019-11-13T12:46:10Z</time>
      </trkpt>
      <trkpt lat="46.69281" lon="5.92875">
        <ele>650.5</ele>
        <time>2019-11-13T12:46:14Z</time>
      </trkpt>
      <trkpt lat="46.69283" lon="5.92882">
        <ele>650.4</ele>
        <time>2019-11-13T12:46:18Z</time>
      </trkpt>
      <trkpt lat="46.69284" lon="5.92889">
        <ele>650.2</ele>
        <time>2019-11-13T12:46:22Z</time>
      </trkpt>
      <trkpt lat="46.69286" lon="5.92896">
        <ele>650</ele>
        <time>2019-11-13T12:46:26Z</time>
      </trkpt>
      <trkpt lat="46.69288" lon="5.92903">
        <ele>649.7</ele>
        <time>2019-11-13T12:46:31Z</time>
      </trkpt>
      <trkpt lat="46.6929" lon="5.9291">
        <ele>649.5</ele>
        <time>2019-11-13T12:46:35Z</time>
      </trkpt>
      <trkpt lat="46.6929" lon="5.92918">
        <ele>649.3</ele>
        <time>2019-11-13T12:46:40Z</time>
      </trkpt>
      <trkpt lat="46.69291" lon="5.92924">
        <ele>649.1</ele>
        <time>2019-11-13T12:46:44Z</time>
      </trkpt>
      <trkpt lat="46.69292" lon="5.92932">
        <ele>649</ele>
        <time>2019-11-13T12:46:49Z</time>
      </trkpt>
      <trkpt lat="46.69292" lon="5.9294">
        <ele>648.9</ele>
        <time>2019-11-13T12:46:53Z</time>
      </trkpt>
      <trkpt lat="46.69293" lon="5.92947">
        <ele>649</ele>
        <time>2019-11-13T12:46:58Z</time>
      </trkpt>
      <trkpt lat="46.69294" lon="5.92954">
        <ele>649.1</ele>
        <time>2019-11-13T12:47:03Z</time>
      </trkpt>
      <trkpt lat="46.69294" lon="5.92962">
        <ele>649</ele>
        <time>2019-11-13T12:47:07Z</time>
      </trkpt>
      <trkpt lat="46.69295" lon="5.9297">
        <ele>648.8</ele>
        <time>2019-11-13T12:47:11Z</time>
      </trkpt>
      <trkpt lat="46.69297" lon="5.92976">
        <ele>648.6</ele>
        <time>2019-11-13T12:47:16Z</time>
      </trkpt>
      <trkpt lat="46.69299" lon="5.92984">
        <ele>648.6</ele>
        <time>2019-11-13T12:47:21Z</time>
      </trkpt>
      <trkpt lat="46.69301" lon="5.92991">
        <ele>648.6</ele>
        <time>2019-11-13T12:47:24Z</time>
      </trkpt>
      <trkpt lat="46.69302" lon="5.92999">
        <ele>648.7</ele>
        <time>2019-11-13T12:47:27Z</time>
      </trkpt>
      <trkpt lat="46.69303" lon="5.93005">
        <ele>648.8</ele>
        <time>2019-11-13T12:47:31Z</time>
      </trkpt>
      <trkpt lat="46.69302" lon="5.93012">
        <ele>649.6</ele>
        <time>2019-11-13T12:47:38Z</time>
      </trkpt>
      <trkpt lat="46.693" lon="5.93019">
        <ele>649.9</ele>
        <time>2019-11-13T12:47:42Z</time>
      </trkpt>
      <trkpt lat="46.69298" lon="5.93027">
        <ele>650</ele>
        <time>2019-11-13T12:47:46Z</time>
      </trkpt>
      <trkpt lat="46.69296" lon="5.93033">
        <ele>650.2</ele>
        <time>2019-11-13T12:47:50Z</time>
      </trkpt>
      <trkpt lat="46.69293" lon="5.9304">
        <ele>650.7</ele>
        <time>2019-11-13T12:47:55Z</time>
      </trkpt>
      <trkpt lat="46.69291" lon="5.93047">
        <ele>651.4</ele>
        <time>2019-11-13T12:48:00Z</time>
      </trkpt>
      <trkpt lat="46.69288" lon="5.93053">
        <ele>651.9</ele>
        <time>2019-11-13T12:48:04Z</time>
      </trkpt>
      <trkpt lat="46.69285" lon="5.9306">
        <ele>652.8</ele>
        <time>2019-11-13T12:48:09Z</time>
      </trkpt>
      <trkpt lat="46.69284" lon="5.93067">
        <ele>653.7</ele>
        <time>2019-11-13T12:48:14Z</time>
      </trkpt>
      <trkpt lat="46.69282" lon="5.93074">
        <ele>654.5</ele>
        <time>2019-11-13T12:48:21Z</time>
      </trkpt>
      <trkpt lat="46.6928" lon="5.9308">
        <ele>654.6</ele>
        <time>2019-11-13T12:48:26Z</time>
      </trkpt>
      <trkpt lat="46.69278" lon="5.93087">
        <ele>654.7</ele>
        <time>2019-11-13T12:48:31Z</time>
      </trkpt>
      <trkpt lat="46.69276" lon="5.93093">
        <ele>654.9</ele>
        <time>2019-11-13T12:48:35Z</time>
      </trkpt>
      <trkpt lat="46.69273" lon="5.931">
        <ele>655.2</ele>
        <time>2019-11-13T12:48:40Z</time>
      </trkpt>
      <trkpt lat="46.69271" lon="5.93106">
        <ele>655.6</ele>
        <time>2019-11-13T12:48:44Z</time>
      </trkpt>
      <trkpt lat="46.69268" lon="5.93111">
        <ele>656.5</ele>
        <time>2019-11-13T12:48:50Z</time>
      </trkpt>
      <trkpt lat="46.69265" lon="5.93116">
        <ele>657.9</ele>
        <time>2019-11-13T12:48:58Z</time>
      </trkpt>
      <trkpt lat="46.69262" lon="5.9312">
        <ele>659.2</ele>
        <time>2019-11-13T12:49:05Z</time>
      </trkpt>
      <trkpt lat="46.69259" lon="5.93127">
        <ele>659.7</ele>
        <time>2019-11-13T12:49:09Z</time>
      </trkpt>
      <trkpt lat="46.69258" lon="5.93134">
        <ele>659.9</ele>
        <time>2019-11-13T12:49:13Z</time>
      </trkpt>
      <trkpt lat="46.69256" lon="5.93142">
        <ele>659.9</ele>
        <time>2019-11-13T12:49:20Z</time>
      </trkpt>
      <trkpt lat="46.69257" lon="5.93149">
        <ele>659.8</ele>
        <time>2019-11-13T12:49:26Z</time>
      </trkpt>
      <trkpt lat="46.69257" lon="5.93157">
        <ele>659.9</ele>
        <time>2019-11-13T12:49:32Z</time>
      </trkpt>
      <trkpt lat="46.69254" lon="5.93164">
        <ele>660.3</ele>
        <time>2019-11-13T12:49:37Z</time>
      </trkpt>
      <trkpt lat="46.69253" lon="5.93172">
        <ele>660.8</ele>
        <time>2019-11-13T12:49:41Z</time>
      </trkpt>
      <trkpt lat="46.69252" lon="5.93179">
        <ele>661.3</ele>
        <time>2019-11-13T12:49:45Z</time>
      </trkpt>
      <trkpt lat="46.69252" lon="5.93186">
        <ele>661.6</ele>
        <time>2019-11-13T12:49:49Z</time>
      </trkpt>
      <trkpt lat="46.69251" lon="5.93193">
        <ele>661.9</ele>
        <time>2019-11-13T12:49:56Z</time>
      </trkpt>
      <trkpt lat="46.69252" lon="5.932">
        <ele>662.1</ele>
        <time>2019-11-13T12:50:03Z</time>
      </trkpt>
      <trkpt lat="46.69249" lon="5.93193">
        <ele>661.8</ele>
        <time>2019-11-13T12:50:18Z</time>
      </trkpt>
      <trkpt lat="46.69244" lon="5.93196">
        <ele>660.9</ele>
        <time>2019-11-13T12:50:25Z</time>
      </trkpt>
      <trkpt lat="46.69239" lon="5.93199">
        <ele>660.5</ele>
        <time>2019-11-13T12:50:29Z</time>
      </trkpt>
      <trkpt lat="46.69235" lon="5.932">
        <ele>660.1</ele>
        <time>2019-11-13T12:50:37Z</time>
      </trkpt>
      <trkpt lat="46.6923" lon="5.93198">
        <ele>661.3</ele>
        <time>2019-11-13T12:52:09Z</time>
      </trkpt>
      <trkpt lat="46.69226" lon="5.93193">
        <ele>661</ele>
        <time>2019-11-13T12:52:13Z</time>
      </trkpt>
      <trkpt lat="46.69224" lon="5.93187">
        <ele>660.6</ele>
        <time>2019-11-13T12:52:19Z</time>
      </trkpt>
      <trkpt lat="46.6922" lon="5.93182">
        <ele>660.2</ele>
        <time>2019-11-13T12:52:25Z</time>
      </trkpt>
      <trkpt lat="46.69216" lon="5.93182">
        <ele>659.8</ele>
        <time>2019-11-13T12:52:33Z</time>
      </trkpt>
      <trkpt lat="46.69208" lon="5.93191">
        <ele>659.6</ele>
        <time>2019-11-13T12:52:47Z</time>
      </trkpt>
      <trkpt lat="46.69204" lon="5.93195">
        <ele>659.3</ele>
        <time>2019-11-13T12:52:50Z</time>
      </trkpt>
      <trkpt lat="46.69189" lon="5.93196">
        <ele>656.5</ele>
        <time>2019-11-13T12:53:05Z</time>
      </trkpt>
      <trkpt lat="46.69184" lon="5.93193">
        <ele>656.2</ele>
        <time>2019-11-13T12:53:08Z</time>
      </trkpt>
      <trkpt lat="46.69178" lon="5.9319">
        <ele>655.8</ele>
        <time>2019-11-13T12:53:11Z</time>
      </trkpt>
      <trkpt lat="46.69172" lon="5.93188">
        <ele>655.5</ele>
        <time>2019-11-13T12:53:14Z</time>
      </trkpt>
      <trkpt lat="46.69167" lon="5.93186">
        <ele>655.2</ele>
        <time>2019-11-13T12:53:17Z</time>
      </trkpt>
      <trkpt lat="46.69162" lon="5.93184">
        <ele>654.9</ele>
        <time>2019-11-13T12:53:21Z</time>
      </trkpt>
      <trkpt lat="46.69157" lon="5.93182">
        <ele>655.1</ele>
        <time>2019-11-13T12:53:26Z</time>
      </trkpt>
      <trkpt lat="46.69149" lon="5.93182">
        <ele>657.1</ele>
        <time>2019-11-13T12:53:38Z</time>
      </trkpt>
      <trkpt lat="46.69141" lon="5.93185">
        <ele>657.3</ele>
        <time>2019-11-13T12:53:53Z</time>
      </trkpt>
      <trkpt lat="46.69136" lon="5.93185">
        <ele>656.7</ele>
        <time>2019-11-13T12:54:02Z</time>
      </trkpt>
      <trkpt lat="46.69123" lon="5.9319">
        <ele>653.7</ele>
        <time>2019-11-13T12:54:20Z</time>
      </trkpt>
      <trkpt lat="46.69118" lon="5.93192">
        <ele>653.3</ele>
        <time>2019-11-13T12:54:24Z</time>
      </trkpt>
      <trkpt lat="46.69113" lon="5.93196">
        <ele>653.1</ele>
        <time>2019-11-13T12:54:27Z</time>
      </trkpt>
      <trkpt lat="46.69101" lon="5.93202">
        <ele>655.1</ele>
        <time>2019-11-13T12:54:44Z</time>
      </trkpt>
      <trkpt lat="46.69096" lon="5.93205">
        <ele>655.5</ele>
        <time>2019-11-13T12:54:47Z</time>
      </trkpt>
      <trkpt lat="46.69091" lon="5.93208">
        <ele>656</ele>
        <time>2019-11-13T12:54:50Z</time>
      </trkpt>
      <trkpt lat="46.69086" lon="5.9321">
        <ele>656.9</ele>
        <time>2019-11-13T12:54:55Z</time>
      </trkpt>
      <trkpt lat="46.69082" lon="5.93207">
        <ele>657.6</ele>
        <time>2019-11-13T12:55:01Z</time>
      </trkpt>
      <trkpt lat="46.69078" lon="5.93201">
        <ele>657.9</ele>
        <time>2019-11-13T12:55:06Z</time>
      </trkpt>
      <trkpt lat="46.69073" lon="5.932">
        <ele>657.9</ele>
        <time>2019-11-13T12:55:09Z</time>
      </trkpt>
      <trkpt lat="46.69068" lon="5.93198">
        <ele>657.9</ele>
        <time>2019-11-13T12:55:12Z</time>
      </trkpt>
      <trkpt lat="46.69065" lon="5.93193">
        <ele>657.3</ele>
        <time>2019-11-13T12:55:17Z</time>
      </trkpt>
      <trkpt lat="46.69063" lon="5.93187">
        <ele>655.7</ele>
        <time>2019-11-13T12:55:23Z</time>
      </trkpt>
      <trkpt lat="46.69055" lon="5.93182">
        <ele>652.6</ele>
        <time>2019-11-13T12:55:38Z</time>
      </trkpt>
      <trkpt lat="46.6905" lon="5.93181">
        <ele>652.7</ele>
        <time>2019-11-13T12:55:41Z</time>
      </trkpt>
      <trkpt lat="46.69045" lon="5.93182">
        <ele>652.8</ele>
        <time>2019-11-13T12:55:45Z</time>
      </trkpt>
      <trkpt lat="46.6904" lon="5.93183">
        <ele>653</ele>
        <time>2019-11-13T12:55:48Z</time>
      </trkpt>
      <trkpt lat="46.69034" lon="5.93183">
        <ele>653.1</ele>
        <time>2019-11-13T12:55:50Z</time>
      </trkpt>
      <trkpt lat="46.6903" lon="5.93185">
        <ele>653.3</ele>
        <time>2019-11-13T12:55:54Z</time>
      </trkpt>
      <trkpt lat="46.69025" lon="5.93181">
        <ele>653.5</ele>
        <time>2019-11-13T12:55:59Z</time>
      </trkpt>
      <trkpt lat="46.69017" lon="5.93177">
        <ele>658.8</ele>
        <time>2019-11-13T12:56:51Z</time>
      </trkpt>
      <trkpt lat="46.69013" lon="5.93172">
        <ele>659.1</ele>
        <time>2019-11-13T12:56:55Z</time>
      </trkpt>
      <trkpt lat="46.69008" lon="5.93165">
        <ele>659.5</ele>
        <time>2019-11-13T12:56:58Z</time>
      </trkpt>
      <trkpt lat="46.69005" lon="5.93159">
        <ele>660.1</ele>
        <time>2019-11-13T12:57:01Z</time>
      </trkpt>
      <trkpt lat="46.69003" lon="5.93153">
        <ele>661.1</ele>
        <time>2019-11-13T12:57:05Z</time>
      </trkpt>
      <trkpt lat="46.69001" lon="5.93144">
        <ele>662.4</ele>
        <time>2019-11-13T12:57:09Z</time>
      </trkpt>
      <trkpt lat="46.68999" lon="5.93137">
        <ele>663.5</ele>
        <time>2019-11-13T12:57:13Z</time>
      </trkpt>
      <trkpt lat="46.68997" lon="5.9313">
        <ele>664.5</ele>
        <time>2019-11-13T12:57:18Z</time>
      </trkpt>
      <trkpt lat="46.68994" lon="5.93124">
        <ele>665.1</ele>
        <time>2019-11-13T12:57:22Z</time>
      </trkpt>
      <trkpt lat="46.6899" lon="5.93118">
        <ele>665.7</ele>
        <time>2019-11-13T12:57:26Z</time>
      </trkpt>
      <trkpt lat="46.68988" lon="5.93112">
        <ele>666.1</ele>
        <time>2019-11-13T12:57:30Z</time>
      </trkpt>
      <trkpt lat="46.68984" lon="5.93107">
        <ele>666.3</ele>
        <time>2019-11-13T12:57:33Z</time>
      </trkpt>
      <trkpt lat="46.68982" lon="5.93101">
        <ele>666.4</ele>
        <time>2019-11-13T12:57:36Z</time>
      </trkpt>
      <trkpt lat="46.68981" lon="5.93095">
        <ele>665.4</ele>
        <time>2019-11-13T12:57:43Z</time>
      </trkpt>
      <trkpt lat="46.68978" lon="5.93101">
        <ele>663.3</ele>
        <time>2019-11-13T12:57:50Z</time>
      </trkpt>
      <trkpt lat="46.68975" lon="5.93107">
        <ele>662.8</ele>
        <time>2019-11-13T12:57:52Z</time>
      </trkpt>
      <trkpt lat="46.68972" lon="5.93115">
        <ele>662.3</ele>
        <time>2019-11-13T12:57:54Z</time>
      </trkpt>
      <trkpt lat="46.68969" lon="5.93122">
        <ele>662</ele>
        <time>2019-11-13T12:57:56Z</time>
      </trkpt>
      <trkpt lat="46.68965" lon="5.93129">
        <ele>661.7</ele>
        <time>2019-11-13T12:57:58Z</time>
      </trkpt>
      <trkpt lat="46.68962" lon="5.93134">
        <ele>661.5</ele>
        <time>2019-11-13T12:58:00Z</time>
      </trkpt>
      <trkpt lat="46.6896" lon="5.9314">
        <ele>661.4</ele>
        <time>2019-11-13T12:58:02Z</time>
      </trkpt>
      <trkpt lat="46.68956" lon="5.93145">
        <ele>661.3</ele>
        <time>2019-11-13T12:58:04Z</time>
      </trkpt>
      <trkpt lat="46.68952" lon="5.9315">
        <ele>661.2</ele>
        <time>2019-11-13T12:58:07Z</time>
      </trkpt>
      <trkpt lat="46.68948" lon="5.93156">
        <ele>660.9</ele>
        <time>2019-11-13T12:58:11Z</time>
      </trkpt>
      <trkpt lat="46.68945" lon="5.93162">
        <ele>660.7</ele>
        <time>2019-11-13T12:58:15Z</time>
      </trkpt>
      <trkpt lat="46.68942" lon="5.93168">
        <ele>660.4</ele>
        <time>2019-11-13T12:58:19Z</time>
      </trkpt>
      <trkpt lat="46.68939" lon="5.93174">
        <ele>660.1</ele>
        <time>2019-11-13T12:58:24Z</time>
      </trkpt>
      <trkpt lat="46.68935" lon="5.93179">
        <ele>659.9</ele>
        <time>2019-11-13T12:58:30Z</time>
      </trkpt>
      <trkpt lat="46.68931" lon="5.93184">
        <ele>659.7</ele>
        <time>2019-11-13T12:58:35Z</time>
      </trkpt>
      <trkpt lat="46.68926" lon="5.93187">
        <ele>659.1</ele>
        <time>2019-11-13T12:58:42Z</time>
      </trkpt>
      <trkpt lat="46.68924" lon="5.93194">
        <ele>658.2</ele>
        <time>2019-11-13T12:58:48Z</time>
      </trkpt>
      <trkpt lat="46.68922" lon="5.93201">
        <ele>657.6</ele>
        <time>2019-11-13T12:58:52Z</time>
      </trkpt>
      <trkpt lat="46.68919" lon="5.93208">
        <ele>657</ele>
        <time>2019-11-13T12:58:56Z</time>
      </trkpt>
      <trkpt lat="46.68917" lon="5.93214">
        <ele>656.7</ele>
        <time>2019-11-13T12:58:59Z</time>
      </trkpt>
      <trkpt lat="46.68917" lon="5.93222">
        <ele>656.4</ele>
        <time>2019-11-13T12:59:03Z</time>
      </trkpt>
      <trkpt lat="46.68916" lon="5.93229">
        <ele>656.1</ele>
        <time>2019-11-13T12:59:07Z</time>
      </trkpt>
      <trkpt lat="46.68915" lon="5.93236">
        <ele>655.8</ele>
        <time>2019-11-13T12:59:11Z</time>
      </trkpt>
      <trkpt lat="46.68913" lon="5.93244">
        <ele>655.6</ele>
        <time>2019-11-13T12:59:14Z</time>
      </trkpt>
      <trkpt lat="46.68912" lon="5.93252">
        <ele>655.6</ele>
        <time>2019-11-13T12:59:16Z</time>
      </trkpt>
      <trkpt lat="46.68909" lon="5.9326">
        <ele>655.5</ele>
        <time>2019-11-13T12:59:19Z</time>
      </trkpt>
      <trkpt lat="46.68907" lon="5.93266">
        <ele>655.6</ele>
        <time>2019-11-13T12:59:23Z</time>
      </trkpt>
      <trkpt lat="46.68906" lon="5.93274">
        <ele>655.8</ele>
        <time>2019-11-13T12:59:27Z</time>
      </trkpt>
      <trkpt lat="46.68905" lon="5.93281">
        <ele>656</ele>
        <time>2019-11-13T12:59:30Z</time>
      </trkpt>
      <trkpt lat="46.68904" lon="5.93289">
        <ele>656.3</ele>
        <time>2019-11-13T12:59:34Z</time>
      </trkpt>
      <trkpt lat="46.68903" lon="5.93296">
        <ele>656.4</ele>
        <time>2019-11-13T12:59:38Z</time>
      </trkpt>
      <trkpt lat="46.689" lon="5.93303">
        <ele>656.4</ele>
        <time>2019-11-13T12:59:45Z</time>
      </trkpt>
      <trkpt lat="46.68897" lon="5.9331">
        <ele>655.9</ele>
        <time>2019-11-13T12:59:53Z</time>
      </trkpt>
      <trkpt lat="46.68893" lon="5.93315">
        <ele>655.5</ele>
        <time>2019-11-13T12:59:57Z</time>
      </trkpt>
      <trkpt lat="46.6889" lon="5.93321">
        <ele>655.2</ele>
        <time>2019-11-13T13:00:00Z</time>
      </trkpt>
      <trkpt lat="46.68887" lon="5.93327">
        <ele>654.6</ele>
        <time>2019-11-13T13:00:06Z</time>
      </trkpt>
      <trkpt lat="46.68885" lon="5.93334">
        <ele>653.6</ele>
        <time>2019-11-13T13:00:12Z</time>
      </trkpt>
      <trkpt lat="46.68883" lon="5.9334">
        <ele>653.2</ele>
        <time>2019-11-13T13:00:14Z</time>
      </trkpt>
      <trkpt lat="46.68881" lon="5.93347">
        <ele>652.8</ele>
        <time>2019-11-13T13:00:17Z</time>
      </trkpt>
      <trkpt lat="46.68879" lon="5.93354">
        <ele>652.5</ele>
        <time>2019-11-13T13:00:20Z</time>
      </trkpt>
      <trkpt lat="46.68876" lon="5.93361">
        <ele>652.5</ele>
        <time>2019-11-13T13:00:22Z</time>
      </trkpt>
      <trkpt lat="46.68875" lon="5.93367">
        <ele>652.5</ele>
        <time>2019-11-13T13:00:25Z</time>
      </trkpt>
      <trkpt lat="46.68873" lon="5.93375">
        <ele>652.7</ele>
        <time>2019-11-13T13:00:29Z</time>
      </trkpt>
      <trkpt lat="46.68873" lon="5.93382">
        <ele>653.1</ele>
        <time>2019-11-13T13:00:32Z</time>
      </trkpt>
      <trkpt lat="46.68872" lon="5.93388">
        <ele>654.2</ele>
        <time>2019-11-13T13:00:45Z</time>
      </trkpt>
      <trkpt lat="46.68868" lon="5.93388">
        <ele>654</ele>
        <time>2019-11-13T13:00:54Z</time>
      </trkpt>
      <trkpt lat="46.68864" lon="5.93392">
        <ele>652.7</ele>
        <time>2019-11-13T13:01:01Z</time>
      </trkpt>
      <trkpt lat="46.68862" lon="5.93399">
        <ele>650.9</ele>
        <time>2019-11-13T13:01:08Z</time>
      </trkpt>
      <trkpt lat="46.6886" lon="5.93406">
        <ele>649.7</ele>
        <time>2019-11-13T13:01:14Z</time>
      </trkpt>
      <trkpt lat="46.68858" lon="5.93413">
        <ele>649.5</ele>
        <time>2019-11-13T13:01:16Z</time>
      </trkpt>
      <trkpt lat="46.68855" lon="5.93418">
        <ele>649.6</ele>
        <time>2019-11-13T13:01:21Z</time>
      </trkpt>
      <trkpt lat="46.68854" lon="5.93431">
        <ele>654.2</ele>
        <time>2019-11-13T13:04:25Z</time>
      </trkpt>
      <trkpt lat="46.68852" lon="5.93438">
        <ele>654.3</ele>
        <time>2019-11-13T13:04:28Z</time>
      </trkpt>
      <trkpt lat="46.68849" lon="5.93447">
        <ele>654.4</ele>
        <time>2019-11-13T13:04:31Z</time>
      </trkpt>
      <trkpt lat="46.68847" lon="5.93453">
        <ele>654.5</ele>
        <time>2019-11-13T13:04:33Z</time>
      </trkpt>
      <trkpt lat="46.68845" lon="5.93461">
        <ele>654.6</ele>
        <time>2019-11-13T13:04:35Z</time>
      </trkpt>
      <trkpt lat="46.68843" lon="5.93468">
        <ele>654.7</ele>
        <time>2019-11-13T13:04:38Z</time>
      </trkpt>
      <trkpt lat="46.68839" lon="5.93474">
        <ele>655.1</ele>
        <time>2019-11-13T13:04:43Z</time>
      </trkpt>
      <trkpt lat="46.68835" lon="5.93478">
        <ele>655.6</ele>
        <time>2019-11-13T13:04:48Z</time>
      </trkpt>
      <trkpt lat="46.68832" lon="5.93483">
        <ele>656.1</ele>
        <time>2019-11-13T13:04:53Z</time>
      </trkpt>
      <trkpt lat="46.6883" lon="5.9349">
        <ele>656.5</ele>
        <time>2019-11-13T13:04:59Z</time>
      </trkpt>
      <trkpt lat="46.68827" lon="5.93495">
        <ele>656.8</ele>
        <time>2019-11-13T13:05:08Z</time>
      </trkpt>
      <trkpt lat="46.68822" lon="5.93496">
        <ele>656.7</ele>
        <time>2019-11-13T13:05:15Z</time>
      </trkpt>
      <trkpt lat="46.68818" lon="5.935">
        <ele>656.3</ele>
        <time>2019-11-13T13:05:23Z</time>
      </trkpt>
      <trkpt lat="46.68813" lon="5.93502">
        <ele>655.8</ele>
        <time>2019-11-13T13:05:29Z</time>
      </trkpt>
      <trkpt lat="46.68809" lon="5.93505">
        <ele>655.4</ele>
        <time>2019-11-13T13:05:33Z</time>
      </trkpt>
      <trkpt lat="46.68804" lon="5.9351">
        <ele>655</ele>
        <time>2019-11-13T13:05:37Z</time>
      </trkpt>
      <trkpt lat="46.688" lon="5.93514">
        <ele>654.4</ele>
        <time>2019-11-13T13:05:40Z</time>
      </trkpt>
      <trkpt lat="46.68795" lon="5.93518">
        <ele>653.8</ele>
        <time>2019-11-13T13:05:43Z</time>
      </trkpt>
      <trkpt lat="46.68791" lon="5.93523">
        <ele>652.9</ele>
        <time>2019-11-13T13:05:47Z</time>
      </trkpt>
      <trkpt lat="46.68787" lon="5.93527">
        <ele>652.3</ele>
        <time>2019-11-13T13:05:52Z</time>
      </trkpt>
      <trkpt lat="46.68783" lon="5.93532">
        <ele>652</ele>
        <time>2019-11-13T13:05:56Z</time>
      </trkpt>
      <trkpt lat="46.68778" lon="5.93533">
        <ele>651.8</ele>
        <time>2019-11-13T13:06:02Z</time>
      </trkpt>
      <trkpt lat="46.68774" lon="5.93534">
        <ele>651.3</ele>
        <time>2019-11-13T13:06:10Z</time>
      </trkpt>
      <trkpt lat="46.6877" lon="5.93539">
        <ele>650.9</ele>
        <time>2019-11-13T13:06:15Z</time>
      </trkpt>
      <trkpt lat="46.68766" lon="5.93543">
        <ele>650.5</ele>
        <time>2019-11-13T13:06:19Z</time>
      </trkpt>
      <trkpt lat="46.68762" lon="5.93547">
        <ele>650.1</ele>
        <time>2019-11-13T13:06:23Z</time>
      </trkpt>
      <trkpt lat="46.68758" lon="5.93552">
        <ele>649.7</ele>
        <time>2019-11-13T13:06:27Z</time>
      </trkpt>
      <trkpt lat="46.68755" lon="5.93559">
        <ele>649.5</ele>
        <time>2019-11-13T13:06:29Z</time>
      </trkpt>
      <trkpt lat="46.68751" lon="5.93564">
        <ele>649.3</ele>
        <time>2019-11-13T13:06:32Z</time>
      </trkpt>
      <trkpt lat="46.68746" lon="5.93568">
        <ele>649.2</ele>
        <time>2019-11-13T13:06:35Z</time>
      </trkpt>
      <trkpt lat="46.68741" lon="5.93569">
        <ele>649.2</ele>
        <time>2019-11-13T13:06:39Z</time>
      </trkpt>
      <trkpt lat="46.68737" lon="5.9357">
        <ele>649.4</ele>
        <time>2019-11-13T13:06:42Z</time>
      </trkpt>
      <trkpt lat="46.68732" lon="5.93572">
        <ele>649.4</ele>
        <time>2019-11-13T13:06:46Z</time>
      </trkpt>
      <trkpt lat="46.68727" lon="5.93574">
        <ele>648.9</ele>
        <time>2019-11-13T13:06:53Z</time>
      </trkpt>
      <trkpt lat="46.68722" lon="5.93572">
        <ele>648.3</ele>
        <time>2019-11-13T13:06:59Z</time>
      </trkpt>
      <trkpt lat="46.68717" lon="5.9357">
        <ele>647.6</ele>
        <time>2019-11-13T13:07:04Z</time>
      </trkpt>
      <trkpt lat="46.68712" lon="5.93572">
        <ele>647.1</ele>
        <time>2019-11-13T13:07:09Z</time>
      </trkpt>
      <trkpt lat="46.68707" lon="5.93574">
        <ele>647</ele>
        <time>2019-11-13T13:07:12Z</time>
      </trkpt>
      <trkpt lat="46.68703" lon="5.93578">
        <ele>646.9</ele>
        <time>2019-11-13T13:07:17Z</time>
      </trkpt>
      <trkpt lat="46.68698" lon="5.93582">
        <ele>647</ele>
        <time>2019-11-13T13:07:21Z</time>
      </trkpt>
      <trkpt lat="46.68693" lon="5.93586">
        <ele>646.9</ele>
        <time>2019-11-13T13:07:26Z</time>
      </trkpt>
      <trkpt lat="46.68689" lon="5.9359">
        <ele>646.7</ele>
        <time>2019-11-13T13:07:30Z</time>
      </trkpt>
      <trkpt lat="46.68685" lon="5.93594">
        <ele>646.4</ele>
        <time>2019-11-13T13:07:36Z</time>
      </trkpt>
      <trkpt lat="46.68681" lon="5.93598">
        <ele>645.8</ele>
        <time>2019-11-13T13:07:42Z</time>
      </trkpt>
      <trkpt lat="46.68676" lon="5.936">
        <ele>645.2</ele>
        <time>2019-11-13T13:07:46Z</time>
      </trkpt>
      <trkpt lat="46.68671" lon="5.93603">
        <ele>644.7</ele>
        <time>2019-11-13T13:07:50Z</time>
      </trkpt>
      <trkpt lat="46.68667" lon="5.93606">
        <ele>644.5</ele>
        <time>2019-11-13T13:07:52Z</time>
      </trkpt>
      <trkpt lat="46.68663" lon="5.93608">
        <ele>644.2</ele>
        <time>2019-11-13T13:07:54Z</time>
      </trkpt>
      <trkpt lat="46.68657" lon="5.9361">
        <ele>644.1</ele>
        <time>2019-11-13T13:07:58Z</time>
      </trkpt>
      <trkpt lat="46.68652" lon="5.9361">
        <ele>644</ele>
        <time>2019-11-13T13:08:02Z</time>
      </trkpt>
      <trkpt lat="46.68649" lon="5.93605">
        <ele>644</ele>
        <time>2019-11-13T13:08:07Z</time>
      </trkpt>
      <trkpt lat="46.68645" lon="5.93603">
        <ele>643.8</ele>
        <time>2019-11-13T13:08:13Z</time>
      </trkpt>
      <trkpt lat="46.6864" lon="5.93608">
        <ele>643.4</ele>
        <time>2019-11-13T13:08:18Z</time>
      </trkpt>
      <trkpt lat="46.68636" lon="5.93613">
        <ele>643</ele>
        <time>2019-11-13T13:08:22Z</time>
      </trkpt>
      <trkpt lat="46.68632" lon="5.93618">
        <ele>642.1</ele>
        <time>2019-11-13T13:08:29Z</time>
      </trkpt>
      <trkpt lat="46.6863" lon="5.93623">
        <ele>641.6</ele>
        <time>2019-11-13T13:08:35Z</time>
      </trkpt>
      <trkpt lat="46.68626" lon="5.93628">
        <ele>641.3</ele>
        <time>2019-11-13T13:08:39Z</time>
      </trkpt>
      <trkpt lat="46.68624" lon="5.93634">
        <ele>640.6</ele>
        <time>2019-11-13T13:08:45Z</time>
      </trkpt>
      <trkpt lat="46.68618" lon="5.93633">
        <ele>639.7</ele>
        <time>2019-11-13T13:08:52Z</time>
      </trkpt>
      <trkpt lat="46.68614" lon="5.93636">
        <ele>637.6</ele>
        <time>2019-11-13T13:09:03Z</time>
      </trkpt>
      <trkpt lat="46.68609" lon="5.93639">
        <ele>636.3</ele>
        <time>2019-11-13T13:09:11Z</time>
      </trkpt>
      <trkpt lat="46.68604" lon="5.93639">
        <ele>636</ele>
        <time>2019-11-13T13:09:16Z</time>
      </trkpt>
      <trkpt lat="46.68599" lon="5.93637">
        <ele>635.5</ele>
        <time>2019-11-13T13:09:20Z</time>
      </trkpt>
      <trkpt lat="46.68594" lon="5.93634">
        <ele>634.5</ele>
        <time>2019-11-13T13:09:25Z</time>
      </trkpt>
      <trkpt lat="46.6858" lon="5.93622">
        <ele>634.3</ele>
        <time>2019-11-13T13:09:41Z</time>
      </trkpt>
      <trkpt lat="46.68573" lon="5.93606">
        <ele>636.5</ele>
        <time>2019-11-13T13:09:53Z</time>
      </trkpt>
      <trkpt lat="46.6857" lon="5.936">
        <ele>637.8</ele>
        <time>2019-11-13T13:09:57Z</time>
      </trkpt>
      <trkpt lat="46.68561" lon="5.93585">
        <ele>644.2</ele>
        <time>2019-11-13T13:10:07Z</time>
      </trkpt>
      <trkpt lat="46.68562" lon="5.93579">
        <ele>644.7</ele>
        <time>2019-11-13T13:10:16Z</time>
      </trkpt>
      <trkpt lat="46.68563" lon="5.93569">
        <ele>644.1</ele>
        <time>2019-11-13T13:10:20Z</time>
      </trkpt>
      <trkpt lat="46.68565" lon="5.93562">
        <ele>643.8</ele>
        <time>2019-11-13T13:10:22Z</time>
      </trkpt>
      <trkpt lat="46.68565" lon="5.93555">
        <ele>643.1</ele>
        <time>2019-11-13T13:10:28Z</time>
      </trkpt>
      <trkpt lat="46.68553" lon="5.93536">
        <ele>642.6</ele>
        <time>2019-11-13T13:10:51Z</time>
      </trkpt>
      <trkpt lat="46.6855" lon="5.9353">
        <ele>641.8</ele>
        <time>2019-11-13T13:10:56Z</time>
      </trkpt>
      <trkpt lat="46.68547" lon="5.93525">
        <ele>640.5</ele>
        <time>2019-11-13T13:11:01Z</time>
      </trkpt>
      <trkpt lat="46.68544" lon="5.9352">
        <ele>638.2</ele>
        <time>2019-11-13T13:11:07Z</time>
      </trkpt>
      <trkpt lat="46.68542" lon="5.93513">
        <ele>635.8</ele>
        <time>2019-11-13T13:11:14Z</time>
      </trkpt>
      <trkpt lat="46.68538" lon="5.93508">
        <ele>635.2</ele>
        <time>2019-11-13T13:11:20Z</time>
      </trkpt>
      <trkpt lat="46.68534" lon="5.93505">
        <ele>636.7</ele>
        <time>2019-11-13T13:11:30Z</time>
      </trkpt>
      <trkpt lat="46.6853" lon="5.93501">
        <ele>639</ele>
        <time>2019-11-13T13:11:37Z</time>
      </trkpt>
      <trkpt lat="46.68525" lon="5.93499">
        <ele>640.2</ele>
        <time>2019-11-13T13:11:41Z</time>
      </trkpt>
      <trkpt lat="46.68519" lon="5.93496">
        <ele>640.9</ele>
        <time>2019-11-13T13:11:45Z</time>
      </trkpt>
      <trkpt lat="46.68515" lon="5.93493">
        <ele>641.1</ele>
        <time>2019-11-13T13:11:49Z</time>
      </trkpt>
      <trkpt lat="46.68511" lon="5.93488">
        <ele>640.6</ele>
        <time>2019-11-13T13:11:54Z</time>
      </trkpt>
      <trkpt lat="46.68509" lon="5.93482">
        <ele>638.6</ele>
        <time>2019-11-13T13:12:01Z</time>
      </trkpt>
      <trkpt lat="46.68505" lon="5.93478">
        <ele>634.6</ele>
        <time>2019-11-13T13:12:14Z</time>
      </trkpt>
      <trkpt lat="46.68502" lon="5.93473">
        <ele>633.2</ele>
        <time>2019-11-13T13:12:24Z</time>
      </trkpt>
      <trkpt lat="46.68488" lon="5.93467">
        <ele>634.5</ele>
        <time>2019-11-13T13:12:41Z</time>
      </trkpt>
      <trkpt lat="46.68483" lon="5.93465">
        <ele>635</ele>
        <time>2019-11-13T13:12:46Z</time>
      </trkpt>
      <trkpt lat="46.68479" lon="5.93462">
        <ele>635.5</ele>
        <time>2019-11-13T13:12:50Z</time>
      </trkpt>
      <trkpt lat="46.68474" lon="5.9346">
        <ele>636</ele>
        <time>2019-11-13T13:12:54Z</time>
      </trkpt>
      <trkpt lat="46.68469" lon="5.93458">
        <ele>636.4</ele>
        <time>2019-11-13T13:12:59Z</time>
      </trkpt>
      <trkpt lat="46.68464" lon="5.93457">
        <ele>637</ele>
        <time>2019-11-13T13:13:04Z</time>
      </trkpt>
      <trkpt lat="46.68459" lon="5.93458">
        <ele>637.4</ele>
        <time>2019-11-13T13:13:09Z</time>
      </trkpt>
      <trkpt lat="46.68455" lon="5.93457">
        <ele>637.3</ele>
        <time>2019-11-13T13:13:17Z</time>
      </trkpt>
      <trkpt lat="46.6845" lon="5.93459">
        <ele>636.7</ele>
        <time>2019-11-13T13:13:23Z</time>
      </trkpt>
      <trkpt lat="46.68445" lon="5.93464">
        <ele>636.3</ele>
        <time>2019-11-13T13:13:28Z</time>
      </trkpt>
      <trkpt lat="46.6844" lon="5.93468">
        <ele>636</ele>
        <time>2019-11-13T13:13:33Z</time>
      </trkpt>
      <trkpt lat="46.68436" lon="5.93472">
        <ele>636</ele>
        <time>2019-11-13T13:13:36Z</time>
      </trkpt>
      <trkpt lat="46.68433" lon="5.93476">
        <ele>636.1</ele>
        <time>2019-11-13T13:13:39Z</time>
      </trkpt>
      <trkpt lat="46.68428" lon="5.9348">
        <ele>636.3</ele>
        <time>2019-11-13T13:13:43Z</time>
      </trkpt>
      <trkpt lat="46.68424" lon="5.93482">
        <ele>636.5</ele>
        <time>2019-11-13T13:13:47Z</time>
      </trkpt>
      <trkpt lat="46.68419" lon="5.93483">
        <ele>636.8</ele>
        <time>2019-11-13T13:13:52Z</time>
      </trkpt>
      <trkpt lat="46.68415" lon="5.93488">
        <ele>637.4</ele>
        <time>2019-11-13T13:13:58Z</time>
      </trkpt>
      <trkpt lat="46.6841" lon="5.9349">
        <ele>637.4</ele>
        <time>2019-11-13T13:14:08Z</time>
      </trkpt>
      <trkpt lat="46.68406" lon="5.93494">
        <ele>636.9</ele>
        <time>2019-11-13T13:14:12Z</time>
      </trkpt>
      <trkpt lat="46.68402" lon="5.93498">
        <ele>636.1</ele>
        <time>2019-11-13T13:14:17Z</time>
      </trkpt>
      <trkpt lat="46.68399" lon="5.93502">
        <ele>635.3</ele>
        <time>2019-11-13T13:14:22Z</time>
      </trkpt>
      <trkpt lat="46.68395" lon="5.93507">
        <ele>634.4</ele>
        <time>2019-11-13T13:14:28Z</time>
      </trkpt>
      <trkpt lat="46.68391" lon="5.93511">
        <ele>633.6</ele>
        <time>2019-11-13T13:14:33Z</time>
      </trkpt>
      <trkpt lat="46.68387" lon="5.93515">
        <ele>632.6</ele>
        <time>2019-11-13T13:14:39Z</time>
      </trkpt>
      <trkpt lat="46.68383" lon="5.93521">
        <ele>632.1</ele>
        <time>2019-11-13T13:14:43Z</time>
      </trkpt>
      <trkpt lat="46.68378" lon="5.93524">
        <ele>631.8</ele>
        <time>2019-11-13T13:14:48Z</time>
      </trkpt>
      <trkpt lat="46.68375" lon="5.93528">
        <ele>631.7</ele>
        <time>2019-11-13T13:14:53Z</time>
      </trkpt>
      <trkpt lat="46.6837" lon="5.93533">
        <ele>631</ele>
        <time>2019-11-13T13:14:59Z</time>
      </trkpt>
      <trkpt lat="46.68367" lon="5.93538">
        <ele>630.1</ele>
        <time>2019-11-13T13:15:04Z</time>
      </trkpt>
      <trkpt lat="46.68364" lon="5.93544">
        <ele>628.9</ele>
        <time>2019-11-13T13:15:11Z</time>
      </trkpt>
      <trkpt lat="46.68361" lon="5.93551">
        <ele>628.2</ele>
        <time>2019-11-13T13:15:16Z</time>
      </trkpt>
      <trkpt lat="46.68359" lon="5.93557">
        <ele>627.9</ele>
        <time>2019-11-13T13:15:21Z</time>
      </trkpt>
      <trkpt lat="46.68356" lon="5.93563">
        <ele>627.9</ele>
        <time>2019-11-13T13:15:26Z</time>
      </trkpt>
      <trkpt lat="46.68354" lon="5.93569">
        <ele>628</ele>
        <time>2019-11-13T13:15:31Z</time>
      </trkpt>
      <trkpt lat="46.68351" lon="5.93575">
        <ele>628</ele>
        <time>2019-11-13T13:15:34Z</time>
      </trkpt>
      <trkpt lat="46.68349" lon="5.9358">
        <ele>627.9</ele>
        <time>2019-11-13T13:15:36Z</time>
      </trkpt>
      <trkpt lat="46.68345" lon="5.93587">
        <ele>627.6</ele>
        <time>2019-11-13T13:15:40Z</time>
      </trkpt>
      <trkpt lat="46.68342" lon="5.93593">
        <ele>627.5</ele>
        <time>2019-11-13T13:15:43Z</time>
      </trkpt>
      <trkpt lat="46.68339" lon="5.93598">
        <ele>627.4</ele>
        <time>2019-11-13T13:15:46Z</time>
      </trkpt>
      <trkpt lat="46.68335" lon="5.93601">
        <ele>627</ele>
        <time>2019-11-13T13:15:54Z</time>
      </trkpt>
      <trkpt lat="46.68328" lon="5.93611">
        <ele>624.9</ele>
        <time>2019-11-13T13:16:08Z</time>
      </trkpt>
      <trkpt lat="46.68325" lon="5.93617">
        <ele>624.6</ele>
        <time>2019-11-13T13:16:13Z</time>
      </trkpt>
      <trkpt lat="46.6832" lon="5.93624">
        <ele>624.3</ele>
        <time>2019-11-13T13:16:15Z</time>
      </trkpt>
      <trkpt lat="46.68316" lon="5.93631">
        <ele>624.1</ele>
        <time>2019-11-13T13:16:17Z</time>
      </trkpt>
      <trkpt lat="46.68313" lon="5.93635">
        <ele>623.6</ele>
        <time>2019-11-13T13:16:21Z</time>
      </trkpt>
      <trkpt lat="46.68309" lon="5.93639">
        <ele>623.3</ele>
        <time>2019-11-13T13:16:24Z</time>
      </trkpt>
      <trkpt lat="46.68305" lon="5.93644">
        <ele>623.1</ele>
        <time>2019-11-13T13:16:26Z</time>
      </trkpt>
      <trkpt lat="46.68302" lon="5.9365">
        <ele>622.8</ele>
        <time>2019-11-13T13:16:29Z</time>
      </trkpt>
      <trkpt lat="46.68298" lon="5.93656">
        <ele>622.1</ele>
        <time>2019-11-13T13:16:34Z</time>
      </trkpt>
      <trkpt lat="46.68295" lon="5.9366">
        <ele>621.4</ele>
        <time>2019-11-13T13:16:39Z</time>
      </trkpt>
      <trkpt lat="46.68287" lon="5.93671">
        <ele>620.6</ele>
        <time>2019-11-13T13:16:56Z</time>
      </trkpt>
      <trkpt lat="46.68284" lon="5.93676">
        <ele>620.5</ele>
        <time>2019-11-13T13:16:59Z</time>
      </trkpt>
      <trkpt lat="46.6828" lon="5.9368">
        <ele>620.4</ele>
        <time>2019-11-13T13:17:03Z</time>
      </trkpt>
      <trkpt lat="46.68276" lon="5.93684">
        <ele>620</ele>
        <time>2019-11-13T13:17:10Z</time>
      </trkpt>
      <trkpt lat="46.68272" lon="5.93688">
        <ele>619.3</ele>
        <time>2019-11-13T13:17:16Z</time>
      </trkpt>
      <trkpt lat="46.68261" lon="5.93693">
        <ele>618.4</ele>
        <time>2019-11-13T13:17:29Z</time>
      </trkpt>
      <trkpt lat="46.68256" lon="5.93695">
        <ele>618.4</ele>
        <time>2019-11-13T13:17:33Z</time>
      </trkpt>
      <trkpt lat="46.68251" lon="5.93697">
        <ele>618.4</ele>
        <time>2019-11-13T13:17:36Z</time>
      </trkpt>
      <trkpt lat="46.68246" lon="5.93699">
        <ele>618.5</ele>
        <time>2019-11-13T13:17:39Z</time>
      </trkpt>
      <trkpt lat="46.68242" lon="5.937">
        <ele>619.1</ele>
        <time>2019-11-13T13:17:45Z</time>
      </trkpt>
      <trkpt lat="46.68236" lon="5.93699">
        <ele>619.6</ele>
        <time>2019-11-13T13:17:51Z</time>
      </trkpt>
      <trkpt lat="46.68232" lon="5.93698">
        <ele>619.9</ele>
        <time>2019-11-13T13:17:54Z</time>
      </trkpt>
      <trkpt lat="46.68227" lon="5.93699">
        <ele>620.4</ele>
        <time>2019-11-13T13:17:59Z</time>
      </trkpt>
      <trkpt lat="46.68222" lon="5.93701">
        <ele>620.8</ele>
        <time>2019-11-13T13:18:03Z</time>
      </trkpt>
      <trkpt lat="46.68217" lon="5.93702">
        <ele>621</ele>
        <time>2019-11-13T13:18:07Z</time>
      </trkpt>
      <trkpt lat="46.68212" lon="5.937">
        <ele>621.6</ele>
        <time>2019-11-13T13:18:14Z</time>
      </trkpt>
      <trkpt lat="46.68207" lon="5.93697">
        <ele>622.1</ele>
        <time>2019-11-13T13:18:20Z</time>
      </trkpt>
      <trkpt lat="46.68204" lon="5.9369">
        <ele>622.4</ele>
        <time>2019-11-13T13:18:25Z</time>
      </trkpt>
      <trkpt lat="46.68201" lon="5.93686">
        <ele>622</ele>
        <time>2019-11-13T13:18:32Z</time>
      </trkpt>
      <trkpt lat="46.68196" lon="5.93686">
        <ele>621.7</ele>
        <time>2019-11-13T13:18:38Z</time>
      </trkpt>
      <trkpt lat="46.68191" lon="5.93687">
        <ele>621.7</ele>
        <time>2019-11-13T13:18:41Z</time>
      </trkpt>
      <trkpt lat="46.68186" lon="5.93688">
        <ele>621.5</ele>
        <time>2019-11-13T13:18:45Z</time>
      </trkpt>
      <trkpt lat="46.68181" lon="5.93689">
        <ele>621.3</ele>
        <time>2019-11-13T13:18:49Z</time>
      </trkpt>
      <trkpt lat="46.68175" lon="5.93691">
        <ele>620.8</ele>
        <time>2019-11-13T13:18:53Z</time>
      </trkpt>
      <trkpt lat="46.68171" lon="5.93695">
        <ele>620.4</ele>
        <time>2019-11-13T13:18:56Z</time>
      </trkpt>
      <trkpt lat="46.68169" lon="5.93701">
        <ele>620.2</ele>
        <time>2019-11-13T13:18:58Z</time>
      </trkpt>
      <trkpt lat="46.68166" lon="5.93708">
        <ele>620.1</ele>
        <time>2019-11-13T13:19:00Z</time>
      </trkpt>
      <trkpt lat="46.68163" lon="5.93716">
        <ele>619.9</ele>
        <time>2019-11-13T13:19:02Z</time>
      </trkpt>
      <trkpt lat="46.68162" lon="5.93722">
        <ele>619.8</ele>
        <time>2019-11-13T13:19:04Z</time>
      </trkpt>
      <trkpt lat="46.6816" lon="5.93728">
        <ele>619.6</ele>
        <time>2019-11-13T13:19:09Z</time>
      </trkpt>
      <trkpt lat="46.68156" lon="5.93733">
        <ele>619.9</ele>
        <time>2019-11-13T13:19:23Z</time>
      </trkpt>
      <trkpt lat="46.68153" lon="5.93738">
        <ele>619.2</ele>
        <time>2019-11-13T13:19:32Z</time>
      </trkpt>
      <trkpt lat="46.68149" lon="5.93742">
        <ele>615.9</ele>
        <time>2019-11-13T13:19:54Z</time>
      </trkpt>
      <trkpt lat="46.68153" lon="5.93732">
        <ele>604.5</ele>
        <time>2019-11-13T13:23:20Z</time>
      </trkpt>
      <trkpt lat="46.68158" lon="5.93731">
        <ele>604.1</ele>
        <time>2019-11-13T13:23:27Z</time>
      </trkpt>
      <trkpt lat="46.68163" lon="5.93733">
        <ele>603.3</ele>
        <time>2019-11-13T13:23:32Z</time>
      </trkpt>
      <trkpt lat="46.68168" lon="5.93736">
        <ele>602.5</ele>
        <time>2019-11-13T13:23:36Z</time>
      </trkpt>
      <trkpt lat="46.68173" lon="5.9374">
        <ele>601.8</ele>
        <time>2019-11-13T13:23:40Z</time>
      </trkpt>
      <trkpt lat="46.68177" lon="5.93745">
        <ele>601.4</ele>
        <time>2019-11-13T13:23:43Z</time>
      </trkpt>
      <trkpt lat="46.68182" lon="5.93749">
        <ele>601</ele>
        <time>2019-11-13T13:23:46Z</time>
      </trkpt>
      <trkpt lat="46.68194" lon="5.93757">
        <ele>599.1</ele>
        <time>2019-11-13T13:23:57Z</time>
      </trkpt>
      <trkpt lat="46.68198" lon="5.9376">
        <ele>598.3</ele>
        <time>2019-11-13T13:24:03Z</time>
      </trkpt>
      <trkpt lat="46.68203" lon="5.93763">
        <ele>595.7</ele>
        <time>2019-11-13T13:24:12Z</time>
      </trkpt>
      <trkpt lat="46.68212" lon="5.9377">
        <ele>590.7</ele>
        <time>2019-11-13T13:24:23Z</time>
      </trkpt>
      <trkpt lat="46.68216" lon="5.93774">
        <ele>589.7</ele>
        <time>2019-11-13T13:24:27Z</time>
      </trkpt>
      <trkpt lat="46.68221" lon="5.93779">
        <ele>588.5</ele>
        <time>2019-11-13T13:24:32Z</time>
      </trkpt>
      <trkpt lat="46.6823" lon="5.9379">
        <ele>586.5</ele>
        <time>2019-11-13T13:24:46Z</time>
      </trkpt>
      <trkpt lat="46.68234" lon="5.93795">
        <ele>586.2</ele>
        <time>2019-11-13T13:24:49Z</time>
      </trkpt>
      <trkpt lat="46.68245" lon="5.93801">
        <ele>584.8</ele>
        <time>2019-11-13T13:25:01Z</time>
      </trkpt>
      <trkpt lat="46.6825" lon="5.93805">
        <ele>584.3</ele>
        <time>2019-11-13T13:25:06Z</time>
      </trkpt>
      <trkpt lat="46.68254" lon="5.93809">
        <ele>583.6</ele>
        <time>2019-11-13T13:25:11Z</time>
      </trkpt>
      <trkpt lat="46.68258" lon="5.93813">
        <ele>583.1</ele>
        <time>2019-11-13T13:25:15Z</time>
      </trkpt>
      <trkpt lat="46.68262" lon="5.93816">
        <ele>582.6</ele>
        <time>2019-11-13T13:25:19Z</time>
      </trkpt>
      <trkpt lat="46.68272" lon="5.9382">
        <ele>580.3</ele>
        <time>2019-11-13T13:25:27Z</time>
      </trkpt>
      <trkpt lat="46.68277" lon="5.93822">
        <ele>579.3</ele>
        <time>2019-11-13T13:25:33Z</time>
      </trkpt>
      <trkpt lat="46.68298" lon="5.93822">
        <ele>578.3</ele>
        <time>2019-11-13T13:25:46Z</time>
      </trkpt>
      <trkpt lat="46.68303" lon="5.93821">
        <ele>577.9</ele>
        <time>2019-11-13T13:25:51Z</time>
      </trkpt>
      <trkpt lat="46.68308" lon="5.9382">
        <ele>577.5</ele>
        <time>2019-11-13T13:25:55Z</time>
      </trkpt>
      <trkpt lat="46.68313" lon="5.93818">
        <ele>576.3</ele>
        <time>2019-11-13T13:26:00Z</time>
      </trkpt>
      <trkpt lat="46.68318" lon="5.93816">
        <ele>574.8</ele>
        <time>2019-11-13T13:26:04Z</time>
      </trkpt>
      <trkpt lat="46.68322" lon="5.93815">
        <ele>573.3</ele>
        <time>2019-11-13T13:26:08Z</time>
      </trkpt>
      <trkpt lat="46.68328" lon="5.93812">
        <ele>572</ele>
        <time>2019-11-13T13:26:12Z</time>
      </trkpt>
      <trkpt lat="46.68333" lon="5.93809">
        <ele>571.4</ele>
        <time>2019-11-13T13:26:16Z</time>
      </trkpt>
      <trkpt lat="46.68337" lon="5.93805">
        <ele>571.4</ele>
        <time>2019-11-13T13:26:21Z</time>
      </trkpt>
      <trkpt lat="46.68342" lon="5.93802">
        <ele>572</ele>
        <time>2019-11-13T13:26:25Z</time>
      </trkpt>
      <trkpt lat="46.68346" lon="5.938">
        <ele>572.4</ele>
        <time>2019-11-13T13:26:28Z</time>
      </trkpt>
      <trkpt lat="46.68352" lon="5.93799">
        <ele>573</ele>
        <time>2019-11-13T13:26:34Z</time>
      </trkpt>
      <trkpt lat="46.68357" lon="5.93797">
        <ele>573.1</ele>
        <time>2019-11-13T13:26:38Z</time>
      </trkpt>
      <trkpt lat="46.68361" lon="5.93796">
        <ele>573.9</ele>
        <time>2019-11-13T13:26:45Z</time>
      </trkpt>
      <trkpt lat="46.68367" lon="5.93795">
        <ele>573.9</ele>
        <time>2019-11-13T13:26:50Z</time>
      </trkpt>
      <trkpt lat="46.68374" lon="5.93795">
        <ele>573.6</ele>
        <time>2019-11-13T13:26:53Z</time>
      </trkpt>
      <trkpt lat="46.68387" lon="5.93801">
        <ele>572</ele>
        <time>2019-11-13T13:27:01Z</time>
      </trkpt>
      <trkpt lat="46.68391" lon="5.93806">
        <ele>572</ele>
        <time>2019-11-13T13:27:05Z</time>
      </trkpt>
      <trkpt lat="46.68393" lon="5.93814">
        <ele>572.2</ele>
        <time>2019-11-13T13:27:09Z</time>
      </trkpt>
      <trkpt lat="46.68396" lon="5.93821">
        <ele>572.8</ele>
        <time>2019-11-13T13:27:13Z</time>
      </trkpt>
      <trkpt lat="46.68398" lon="5.93827">
        <ele>573.3</ele>
        <time>2019-11-13T13:27:17Z</time>
      </trkpt>
      <trkpt lat="46.684" lon="5.93834">
        <ele>573.8</ele>
        <time>2019-11-13T13:27:22Z</time>
      </trkpt>
      <trkpt lat="46.68403" lon="5.93839">
        <ele>573.3</ele>
        <time>2019-11-13T13:27:28Z</time>
      </trkpt>
      <trkpt lat="46.68406" lon="5.93844">
        <ele>572.5</ele>
        <time>2019-11-13T13:27:32Z</time>
      </trkpt>
      <trkpt lat="46.6841" lon="5.9385">
        <ele>570.8</ele>
        <time>2019-11-13T13:27:38Z</time>
      </trkpt>
      <trkpt lat="46.68413" lon="5.93853">
        <ele>566.7</ele>
        <time>2019-11-13T13:27:47Z</time>
      </trkpt>
      <trkpt lat="46.68419" lon="5.93855">
        <ele>563.3</ele>
        <time>2019-11-13T13:27:53Z</time>
      </trkpt>
      <trkpt lat="46.68423" lon="5.93857">
        <ele>561</ele>
        <time>2019-11-13T13:27:57Z</time>
      </trkpt>
      <trkpt lat="46.68428" lon="5.93855">
        <ele>559.1</ele>
        <time>2019-11-13T13:28:01Z</time>
      </trkpt>
      <trkpt lat="46.68434" lon="5.93853">
        <ele>558.2</ele>
        <time>2019-11-13T13:28:03Z</time>
      </trkpt>
      <trkpt lat="46.68439" lon="5.9385">
        <ele>557.5</ele>
        <time>2019-11-13T13:28:05Z</time>
      </trkpt>
      <trkpt lat="46.68458" lon="5.93848">
        <ele>553.3</ele>
        <time>2019-11-13T13:28:19Z</time>
      </trkpt>
      <trkpt lat="46.68463" lon="5.93851">
        <ele>552.7</ele>
        <time>2019-11-13T13:28:25Z</time>
      </trkpt>
      <trkpt lat="46.68467" lon="5.93855">
        <ele>552.6</ele>
        <time>2019-11-13T13:28:29Z</time>
      </trkpt>
      <trkpt lat="46.68471" lon="5.93861">
        <ele>552.7</ele>
        <time>2019-11-13T13:28:33Z</time>
      </trkpt>
      <trkpt lat="46.68474" lon="5.93867">
        <ele>552.8</ele>
        <time>2019-11-13T13:28:36Z</time>
      </trkpt>
      <trkpt lat="46.68477" lon="5.93873">
        <ele>552.9</ele>
        <time>2019-11-13T13:28:40Z</time>
      </trkpt>
      <trkpt lat="46.68479" lon="5.9388">
        <ele>552.5</ele>
        <time>2019-11-13T13:28:44Z</time>
      </trkpt>
      <trkpt lat="46.68481" lon="5.93887">
        <ele>552.3</ele>
        <time>2019-11-13T13:28:48Z</time>
      </trkpt>
      <trkpt lat="46.68483" lon="5.93894">
        <ele>552.6</ele>
        <time>2019-11-13T13:28:52Z</time>
      </trkpt>
      <trkpt lat="46.68486" lon="5.93901">
        <ele>553.4</ele>
        <time>2019-11-13T13:28:56Z</time>
      </trkpt>
      <trkpt lat="46.6849" lon="5.93905">
        <ele>554.1</ele>
        <time>2019-11-13T13:28:59Z</time>
      </trkpt>
      <trkpt lat="46.68493" lon="5.93912">
        <ele>555.1</ele>
        <time>2019-11-13T13:29:03Z</time>
      </trkpt>
      <trkpt lat="46.68494" lon="5.9392">
        <ele>556</ele>
        <time>2019-11-13T13:29:06Z</time>
      </trkpt>
      <trkpt lat="46.68496" lon="5.93929">
        <ele>556.8</ele>
        <time>2019-11-13T13:29:09Z</time>
      </trkpt>
      <trkpt lat="46.68498" lon="5.93936">
        <ele>558.1</ele>
        <time>2019-11-13T13:29:13Z</time>
      </trkpt>
      <trkpt lat="46.68499" lon="5.93943">
        <ele>559.7</ele>
        <time>2019-11-13T13:29:18Z</time>
      </trkpt>
      <trkpt lat="46.68499" lon="5.93951">
        <ele>561.1</ele>
        <time>2019-11-13T13:29:23Z</time>
      </trkpt>
      <trkpt lat="46.685" lon="5.93958">
        <ele>563.5</ele>
        <time>2019-11-13T13:29:32Z</time>
      </trkpt>
      <trkpt lat="46.68501" lon="5.93965">
        <ele>564.4</ele>
        <time>2019-11-13T13:29:38Z</time>
      </trkpt>
      <trkpt lat="46.68502" lon="5.93973">
        <ele>564.6</ele>
        <time>2019-11-13T13:29:44Z</time>
      </trkpt>
      <trkpt lat="46.68504" lon="5.9398">
        <ele>564.8</ele>
        <time>2019-11-13T13:29:49Z</time>
      </trkpt>
      <trkpt lat="46.68504" lon="5.93987">
        <ele>565</ele>
        <time>2019-11-13T13:29:54Z</time>
      </trkpt>
      <trkpt lat="46.68506" lon="5.93994">
        <ele>564.9</ele>
        <time>2019-11-13T13:30:00Z</time>
      </trkpt>
      <trkpt lat="46.68508" lon="5.94">
        <ele>564</ele>
        <time>2019-11-13T13:30:07Z</time>
      </trkpt>
      <trkpt lat="46.68515" lon="5.94005">
        <ele>558.9</ele>
        <time>2019-11-13T13:30:21Z</time>
      </trkpt>
      <trkpt lat="46.68521" lon="5.94007">
        <ele>557.4</ele>
        <time>2019-11-13T13:30:25Z</time>
      </trkpt>
      <trkpt lat="46.68526" lon="5.94009">
        <ele>555.5</ele>
        <time>2019-11-13T13:30:28Z</time>
      </trkpt>
      <trkpt lat="46.68539" lon="5.94006">
        <ele>548.2</ele>
        <time>2019-11-13T13:30:40Z</time>
      </trkpt>
      <trkpt lat="46.68544" lon="5.94005">
        <ele>547.8</ele>
        <time>2019-11-13T13:30:44Z</time>
      </trkpt>
      <trkpt lat="46.68556" lon="5.94009">
        <ele>544.9</ele>
        <time>2019-11-13T13:30:54Z</time>
      </trkpt>
      <trkpt lat="46.68561" lon="5.9401">
        <ele>544.7</ele>
        <time>2019-11-13T13:30:58Z</time>
      </trkpt>
      <trkpt lat="46.68566" lon="5.94014">
        <ele>544.8</ele>
        <time>2019-11-13T13:31:02Z</time>
      </trkpt>
      <trkpt lat="46.68571" lon="5.94017">
        <ele>544.9</ele>
        <time>2019-11-13T13:31:07Z</time>
      </trkpt>
      <trkpt lat="46.68575" lon="5.9402">
        <ele>545</ele>
        <time>2019-11-13T13:31:11Z</time>
      </trkpt>
      <trkpt lat="46.68579" lon="5.94025">
        <ele>544.9</ele>
        <time>2019-11-13T13:31:16Z</time>
      </trkpt>
      <trkpt lat="46.68583" lon="5.94029">
        <ele>544.6</ele>
        <time>2019-11-13T13:31:19Z</time>
      </trkpt>
      <trkpt lat="46.68586" lon="5.94035">
        <ele>544.4</ele>
        <time>2019-11-13T13:31:22Z</time>
      </trkpt>
      <trkpt lat="46.6859" lon="5.9404">
        <ele>544.5</ele>
        <time>2019-11-13T13:31:25Z</time>
      </trkpt>
      <trkpt lat="46.68594" lon="5.94044">
        <ele>544.8</ele>
        <time>2019-11-13T13:31:28Z</time>
      </trkpt>
      <trkpt lat="46.68597" lon="5.94049">
        <ele>545.3</ele>
        <time>2019-11-13T13:31:31Z</time>
      </trkpt>
      <trkpt lat="46.68603" lon="5.94055">
        <ele>546.5</ele>
        <time>2019-11-13T13:31:35Z</time>
      </trkpt>
      <trkpt lat="46.68607" lon="5.94059">
        <ele>547.6</ele>
        <time>2019-11-13T13:31:38Z</time>
      </trkpt>
      <trkpt lat="46.6861" lon="5.94066">
        <ele>548.7</ele>
        <time>2019-11-13T13:31:41Z</time>
      </trkpt>
      <trkpt lat="46.68615" lon="5.94066">
        <ele>550</ele>
        <time>2019-11-13T13:31:51Z</time>
      </trkpt>
      <trkpt lat="46.6862" lon="5.94064">
        <ele>548.7</ele>
        <time>2019-11-13T13:31:57Z</time>
      </trkpt>
      <trkpt lat="46.68624" lon="5.94061">
        <ele>547.2</ele>
        <time>2019-11-13T13:32:01Z</time>
      </trkpt>
      <trkpt lat="46.68629" lon="5.94061">
        <ele>545.3</ele>
        <time>2019-11-13T13:32:05Z</time>
      </trkpt>
      <trkpt lat="46.68634" lon="5.94058">
        <ele>544.1</ele>
        <time>2019-11-13T13:32:07Z</time>
      </trkpt>
      <trkpt lat="46.68641" lon="5.94054">
        <ele>542.1</ele>
        <time>2019-11-13T13:32:10Z</time>
      </trkpt>
      <trkpt lat="46.68646" lon="5.94054">
        <ele>540</ele>
        <time>2019-11-13T13:32:13Z</time>
      </trkpt>
      <trkpt lat="46.68652" lon="5.94053">
        <ele>538.6</ele>
        <time>2019-11-13T13:32:15Z</time>
      </trkpt>
      <trkpt lat="46.68657" lon="5.94051">
        <ele>537.2</ele>
        <time>2019-11-13T13:32:17Z</time>
      </trkpt>
      <trkpt lat="46.68666" lon="5.94051">
        <ele>531.3</ele>
        <time>2019-11-13T13:32:26Z</time>
      </trkpt>
      <trkpt lat="46.68672" lon="5.94053">
        <ele>530.7</ele>
        <time>2019-11-13T13:32:32Z</time>
      </trkpt>
      <trkpt lat="46.68676" lon="5.94057">
        <ele>530.6</ele>
        <time>2019-11-13T13:32:37Z</time>
      </trkpt>
      <trkpt lat="46.68679" lon="5.94064">
        <ele>530.5</ele>
        <time>2019-11-13T13:32:41Z</time>
      </trkpt>
      <trkpt lat="46.6868" lon="5.94071">
        <ele>530.4</ele>
        <time>2019-11-13T13:32:44Z</time>
      </trkpt>
      <trkpt lat="46.68684" lon="5.94076">
        <ele>530.4</ele>
        <time>2019-11-13T13:32:49Z</time>
      </trkpt>
      <trkpt lat="46.68697" lon="5.94082">
        <ele>532.1</ele>
        <time>2019-11-13T13:33:03Z</time>
      </trkpt>
      <trkpt lat="46.68702" lon="5.94082">
        <ele>532.4</ele>
        <time>2019-11-13T13:33:08Z</time>
      </trkpt>
      <trkpt lat="46.68707" lon="5.94083">
        <ele>533</ele>
        <time>2019-11-13T13:33:14Z</time>
      </trkpt>
      <trkpt lat="46.68712" lon="5.94082">
        <ele>533.6</ele>
        <time>2019-11-13T13:33:19Z</time>
      </trkpt>
      <trkpt lat="46.68716" lon="5.94083">
        <ele>534.4</ele>
        <time>2019-11-13T13:33:25Z</time>
      </trkpt>
      <trkpt lat="46.68721" lon="5.94083">
        <ele>534.7</ele>
        <time>2019-11-13T13:33:28Z</time>
      </trkpt>
      <trkpt lat="46.68727" lon="5.94082">
        <ele>534.9</ele>
        <time>2019-11-13T13:33:32Z</time>
      </trkpt>
      <trkpt lat="46.68733" lon="5.94084">
        <ele>535</ele>
        <time>2019-11-13T13:33:35Z</time>
      </trkpt>
      <trkpt lat="46.68738" lon="5.94083">
        <ele>534.8</ele>
        <time>2019-11-13T13:33:39Z</time>
      </trkpt>
      <trkpt lat="46.68742" lon="5.94086">
        <ele>534.2</ele>
        <time>2019-11-13T13:33:45Z</time>
      </trkpt>
      <trkpt lat="46.68749" lon="5.94087">
        <ele>533.2</ele>
        <time>2019-11-13T13:33:52Z</time>
      </trkpt>
      <trkpt lat="46.68753" lon="5.94085">
        <ele>532.8</ele>
        <time>2019-11-13T13:33:55Z</time>
      </trkpt>
      <trkpt lat="46.68758" lon="5.94082">
        <ele>532.4</ele>
        <time>2019-11-13T13:33:59Z</time>
      </trkpt>
      <trkpt lat="46.68763" lon="5.94081">
        <ele>532.1</ele>
        <time>2019-11-13T13:34:02Z</time>
      </trkpt>
      <trkpt lat="46.68767" lon="5.94078">
        <ele>531.2</ele>
        <time>2019-11-13T13:34:07Z</time>
      </trkpt>
      <trkpt lat="46.68772" lon="5.94074">
        <ele>529</ele>
        <time>2019-11-13T13:34:12Z</time>
      </trkpt>
      <trkpt lat="46.68776" lon="5.94073">
        <ele>526</ele>
        <time>2019-11-13T13:34:17Z</time>
      </trkpt>
      <trkpt lat="46.68782" lon="5.94075">
        <ele>523</ele>
        <time>2019-11-13T13:34:22Z</time>
      </trkpt>
      <trkpt lat="46.68796" lon="5.94074">
        <ele>516.4</ele>
        <time>2019-11-13T13:34:32Z</time>
      </trkpt>
      <trkpt lat="46.68801" lon="5.94078">
        <ele>516.1</ele>
        <time>2019-11-13T13:34:36Z</time>
      </trkpt>
      <trkpt lat="46.68805" lon="5.94081">
        <ele>515.9</ele>
        <time>2019-11-13T13:34:41Z</time>
      </trkpt>
      <trkpt lat="46.68809" lon="5.94085">
        <ele>515.5</ele>
        <time>2019-11-13T13:34:48Z</time>
      </trkpt>
      <trkpt lat="46.68814" lon="5.94083">
        <ele>515.6</ele>
        <time>2019-11-13T13:34:53Z</time>
      </trkpt>
      <trkpt lat="46.68819" lon="5.94082">
        <ele>515.3</ele>
        <time>2019-11-13T13:34:57Z</time>
      </trkpt>
      <trkpt lat="46.68824" lon="5.94083">
        <ele>515.1</ele>
        <time>2019-11-13T13:35:00Z</time>
      </trkpt>
      <trkpt lat="46.6883" lon="5.94085">
        <ele>515.1</ele>
        <time>2019-11-13T13:35:04Z</time>
      </trkpt>
      <trkpt lat="46.68834" lon="5.94084">
        <ele>515.2</ele>
        <time>2019-11-13T13:35:06Z</time>
      </trkpt>
      <trkpt lat="46.6884" lon="5.94085">
        <ele>515.6</ele>
        <time>2019-11-13T13:35:10Z</time>
      </trkpt>
      <trkpt lat="46.68844" lon="5.94087">
        <ele>516.3</ele>
        <time>2019-11-13T13:35:15Z</time>
      </trkpt>
      <trkpt lat="46.68848" lon="5.94091">
        <ele>517.6</ele>
        <time>2019-11-13T13:35:20Z</time>
      </trkpt>
      <trkpt lat="46.68853" lon="5.94093">
        <ele>521.7</ele>
        <time>2019-11-13T13:35:31Z</time>
      </trkpt>
      <trkpt lat="46.68862" lon="5.94092">
        <ele>525.3</ele>
        <time>2019-11-13T13:35:39Z</time>
      </trkpt>
      <trkpt lat="46.68868" lon="5.94091">
        <ele>525.8</ele>
        <time>2019-11-13T13:35:43Z</time>
      </trkpt>
      <trkpt lat="46.68873" lon="5.9409">
        <ele>526.1</ele>
        <time>2019-11-13T13:35:46Z</time>
      </trkpt>
      <trkpt lat="46.68878" lon="5.94089">
        <ele>526.4</ele>
        <time>2019-11-13T13:35:49Z</time>
      </trkpt>
      <trkpt lat="46.68883" lon="5.94091">
        <ele>526.8</ele>
        <time>2019-11-13T13:35:53Z</time>
      </trkpt>
      <trkpt lat="46.68888" lon="5.9409">
        <ele>526.1</ele>
        <time>2019-11-13T13:36:00Z</time>
      </trkpt>
      <trkpt lat="46.68896" lon="5.9409">
        <ele>520.7</ele>
        <time>2019-11-13T13:36:09Z</time>
      </trkpt>
      <trkpt lat="46.68901" lon="5.9409">
        <ele>519.4</ele>
        <time>2019-11-13T13:36:12Z</time>
      </trkpt>
      <trkpt lat="46.68908" lon="5.94092">
        <ele>517</ele>
        <time>2019-11-13T13:36:18Z</time>
      </trkpt>
      <trkpt lat="46.68913" lon="5.94092">
        <ele>516</ele>
        <time>2019-11-13T13:36:21Z</time>
      </trkpt>
      <trkpt lat="46.68918" lon="5.94095">
        <ele>514.9</ele>
        <time>2019-11-13T13:36:25Z</time>
      </trkpt>
      <trkpt lat="46.68922" lon="5.94098">
        <ele>514.1</ele>
        <time>2019-11-13T13:36:31Z</time>
      </trkpt>
      <trkpt lat="46.68926" lon="5.94101">
        <ele>514.1</ele>
        <time>2019-11-13T13:36:37Z</time>
      </trkpt>
      <trkpt lat="46.68933" lon="5.94102">
        <ele>514.2</ele>
        <time>2019-11-13T13:36:41Z</time>
      </trkpt>
      <trkpt lat="46.68939" lon="5.94101">
        <ele>514.3</ele>
        <time>2019-11-13T13:36:44Z</time>
      </trkpt>
      <trkpt lat="46.68944" lon="5.94101">
        <ele>514.5</ele>
        <time>2019-11-13T13:36:48Z</time>
      </trkpt>
      <trkpt lat="46.68949" lon="5.94101">
        <ele>514.7</ele>
        <time>2019-11-13T13:36:52Z</time>
      </trkpt>
      <trkpt lat="46.68954" lon="5.94102">
        <ele>514.9</ele>
        <time>2019-11-13T13:36:56Z</time>
      </trkpt>
      <trkpt lat="46.68957" lon="5.94107">
        <ele>515.1</ele>
        <time>2019-11-13T13:37:00Z</time>
      </trkpt>
      <trkpt lat="46.68963" lon="5.94108">
        <ele>515.2</ele>
        <time>2019-11-13T13:37:06Z</time>
      </trkpt>
      <trkpt lat="46.68968" lon="5.94107">
        <ele>515.5</ele>
        <time>2019-11-13T13:37:12Z</time>
      </trkpt>
      <trkpt lat="46.68972" lon="5.94108">
        <ele>516</ele>
        <time>2019-11-13T13:37:16Z</time>
      </trkpt>
      <trkpt lat="46.68978" lon="5.94109">
        <ele>516.9</ele>
        <time>2019-11-13T13:37:21Z</time>
      </trkpt>
      <trkpt lat="46.68982" lon="5.94111">
        <ele>517.8</ele>
        <time>2019-11-13T13:37:26Z</time>
      </trkpt>
      <trkpt lat="46.68988" lon="5.94115">
        <ele>518.7</ele>
        <time>2019-11-13T13:37:32Z</time>
      </trkpt>
      <trkpt lat="46.68993" lon="5.94117">
        <ele>519</ele>
        <time>2019-11-13T13:37:35Z</time>
      </trkpt>
      <trkpt lat="46.68998" lon="5.94117">
        <ele>519.2</ele>
        <time>2019-11-13T13:37:38Z</time>
      </trkpt>
      <trkpt lat="46.69003" lon="5.94118">
        <ele>519.7</ele>
        <time>2019-11-13T13:37:43Z</time>
      </trkpt>
      <trkpt lat="46.69007" lon="5.94119">
        <ele>520</ele>
        <time>2019-11-13T13:37:48Z</time>
      </trkpt>
      <trkpt lat="46.69011" lon="5.94125">
        <ele>519.9</ele>
        <time>2019-11-13T13:37:52Z</time>
      </trkpt>
      <trkpt lat="46.69016" lon="5.94126">
        <ele>520</ele>
        <time>2019-11-13T13:37:58Z</time>
      </trkpt>
      <trkpt lat="46.69021" lon="5.94127">
        <ele>520.1</ele>
        <time>2019-11-13T13:38:03Z</time>
      </trkpt>
      <trkpt lat="46.69026" lon="5.94131">
        <ele>520.3</ele>
        <time>2019-11-13T13:38:07Z</time>
      </trkpt>
      <trkpt lat="46.69031" lon="5.94133">
        <ele>520.6</ele>
        <time>2019-11-13T13:38:11Z</time>
      </trkpt>
      <trkpt lat="46.69036" lon="5.94137">
        <ele>521</ele>
        <time>2019-11-13T13:38:15Z</time>
      </trkpt>
      <trkpt lat="46.69039" lon="5.94142">
        <ele>521.5</ele>
        <time>2019-11-13T13:38:19Z</time>
      </trkpt>
      <trkpt lat="46.69043" lon="5.94147">
        <ele>522</ele>
        <time>2019-11-13T13:38:22Z</time>
      </trkpt>
      <trkpt lat="46.69047" lon="5.94151">
        <ele>522.6</ele>
        <time>2019-11-13T13:38:25Z</time>
      </trkpt>
      <trkpt lat="46.6905" lon="5.94158">
        <ele>523.3</ele>
        <time>2019-11-13T13:38:28Z</time>
      </trkpt>
      <trkpt lat="46.69053" lon="5.94163">
        <ele>524</ele>
        <time>2019-11-13T13:38:31Z</time>
      </trkpt>
      <trkpt lat="46.69056" lon="5.94169">
        <ele>524.9</ele>
        <time>2019-11-13T13:38:35Z</time>
      </trkpt>
      <trkpt lat="46.69058" lon="5.94177">
        <ele>526.4</ele>
        <time>2019-11-13T13:38:41Z</time>
      </trkpt>
      <trkpt lat="46.69057" lon="5.94184">
        <ele>527.7</ele>
        <time>2019-11-13T13:38:47Z</time>
      </trkpt>
      <trkpt lat="46.69054" lon="5.94189">
        <ele>528.5</ele>
        <time>2019-11-13T13:38:57Z</time>
      </trkpt>
      <trkpt lat="46.6905" lon="5.94194">
        <ele>528.1</ele>
        <time>2019-11-13T13:39:03Z</time>
      </trkpt>
      <trkpt lat="46.69047" lon="5.94199">
        <ele>527.8</ele>
        <time>2019-11-13T13:39:08Z</time>
      </trkpt>
      <trkpt lat="46.69044" lon="5.94206">
        <ele>527.9</ele>
        <time>2019-11-13T13:39:11Z</time>
      </trkpt>
      <trkpt lat="46.69039" lon="5.94213">
        <ele>528</ele>
        <time>2019-11-13T13:39:14Z</time>
      </trkpt>
      <trkpt lat="46.69034" lon="5.94216">
        <ele>527.9</ele>
        <time>2019-11-13T13:39:16Z</time>
      </trkpt>
      <trkpt lat="46.6903" lon="5.94219">
        <ele>527.7</ele>
        <time>2019-11-13T13:39:18Z</time>
      </trkpt>
      <trkpt lat="46.69026" lon="5.94225">
        <ele>527.5</ele>
        <time>2019-11-13T13:39:21Z</time>
      </trkpt>
      <trkpt lat="46.69023" lon="5.94229">
        <ele>527.4</ele>
        <time>2019-11-13T13:39:24Z</time>
      </trkpt>
      <trkpt lat="46.69018" lon="5.94234">
        <ele>527.5</ele>
        <time>2019-11-13T13:39:27Z</time>
      </trkpt>
      <trkpt lat="46.69013" lon="5.94237">
        <ele>527.4</ele>
        <time>2019-11-13T13:39:30Z</time>
      </trkpt>
      <trkpt lat="46.69008" lon="5.94239">
        <ele>527.2</ele>
        <time>2019-11-13T13:39:33Z</time>
      </trkpt>
      <trkpt lat="46.69003" lon="5.9424">
        <ele>526.7</ele>
        <time>2019-11-13T13:39:36Z</time>
      </trkpt>
      <trkpt lat="46.68998" lon="5.94244">
        <ele>525.7</ele>
        <time>2019-11-13T13:39:40Z</time>
      </trkpt>
      <trkpt lat="46.68994" lon="5.94248">
        <ele>524.9</ele>
        <time>2019-11-13T13:39:43Z</time>
      </trkpt>
      <trkpt lat="46.68991" lon="5.94253">
        <ele>522</ele>
        <time>2019-11-13T13:39:57Z</time>
      </trkpt>
      <trkpt lat="46.68988" lon="5.94259">
        <ele>521.1</ele>
        <time>2019-11-13T13:40:03Z</time>
      </trkpt>
      <trkpt lat="46.68984" lon="5.94262">
        <ele>520.3</ele>
        <time>2019-11-13T13:40:07Z</time>
      </trkpt>
      <trkpt lat="46.68979" lon="5.94264">
        <ele>519</ele>
        <time>2019-11-13T13:40:11Z</time>
      </trkpt>
      <trkpt lat="46.68974" lon="5.94265">
        <ele>517</ele>
        <time>2019-11-13T13:40:17Z</time>
      </trkpt>
      <trkpt lat="46.68969" lon="5.94267">
        <ele>513.7</ele>
        <time>2019-11-13T13:40:29Z</time>
      </trkpt>
      <trkpt lat="46.68968" lon="5.94274">
        <ele>513.1</ele>
        <time>2019-11-13T13:40:34Z</time>
      </trkpt>
      <trkpt lat="46.68966" lon="5.9428">
        <ele>513.1</ele>
        <time>2019-11-13T13:40:37Z</time>
      </trkpt>
      <trkpt lat="46.68964" lon="5.9429">
        <ele>513.5</ele>
        <time>2019-11-13T13:40:40Z</time>
      </trkpt>
      <trkpt lat="46.68963" lon="5.94299">
        <ele>514</ele>
        <time>2019-11-13T13:40:42Z</time>
      </trkpt>
      <trkpt lat="46.68962" lon="5.94308">
        <ele>514.5</ele>
        <time>2019-11-13T13:40:44Z</time>
      </trkpt>
      <trkpt lat="46.68961" lon="5.94315">
        <ele>515.1</ele>
        <time>2019-11-13T13:40:46Z</time>
      </trkpt>
      <trkpt lat="46.68959" lon="5.94324">
        <ele>516</ele>
        <time>2019-11-13T13:40:49Z</time>
      </trkpt>
      <trkpt lat="46.68957" lon="5.94331">
        <ele>517.3</ele>
        <time>2019-11-13T13:40:53Z</time>
      </trkpt>
      <trkpt lat="46.68954" lon="5.94336">
        <ele>518.6</ele>
        <time>2019-11-13T13:40:57Z</time>
      </trkpt>
      <trkpt lat="46.68951" lon="5.94343">
        <ele>520</ele>
        <time>2019-11-13T13:41:01Z</time>
      </trkpt>
      <trkpt lat="46.68949" lon="5.9435">
        <ele>521.3</ele>
        <time>2019-11-13T13:41:05Z</time>
      </trkpt>
      <trkpt lat="46.68948" lon="5.94358">
        <ele>522.2</ele>
        <time>2019-11-13T13:41:09Z</time>
      </trkpt>
      <trkpt lat="46.68947" lon="5.94365">
        <ele>522.8</ele>
        <time>2019-11-13T13:41:13Z</time>
      </trkpt>
      <trkpt lat="46.68946" lon="5.94372">
        <ele>523.4</ele>
        <time>2019-11-13T13:41:17Z</time>
      </trkpt>
      <trkpt lat="46.68945" lon="5.9438">
        <ele>523.9</ele>
        <time>2019-11-13T13:41:21Z</time>
      </trkpt>
      <trkpt lat="46.68944" lon="5.94388">
        <ele>524.6</ele>
        <time>2019-11-13T13:41:26Z</time>
      </trkpt>
      <trkpt lat="46.68943" lon="5.94396">
        <ele>525.5</ele>
        <time>2019-11-13T13:41:31Z</time>
      </trkpt>
      <trkpt lat="46.68942" lon="5.94403">
        <ele>526.2</ele>
        <time>2019-11-13T13:41:35Z</time>
      </trkpt>
      <trkpt lat="46.68942" lon="5.94411">
        <ele>526.9</ele>
        <time>2019-11-13T13:41:39Z</time>
      </trkpt>
      <trkpt lat="46.68942" lon="5.94419">
        <ele>527.5</ele>
        <time>2019-11-13T13:41:44Z</time>
      </trkpt>
      <trkpt lat="46.68942" lon="5.94427">
        <ele>528</ele>
        <time>2019-11-13T13:41:49Z</time>
      </trkpt>
      <trkpt lat="46.68941" lon="5.94435">
        <ele>528.3</ele>
        <time>2019-11-13T13:41:53Z</time>
      </trkpt>
      <trkpt lat="46.68941" lon="5.94442">
        <ele>528.7</ele>
        <time>2019-11-13T13:41:57Z</time>
      </trkpt>
      <trkpt lat="46.6894" lon="5.94449">
        <ele>529.3</ele>
        <time>2019-11-13T13:42:03Z</time>
      </trkpt>
      <trkpt lat="46.68938" lon="5.94457">
        <ele>529.8</ele>
        <time>2019-11-13T13:42:07Z</time>
      </trkpt>
      <trkpt lat="46.68937" lon="5.94463">
        <ele>530.3</ele>
        <time>2019-11-13T13:42:11Z</time>
      </trkpt>
      <trkpt lat="46.68936" lon="5.94472">
        <ele>530.6</ele>
        <time>2019-11-13T13:42:16Z</time>
      </trkpt>
      <trkpt lat="46.68936" lon="5.9448">
        <ele>530.5</ele>
        <time>2019-11-13T13:42:20Z</time>
      </trkpt>
      <trkpt lat="46.68935" lon="5.94488">
        <ele>530.4</ele>
        <time>2019-11-13T13:42:24Z</time>
      </trkpt>
      <trkpt lat="46.68936" lon="5.94496">
        <ele>530.2</ele>
        <time>2019-11-13T13:42:28Z</time>
      </trkpt>
      <trkpt lat="46.68936" lon="5.94503">
        <ele>530</ele>
        <time>2019-11-13T13:42:32Z</time>
      </trkpt>
      <trkpt lat="46.68936" lon="5.9451">
        <ele>530</ele>
        <time>2019-11-13T13:42:35Z</time>
      </trkpt>
      <trkpt lat="46.68937" lon="5.94518">
        <ele>530.1</ele>
        <time>2019-11-13T13:42:39Z</time>
      </trkpt>
      <trkpt lat="46.68937" lon="5.94525">
        <ele>530.2</ele>
        <time>2019-11-13T13:42:43Z</time>
      </trkpt>
      <trkpt lat="46.68936" lon="5.94533">
        <ele>530.2</ele>
        <time>2019-11-13T13:42:47Z</time>
      </trkpt>
      <trkpt lat="46.68935" lon="5.9454">
        <ele>530.2</ele>
        <time>2019-11-13T13:42:51Z</time>
      </trkpt>
      <trkpt lat="46.68936" lon="5.94547">
        <ele>530.1</ele>
        <time>2019-11-13T13:42:56Z</time>
      </trkpt>
      <trkpt lat="46.68936" lon="5.94555">
        <ele>530</ele>
        <time>2019-11-13T13:43:00Z</time>
      </trkpt>
      <trkpt lat="46.68935" lon="5.94562">
        <ele>530</ele>
        <time>2019-11-13T13:43:03Z</time>
      </trkpt>
      <trkpt lat="46.68935" lon="5.94569">
        <ele>530</ele>
        <time>2019-11-13T13:43:06Z</time>
      </trkpt>
      <trkpt lat="46.68934" lon="5.94577">
        <ele>530.2</ele>
        <time>2019-11-13T13:43:11Z</time>
      </trkpt>
      <trkpt lat="46.68932" lon="5.94583">
        <ele>530.1</ele>
        <time>2019-11-13T13:43:16Z</time>
      </trkpt>
      <trkpt lat="46.6893" lon="5.9459">
        <ele>530.1</ele>
        <time>2019-11-13T13:43:20Z</time>
      </trkpt>
      <trkpt lat="46.68929" lon="5.94597">
        <ele>530.2</ele>
        <time>2019-11-13T13:43:24Z</time>
      </trkpt>
      <trkpt lat="46.68928" lon="5.94604">
        <ele>530.4</ele>
        <time>2019-11-13T13:43:28Z</time>
      </trkpt>
      <trkpt lat="46.68928" lon="5.94613">
        <ele>530.5</ele>
        <time>2019-11-13T13:43:32Z</time>
      </trkpt>
      <trkpt lat="46.68929" lon="5.94621">
        <ele>530.6</ele>
        <time>2019-11-13T13:43:36Z</time>
      </trkpt>
      <trkpt lat="46.68929" lon="5.94629">
        <ele>530.7</ele>
        <time>2019-11-13T13:43:40Z</time>
      </trkpt>
      <trkpt lat="46.6893" lon="5.94636">
        <ele>530.8</ele>
        <time>2019-11-13T13:43:44Z</time>
      </trkpt>
      <trkpt lat="46.68931" lon="5.94642">
        <ele>531</ele>
        <time>2019-11-13T13:43:48Z</time>
      </trkpt>
      <trkpt lat="46.6893" lon="5.94651">
        <ele>531.1</ele>
        <time>2019-11-13T13:43:53Z</time>
      </trkpt>
      <trkpt lat="46.6893" lon="5.94657">
        <ele>531</ele>
        <time>2019-11-13T13:43:57Z</time>
      </trkpt>
      <trkpt lat="46.68929" lon="5.94664">
        <ele>530.9</ele>
        <time>2019-11-13T13:44:01Z</time>
      </trkpt>
      <trkpt lat="46.68928" lon="5.94672">
        <ele>530.7</ele>
        <time>2019-11-13T13:44:05Z</time>
      </trkpt>
      <trkpt lat="46.68926" lon="5.94677">
        <ele>530.5</ele>
        <time>2019-11-13T13:44:10Z</time>
      </trkpt>
      <trkpt lat="46.68924" lon="5.94684">
        <ele>530.3</ele>
        <time>2019-11-13T13:44:13Z</time>
      </trkpt>
      <trkpt lat="46.68921" lon="5.9469">
        <ele>529.8</ele>
        <time>2019-11-13T13:44:16Z</time>
      </trkpt>
      <trkpt lat="46.68917" lon="5.94694">
        <ele>529.1</ele>
        <time>2019-11-13T13:44:19Z</time>
      </trkpt>
      <trkpt lat="46.68913" lon="5.94697">
        <ele>527.7</ele>
        <time>2019-11-13T13:44:24Z</time>
      </trkpt>
      <trkpt lat="46.68908" lon="5.94699">
        <ele>526.1</ele>
        <time>2019-11-13T13:44:28Z</time>
      </trkpt>
      <trkpt lat="46.68903" lon="5.94699">
        <ele>524.2</ele>
        <time>2019-11-13T13:44:32Z</time>
      </trkpt>
      <trkpt lat="46.68898" lon="5.94701">
        <ele>521.8</ele>
        <time>2019-11-13T13:44:36Z</time>
      </trkpt>
      <trkpt lat="46.68893" lon="5.94701">
        <ele>517.5</ele>
        <time>2019-11-13T13:44:43Z</time>
      </trkpt>
      <trkpt lat="46.68891" lon="5.94707">
        <ele>513.9</ele>
        <time>2019-11-13T13:44:49Z</time>
      </trkpt>
      <trkpt lat="46.68889" lon="5.94713">
        <ele>511.2</ele>
        <time>2019-11-13T13:44:55Z</time>
      </trkpt>
      <trkpt lat="46.68887" lon="5.94719">
        <ele>509.4</ele>
        <time>2019-11-13T13:45:00Z</time>
      </trkpt>
    </trkseg>
  </trk>
</gpx>